<?xml version="1.0" encoding="UTF-8" standalone="no" ?>
<gpx xmlns="http://www.topografix.com/GPX/1/1" xmlns:xsi="http://www.w3.org/2001/XMLSchema-instance" xsi:schemaLocation="http://www.topografix.com/GPX/1/1 http://www.topografix.com/GPX/1/1/gpx.xsd" version="1.1" creator="VisuGPX - https://www.visugpx.com">
  <metadata>
    <name>trip septembre</name>
  </metadata>
  <wpt lat="50.83956" lon="1.59443">
    <ele>51.1</ele>
    <name><![CDATA[Batterie Todt]]></name>
    <type><![CDATA[user]]></type>
  </wpt>
  <wpt lat="50.82679" lon="2.18225">
    <ele>10.6</ele>
    <name><![CDATA[Blockhaus D'Éperlecques]]></name>
    <type><![CDATA[user]]></type>
  </wpt>
  <wpt lat="50.70075" lon="2.09689">
    <ele>56</ele>
    <name><![CDATA[Le Moulin de Mombreux]]></name>
    <type><![CDATA[user]]></type>
  </wpt>
  <wpt lat="50.38697" lon="2.32159">
    <ele>82.6</ele>
    <name><![CDATA[www.lesballastieres.com]]></name>
    <type><![CDATA[user]]></type>
  </wpt>
  <wpt lat="50.83956" lon="1.59443">
    <ele>51.1</ele>
    <name><![CDATA[Batterie Todt]]></name>
    <type><![CDATA[user]]></type>
  </wpt>
  <wpt lat="50.82679" lon="2.18225">
    <ele>10.6</ele>
    <name><![CDATA[Blockhaus D'Éperlecques]]></name>
    <type><![CDATA[user]]></type>
  </wpt>
  <wpt lat="50.70075" lon="2.09689">
    <ele>56</ele>
    <name><![CDATA[Le Moulin de Mombreux]]></name>
    <type><![CDATA[user]]></type>
  </wpt>
  <wpt lat="50.38697" lon="2.32159">
    <ele>82.6</ele>
    <name><![CDATA[www.lesballastieres.com]]></name>
    <type><![CDATA[user]]></type>
  </wpt>
  <wpt lat="45.20002" lon="5.42078">
    <ele>251.8</ele>
    <name><![CDATA[400 La Plaine de Buissonnière]]></name>
    <type><![CDATA[ 38470 Vinay]]></type>
  </wpt>
  <wpt lat="45.08552" lon="5.46765">
    <ele>694.9</ele>
    <name><![CDATA[31b Les Granges]]></name>
    <type><![CDATA[ 26420 Rencurel]]></type>
  </wpt>
  <trk>
    <name><![CDATA[Le Cormet d'Arêche]]></name>
    <extensions>
      <line xmlns="http://www.topografix.com/GPX/gpx_style/0/2">
        <color>bd0000</color>
        <width>4</width>
      </line>
    </extensions>
    <trkseg>
      <trkpt lat="45.68053" lon="6.5762">
        <ele>1183.66</ele>
        <time>2019-10-14T08:02:49.000Z</time>
      </trkpt>
      <trkpt lat="45.68053" lon="6.5762">
        <ele>1183.66</ele>
        <time>2019-10-14T08:02:49.000Z</time>
      </trkpt>
      <trkpt lat="45.68053" lon="6.5762">
        <ele>1183.66</ele>
        <time>2019-10-14T08:02:49.000Z</time>
      </trkpt>
      <trkpt lat="45.68053" lon="6.5762">
        <ele>1183.66</ele>
        <time>2019-10-14T08:02:49.000Z</time>
      </trkpt>
      <trkpt lat="45.68063" lon="6.57618">
        <ele>1185.46</ele>
        <time>2019-10-14T08:03:31.000Z</time>
      </trkpt>
      <trkpt lat="45.68075" lon="6.57635">
        <ele>1181.38</ele>
        <time>2019-10-14T08:03:36.000Z</time>
      </trkpt>
      <trkpt lat="45.68087" lon="6.57652">
        <ele>1182.71</ele>
        <time>2019-10-14T08:03:41.000Z</time>
      </trkpt>
      <trkpt lat="45.68098" lon="6.57668">
        <ele>1184.67</ele>
        <time>2019-10-14T08:03:46.000Z</time>
      </trkpt>
      <trkpt lat="45.68093" lon="6.57688">
        <ele>1184.39</ele>
        <time>2019-10-14T08:03:51.000Z</time>
      </trkpt>
      <trkpt lat="45.68076" lon="6.57683">
        <ele>1185.35</ele>
        <time>2019-10-14T08:03:56.000Z</time>
      </trkpt>
      <trkpt lat="45.68061" lon="6.57675">
        <ele>1187.05</ele>
        <time>2019-10-14T08:04:01.000Z</time>
      </trkpt>
      <trkpt lat="45.68046" lon="6.57676">
        <ele>1190.25</ele>
        <time>2019-10-14T08:04:06.000Z</time>
      </trkpt>
      <trkpt lat="45.68031" lon="6.57679">
        <ele>1192.8</ele>
        <time>2019-10-14T08:04:11.000Z</time>
      </trkpt>
      <trkpt lat="45.68016" lon="6.57682">
        <ele>1193.42</ele>
        <time>2019-10-14T08:04:16.000Z</time>
      </trkpt>
      <trkpt lat="45.68" lon="6.57681">
        <ele>1195.71</ele>
        <time>2019-10-14T08:04:21.000Z</time>
      </trkpt>
      <trkpt lat="45.67987" lon="6.5767">
        <ele>1192.86</ele>
        <time>2019-10-14T08:04:26.000Z</time>
      </trkpt>
      <trkpt lat="45.67976" lon="6.57671">
        <ele>1196.07</ele>
        <time>2019-10-14T08:04:31.000Z</time>
      </trkpt>
      <trkpt lat="45.67974" lon="6.57692">
        <ele>1196.83</ele>
        <time>2019-10-14T08:04:36.000Z</time>
      </trkpt>
      <trkpt lat="45.67991" lon="6.57705">
        <ele>1200.9</ele>
        <time>2019-10-14T08:04:41.000Z</time>
      </trkpt>
      <trkpt lat="45.68003" lon="6.5772">
        <ele>1202.02</ele>
        <time>2019-10-14T08:04:46.000Z</time>
      </trkpt>
      <trkpt lat="45.68015" lon="6.57733">
        <ele>1201.84</ele>
        <time>2019-10-14T08:04:51.000Z</time>
      </trkpt>
      <trkpt lat="45.68026" lon="6.57746">
        <ele>1201.23</ele>
        <time>2019-10-14T08:04:56.000Z</time>
      </trkpt>
      <trkpt lat="45.68036" lon="6.57764">
        <ele>1200.57</ele>
        <time>2019-10-14T08:05:01.000Z</time>
      </trkpt>
      <trkpt lat="45.68044" lon="6.57782">
        <ele>1199.66</ele>
        <time>2019-10-14T08:05:06.000Z</time>
      </trkpt>
      <trkpt lat="45.68056" lon="6.57795">
        <ele>1198.7</ele>
        <time>2019-10-14T08:05:11.000Z</time>
      </trkpt>
      <trkpt lat="45.68068" lon="6.57807">
        <ele>1197.2</ele>
        <time>2019-10-14T08:05:16.000Z</time>
      </trkpt>
      <trkpt lat="45.68081" lon="6.57823">
        <ele>1195.29</ele>
        <time>2019-10-14T08:05:21.000Z</time>
      </trkpt>
      <trkpt lat="45.68097" lon="6.57832">
        <ele>1199.03</ele>
        <time>2019-10-14T08:05:26.000Z</time>
      </trkpt>
      <trkpt lat="45.68114" lon="6.57832">
        <ele>1202.92</ele>
        <time>2019-10-14T08:05:31.000Z</time>
      </trkpt>
      <trkpt lat="45.6813" lon="6.57827">
        <ele>1208.2</ele>
        <time>2019-10-14T08:05:36.000Z</time>
      </trkpt>
      <trkpt lat="45.68141" lon="6.57834">
        <ele>1210.16</ele>
        <time>2019-10-14T08:05:41.000Z</time>
      </trkpt>
      <trkpt lat="45.68129" lon="6.57848">
        <ele>1211.36</ele>
        <time>2019-10-14T08:05:46.000Z</time>
      </trkpt>
      <trkpt lat="45.68112" lon="6.57843">
        <ele>1213.64</ele>
        <time>2019-10-14T08:05:51.000Z</time>
      </trkpt>
      <trkpt lat="45.68095" lon="6.57836">
        <ele>1214.71</ele>
        <time>2019-10-14T08:05:56.000Z</time>
      </trkpt>
      <trkpt lat="45.68079" lon="6.57837">
        <ele>1213.83</ele>
        <time>2019-10-14T08:06:01.000Z</time>
      </trkpt>
      <trkpt lat="45.68062" lon="6.57837">
        <ele>1213.05</ele>
        <time>2019-10-14T08:06:06.000Z</time>
      </trkpt>
      <trkpt lat="45.68044" lon="6.5783">
        <ele>1214.85</ele>
        <time>2019-10-14T08:06:11.000Z</time>
      </trkpt>
      <trkpt lat="45.68029" lon="6.57826">
        <ele>1217.05</ele>
        <time>2019-10-14T08:06:16.000Z</time>
      </trkpt>
      <trkpt lat="45.68015" lon="6.5783">
        <ele>1217.26</ele>
        <time>2019-10-14T08:06:21.000Z</time>
      </trkpt>
      <trkpt lat="45.68" lon="6.57833">
        <ele>1217.26</ele>
        <time>2019-10-14T08:06:26.000Z</time>
      </trkpt>
      <trkpt lat="45.67984" lon="6.57829">
        <ele>1220.17</ele>
        <time>2019-10-14T08:06:31.000Z</time>
      </trkpt>
      <trkpt lat="45.67969" lon="6.57824">
        <ele>1225</ele>
        <time>2019-10-14T08:06:36.000Z</time>
      </trkpt>
      <trkpt lat="45.67953" lon="6.57819">
        <ele>1228.43</ele>
        <time>2019-10-14T08:06:41.000Z</time>
      </trkpt>
      <trkpt lat="45.67937" lon="6.57816">
        <ele>1228.69</ele>
        <time>2019-10-14T08:06:46.000Z</time>
      </trkpt>
      <trkpt lat="45.67921" lon="6.57812">
        <ele>1231.24</ele>
        <time>2019-10-14T08:06:51.000Z</time>
      </trkpt>
      <trkpt lat="45.67906" lon="6.57815">
        <ele>1232.98</ele>
        <time>2019-10-14T08:06:56.000Z</time>
      </trkpt>
      <trkpt lat="45.67891" lon="6.57823">
        <ele>1236.64</ele>
        <time>2019-10-14T08:07:01.000Z</time>
      </trkpt>
      <trkpt lat="45.67876" lon="6.57826">
        <ele>1237.88</ele>
        <time>2019-10-14T08:07:06.000Z</time>
      </trkpt>
      <trkpt lat="45.6786" lon="6.57826">
        <ele>1238.12</ele>
        <time>2019-10-14T08:07:11.000Z</time>
      </trkpt>
      <trkpt lat="45.67845" lon="6.57822">
        <ele>1238.2</ele>
        <time>2019-10-14T08:07:16.000Z</time>
      </trkpt>
      <trkpt lat="45.6783" lon="6.57816">
        <ele>1243.07</ele>
        <time>2019-10-14T08:07:21.000Z</time>
      </trkpt>
      <trkpt lat="45.67813" lon="6.5781">
        <ele>1243.36</ele>
        <time>2019-10-14T08:07:26.000Z</time>
      </trkpt>
      <trkpt lat="45.67798" lon="6.57807">
        <ele>1242.68</ele>
        <time>2019-10-14T08:07:31.000Z</time>
      </trkpt>
      <trkpt lat="45.67782" lon="6.57807">
        <ele>1237.61</ele>
        <time>2019-10-14T08:07:36.000Z</time>
      </trkpt>
      <trkpt lat="45.67767" lon="6.57808">
        <ele>1242.07</ele>
        <time>2019-10-14T08:07:41.000Z</time>
      </trkpt>
      <trkpt lat="45.67751" lon="6.57811">
        <ele>1247.41</ele>
        <time>2019-10-14T08:07:46.000Z</time>
      </trkpt>
      <trkpt lat="45.67735" lon="6.57812">
        <ele>1245.79</ele>
        <time>2019-10-14T08:07:51.000Z</time>
      </trkpt>
      <trkpt lat="45.67717" lon="6.57811">
        <ele>1243.08</ele>
        <time>2019-10-14T08:07:56.000Z</time>
      </trkpt>
      <trkpt lat="45.67701" lon="6.57811">
        <ele>1243.85</ele>
        <time>2019-10-14T08:08:01.000Z</time>
      </trkpt>
      <trkpt lat="45.67686" lon="6.57812">
        <ele>1240.28</ele>
        <time>2019-10-14T08:08:06.000Z</time>
      </trkpt>
      <trkpt lat="45.67673" lon="6.57818">
        <ele>1243.33</ele>
        <time>2019-10-14T08:08:11.000Z</time>
      </trkpt>
      <trkpt lat="45.67659" lon="6.57827">
        <ele>1245.44</ele>
        <time>2019-10-14T08:08:16.000Z</time>
      </trkpt>
      <trkpt lat="45.67641" lon="6.57828">
        <ele>1248.08</ele>
        <time>2019-10-14T08:08:21.000Z</time>
      </trkpt>
      <trkpt lat="45.67626" lon="6.57829">
        <ele>1253.15</ele>
        <time>2019-10-14T08:08:26.000Z</time>
      </trkpt>
      <trkpt lat="45.67611" lon="6.57832">
        <ele>1256.23</ele>
        <time>2019-10-14T08:08:31.000Z</time>
      </trkpt>
      <trkpt lat="45.67598" lon="6.57838">
        <ele>1259.69</ele>
        <time>2019-10-14T08:08:36.000Z</time>
      </trkpt>
      <trkpt lat="45.67583" lon="6.57842">
        <ele>1258.73</ele>
        <time>2019-10-14T08:08:41.000Z</time>
      </trkpt>
      <trkpt lat="45.67566" lon="6.57844">
        <ele>1261.11</ele>
        <time>2019-10-14T08:08:46.000Z</time>
      </trkpt>
      <trkpt lat="45.67548" lon="6.57848">
        <ele>1264.6</ele>
        <time>2019-10-14T08:08:51.000Z</time>
      </trkpt>
      <trkpt lat="45.67533" lon="6.57855">
        <ele>1267.61</ele>
        <time>2019-10-14T08:08:56.000Z</time>
      </trkpt>
      <trkpt lat="45.67519" lon="6.57864">
        <ele>1264.82</ele>
        <time>2019-10-14T08:09:01.000Z</time>
      </trkpt>
      <trkpt lat="45.67508" lon="6.5788">
        <ele>1266.71</ele>
        <time>2019-10-14T08:09:06.000Z</time>
      </trkpt>
      <trkpt lat="45.67494" lon="6.57887">
        <ele>1268.2</ele>
        <time>2019-10-14T08:09:11.000Z</time>
      </trkpt>
      <trkpt lat="45.6748" lon="6.57888">
        <ele>1269.82</ele>
        <time>2019-10-14T08:09:16.000Z</time>
      </trkpt>
      <trkpt lat="45.67468" lon="6.57894">
        <ele>1273.15</ele>
        <time>2019-10-14T08:09:21.000Z</time>
      </trkpt>
      <trkpt lat="45.67455" lon="6.57904">
        <ele>1274.8</ele>
        <time>2019-10-14T08:09:26.000Z</time>
      </trkpt>
      <trkpt lat="45.67441" lon="6.57914">
        <ele>1276.8</ele>
        <time>2019-10-14T08:09:31.000Z</time>
      </trkpt>
      <trkpt lat="45.67428" lon="6.57924">
        <ele>1277.42</ele>
        <time>2019-10-14T08:09:36.000Z</time>
      </trkpt>
      <trkpt lat="45.67413" lon="6.57928">
        <ele>1283.19</ele>
        <time>2019-10-14T08:09:41.000Z</time>
      </trkpt>
      <trkpt lat="45.674" lon="6.57931">
        <ele>1284.07</ele>
        <time>2019-10-14T08:09:46.000Z</time>
      </trkpt>
      <trkpt lat="45.67388" lon="6.57938">
        <ele>1283.51</ele>
        <time>2019-10-14T08:09:51.000Z</time>
      </trkpt>
      <trkpt lat="45.67374" lon="6.57945">
        <ele>1288.71</ele>
        <time>2019-10-14T08:09:56.000Z</time>
      </trkpt>
      <trkpt lat="45.67358" lon="6.57948">
        <ele>1290.72</ele>
        <time>2019-10-14T08:10:01.000Z</time>
      </trkpt>
      <trkpt lat="45.67342" lon="6.57952">
        <ele>1294.49</ele>
        <time>2019-10-14T08:10:06.000Z</time>
      </trkpt>
      <trkpt lat="45.67327" lon="6.57953">
        <ele>1291.36</ele>
        <time>2019-10-14T08:10:11.000Z</time>
      </trkpt>
      <trkpt lat="45.67313" lon="6.57959">
        <ele>1293.53</ele>
        <time>2019-10-14T08:10:16.000Z</time>
      </trkpt>
      <trkpt lat="45.67298" lon="6.57965">
        <ele>1294.4</ele>
        <time>2019-10-14T08:10:21.000Z</time>
      </trkpt>
      <trkpt lat="45.67282" lon="6.57972">
        <ele>1295.89</ele>
        <time>2019-10-14T08:10:26.000Z</time>
      </trkpt>
      <trkpt lat="45.67268" lon="6.57976">
        <ele>1298.88</ele>
        <time>2019-10-14T08:10:31.000Z</time>
      </trkpt>
      <trkpt lat="45.67253" lon="6.5797">
        <ele>1299.53</ele>
        <time>2019-10-14T08:10:36.000Z</time>
      </trkpt>
      <trkpt lat="45.67238" lon="6.57963">
        <ele>1301.78</ele>
        <time>2019-10-14T08:10:41.000Z</time>
      </trkpt>
      <trkpt lat="45.67224" lon="6.57953">
        <ele>1303.56</ele>
        <time>2019-10-14T08:10:46.000Z</time>
      </trkpt>
      <trkpt lat="45.67214" lon="6.57935">
        <ele>1306.95</ele>
        <time>2019-10-14T08:10:51.000Z</time>
      </trkpt>
      <trkpt lat="45.67204" lon="6.57915">
        <ele>1308.01</ele>
        <time>2019-10-14T08:10:56.000Z</time>
      </trkpt>
      <trkpt lat="45.67195" lon="6.57901">
        <ele>1315.91</ele>
        <time>2019-10-14T08:11:01.000Z</time>
      </trkpt>
      <trkpt lat="45.67183" lon="6.57887">
        <ele>1316.4</ele>
        <time>2019-10-14T08:11:06.000Z</time>
      </trkpt>
      <trkpt lat="45.6717" lon="6.57876">
        <ele>1316.75</ele>
        <time>2019-10-14T08:11:11.000Z</time>
      </trkpt>
      <trkpt lat="45.67158" lon="6.57864">
        <ele>1317.47</ele>
        <time>2019-10-14T08:11:16.000Z</time>
      </trkpt>
      <trkpt lat="45.67148" lon="6.57847">
        <ele>1323.14</ele>
        <time>2019-10-14T08:11:21.000Z</time>
      </trkpt>
      <trkpt lat="45.67143" lon="6.57831">
        <ele>1329.85</ele>
        <time>2019-10-14T08:11:26.000Z</time>
      </trkpt>
      <trkpt lat="45.6713" lon="6.57816">
        <ele>1332.24</ele>
        <time>2019-10-14T08:11:31.000Z</time>
      </trkpt>
      <trkpt lat="45.67118" lon="6.57805">
        <ele>1334.42</ele>
        <time>2019-10-14T08:11:36.000Z</time>
      </trkpt>
      <trkpt lat="45.67103" lon="6.578">
        <ele>1335.02</ele>
        <time>2019-10-14T08:11:41.000Z</time>
      </trkpt>
      <trkpt lat="45.67084" lon="6.57799">
        <ele>1335.88</ele>
        <time>2019-10-14T08:11:46.000Z</time>
      </trkpt>
      <trkpt lat="45.67069" lon="6.578">
        <ele>1337.74</ele>
        <time>2019-10-14T08:11:51.000Z</time>
      </trkpt>
      <trkpt lat="45.67054" lon="6.57801">
        <ele>1339.66</ele>
        <time>2019-10-14T08:11:56.000Z</time>
      </trkpt>
      <trkpt lat="45.67039" lon="6.57799">
        <ele>1341.73</ele>
        <time>2019-10-14T08:12:01.000Z</time>
      </trkpt>
      <trkpt lat="45.67024" lon="6.57798">
        <ele>1342.92</ele>
        <time>2019-10-14T08:12:06.000Z</time>
      </trkpt>
      <trkpt lat="45.67008" lon="6.57796">
        <ele>1344.44</ele>
        <time>2019-10-14T08:12:11.000Z</time>
      </trkpt>
      <trkpt lat="45.66992" lon="6.57797">
        <ele>1344.66</ele>
        <time>2019-10-14T08:12:16.000Z</time>
      </trkpt>
      <trkpt lat="45.66976" lon="6.57795">
        <ele>1344.36</ele>
        <time>2019-10-14T08:12:21.000Z</time>
      </trkpt>
      <trkpt lat="45.66961" lon="6.57794">
        <ele>1344.2</ele>
        <time>2019-10-14T08:12:26.000Z</time>
      </trkpt>
      <trkpt lat="45.66946" lon="6.57798">
        <ele>1346.78</ele>
        <time>2019-10-14T08:12:31.000Z</time>
      </trkpt>
      <trkpt lat="45.66933" lon="6.57809">
        <ele>1352.75</ele>
        <time>2019-10-14T08:12:36.000Z</time>
      </trkpt>
      <trkpt lat="45.66916" lon="6.57811">
        <ele>1355.8</ele>
        <time>2019-10-14T08:12:41.000Z</time>
      </trkpt>
      <trkpt lat="45.669" lon="6.57811">
        <ele>1359.27</ele>
        <time>2019-10-14T08:12:46.000Z</time>
      </trkpt>
      <trkpt lat="45.66884" lon="6.57813">
        <ele>1362.05</ele>
        <time>2019-10-14T08:12:51.000Z</time>
      </trkpt>
      <trkpt lat="45.66869" lon="6.57815">
        <ele>1360.06</ele>
        <time>2019-10-14T08:12:56.000Z</time>
      </trkpt>
      <trkpt lat="45.66855" lon="6.57811">
        <ele>1366.29</ele>
        <time>2019-10-14T08:13:01.000Z</time>
      </trkpt>
      <trkpt lat="45.66837" lon="6.57811">
        <ele>1365</ele>
        <time>2019-10-14T08:13:06.000Z</time>
      </trkpt>
      <trkpt lat="45.66821" lon="6.57806">
        <ele>1366.81</ele>
        <time>2019-10-14T08:13:11.000Z</time>
      </trkpt>
      <trkpt lat="45.66806" lon="6.57799">
        <ele>1367.65</ele>
        <time>2019-10-14T08:13:16.000Z</time>
      </trkpt>
      <trkpt lat="45.66789" lon="6.57799">
        <ele>1364.65</ele>
        <time>2019-10-14T08:13:21.000Z</time>
      </trkpt>
      <trkpt lat="45.66776" lon="6.57814">
        <ele>1364.82</ele>
        <time>2019-10-14T08:13:26.000Z</time>
      </trkpt>
      <trkpt lat="45.66767" lon="6.57832">
        <ele>1364.95</ele>
        <time>2019-10-14T08:13:31.000Z</time>
      </trkpt>
      <trkpt lat="45.6675" lon="6.57836">
        <ele>1366.96</ele>
        <time>2019-10-14T08:13:36.000Z</time>
      </trkpt>
      <trkpt lat="45.66735" lon="6.57841">
        <ele>1366.91</ele>
        <time>2019-10-14T08:13:41.000Z</time>
      </trkpt>
      <trkpt lat="45.66718" lon="6.57844">
        <ele>1371.98</ele>
        <time>2019-10-14T08:13:46.000Z</time>
      </trkpt>
      <trkpt lat="45.66703" lon="6.57846">
        <ele>1372.83</ele>
        <time>2019-10-14T08:13:51.000Z</time>
      </trkpt>
      <trkpt lat="45.66687" lon="6.5785">
        <ele>1370.9</ele>
        <time>2019-10-14T08:13:56.000Z</time>
      </trkpt>
      <trkpt lat="45.66675" lon="6.57858">
        <ele>1367.6</ele>
        <time>2019-10-14T08:14:01.000Z</time>
      </trkpt>
      <trkpt lat="45.66657" lon="6.57865">
        <ele>1369.67</ele>
        <time>2019-10-14T08:14:06.000Z</time>
      </trkpt>
      <trkpt lat="45.6664" lon="6.57871">
        <ele>1375.98</ele>
        <time>2019-10-14T08:14:11.000Z</time>
      </trkpt>
      <trkpt lat="45.66625" lon="6.57878">
        <ele>1379.75</ele>
        <time>2019-10-14T08:14:16.000Z</time>
      </trkpt>
      <trkpt lat="45.6661" lon="6.57879">
        <ele>1382.53</ele>
        <time>2019-10-14T08:14:21.000Z</time>
      </trkpt>
      <trkpt lat="45.66594" lon="6.57886">
        <ele>1376.99</ele>
        <time>2019-10-14T08:14:26.000Z</time>
      </trkpt>
      <trkpt lat="45.66581" lon="6.57899">
        <ele>1377.3</ele>
        <time>2019-10-14T08:14:31.000Z</time>
      </trkpt>
      <trkpt lat="45.66568" lon="6.57905">
        <ele>1378.16</ele>
        <time>2019-10-14T08:14:36.000Z</time>
      </trkpt>
      <trkpt lat="45.66552" lon="6.57912">
        <ele>1378.13</ele>
        <time>2019-10-14T08:14:41.000Z</time>
      </trkpt>
      <trkpt lat="45.66534" lon="6.57917">
        <ele>1379.68</ele>
        <time>2019-10-14T08:14:46.000Z</time>
      </trkpt>
      <trkpt lat="45.66517" lon="6.5792">
        <ele>1379.23</ele>
        <time>2019-10-14T08:14:51.000Z</time>
      </trkpt>
      <trkpt lat="45.66499" lon="6.5792">
        <ele>1381.02</ele>
        <time>2019-10-14T08:14:56.000Z</time>
      </trkpt>
      <trkpt lat="45.66481" lon="6.57926">
        <ele>1383.27</ele>
        <time>2019-10-14T08:15:01.000Z</time>
      </trkpt>
      <trkpt lat="45.66463" lon="6.57928">
        <ele>1386.89</ele>
        <time>2019-10-14T08:15:06.000Z</time>
      </trkpt>
      <trkpt lat="45.66445" lon="6.57926">
        <ele>1387.17</ele>
        <time>2019-10-14T08:15:11.000Z</time>
      </trkpt>
      <trkpt lat="45.66429" lon="6.57927">
        <ele>1387.33</ele>
        <time>2019-10-14T08:15:16.000Z</time>
      </trkpt>
      <trkpt lat="45.66411" lon="6.57928">
        <ele>1390.56</ele>
        <time>2019-10-14T08:15:21.000Z</time>
      </trkpt>
      <trkpt lat="45.66396" lon="6.57931">
        <ele>1393.51</ele>
        <time>2019-10-14T08:15:26.000Z</time>
      </trkpt>
      <trkpt lat="45.6638" lon="6.57928">
        <ele>1397.07</ele>
        <time>2019-10-14T08:15:31.000Z</time>
      </trkpt>
      <trkpt lat="45.66364" lon="6.57916">
        <ele>1396.37</ele>
        <time>2019-10-14T08:15:36.000Z</time>
      </trkpt>
      <trkpt lat="45.66347" lon="6.57911">
        <ele>1399</ele>
        <time>2019-10-14T08:15:41.000Z</time>
      </trkpt>
      <trkpt lat="45.66332" lon="6.57909">
        <ele>1400.27</ele>
        <time>2019-10-14T08:15:46.000Z</time>
      </trkpt>
      <trkpt lat="45.66315" lon="6.57906">
        <ele>1400.89</ele>
        <time>2019-10-14T08:15:51.000Z</time>
      </trkpt>
      <trkpt lat="45.66299" lon="6.579">
        <ele>1403.63</ele>
        <time>2019-10-14T08:15:56.000Z</time>
      </trkpt>
      <trkpt lat="45.66285" lon="6.57888">
        <ele>1405.37</ele>
        <time>2019-10-14T08:16:01.000Z</time>
      </trkpt>
      <trkpt lat="45.66271" lon="6.57874">
        <ele>1407.42</ele>
        <time>2019-10-14T08:16:06.000Z</time>
      </trkpt>
      <trkpt lat="45.66255" lon="6.57865">
        <ele>1409.5</ele>
        <time>2019-10-14T08:16:11.000Z</time>
      </trkpt>
      <trkpt lat="45.6624" lon="6.57859">
        <ele>1412.31</ele>
        <time>2019-10-14T08:16:16.000Z</time>
      </trkpt>
      <trkpt lat="45.66226" lon="6.57858">
        <ele>1409.91</ele>
        <time>2019-10-14T08:16:21.000Z</time>
      </trkpt>
      <trkpt lat="45.66211" lon="6.57863">
        <ele>1411.53</ele>
        <time>2019-10-14T08:16:26.000Z</time>
      </trkpt>
      <trkpt lat="45.66195" lon="6.57874">
        <ele>1413.44</ele>
        <time>2019-10-14T08:16:31.000Z</time>
      </trkpt>
      <trkpt lat="45.66179" lon="6.57883">
        <ele>1417.13</ele>
        <time>2019-10-14T08:16:36.000Z</time>
      </trkpt>
      <trkpt lat="45.66162" lon="6.57882">
        <ele>1417.68</ele>
        <time>2019-10-14T08:16:41.000Z</time>
      </trkpt>
      <trkpt lat="45.66144" lon="6.57872">
        <ele>1416.5</ele>
        <time>2019-10-14T08:16:46.000Z</time>
      </trkpt>
      <trkpt lat="45.66128" lon="6.57861">
        <ele>1419.71</ele>
        <time>2019-10-14T08:16:51.000Z</time>
      </trkpt>
      <trkpt lat="45.66112" lon="6.57848">
        <ele>1421.9</ele>
        <time>2019-10-14T08:16:56.000Z</time>
      </trkpt>
      <trkpt lat="45.66099" lon="6.57832">
        <ele>1423.08</ele>
        <time>2019-10-14T08:17:01.000Z</time>
      </trkpt>
      <trkpt lat="45.66087" lon="6.5781">
        <ele>1426.42</ele>
        <time>2019-10-14T08:17:06.000Z</time>
      </trkpt>
      <trkpt lat="45.66075" lon="6.57796">
        <ele>1430.08</ele>
        <time>2019-10-14T08:17:11.000Z</time>
      </trkpt>
      <trkpt lat="45.66059" lon="6.5779">
        <ele>1432.08</ele>
        <time>2019-10-14T08:17:16.000Z</time>
      </trkpt>
      <trkpt lat="45.66046" lon="6.57797">
        <ele>1432.3</ele>
        <time>2019-10-14T08:17:21.000Z</time>
      </trkpt>
      <trkpt lat="45.6603" lon="6.57802">
        <ele>1430.68</ele>
        <time>2019-10-14T08:17:26.000Z</time>
      </trkpt>
      <trkpt lat="45.66011" lon="6.57807">
        <ele>1431.11</ele>
        <time>2019-10-14T08:17:31.000Z</time>
      </trkpt>
      <trkpt lat="45.65993" lon="6.57814">
        <ele>1434.83</ele>
        <time>2019-10-14T08:17:36.000Z</time>
      </trkpt>
      <trkpt lat="45.65984" lon="6.5784">
        <ele>1434.47</ele>
        <time>2019-10-14T08:17:41.000Z</time>
      </trkpt>
      <trkpt lat="45.65978" lon="6.57866">
        <ele>1435.08</ele>
        <time>2019-10-14T08:17:46.000Z</time>
      </trkpt>
      <trkpt lat="45.65966" lon="6.57885">
        <ele>1438.22</ele>
        <time>2019-10-14T08:17:51.000Z</time>
      </trkpt>
      <trkpt lat="45.6595" lon="6.57893">
        <ele>1439.91</ele>
        <time>2019-10-14T08:17:56.000Z</time>
      </trkpt>
      <trkpt lat="45.65933" lon="6.57898">
        <ele>1439.7</ele>
        <time>2019-10-14T08:18:01.000Z</time>
      </trkpt>
      <trkpt lat="45.65914" lon="6.579">
        <ele>1438.95</ele>
        <time>2019-10-14T08:18:06.000Z</time>
      </trkpt>
      <trkpt lat="45.65893" lon="6.57899">
        <ele>1439.08</ele>
        <time>2019-10-14T08:18:11.000Z</time>
      </trkpt>
      <trkpt lat="45.65874" lon="6.57896">
        <ele>1441.07</ele>
        <time>2019-10-14T08:18:16.000Z</time>
      </trkpt>
      <trkpt lat="45.65854" lon="6.579">
        <ele>1443.28</ele>
        <time>2019-10-14T08:18:21.000Z</time>
      </trkpt>
      <trkpt lat="45.65834" lon="6.57901">
        <ele>1443.74</ele>
        <time>2019-10-14T08:18:26.000Z</time>
      </trkpt>
      <trkpt lat="45.65814" lon="6.57897">
        <ele>1444.15</ele>
        <time>2019-10-14T08:18:31.000Z</time>
      </trkpt>
      <trkpt lat="45.65794" lon="6.57893">
        <ele>1442.59</ele>
        <time>2019-10-14T08:18:36.000Z</time>
      </trkpt>
      <trkpt lat="45.65774" lon="6.57884">
        <ele>1444.27</ele>
        <time>2019-10-14T08:18:41.000Z</time>
      </trkpt>
      <trkpt lat="45.65756" lon="6.57873">
        <ele>1445.75</ele>
        <time>2019-10-14T08:18:46.000Z</time>
      </trkpt>
      <trkpt lat="45.65739" lon="6.57859">
        <ele>1445.35</ele>
        <time>2019-10-14T08:18:51.000Z</time>
      </trkpt>
      <trkpt lat="45.6572" lon="6.57853">
        <ele>1445.11</ele>
        <time>2019-10-14T08:18:56.000Z</time>
      </trkpt>
      <trkpt lat="45.65702" lon="6.57853">
        <ele>1448.78</ele>
        <time>2019-10-14T08:19:01.000Z</time>
      </trkpt>
      <trkpt lat="45.65683" lon="6.57848">
        <ele>1451.02</ele>
        <time>2019-10-14T08:19:06.000Z</time>
      </trkpt>
      <trkpt lat="45.65666" lon="6.57836">
        <ele>1451.86</ele>
        <time>2019-10-14T08:19:11.000Z</time>
      </trkpt>
      <trkpt lat="45.65647" lon="6.57826">
        <ele>1453.8</ele>
        <time>2019-10-14T08:19:16.000Z</time>
      </trkpt>
      <trkpt lat="45.65628" lon="6.57826">
        <ele>1457.36</ele>
        <time>2019-10-14T08:19:21.000Z</time>
      </trkpt>
      <trkpt lat="45.65611" lon="6.57831">
        <ele>1458.13</ele>
        <time>2019-10-14T08:19:26.000Z</time>
      </trkpt>
      <trkpt lat="45.65593" lon="6.57836">
        <ele>1457.59</ele>
        <time>2019-10-14T08:19:31.000Z</time>
      </trkpt>
      <trkpt lat="45.65572" lon="6.5784">
        <ele>1459.9</ele>
        <time>2019-10-14T08:19:36.000Z</time>
      </trkpt>
      <trkpt lat="45.65561" lon="6.57838">
        <ele>1460.44</ele>
        <time>2019-10-14T08:19:41.000Z</time>
      </trkpt>
      <trkpt lat="45.65552" lon="6.5784">
        <ele>1468.51</ele>
        <time>2019-10-14T08:20:23.000Z</time>
      </trkpt>
      <trkpt lat="45.65535" lon="6.57837">
        <ele>1465.38</ele>
        <time>2019-10-14T08:20:28.000Z</time>
      </trkpt>
      <trkpt lat="45.65515" lon="6.57835">
        <ele>1456.8</ele>
        <time>2019-10-14T08:20:33.000Z</time>
      </trkpt>
      <trkpt lat="45.65497" lon="6.57835">
        <ele>1459.34</ele>
        <time>2019-10-14T08:20:38.000Z</time>
      </trkpt>
      <trkpt lat="45.65478" lon="6.57835">
        <ele>1459.39</ele>
        <time>2019-10-14T08:20:43.000Z</time>
      </trkpt>
      <trkpt lat="45.65453" lon="6.57834">
        <ele>1454.83</ele>
        <time>2019-10-14T08:20:48.000Z</time>
      </trkpt>
      <trkpt lat="45.65434" lon="6.57833">
        <ele>1461.47</ele>
        <time>2019-10-14T08:20:53.000Z</time>
      </trkpt>
      <trkpt lat="45.65416" lon="6.57834">
        <ele>1461.97</ele>
        <time>2019-10-14T08:20:58.000Z</time>
      </trkpt>
      <trkpt lat="45.65398" lon="6.57837">
        <ele>1462.7</ele>
        <time>2019-10-14T08:21:03.000Z</time>
      </trkpt>
      <trkpt lat="45.65382" lon="6.5784">
        <ele>1463.73</ele>
        <time>2019-10-14T08:21:08.000Z</time>
      </trkpt>
      <trkpt lat="45.65363" lon="6.57841">
        <ele>1467.78</ele>
        <time>2019-10-14T08:21:13.000Z</time>
      </trkpt>
      <trkpt lat="45.6534" lon="6.57847">
        <ele>1464.85</ele>
        <time>2019-10-14T08:21:18.000Z</time>
      </trkpt>
      <trkpt lat="45.65322" lon="6.57853">
        <ele>1471.47</ele>
        <time>2019-10-14T08:21:23.000Z</time>
      </trkpt>
      <trkpt lat="45.65298" lon="6.57854">
        <ele>1473.57</ele>
        <time>2019-10-14T08:21:28.000Z</time>
      </trkpt>
      <trkpt lat="45.65279" lon="6.57858">
        <ele>1473.34</ele>
        <time>2019-10-14T08:21:33.000Z</time>
      </trkpt>
      <trkpt lat="45.65259" lon="6.57866">
        <ele>1472.86</ele>
        <time>2019-10-14T08:21:38.000Z</time>
      </trkpt>
      <trkpt lat="45.65244" lon="6.57879">
        <ele>1473.54</ele>
        <time>2019-10-14T08:21:43.000Z</time>
      </trkpt>
      <trkpt lat="45.65229" lon="6.57891">
        <ele>1478.11</ele>
        <time>2019-10-14T08:21:48.000Z</time>
      </trkpt>
      <trkpt lat="45.65208" lon="6.57897">
        <ele>1477.18</ele>
        <time>2019-10-14T08:21:53.000Z</time>
      </trkpt>
      <trkpt lat="45.65202" lon="6.57909">
        <ele>1476.69</ele>
        <time>2019-10-14T08:21:58.000Z</time>
      </trkpt>
      <trkpt lat="45.65227" lon="6.57902">
        <ele>1476.17</ele>
        <time>2019-10-14T08:22:03.000Z</time>
      </trkpt>
      <trkpt lat="45.65242" lon="6.57891">
        <ele>1476.5</ele>
        <time>2019-10-14T08:22:08.000Z</time>
      </trkpt>
      <trkpt lat="45.65259" lon="6.57889">
        <ele>1474.12</ele>
        <time>2019-10-14T08:22:13.000Z</time>
      </trkpt>
      <trkpt lat="45.6528" lon="6.5789">
        <ele>1478.86</ele>
        <time>2019-10-14T08:22:18.000Z</time>
      </trkpt>
      <trkpt lat="45.65298" lon="6.57891">
        <ele>1480.69</ele>
        <time>2019-10-14T08:22:23.000Z</time>
      </trkpt>
      <trkpt lat="45.65317" lon="6.57891">
        <ele>1483.72</ele>
        <time>2019-10-14T08:22:28.000Z</time>
      </trkpt>
      <trkpt lat="45.65332" lon="6.57894">
        <ele>1484.35</ele>
        <time>2019-10-14T08:22:33.000Z</time>
      </trkpt>
      <trkpt lat="45.65349" lon="6.57901">
        <ele>1484.49</ele>
        <time>2019-10-14T08:22:38.000Z</time>
      </trkpt>
      <trkpt lat="45.65376" lon="6.5791">
        <ele>1486.65</ele>
        <time>2019-10-14T08:22:43.000Z</time>
      </trkpt>
      <trkpt lat="45.65394" lon="6.57917">
        <ele>1489.92</ele>
        <time>2019-10-14T08:22:48.000Z</time>
      </trkpt>
      <trkpt lat="45.65405" lon="6.57919">
        <ele>1494.23</ele>
        <time>2019-10-14T08:22:56.000Z</time>
      </trkpt>
      <trkpt lat="45.6542" lon="6.57936">
        <ele>1496.91</ele>
        <time>2019-10-14T08:23:01.000Z</time>
      </trkpt>
      <trkpt lat="45.65432" lon="6.57944">
        <ele>1499.95</ele>
        <time>2019-10-14T08:23:06.000Z</time>
      </trkpt>
      <trkpt lat="45.65451" lon="6.57947">
        <ele>1505.17</ele>
        <time>2019-10-14T08:23:11.000Z</time>
      </trkpt>
      <trkpt lat="45.65471" lon="6.57951">
        <ele>1509.13</ele>
        <time>2019-10-14T08:23:16.000Z</time>
      </trkpt>
      <trkpt lat="45.65491" lon="6.57963">
        <ele>1513.23</ele>
        <time>2019-10-14T08:23:21.000Z</time>
      </trkpt>
      <trkpt lat="45.65508" lon="6.5797">
        <ele>1513.37</ele>
        <time>2019-10-14T08:23:26.000Z</time>
      </trkpt>
      <trkpt lat="45.65524" lon="6.57982">
        <ele>1515.06</ele>
        <time>2019-10-14T08:23:31.000Z</time>
      </trkpt>
      <trkpt lat="45.65537" lon="6.57991">
        <ele>1519.65</ele>
        <time>2019-10-14T08:23:36.000Z</time>
      </trkpt>
      <trkpt lat="45.65546" lon="6.58005">
        <ele>1519.66</ele>
        <time>2019-10-14T08:23:41.000Z</time>
      </trkpt>
      <trkpt lat="45.65556" lon="6.58017">
        <ele>1521.21</ele>
        <time>2019-10-14T08:23:46.000Z</time>
      </trkpt>
      <trkpt lat="45.65571" lon="6.58032">
        <ele>1523.27</ele>
        <time>2019-10-14T08:23:51.000Z</time>
      </trkpt>
      <trkpt lat="45.65581" lon="6.58048">
        <ele>1525.18</ele>
        <time>2019-10-14T08:23:56.000Z</time>
      </trkpt>
      <trkpt lat="45.65564" lon="6.58049">
        <ele>1526.31</ele>
        <time>2019-10-14T08:24:01.000Z</time>
      </trkpt>
      <trkpt lat="45.6555" lon="6.58035">
        <ele>1528.19</ele>
        <time>2019-10-14T08:24:06.000Z</time>
      </trkpt>
      <trkpt lat="45.65538" lon="6.5803">
        <ele>1531.59</ele>
        <time>2019-10-14T08:24:11.000Z</time>
      </trkpt>
      <trkpt lat="45.65527" lon="6.58024">
        <ele>1537.43</ele>
        <time>2019-10-14T08:24:16.000Z</time>
      </trkpt>
      <trkpt lat="45.65507" lon="6.58024">
        <ele>1539.08</ele>
        <time>2019-10-14T08:24:21.000Z</time>
      </trkpt>
      <trkpt lat="45.65485" lon="6.5802">
        <ele>1541.71</ele>
        <time>2019-10-14T08:24:26.000Z</time>
      </trkpt>
      <trkpt lat="45.65472" lon="6.58019">
        <ele>1541.17</ele>
        <time>2019-10-14T08:24:31.000Z</time>
      </trkpt>
      <trkpt lat="45.65454" lon="6.58015">
        <ele>1543.91</ele>
        <time>2019-10-14T08:24:36.000Z</time>
      </trkpt>
      <trkpt lat="45.65436" lon="6.5801">
        <ele>1542.44</ele>
        <time>2019-10-14T08:24:41.000Z</time>
      </trkpt>
      <trkpt lat="45.65421" lon="6.58006">
        <ele>1542.76</ele>
        <time>2019-10-14T08:24:46.000Z</time>
      </trkpt>
      <trkpt lat="45.65408" lon="6.58001">
        <ele>1545.48</ele>
        <time>2019-10-14T08:24:51.000Z</time>
      </trkpt>
      <trkpt lat="45.65395" lon="6.57994">
        <ele>1547.23</ele>
        <time>2019-10-14T08:24:56.000Z</time>
      </trkpt>
      <trkpt lat="45.65378" lon="6.5799">
        <ele>1548.4</ele>
        <time>2019-10-14T08:25:01.000Z</time>
      </trkpt>
      <trkpt lat="45.65361" lon="6.57991">
        <ele>1550.8</ele>
        <time>2019-10-14T08:25:06.000Z</time>
      </trkpt>
      <trkpt lat="45.65343" lon="6.57994">
        <ele>1552.24</ele>
        <time>2019-10-14T08:25:11.000Z</time>
      </trkpt>
      <trkpt lat="45.65326" lon="6.57989">
        <ele>1553.37</ele>
        <time>2019-10-14T08:25:16.000Z</time>
      </trkpt>
      <trkpt lat="45.65309" lon="6.57992">
        <ele>1553.42</ele>
        <time>2019-10-14T08:25:21.000Z</time>
      </trkpt>
      <trkpt lat="45.65293" lon="6.57998">
        <ele>1556.72</ele>
        <time>2019-10-14T08:25:26.000Z</time>
      </trkpt>
      <trkpt lat="45.65277" lon="6.58008">
        <ele>1554.3</ele>
        <time>2019-10-14T08:25:31.000Z</time>
      </trkpt>
      <trkpt lat="45.65263" lon="6.58013">
        <ele>1553.79</ele>
        <time>2019-10-14T08:25:36.000Z</time>
      </trkpt>
      <trkpt lat="45.65248" lon="6.58017">
        <ele>1556.13</ele>
        <time>2019-10-14T08:25:41.000Z</time>
      </trkpt>
      <trkpt lat="45.65231" lon="6.58025">
        <ele>1562.46</ele>
        <time>2019-10-14T08:25:46.000Z</time>
      </trkpt>
      <trkpt lat="45.65217" lon="6.58036">
        <ele>1566.4</ele>
        <time>2019-10-14T08:25:51.000Z</time>
      </trkpt>
      <trkpt lat="45.65202" lon="6.58048">
        <ele>1569.84</ele>
        <time>2019-10-14T08:25:56.000Z</time>
      </trkpt>
      <trkpt lat="45.65187" lon="6.58059">
        <ele>1570.53</ele>
        <time>2019-10-14T08:26:01.000Z</time>
      </trkpt>
      <trkpt lat="45.65173" lon="6.58071">
        <ele>1572.53</ele>
        <time>2019-10-14T08:26:06.000Z</time>
      </trkpt>
      <trkpt lat="45.6516" lon="6.58086">
        <ele>1570.02</ele>
        <time>2019-10-14T08:26:11.000Z</time>
      </trkpt>
      <trkpt lat="45.65144" lon="6.58093">
        <ele>1568.2</ele>
        <time>2019-10-14T08:26:16.000Z</time>
      </trkpt>
      <trkpt lat="45.65124" lon="6.58089">
        <ele>1570.13</ele>
        <time>2019-10-14T08:26:21.000Z</time>
      </trkpt>
      <trkpt lat="45.65108" lon="6.58088">
        <ele>1572.7</ele>
        <time>2019-10-14T08:26:26.000Z</time>
      </trkpt>
      <trkpt lat="45.65099" lon="6.58088">
        <ele>1574.32</ele>
        <time>2019-10-14T08:26:37.000Z</time>
      </trkpt>
      <trkpt lat="45.65108" lon="6.58095">
        <ele>1575.75</ele>
        <time>2019-10-14T08:29:14.000Z</time>
      </trkpt>
      <trkpt lat="45.65124" lon="6.58111">
        <ele>1576.09</ele>
        <time>2019-10-14T08:29:19.000Z</time>
      </trkpt>
      <trkpt lat="45.65134" lon="6.5813">
        <ele>1576.91</ele>
        <time>2019-10-14T08:29:24.000Z</time>
      </trkpt>
      <trkpt lat="45.65137" lon="6.58152">
        <ele>1582.67</ele>
        <time>2019-10-14T08:29:29.000Z</time>
      </trkpt>
      <trkpt lat="45.65136" lon="6.58176">
        <ele>1586.03</ele>
        <time>2019-10-14T08:29:34.000Z</time>
      </trkpt>
      <trkpt lat="45.65139" lon="6.582">
        <ele>1589.14</ele>
        <time>2019-10-14T08:29:39.000Z</time>
      </trkpt>
      <trkpt lat="45.65151" lon="6.58222">
        <ele>1591.96</ele>
        <time>2019-10-14T08:29:44.000Z</time>
      </trkpt>
      <trkpt lat="45.65161" lon="6.58243">
        <ele>1590.89</ele>
        <time>2019-10-14T08:29:49.000Z</time>
      </trkpt>
      <trkpt lat="45.65165" lon="6.58264">
        <ele>1595.55</ele>
        <time>2019-10-14T08:29:54.000Z</time>
      </trkpt>
      <trkpt lat="45.65165" lon="6.58288">
        <ele>1596.77</ele>
        <time>2019-10-14T08:29:59.000Z</time>
      </trkpt>
      <trkpt lat="45.6517" lon="6.58311">
        <ele>1599.25</ele>
        <time>2019-10-14T08:30:04.000Z</time>
      </trkpt>
      <trkpt lat="45.65174" lon="6.58334">
        <ele>1598.31</ele>
        <time>2019-10-14T08:30:09.000Z</time>
      </trkpt>
      <trkpt lat="45.65172" lon="6.58361">
        <ele>1599.74</ele>
        <time>2019-10-14T08:30:14.000Z</time>
      </trkpt>
      <trkpt lat="45.6517" lon="6.58388">
        <ele>1601.09</ele>
        <time>2019-10-14T08:30:19.000Z</time>
      </trkpt>
      <trkpt lat="45.65169" lon="6.58411">
        <ele>1600.84</ele>
        <time>2019-10-14T08:30:24.000Z</time>
      </trkpt>
      <trkpt lat="45.65165" lon="6.58429">
        <ele>1600.25</ele>
        <time>2019-10-14T08:30:29.000Z</time>
      </trkpt>
      <trkpt lat="45.65155" lon="6.58449">
        <ele>1603.28</ele>
        <time>2019-10-14T08:30:34.000Z</time>
      </trkpt>
      <trkpt lat="45.65144" lon="6.58469">
        <ele>1600.31</ele>
        <time>2019-10-14T08:30:39.000Z</time>
      </trkpt>
      <trkpt lat="45.65132" lon="6.58489">
        <ele>1602.43</ele>
        <time>2019-10-14T08:30:44.000Z</time>
      </trkpt>
      <trkpt lat="45.6511" lon="6.58515">
        <ele>1604.98</ele>
        <time>2019-10-14T08:30:49.000Z</time>
      </trkpt>
      <trkpt lat="45.651" lon="6.58526">
        <ele>1604.82</ele>
        <time>2019-10-14T08:30:55.000Z</time>
      </trkpt>
      <trkpt lat="45.65093" lon="6.58542">
        <ele>1607.16</ele>
        <time>2019-10-14T08:31:00.000Z</time>
      </trkpt>
      <trkpt lat="45.65091" lon="6.58565">
        <ele>1610.48</ele>
        <time>2019-10-14T08:31:05.000Z</time>
      </trkpt>
      <trkpt lat="45.65093" lon="6.5859">
        <ele>1610.19</ele>
        <time>2019-10-14T08:31:10.000Z</time>
      </trkpt>
      <trkpt lat="45.65095" lon="6.58615">
        <ele>1611.02</ele>
        <time>2019-10-14T08:31:15.000Z</time>
      </trkpt>
      <trkpt lat="45.65084" lon="6.58627">
        <ele>1608.81</ele>
        <time>2019-10-14T08:31:20.000Z</time>
      </trkpt>
      <trkpt lat="45.6507" lon="6.5862">
        <ele>1611.66</ele>
        <time>2019-10-14T08:31:25.000Z</time>
      </trkpt>
      <trkpt lat="45.65051" lon="6.58607">
        <ele>1615.69</ele>
        <time>2019-10-14T08:31:30.000Z</time>
      </trkpt>
      <trkpt lat="45.65037" lon="6.58601">
        <ele>1616.76</ele>
        <time>2019-10-14T08:31:35.000Z</time>
      </trkpt>
      <trkpt lat="45.65022" lon="6.58599">
        <ele>1618.7</ele>
        <time>2019-10-14T08:31:40.000Z</time>
      </trkpt>
      <trkpt lat="45.65008" lon="6.58609">
        <ele>1619.93</ele>
        <time>2019-10-14T08:31:45.000Z</time>
      </trkpt>
      <trkpt lat="45.65001" lon="6.5863">
        <ele>1619.59</ele>
        <time>2019-10-14T08:31:50.000Z</time>
      </trkpt>
      <trkpt lat="45.65" lon="6.58652">
        <ele>1620.25</ele>
        <time>2019-10-14T08:31:55.000Z</time>
      </trkpt>
      <trkpt lat="45.64991" lon="6.58672">
        <ele>1622.85</ele>
        <time>2019-10-14T08:32:00.000Z</time>
      </trkpt>
      <trkpt lat="45.64979" lon="6.58687">
        <ele>1625.14</ele>
        <time>2019-10-14T08:32:05.000Z</time>
      </trkpt>
      <trkpt lat="45.64969" lon="6.58709">
        <ele>1624.5</ele>
        <time>2019-10-14T08:32:10.000Z</time>
      </trkpt>
      <trkpt lat="45.64956" lon="6.58723">
        <ele>1624.73</ele>
        <time>2019-10-14T08:32:15.000Z</time>
      </trkpt>
      <trkpt lat="45.64943" lon="6.58735">
        <ele>1627.98</ele>
        <time>2019-10-14T08:32:20.000Z</time>
      </trkpt>
      <trkpt lat="45.64928" lon="6.58741">
        <ele>1628.68</ele>
        <time>2019-10-14T08:32:25.000Z</time>
      </trkpt>
      <trkpt lat="45.64912" lon="6.58741">
        <ele>1628.3</ele>
        <time>2019-10-14T08:32:30.000Z</time>
      </trkpt>
      <trkpt lat="45.64894" lon="6.58739">
        <ele>1628.53</ele>
        <time>2019-10-14T08:32:35.000Z</time>
      </trkpt>
      <trkpt lat="45.64874" lon="6.58735">
        <ele>1629.77</ele>
        <time>2019-10-14T08:32:40.000Z</time>
      </trkpt>
      <trkpt lat="45.64855" lon="6.58728">
        <ele>1632.45</ele>
        <time>2019-10-14T08:32:45.000Z</time>
      </trkpt>
      <trkpt lat="45.6484" lon="6.58717">
        <ele>1637.52</ele>
        <time>2019-10-14T08:32:50.000Z</time>
      </trkpt>
      <trkpt lat="45.64824" lon="6.58704">
        <ele>1638.99</ele>
        <time>2019-10-14T08:32:55.000Z</time>
      </trkpt>
      <trkpt lat="45.64808" lon="6.58694">
        <ele>1640.51</ele>
        <time>2019-10-14T08:33:00.000Z</time>
      </trkpt>
      <trkpt lat="45.64791" lon="6.58684">
        <ele>1642.64</ele>
        <time>2019-10-14T08:33:05.000Z</time>
      </trkpt>
      <trkpt lat="45.64776" lon="6.5867">
        <ele>1642.64</ele>
        <time>2019-10-14T08:33:10.000Z</time>
      </trkpt>
      <trkpt lat="45.6476" lon="6.58658">
        <ele>1642.46</ele>
        <time>2019-10-14T08:33:15.000Z</time>
      </trkpt>
      <trkpt lat="45.64744" lon="6.58651">
        <ele>1642.48</ele>
        <time>2019-10-14T08:33:20.000Z</time>
      </trkpt>
      <trkpt lat="45.64727" lon="6.58642">
        <ele>1642.39</ele>
        <time>2019-10-14T08:33:25.000Z</time>
      </trkpt>
      <trkpt lat="45.64709" lon="6.58632">
        <ele>1641.07</ele>
        <time>2019-10-14T08:33:30.000Z</time>
      </trkpt>
      <trkpt lat="45.6469" lon="6.58627">
        <ele>1641.2</ele>
        <time>2019-10-14T08:33:35.000Z</time>
      </trkpt>
      <trkpt lat="45.64676" lon="6.5862">
        <ele>1644.86</ele>
        <time>2019-10-14T08:33:40.000Z</time>
      </trkpt>
      <trkpt lat="45.64667" lon="6.58603">
        <ele>1648.91</ele>
        <time>2019-10-14T08:33:45.000Z</time>
      </trkpt>
      <trkpt lat="45.64656" lon="6.58583">
        <ele>1652.56</ele>
        <time>2019-10-14T08:33:50.000Z</time>
      </trkpt>
      <trkpt lat="45.64644" lon="6.58566">
        <ele>1654.73</ele>
        <time>2019-10-14T08:33:55.000Z</time>
      </trkpt>
      <trkpt lat="45.64629" lon="6.58548">
        <ele>1661.99</ele>
        <time>2019-10-14T08:34:00.000Z</time>
      </trkpt>
      <trkpt lat="45.64611" lon="6.58535">
        <ele>1660.83</ele>
        <time>2019-10-14T08:34:05.000Z</time>
      </trkpt>
      <trkpt lat="45.64589" lon="6.58521">
        <ele>1658.88</ele>
        <time>2019-10-14T08:34:10.000Z</time>
      </trkpt>
      <trkpt lat="45.64572" lon="6.58516">
        <ele>1659.02</ele>
        <time>2019-10-14T08:34:15.000Z</time>
      </trkpt>
      <trkpt lat="45.64555" lon="6.58507">
        <ele>1660.33</ele>
        <time>2019-10-14T08:34:20.000Z</time>
      </trkpt>
      <trkpt lat="45.64538" lon="6.58495">
        <ele>1663.31</ele>
        <time>2019-10-14T08:34:25.000Z</time>
      </trkpt>
      <trkpt lat="45.64522" lon="6.58479">
        <ele>1665.26</ele>
        <time>2019-10-14T08:34:30.000Z</time>
      </trkpt>
      <trkpt lat="45.64507" lon="6.5847">
        <ele>1667.85</ele>
        <time>2019-10-14T08:34:35.000Z</time>
      </trkpt>
      <trkpt lat="45.64491" lon="6.58464">
        <ele>1668.01</ele>
        <time>2019-10-14T08:34:40.000Z</time>
      </trkpt>
      <trkpt lat="45.64476" lon="6.58461">
        <ele>1667.37</ele>
        <time>2019-10-14T08:34:45.000Z</time>
      </trkpt>
      <trkpt lat="45.6446" lon="6.58457">
        <ele>1665.4</ele>
        <time>2019-10-14T08:34:50.000Z</time>
      </trkpt>
      <trkpt lat="45.64443" lon="6.58459">
        <ele>1666.04</ele>
        <time>2019-10-14T08:34:55.000Z</time>
      </trkpt>
      <trkpt lat="45.64427" lon="6.58467">
        <ele>1669.75</ele>
        <time>2019-10-14T08:35:00.000Z</time>
      </trkpt>
      <trkpt lat="45.64409" lon="6.58482">
        <ele>1667.17</ele>
        <time>2019-10-14T08:35:05.000Z</time>
      </trkpt>
      <trkpt lat="45.64396" lon="6.58495">
        <ele>1668.53</ele>
        <time>2019-10-14T08:35:10.000Z</time>
      </trkpt>
      <trkpt lat="45.64385" lon="6.585">
        <ele>1663.1</ele>
        <time>2019-10-14T08:36:13.000Z</time>
      </trkpt>
      <trkpt lat="45.64355" lon="6.58513">
        <ele>1665.27</ele>
        <time>2019-10-14T08:36:18.000Z</time>
      </trkpt>
      <trkpt lat="45.64327" lon="6.58524">
        <ele>1664.02</ele>
        <time>2019-10-14T08:36:23.000Z</time>
      </trkpt>
      <trkpt lat="45.64305" lon="6.58547">
        <ele>1662.4</ele>
        <time>2019-10-14T08:36:28.000Z</time>
      </trkpt>
      <trkpt lat="45.64284" lon="6.5858">
        <ele>1656.01</ele>
        <time>2019-10-14T08:36:33.000Z</time>
      </trkpt>
      <trkpt lat="45.64253" lon="6.58598">
        <ele>1655.72</ele>
        <time>2019-10-14T08:36:38.000Z</time>
      </trkpt>
      <trkpt lat="45.64221" lon="6.58615">
        <ele>1657.33</ele>
        <time>2019-10-14T08:36:43.000Z</time>
      </trkpt>
      <trkpt lat="45.64193" lon="6.58641">
        <ele>1654.5</ele>
        <time>2019-10-14T08:36:48.000Z</time>
      </trkpt>
      <trkpt lat="45.64163" lon="6.58653">
        <ele>1653.82</ele>
        <time>2019-10-14T08:36:53.000Z</time>
      </trkpt>
      <trkpt lat="45.64137" lon="6.58681">
        <ele>1649.94</ele>
        <time>2019-10-14T08:36:58.000Z</time>
      </trkpt>
      <trkpt lat="45.64105" lon="6.587">
        <ele>1649.57</ele>
        <time>2019-10-14T08:37:03.000Z</time>
      </trkpt>
      <trkpt lat="45.64072" lon="6.58707">
        <ele>1642.44</ele>
        <time>2019-10-14T08:37:08.000Z</time>
      </trkpt>
      <trkpt lat="45.64039" lon="6.58719">
        <ele>1638.42</ele>
        <time>2019-10-14T08:37:13.000Z</time>
      </trkpt>
      <trkpt lat="45.64007" lon="6.58716">
        <ele>1635.86</ele>
        <time>2019-10-14T08:37:18.000Z</time>
      </trkpt>
      <trkpt lat="45.63982" lon="6.58724">
        <ele>1638.28</ele>
        <time>2019-10-14T08:37:23.000Z</time>
      </trkpt>
      <trkpt lat="45.63958" lon="6.58731">
        <ele>1638.37</ele>
        <time>2019-10-14T08:37:28.000Z</time>
      </trkpt>
      <trkpt lat="45.63937" lon="6.58742">
        <ele>1638.09</ele>
        <time>2019-10-14T08:37:33.000Z</time>
      </trkpt>
      <trkpt lat="45.63914" lon="6.58744">
        <ele>1635.41</ele>
        <time>2019-10-14T08:37:38.000Z</time>
      </trkpt>
      <trkpt lat="45.63892" lon="6.58743">
        <ele>1637.1</ele>
        <time>2019-10-14T08:37:43.000Z</time>
      </trkpt>
      <trkpt lat="45.63868" lon="6.58745">
        <ele>1637.35</ele>
        <time>2019-10-14T08:37:48.000Z</time>
      </trkpt>
      <trkpt lat="45.63846" lon="6.58755">
        <ele>1636.55</ele>
        <time>2019-10-14T08:37:53.000Z</time>
      </trkpt>
      <trkpt lat="45.63826" lon="6.58764">
        <ele>1639.38</ele>
        <time>2019-10-14T08:37:58.000Z</time>
      </trkpt>
      <trkpt lat="45.63814" lon="6.58767">
        <ele>1640.83</ele>
        <time>2019-10-14T08:38:03.000Z</time>
      </trkpt>
      <trkpt lat="45.63798" lon="6.5878">
        <ele>1643.81</ele>
        <time>2019-10-14T08:38:08.000Z</time>
      </trkpt>
      <trkpt lat="45.63788" lon="6.588">
        <ele>1645.83</ele>
        <time>2019-10-14T08:38:13.000Z</time>
      </trkpt>
      <trkpt lat="45.63777" lon="6.58817">
        <ele>1644.68</ele>
        <time>2019-10-14T08:38:18.000Z</time>
      </trkpt>
      <trkpt lat="45.63761" lon="6.58813">
        <ele>1645.19</ele>
        <time>2019-10-14T08:38:23.000Z</time>
      </trkpt>
      <trkpt lat="45.63751" lon="6.58802">
        <ele>1647.04</ele>
        <time>2019-10-14T08:39:23.000Z</time>
      </trkpt>
      <trkpt lat="45.63731" lon="6.5879">
        <ele>1648.62</ele>
        <time>2019-10-14T08:39:28.000Z</time>
      </trkpt>
      <trkpt lat="45.63711" lon="6.58788">
        <ele>1649.46</ele>
        <time>2019-10-14T08:39:33.000Z</time>
      </trkpt>
      <trkpt lat="45.63694" lon="6.58795">
        <ele>1649.32</ele>
        <time>2019-10-14T08:39:38.000Z</time>
      </trkpt>
      <trkpt lat="45.63679" lon="6.588">
        <ele>1645.64</ele>
        <time>2019-10-14T08:39:43.000Z</time>
      </trkpt>
      <trkpt lat="45.63659" lon="6.58807">
        <ele>1647.01</ele>
        <time>2019-10-14T08:39:48.000Z</time>
      </trkpt>
      <trkpt lat="45.63642" lon="6.58815">
        <ele>1649.6</ele>
        <time>2019-10-14T08:39:53.000Z</time>
      </trkpt>
      <trkpt lat="45.63624" lon="6.58825">
        <ele>1651.3</ele>
        <time>2019-10-14T08:39:58.000Z</time>
      </trkpt>
      <trkpt lat="45.6361" lon="6.58837">
        <ele>1655.58</ele>
        <time>2019-10-14T08:40:03.000Z</time>
      </trkpt>
      <trkpt lat="45.63594" lon="6.58847">
        <ele>1660.8</ele>
        <time>2019-10-14T08:40:08.000Z</time>
      </trkpt>
      <trkpt lat="45.63579" lon="6.58857">
        <ele>1664.37</ele>
        <time>2019-10-14T08:40:13.000Z</time>
      </trkpt>
      <trkpt lat="45.63569" lon="6.58874">
        <ele>1666.11</ele>
        <time>2019-10-14T08:40:18.000Z</time>
      </trkpt>
      <trkpt lat="45.63588" lon="6.58884">
        <ele>1670.16</ele>
        <time>2019-10-14T08:40:23.000Z</time>
      </trkpt>
      <trkpt lat="45.63606" lon="6.58873">
        <ele>1673.27</ele>
        <time>2019-10-14T08:40:28.000Z</time>
      </trkpt>
      <trkpt lat="45.63625" lon="6.58869">
        <ele>1673.65</ele>
        <time>2019-10-14T08:40:33.000Z</time>
      </trkpt>
      <trkpt lat="45.63636" lon="6.58873">
        <ele>1679.03</ele>
        <time>2019-10-14T08:41:31.000Z</time>
      </trkpt>
      <trkpt lat="45.63653" lon="6.58877">
        <ele>1681.01</ele>
        <time>2019-10-14T08:41:36.000Z</time>
      </trkpt>
      <trkpt lat="45.63672" lon="6.58881">
        <ele>1688.07</ele>
        <time>2019-10-14T08:41:41.000Z</time>
      </trkpt>
      <trkpt lat="45.6369" lon="6.58887">
        <ele>1690.42</ele>
        <time>2019-10-14T08:41:46.000Z</time>
      </trkpt>
      <trkpt lat="45.63707" lon="6.58897">
        <ele>1691.19</ele>
        <time>2019-10-14T08:41:51.000Z</time>
      </trkpt>
      <trkpt lat="45.63705" lon="6.58917">
        <ele>1690.54</ele>
        <time>2019-10-14T08:41:56.000Z</time>
      </trkpt>
      <trkpt lat="45.63684" lon="6.58916">
        <ele>1690.37</ele>
        <time>2019-10-14T08:42:01.000Z</time>
      </trkpt>
      <trkpt lat="45.63665" lon="6.58919">
        <ele>1690.79</ele>
        <time>2019-10-14T08:42:06.000Z</time>
      </trkpt>
      <trkpt lat="45.63649" lon="6.58929">
        <ele>1689.67</ele>
        <time>2019-10-14T08:42:11.000Z</time>
      </trkpt>
      <trkpt lat="45.63632" lon="6.58938">
        <ele>1691.57</ele>
        <time>2019-10-14T08:42:16.000Z</time>
      </trkpt>
      <trkpt lat="45.63614" lon="6.58946">
        <ele>1691.86</ele>
        <time>2019-10-14T08:42:21.000Z</time>
      </trkpt>
      <trkpt lat="45.63602" lon="6.58962">
        <ele>1693.45</ele>
        <time>2019-10-14T08:42:26.000Z</time>
      </trkpt>
      <trkpt lat="45.63593" lon="6.58984">
        <ele>1693.46</ele>
        <time>2019-10-14T08:42:31.000Z</time>
      </trkpt>
      <trkpt lat="45.63581" lon="6.59002">
        <ele>1692.89</ele>
        <time>2019-10-14T08:42:36.000Z</time>
      </trkpt>
      <trkpt lat="45.63566" lon="6.59015">
        <ele>1695.21</ele>
        <time>2019-10-14T08:42:41.000Z</time>
      </trkpt>
      <trkpt lat="45.63552" lon="6.59029">
        <ele>1696.34</ele>
        <time>2019-10-14T08:42:46.000Z</time>
      </trkpt>
      <trkpt lat="45.63536" lon="6.59042">
        <ele>1698.87</ele>
        <time>2019-10-14T08:42:51.000Z</time>
      </trkpt>
      <trkpt lat="45.6352" lon="6.59051">
        <ele>1701.22</ele>
        <time>2019-10-14T08:42:56.000Z</time>
      </trkpt>
      <trkpt lat="45.63505" lon="6.59062">
        <ele>1700.48</ele>
        <time>2019-10-14T08:43:01.000Z</time>
      </trkpt>
      <trkpt lat="45.63492" lon="6.59076">
        <ele>1701.64</ele>
        <time>2019-10-14T08:43:06.000Z</time>
      </trkpt>
      <trkpt lat="45.63478" lon="6.59092">
        <ele>1706</ele>
        <time>2019-10-14T08:43:11.000Z</time>
      </trkpt>
      <trkpt lat="45.63462" lon="6.59101">
        <ele>1709.54</ele>
        <time>2019-10-14T08:43:16.000Z</time>
      </trkpt>
      <trkpt lat="45.63449" lon="6.591">
        <ele>1708.01</ele>
        <time>2019-10-14T08:43:21.000Z</time>
      </trkpt>
      <trkpt lat="45.63433" lon="6.59104">
        <ele>1707.82</ele>
        <time>2019-10-14T08:43:26.000Z</time>
      </trkpt>
      <trkpt lat="45.63419" lon="6.59114">
        <ele>1711.16</ele>
        <time>2019-10-14T08:43:31.000Z</time>
      </trkpt>
      <trkpt lat="45.63405" lon="6.59125">
        <ele>1710.99</ele>
        <time>2019-10-14T08:43:36.000Z</time>
      </trkpt>
      <trkpt lat="45.6339" lon="6.59134">
        <ele>1712.9</ele>
        <time>2019-10-14T08:43:41.000Z</time>
      </trkpt>
      <trkpt lat="45.63376" lon="6.59146">
        <ele>1715.64</ele>
        <time>2019-10-14T08:43:46.000Z</time>
      </trkpt>
      <trkpt lat="45.6336" lon="6.59159">
        <ele>1717.23</ele>
        <time>2019-10-14T08:43:51.000Z</time>
      </trkpt>
      <trkpt lat="45.63343" lon="6.59167">
        <ele>1720.08</ele>
        <time>2019-10-14T08:43:56.000Z</time>
      </trkpt>
      <trkpt lat="45.63327" lon="6.59174">
        <ele>1724.54</ele>
        <time>2019-10-14T08:44:01.000Z</time>
      </trkpt>
      <trkpt lat="45.63312" lon="6.59182">
        <ele>1725.71</ele>
        <time>2019-10-14T08:44:06.000Z</time>
      </trkpt>
      <trkpt lat="45.63295" lon="6.59188">
        <ele>1725.63</ele>
        <time>2019-10-14T08:44:11.000Z</time>
      </trkpt>
      <trkpt lat="45.63291" lon="6.59209">
        <ele>1727.44</ele>
        <time>2019-10-14T08:44:16.000Z</time>
      </trkpt>
      <trkpt lat="45.63309" lon="6.59221">
        <ele>1729.7</ele>
        <time>2019-10-14T08:44:21.000Z</time>
      </trkpt>
      <trkpt lat="45.63328" lon="6.5922">
        <ele>1732.45</ele>
        <time>2019-10-14T08:44:26.000Z</time>
      </trkpt>
      <trkpt lat="45.63346" lon="6.59221">
        <ele>1733.57</ele>
        <time>2019-10-14T08:44:31.000Z</time>
      </trkpt>
      <trkpt lat="45.63363" lon="6.59227">
        <ele>1732.35</ele>
        <time>2019-10-14T08:44:36.000Z</time>
      </trkpt>
      <trkpt lat="45.63379" lon="6.59227">
        <ele>1731.54</ele>
        <time>2019-10-14T08:44:41.000Z</time>
      </trkpt>
      <trkpt lat="45.63397" lon="6.59222">
        <ele>1733.27</ele>
        <time>2019-10-14T08:44:46.000Z</time>
      </trkpt>
      <trkpt lat="45.63414" lon="6.59215">
        <ele>1738.62</ele>
        <time>2019-10-14T08:44:51.000Z</time>
      </trkpt>
      <trkpt lat="45.63432" lon="6.59212">
        <ele>1737.53</ele>
        <time>2019-10-14T08:44:56.000Z</time>
      </trkpt>
      <trkpt lat="45.63448" lon="6.59216">
        <ele>1742.27</ele>
        <time>2019-10-14T08:45:01.000Z</time>
      </trkpt>
      <trkpt lat="45.63464" lon="6.59217">
        <ele>1741.98</ele>
        <time>2019-10-14T08:45:06.000Z</time>
      </trkpt>
      <trkpt lat="45.63481" lon="6.59207">
        <ele>1743.97</ele>
        <time>2019-10-14T08:45:11.000Z</time>
      </trkpt>
      <trkpt lat="45.63497" lon="6.592">
        <ele>1745.46</ele>
        <time>2019-10-14T08:45:16.000Z</time>
      </trkpt>
      <trkpt lat="45.63514" lon="6.59209">
        <ele>1750.17</ele>
        <time>2019-10-14T08:45:21.000Z</time>
      </trkpt>
      <trkpt lat="45.6353" lon="6.59218">
        <ele>1753.62</ele>
        <time>2019-10-14T08:45:26.000Z</time>
      </trkpt>
      <trkpt lat="45.63547" lon="6.59223">
        <ele>1756.99</ele>
        <time>2019-10-14T08:45:31.000Z</time>
      </trkpt>
      <trkpt lat="45.63564" lon="6.59229">
        <ele>1761.12</ele>
        <time>2019-10-14T08:45:36.000Z</time>
      </trkpt>
      <trkpt lat="45.63582" lon="6.59238">
        <ele>1760.59</ele>
        <time>2019-10-14T08:45:41.000Z</time>
      </trkpt>
      <trkpt lat="45.63584" lon="6.59255">
        <ele>1759.95</ele>
        <time>2019-10-14T08:45:46.000Z</time>
      </trkpt>
      <trkpt lat="45.63573" lon="6.59262">
        <ele>1758.61</ele>
        <time>2019-10-14T08:49:15.000Z</time>
      </trkpt>
      <trkpt lat="45.63556" lon="6.59261">
        <ele>1760.98</ele>
        <time>2019-10-14T08:49:20.000Z</time>
      </trkpt>
      <trkpt lat="45.63539" lon="6.59257">
        <ele>1761.76</ele>
        <time>2019-10-14T08:49:25.000Z</time>
      </trkpt>
      <trkpt lat="45.63521" lon="6.5926">
        <ele>1765.59</ele>
        <time>2019-10-14T08:49:30.000Z</time>
      </trkpt>
      <trkpt lat="45.63506" lon="6.59272">
        <ele>1766.2</ele>
        <time>2019-10-14T08:49:35.000Z</time>
      </trkpt>
      <trkpt lat="45.63493" lon="6.59288">
        <ele>1767.34</ele>
        <time>2019-10-14T08:49:40.000Z</time>
      </trkpt>
      <trkpt lat="45.63478" lon="6.59299">
        <ele>1767.12</ele>
        <time>2019-10-14T08:49:45.000Z</time>
      </trkpt>
      <trkpt lat="45.63462" lon="6.59302">
        <ele>1768.02</ele>
        <time>2019-10-14T08:49:50.000Z</time>
      </trkpt>
      <trkpt lat="45.63444" lon="6.59303">
        <ele>1770.79</ele>
        <time>2019-10-14T08:49:55.000Z</time>
      </trkpt>
      <trkpt lat="45.63426" lon="6.59305">
        <ele>1774.61</ele>
        <time>2019-10-14T08:50:00.000Z</time>
      </trkpt>
      <trkpt lat="45.63409" lon="6.59308">
        <ele>1777.96</ele>
        <time>2019-10-14T08:50:05.000Z</time>
      </trkpt>
      <trkpt lat="45.63392" lon="6.59309">
        <ele>1780.43</ele>
        <time>2019-10-14T08:50:10.000Z</time>
      </trkpt>
      <trkpt lat="45.63375" lon="6.59306">
        <ele>1781.51</ele>
        <time>2019-10-14T08:50:15.000Z</time>
      </trkpt>
      <trkpt lat="45.63358" lon="6.59308">
        <ele>1781.85</ele>
        <time>2019-10-14T08:50:20.000Z</time>
      </trkpt>
      <trkpt lat="45.63342" lon="6.59314">
        <ele>1784.91</ele>
        <time>2019-10-14T08:50:25.000Z</time>
      </trkpt>
      <trkpt lat="45.63328" lon="6.59326">
        <ele>1785.42</ele>
        <time>2019-10-14T08:50:30.000Z</time>
      </trkpt>
      <trkpt lat="45.63317" lon="6.59344">
        <ele>1787.51</ele>
        <time>2019-10-14T08:50:35.000Z</time>
      </trkpt>
      <trkpt lat="45.63306" lon="6.59367">
        <ele>1790.49</ele>
        <time>2019-10-14T08:50:40.000Z</time>
      </trkpt>
      <trkpt lat="45.63297" lon="6.59386">
        <ele>1793.35</ele>
        <time>2019-10-14T08:50:45.000Z</time>
      </trkpt>
      <trkpt lat="45.63287" lon="6.59403">
        <ele>1797.33</ele>
        <time>2019-10-14T08:50:50.000Z</time>
      </trkpt>
      <trkpt lat="45.63277" lon="6.59422">
        <ele>1796.98</ele>
        <time>2019-10-14T08:50:55.000Z</time>
      </trkpt>
      <trkpt lat="45.63266" lon="6.59438">
        <ele>1797.99</ele>
        <time>2019-10-14T08:51:00.000Z</time>
      </trkpt>
      <trkpt lat="45.63257" lon="6.59458">
        <ele>1801.03</ele>
        <time>2019-10-14T08:51:05.000Z</time>
      </trkpt>
      <trkpt lat="45.63267" lon="6.59472">
        <ele>1805.58</ele>
        <time>2019-10-14T08:51:10.000Z</time>
      </trkpt>
      <trkpt lat="45.63284" lon="6.59454">
        <ele>1807.79</ele>
        <time>2019-10-14T08:51:15.000Z</time>
      </trkpt>
      <trkpt lat="45.63297" lon="6.59434">
        <ele>1807.4</ele>
        <time>2019-10-14T08:51:20.000Z</time>
      </trkpt>
      <trkpt lat="45.63312" lon="6.59428">
        <ele>1809.78</ele>
        <time>2019-10-14T08:51:25.000Z</time>
      </trkpt>
      <trkpt lat="45.63302" lon="6.59451">
        <ele>1809.04</ele>
        <time>2019-10-14T08:51:30.000Z</time>
      </trkpt>
      <trkpt lat="45.6329" lon="6.59473">
        <ele>1810.18</ele>
        <time>2019-10-14T08:51:35.000Z</time>
      </trkpt>
      <trkpt lat="45.63283" lon="6.59499">
        <ele>1809.73</ele>
        <time>2019-10-14T08:51:40.000Z</time>
      </trkpt>
      <trkpt lat="45.63275" lon="6.59522">
        <ele>1808.37</ele>
        <time>2019-10-14T08:51:45.000Z</time>
      </trkpt>
      <trkpt lat="45.6326" lon="6.59538">
        <ele>1809.62</ele>
        <time>2019-10-14T08:51:50.000Z</time>
      </trkpt>
      <trkpt lat="45.63249" lon="6.59556">
        <ele>1811.34</ele>
        <time>2019-10-14T08:51:55.000Z</time>
      </trkpt>
      <trkpt lat="45.63238" lon="6.59575">
        <ele>1811.57</ele>
        <time>2019-10-14T08:52:00.000Z</time>
      </trkpt>
      <trkpt lat="45.63232" lon="6.59597">
        <ele>1814.26</ele>
        <time>2019-10-14T08:52:05.000Z</time>
      </trkpt>
      <trkpt lat="45.63225" lon="6.59618">
        <ele>1815.04</ele>
        <time>2019-10-14T08:52:10.000Z</time>
      </trkpt>
      <trkpt lat="45.63211" lon="6.59627">
        <ele>1815.81</ele>
        <time>2019-10-14T08:52:15.000Z</time>
      </trkpt>
      <trkpt lat="45.63196" lon="6.59637">
        <ele>1815.01</ele>
        <time>2019-10-14T08:52:20.000Z</time>
      </trkpt>
      <trkpt lat="45.63199" lon="6.59658">
        <ele>1820.77</ele>
        <time>2019-10-14T08:52:25.000Z</time>
      </trkpt>
      <trkpt lat="45.63196" lon="6.59684">
        <ele>1821.36</ele>
        <time>2019-10-14T08:52:30.000Z</time>
      </trkpt>
      <trkpt lat="45.63182" lon="6.59696">
        <ele>1820.51</ele>
        <time>2019-10-14T08:52:35.000Z</time>
      </trkpt>
      <trkpt lat="45.63166" lon="6.59699">
        <ele>1820.91</ele>
        <time>2019-10-14T08:52:40.000Z</time>
      </trkpt>
      <trkpt lat="45.63154" lon="6.59708">
        <ele>1820.23</ele>
        <time>2019-10-14T08:52:45.000Z</time>
      </trkpt>
      <trkpt lat="45.63142" lon="6.59722">
        <ele>1821.77</ele>
        <time>2019-10-14T08:52:50.000Z</time>
      </trkpt>
      <trkpt lat="45.63133" lon="6.59737">
        <ele>1823.48</ele>
        <time>2019-10-14T08:52:55.000Z</time>
      </trkpt>
      <trkpt lat="45.63122" lon="6.59754">
        <ele>1823.36</ele>
        <time>2019-10-14T08:53:00.000Z</time>
      </trkpt>
      <trkpt lat="45.6311" lon="6.59767">
        <ele>1823.51</ele>
        <time>2019-10-14T08:53:05.000Z</time>
      </trkpt>
      <trkpt lat="45.63098" lon="6.59779">
        <ele>1825.33</ele>
        <time>2019-10-14T08:53:10.000Z</time>
      </trkpt>
      <trkpt lat="45.63087" lon="6.59796">
        <ele>1828.44</ele>
        <time>2019-10-14T08:53:15.000Z</time>
      </trkpt>
      <trkpt lat="45.63079" lon="6.59812">
        <ele>1827.5</ele>
        <time>2019-10-14T08:53:20.000Z</time>
      </trkpt>
      <trkpt lat="45.63069" lon="6.59826">
        <ele>1829.34</ele>
        <time>2019-10-14T08:53:25.000Z</time>
      </trkpt>
      <trkpt lat="45.63054" lon="6.59835">
        <ele>1829.67</ele>
        <time>2019-10-14T08:53:30.000Z</time>
      </trkpt>
      <trkpt lat="45.6304" lon="6.59844">
        <ele>1832.63</ele>
        <time>2019-10-14T08:53:35.000Z</time>
      </trkpt>
      <trkpt lat="45.63026" lon="6.59852">
        <ele>1830.72</ele>
        <time>2019-10-14T08:53:40.000Z</time>
      </trkpt>
      <trkpt lat="45.63012" lon="6.59863">
        <ele>1832.76</ele>
        <time>2019-10-14T08:53:45.000Z</time>
      </trkpt>
      <trkpt lat="45.62999" lon="6.59874">
        <ele>1834.9</ele>
        <time>2019-10-14T08:53:50.000Z</time>
      </trkpt>
      <trkpt lat="45.62982" lon="6.59883">
        <ele>1838.16</ele>
        <time>2019-10-14T08:53:55.000Z</time>
      </trkpt>
      <trkpt lat="45.62965" lon="6.59893">
        <ele>1839.46</ele>
        <time>2019-10-14T08:54:00.000Z</time>
      </trkpt>
      <trkpt lat="45.62951" lon="6.59905">
        <ele>1840.4</ele>
        <time>2019-10-14T08:54:05.000Z</time>
      </trkpt>
      <trkpt lat="45.62939" lon="6.59917">
        <ele>1841.13</ele>
        <time>2019-10-14T08:54:10.000Z</time>
      </trkpt>
      <trkpt lat="45.62924" lon="6.59923">
        <ele>1846.52</ele>
        <time>2019-10-14T08:54:15.000Z</time>
      </trkpt>
      <trkpt lat="45.62911" lon="6.59927">
        <ele>1847.56</ele>
        <time>2019-10-14T08:54:20.000Z</time>
      </trkpt>
      <trkpt lat="45.62915" lon="6.59939">
        <ele>1848.54</ele>
        <time>2019-10-14T08:54:25.000Z</time>
      </trkpt>
      <trkpt lat="45.6293" lon="6.59936">
        <ele>1850.79</ele>
        <time>2019-10-14T08:54:30.000Z</time>
      </trkpt>
      <trkpt lat="45.62947" lon="6.59941">
        <ele>1852.65</ele>
        <time>2019-10-14T08:54:35.000Z</time>
      </trkpt>
      <trkpt lat="45.62964" lon="6.59942">
        <ele>1851.85</ele>
        <time>2019-10-14T08:54:40.000Z</time>
      </trkpt>
      <trkpt lat="45.62981" lon="6.59941">
        <ele>1851.24</ele>
        <time>2019-10-14T08:54:45.000Z</time>
      </trkpt>
      <trkpt lat="45.62995" lon="6.5994">
        <ele>1849.82</ele>
        <time>2019-10-14T08:54:50.000Z</time>
      </trkpt>
      <trkpt lat="45.63011" lon="6.59934">
        <ele>1851.6</ele>
        <time>2019-10-14T08:54:55.000Z</time>
      </trkpt>
      <trkpt lat="45.63025" lon="6.59928">
        <ele>1854.15</ele>
        <time>2019-10-14T08:55:00.000Z</time>
      </trkpt>
      <trkpt lat="45.6303" lon="6.59942">
        <ele>1855</ele>
        <time>2019-10-14T08:55:05.000Z</time>
      </trkpt>
      <trkpt lat="45.63021" lon="6.5994">
        <ele>1860.34</ele>
        <time>2019-10-14T08:55:41.000Z</time>
      </trkpt>
      <trkpt lat="45.63011" lon="6.59943">
        <ele>1863</ele>
        <time>2019-10-14T08:57:40.000Z</time>
      </trkpt>
      <trkpt lat="45.62996" lon="6.59955">
        <ele>1863.17</ele>
        <time>2019-10-14T08:57:45.000Z</time>
      </trkpt>
      <trkpt lat="45.62982" lon="6.59965">
        <ele>1865.35</ele>
        <time>2019-10-14T08:57:50.000Z</time>
      </trkpt>
      <trkpt lat="45.62971" lon="6.59974">
        <ele>1864.9</ele>
        <time>2019-10-14T08:57:55.000Z</time>
      </trkpt>
      <trkpt lat="45.62958" lon="6.5998">
        <ele>1868.35</ele>
        <time>2019-10-14T08:58:00.000Z</time>
      </trkpt>
      <trkpt lat="45.6295" lon="6.59992">
        <ele>1867.39</ele>
        <time>2019-10-14T08:58:05.000Z</time>
      </trkpt>
      <trkpt lat="45.62939" lon="6.60001">
        <ele>1870.61</ele>
        <time>2019-10-14T08:58:10.000Z</time>
      </trkpt>
      <trkpt lat="45.62928" lon="6.60009">
        <ele>1871.04</ele>
        <time>2019-10-14T08:58:15.000Z</time>
      </trkpt>
      <trkpt lat="45.62916" lon="6.60013">
        <ele>1873.72</ele>
        <time>2019-10-14T08:58:20.000Z</time>
      </trkpt>
      <trkpt lat="45.62904" lon="6.60016">
        <ele>1878.27</ele>
        <time>2019-10-14T08:58:25.000Z</time>
      </trkpt>
      <trkpt lat="45.62893" lon="6.60024">
        <ele>1878.75</ele>
        <time>2019-10-14T08:58:30.000Z</time>
      </trkpt>
      <trkpt lat="45.62886" lon="6.60038">
        <ele>1879.64</ele>
        <time>2019-10-14T08:58:35.000Z</time>
      </trkpt>
      <trkpt lat="45.62881" lon="6.60052">
        <ele>1878.38</ele>
        <time>2019-10-14T08:58:40.000Z</time>
      </trkpt>
      <trkpt lat="45.62877" lon="6.6007">
        <ele>1878.57</ele>
        <time>2019-10-14T08:58:45.000Z</time>
      </trkpt>
      <trkpt lat="45.62867" lon="6.60079">
        <ele>1879.26</ele>
        <time>2019-10-14T08:58:50.000Z</time>
      </trkpt>
      <trkpt lat="45.62853" lon="6.60078">
        <ele>1881</ele>
        <time>2019-10-14T08:58:55.000Z</time>
      </trkpt>
      <trkpt lat="45.62843" lon="6.60082">
        <ele>1883.7</ele>
        <time>2019-10-14T08:59:00.000Z</time>
      </trkpt>
      <trkpt lat="45.62829" lon="6.60083">
        <ele>1885.19</ele>
        <time>2019-10-14T08:59:05.000Z</time>
      </trkpt>
      <trkpt lat="45.62814" lon="6.60081">
        <ele>1887.25</ele>
        <time>2019-10-14T08:59:10.000Z</time>
      </trkpt>
      <trkpt lat="45.62802" lon="6.60079">
        <ele>1888.87</ele>
        <time>2019-10-14T08:59:15.000Z</time>
      </trkpt>
      <trkpt lat="45.6279" lon="6.60076">
        <ele>1889.36</ele>
        <time>2019-10-14T08:59:20.000Z</time>
      </trkpt>
      <trkpt lat="45.62778" lon="6.60075">
        <ele>1890.92</ele>
        <time>2019-10-14T08:59:25.000Z</time>
      </trkpt>
      <trkpt lat="45.62766" lon="6.6007">
        <ele>1893.74</ele>
        <time>2019-10-14T08:59:30.000Z</time>
      </trkpt>
      <trkpt lat="45.62753" lon="6.60067">
        <ele>1896.33</ele>
        <time>2019-10-14T08:59:35.000Z</time>
      </trkpt>
      <trkpt lat="45.6274" lon="6.60069">
        <ele>1895.44</ele>
        <time>2019-10-14T08:59:40.000Z</time>
      </trkpt>
      <trkpt lat="45.62727" lon="6.60068">
        <ele>1896.08</ele>
        <time>2019-10-14T08:59:45.000Z</time>
      </trkpt>
      <trkpt lat="45.62716" lon="6.60063">
        <ele>1896.6</ele>
        <time>2019-10-14T08:59:50.000Z</time>
      </trkpt>
      <trkpt lat="45.62704" lon="6.60049">
        <ele>1894.99</ele>
        <time>2019-10-14T08:59:55.000Z</time>
      </trkpt>
      <trkpt lat="45.62691" lon="6.60041">
        <ele>1895.33</ele>
        <time>2019-10-14T09:00:00.000Z</time>
      </trkpt>
      <trkpt lat="45.62677" lon="6.60036">
        <ele>1899.32</ele>
        <time>2019-10-14T09:00:05.000Z</time>
      </trkpt>
      <trkpt lat="45.62662" lon="6.6003">
        <ele>1899.08</ele>
        <time>2019-10-14T09:00:10.000Z</time>
      </trkpt>
      <trkpt lat="45.62647" lon="6.6003">
        <ele>1897.15</ele>
        <time>2019-10-14T09:00:15.000Z</time>
      </trkpt>
      <trkpt lat="45.62634" lon="6.60035">
        <ele>1898.9</ele>
        <time>2019-10-14T09:00:20.000Z</time>
      </trkpt>
      <trkpt lat="45.62621" lon="6.6004">
        <ele>1899.54</ele>
        <time>2019-10-14T09:00:25.000Z</time>
      </trkpt>
      <trkpt lat="45.62609" lon="6.60045">
        <ele>1899.71</ele>
        <time>2019-10-14T09:00:30.000Z</time>
      </trkpt>
      <trkpt lat="45.62602" lon="6.60062">
        <ele>1899.28</ele>
        <time>2019-10-14T09:00:35.000Z</time>
      </trkpt>
      <trkpt lat="45.62596" lon="6.60081">
        <ele>1900.58</ele>
        <time>2019-10-14T09:00:40.000Z</time>
      </trkpt>
      <trkpt lat="45.62593" lon="6.601">
        <ele>1901.65</ele>
        <time>2019-10-14T09:00:45.000Z</time>
      </trkpt>
      <trkpt lat="45.62585" lon="6.60116">
        <ele>1903.18</ele>
        <time>2019-10-14T09:00:50.000Z</time>
      </trkpt>
      <trkpt lat="45.62576" lon="6.60133">
        <ele>1904.18</ele>
        <time>2019-10-14T09:00:55.000Z</time>
      </trkpt>
      <trkpt lat="45.62571" lon="6.6015">
        <ele>1905.45</ele>
        <time>2019-10-14T09:01:00.000Z</time>
      </trkpt>
      <trkpt lat="45.62573" lon="6.60167">
        <ele>1907.13</ele>
        <time>2019-10-14T09:01:05.000Z</time>
      </trkpt>
      <trkpt lat="45.62579" lon="6.60186">
        <ele>1909.14</ele>
        <time>2019-10-14T09:01:10.000Z</time>
      </trkpt>
      <trkpt lat="45.62586" lon="6.60208">
        <ele>1907.88</ele>
        <time>2019-10-14T09:01:15.000Z</time>
      </trkpt>
      <trkpt lat="45.62594" lon="6.60232">
        <ele>1911.28</ele>
        <time>2019-10-14T09:01:20.000Z</time>
      </trkpt>
      <trkpt lat="45.626" lon="6.60249">
        <ele>1913.16</ele>
        <time>2019-10-14T09:01:25.000Z</time>
      </trkpt>
      <trkpt lat="45.62606" lon="6.60262">
        <ele>1915.92</ele>
        <time>2019-10-14T09:01:30.000Z</time>
      </trkpt>
      <trkpt lat="45.62594" lon="6.60269">
        <ele>1915.81</ele>
        <time>2019-10-14T09:01:35.000Z</time>
      </trkpt>
      <trkpt lat="45.6258" lon="6.60253">
        <ele>1918.58</ele>
        <time>2019-10-14T09:01:40.000Z</time>
      </trkpt>
      <trkpt lat="45.6257" lon="6.60234">
        <ele>1919.39</ele>
        <time>2019-10-14T09:01:45.000Z</time>
      </trkpt>
      <trkpt lat="45.62555" lon="6.60222">
        <ele>1918.23</ele>
        <time>2019-10-14T09:01:50.000Z</time>
      </trkpt>
      <trkpt lat="45.62541" lon="6.60212">
        <ele>1920.19</ele>
        <time>2019-10-14T09:01:55.000Z</time>
      </trkpt>
      <trkpt lat="45.62528" lon="6.60206">
        <ele>1924.41</ele>
        <time>2019-10-14T09:02:00.000Z</time>
      </trkpt>
      <trkpt lat="45.62517" lon="6.60218">
        <ele>1924.54</ele>
        <time>2019-10-14T09:02:05.000Z</time>
      </trkpt>
      <trkpt lat="45.62525" lon="6.60237">
        <ele>1927.5</ele>
        <time>2019-10-14T09:02:10.000Z</time>
      </trkpt>
      <trkpt lat="45.6254" lon="6.60249">
        <ele>1927.94</ele>
        <time>2019-10-14T09:02:15.000Z</time>
      </trkpt>
      <trkpt lat="45.62555" lon="6.60261">
        <ele>1930.8</ele>
        <time>2019-10-14T09:02:20.000Z</time>
      </trkpt>
      <trkpt lat="45.62567" lon="6.60275">
        <ele>1931.21</ele>
        <time>2019-10-14T09:02:25.000Z</time>
      </trkpt>
      <trkpt lat="45.62578" lon="6.60293">
        <ele>1932.58</ele>
        <time>2019-10-14T09:02:30.000Z</time>
      </trkpt>
      <trkpt lat="45.6259" lon="6.60311">
        <ele>1930.97</ele>
        <time>2019-10-14T09:02:35.000Z</time>
      </trkpt>
      <trkpt lat="45.62599" lon="6.60324">
        <ele>1929.96</ele>
        <time>2019-10-14T09:02:40.000Z</time>
      </trkpt>
      <trkpt lat="45.6261" lon="6.60338">
        <ele>1931.05</ele>
        <time>2019-10-14T09:02:45.000Z</time>
      </trkpt>
      <trkpt lat="45.62619" lon="6.60353">
        <ele>1934.52</ele>
        <time>2019-10-14T09:02:50.000Z</time>
      </trkpt>
      <trkpt lat="45.62628" lon="6.60368">
        <ele>1937.71</ele>
        <time>2019-10-14T09:02:55.000Z</time>
      </trkpt>
      <trkpt lat="45.62641" lon="6.60386">
        <ele>1939.12</ele>
        <time>2019-10-14T09:03:00.000Z</time>
      </trkpt>
      <trkpt lat="45.62652" lon="6.60398">
        <ele>1941.06</ele>
        <time>2019-10-14T09:03:05.000Z</time>
      </trkpt>
      <trkpt lat="45.62668" lon="6.60395">
        <ele>1943.14</ele>
        <time>2019-10-14T09:03:10.000Z</time>
      </trkpt>
      <trkpt lat="45.62681" lon="6.60385">
        <ele>1943.78</ele>
        <time>2019-10-14T09:03:15.000Z</time>
      </trkpt>
      <trkpt lat="45.62696" lon="6.6038">
        <ele>1937.29</ele>
        <time>2019-10-14T09:03:20.000Z</time>
      </trkpt>
      <trkpt lat="45.62712" lon="6.6038">
        <ele>1939.36</ele>
        <time>2019-10-14T09:03:25.000Z</time>
      </trkpt>
      <trkpt lat="45.62726" lon="6.60391">
        <ele>1940.59</ele>
        <time>2019-10-14T09:03:30.000Z</time>
      </trkpt>
      <trkpt lat="45.62717" lon="6.6039">
        <ele>1957.73</ele>
        <time>2019-10-14T09:06:50.000Z</time>
      </trkpt>
      <trkpt lat="45.62708" lon="6.60398">
        <ele>1960.24</ele>
        <time>2019-10-14T09:07:06.000Z</time>
      </trkpt>
      <trkpt lat="45.62696" lon="6.60402">
        <ele>1963.79</ele>
        <time>2019-10-14T09:07:11.000Z</time>
      </trkpt>
      <trkpt lat="45.62683" lon="6.604">
        <ele>1964.95</ele>
        <time>2019-10-14T09:07:16.000Z</time>
      </trkpt>
      <trkpt lat="45.62672" lon="6.60409">
        <ele>1963.52</ele>
        <time>2019-10-14T09:07:21.000Z</time>
      </trkpt>
      <trkpt lat="45.6266" lon="6.60426">
        <ele>1963.46</ele>
        <time>2019-10-14T09:07:26.000Z</time>
      </trkpt>
      <trkpt lat="45.6265" lon="6.60439">
        <ele>1962.1</ele>
        <time>2019-10-14T09:07:31.000Z</time>
      </trkpt>
      <trkpt lat="45.62641" lon="6.6045">
        <ele>1961.66</ele>
        <time>2019-10-14T09:07:36.000Z</time>
      </trkpt>
      <trkpt lat="45.62631" lon="6.60467">
        <ele>1962.61</ele>
        <time>2019-10-14T09:07:41.000Z</time>
      </trkpt>
      <trkpt lat="45.62622" lon="6.60479">
        <ele>1960.47</ele>
        <time>2019-10-14T09:07:46.000Z</time>
      </trkpt>
      <trkpt lat="45.62609" lon="6.60488">
        <ele>1962.49</ele>
        <time>2019-10-14T09:07:51.000Z</time>
      </trkpt>
      <trkpt lat="45.62596" lon="6.60491">
        <ele>1963.18</ele>
        <time>2019-10-14T09:07:56.000Z</time>
      </trkpt>
      <trkpt lat="45.62582" lon="6.60488">
        <ele>1964.81</ele>
        <time>2019-10-14T09:08:01.000Z</time>
      </trkpt>
      <trkpt lat="45.62568" lon="6.60484">
        <ele>1967.34</ele>
        <time>2019-10-14T09:08:06.000Z</time>
      </trkpt>
      <trkpt lat="45.62558" lon="6.60483">
        <ele>1968.68</ele>
        <time>2019-10-14T09:08:11.000Z</time>
      </trkpt>
      <trkpt lat="45.62547" lon="6.60492">
        <ele>1967.2</ele>
        <time>2019-10-14T09:08:16.000Z</time>
      </trkpt>
      <trkpt lat="45.62538" lon="6.60505">
        <ele>1970.88</ele>
        <time>2019-10-14T09:08:21.000Z</time>
      </trkpt>
      <trkpt lat="45.62525" lon="6.6051">
        <ele>1973.1</ele>
        <time>2019-10-14T09:08:26.000Z</time>
      </trkpt>
      <trkpt lat="45.62511" lon="6.6051">
        <ele>1976.18</ele>
        <time>2019-10-14T09:08:31.000Z</time>
      </trkpt>
      <trkpt lat="45.62497" lon="6.60507">
        <ele>1974.35</ele>
        <time>2019-10-14T09:08:36.000Z</time>
      </trkpt>
      <trkpt lat="45.62483" lon="6.60504">
        <ele>1974.35</ele>
        <time>2019-10-14T09:08:41.000Z</time>
      </trkpt>
      <trkpt lat="45.6247" lon="6.60511">
        <ele>1973.44</ele>
        <time>2019-10-14T09:08:46.000Z</time>
      </trkpt>
      <trkpt lat="45.62457" lon="6.60518">
        <ele>1972.82</ele>
        <time>2019-10-14T09:08:51.000Z</time>
      </trkpt>
      <trkpt lat="45.62441" lon="6.60519">
        <ele>1975.48</ele>
        <time>2019-10-14T09:08:56.000Z</time>
      </trkpt>
      <trkpt lat="45.62425" lon="6.60516">
        <ele>1975.52</ele>
        <time>2019-10-14T09:09:01.000Z</time>
      </trkpt>
      <trkpt lat="45.62411" lon="6.6051">
        <ele>1973.93</ele>
        <time>2019-10-14T09:09:06.000Z</time>
      </trkpt>
      <trkpt lat="45.62398" lon="6.60493">
        <ele>1984.14</ele>
        <time>2019-10-14T09:09:11.000Z</time>
      </trkpt>
      <trkpt lat="45.6239" lon="6.60472">
        <ele>1982.77</ele>
        <time>2019-10-14T09:09:16.000Z</time>
      </trkpt>
      <trkpt lat="45.62385" lon="6.60449">
        <ele>1984.02</ele>
        <time>2019-10-14T09:09:21.000Z</time>
      </trkpt>
      <trkpt lat="45.6238" lon="6.6043">
        <ele>1983.54</ele>
        <time>2019-10-14T09:09:26.000Z</time>
      </trkpt>
      <trkpt lat="45.62374" lon="6.60412">
        <ele>1983.39</ele>
        <time>2019-10-14T09:09:31.000Z</time>
      </trkpt>
      <trkpt lat="45.62374" lon="6.60397">
        <ele>1987.21</ele>
        <time>2019-10-14T09:09:36.000Z</time>
      </trkpt>
      <trkpt lat="45.62368" lon="6.60382">
        <ele>1987.62</ele>
        <time>2019-10-14T09:09:41.000Z</time>
      </trkpt>
      <trkpt lat="45.62357" lon="6.60368">
        <ele>1988.11</ele>
        <time>2019-10-14T09:09:46.000Z</time>
      </trkpt>
      <trkpt lat="45.62346" lon="6.60354">
        <ele>1990.62</ele>
        <time>2019-10-14T09:09:51.000Z</time>
      </trkpt>
      <trkpt lat="45.62339" lon="6.60339">
        <ele>1996.88</ele>
        <time>2019-10-14T09:09:56.000Z</time>
      </trkpt>
      <trkpt lat="45.62331" lon="6.60325">
        <ele>2000.68</ele>
        <time>2019-10-14T09:10:01.000Z</time>
      </trkpt>
      <trkpt lat="45.62318" lon="6.60318">
        <ele>2001.74</ele>
        <time>2019-10-14T09:10:06.000Z</time>
      </trkpt>
      <trkpt lat="45.62308" lon="6.60301">
        <ele>2003.16</ele>
        <time>2019-10-14T09:10:11.000Z</time>
      </trkpt>
      <trkpt lat="45.62302" lon="6.60282">
        <ele>2005.74</ele>
        <time>2019-10-14T09:10:16.000Z</time>
      </trkpt>
      <trkpt lat="45.62298" lon="6.6026">
        <ele>2008.11</ele>
        <time>2019-10-14T09:10:21.000Z</time>
      </trkpt>
      <trkpt lat="45.62298" lon="6.60239">
        <ele>2009.63</ele>
        <time>2019-10-14T09:10:26.000Z</time>
      </trkpt>
      <trkpt lat="45.62297" lon="6.60219">
        <ele>2010.43</ele>
        <time>2019-10-14T09:10:31.000Z</time>
      </trkpt>
      <trkpt lat="45.6229" lon="6.60202">
        <ele>2010.02</ele>
        <time>2019-10-14T09:10:36.000Z</time>
      </trkpt>
      <trkpt lat="45.62281" lon="6.60188">
        <ele>2014.71</ele>
        <time>2019-10-14T09:10:41.000Z</time>
      </trkpt>
      <trkpt lat="45.62271" lon="6.60176">
        <ele>2017.15</ele>
        <time>2019-10-14T09:10:46.000Z</time>
      </trkpt>
      <trkpt lat="45.62263" lon="6.60169">
        <ele>2019.63</ele>
        <time>2019-10-14T09:14:25.000Z</time>
      </trkpt>
      <trkpt lat="45.62255" lon="6.60177">
        <ele>2019.3</ele>
        <time>2019-10-14T09:14:31.000Z</time>
      </trkpt>
      <trkpt lat="45.62242" lon="6.60187">
        <ele>2019.97</ele>
        <time>2019-10-14T09:14:36.000Z</time>
      </trkpt>
      <trkpt lat="45.62231" lon="6.60199">
        <ele>2018.91</ele>
        <time>2019-10-14T09:14:41.000Z</time>
      </trkpt>
      <trkpt lat="45.6222" lon="6.60212">
        <ele>2018.76</ele>
        <time>2019-10-14T09:14:46.000Z</time>
      </trkpt>
      <trkpt lat="45.6221" lon="6.60223">
        <ele>2018.96</ele>
        <time>2019-10-14T09:14:51.000Z</time>
      </trkpt>
      <trkpt lat="45.62201" lon="6.60237">
        <ele>2020.14</ele>
        <time>2019-10-14T09:14:56.000Z</time>
      </trkpt>
      <trkpt lat="45.62189" lon="6.6025">
        <ele>2021.08</ele>
        <time>2019-10-14T09:15:01.000Z</time>
      </trkpt>
      <trkpt lat="45.62173" lon="6.60256">
        <ele>2025.81</ele>
        <time>2019-10-14T09:15:06.000Z</time>
      </trkpt>
      <trkpt lat="45.62157" lon="6.60263">
        <ele>2027.45</ele>
        <time>2019-10-14T09:15:11.000Z</time>
      </trkpt>
      <trkpt lat="45.62144" lon="6.60253">
        <ele>2027</ele>
        <time>2019-10-14T09:15:16.000Z</time>
      </trkpt>
      <trkpt lat="45.62132" lon="6.6024">
        <ele>2027.16</ele>
        <time>2019-10-14T09:15:21.000Z</time>
      </trkpt>
      <trkpt lat="45.62119" lon="6.60237">
        <ele>2030.71</ele>
        <time>2019-10-14T09:15:26.000Z</time>
      </trkpt>
      <trkpt lat="45.62105" lon="6.60231">
        <ele>2029.18</ele>
        <time>2019-10-14T09:15:31.000Z</time>
      </trkpt>
      <trkpt lat="45.62095" lon="6.6022">
        <ele>2028.33</ele>
        <time>2019-10-14T09:15:36.000Z</time>
      </trkpt>
      <trkpt lat="45.62084" lon="6.60207">
        <ele>2028.65</ele>
        <time>2019-10-14T09:15:41.000Z</time>
      </trkpt>
      <trkpt lat="45.62071" lon="6.60199">
        <ele>2029.23</ele>
        <time>2019-10-14T09:15:46.000Z</time>
      </trkpt>
      <trkpt lat="45.62064" lon="6.60177">
        <ele>2037.9</ele>
        <time>2019-10-14T09:15:51.000Z</time>
      </trkpt>
      <trkpt lat="45.62056" lon="6.60158">
        <ele>2038.14</ele>
        <time>2019-10-14T09:15:56.000Z</time>
      </trkpt>
      <trkpt lat="45.62043" lon="6.60145">
        <ele>2039.16</ele>
        <time>2019-10-14T09:16:01.000Z</time>
      </trkpt>
      <trkpt lat="45.62031" lon="6.6014">
        <ele>2039.87</ele>
        <time>2019-10-14T09:16:06.000Z</time>
      </trkpt>
      <trkpt lat="45.62019" lon="6.6013">
        <ele>2041.94</ele>
        <time>2019-10-14T09:16:11.000Z</time>
      </trkpt>
      <trkpt lat="45.62007" lon="6.60115">
        <ele>2043.6</ele>
        <time>2019-10-14T09:16:16.000Z</time>
      </trkpt>
      <trkpt lat="45.61992" lon="6.60109">
        <ele>2046.54</ele>
        <time>2019-10-14T09:16:21.000Z</time>
      </trkpt>
      <trkpt lat="45.61979" lon="6.60102">
        <ele>2049.82</ele>
        <time>2019-10-14T09:16:26.000Z</time>
      </trkpt>
      <trkpt lat="45.61969" lon="6.60087">
        <ele>2053.47</ele>
        <time>2019-10-14T09:16:31.000Z</time>
      </trkpt>
      <trkpt lat="45.61962" lon="6.60069">
        <ele>2054.71</ele>
        <time>2019-10-14T09:16:36.000Z</time>
      </trkpt>
      <trkpt lat="45.61958" lon="6.60047">
        <ele>2055.79</ele>
        <time>2019-10-14T09:16:41.000Z</time>
      </trkpt>
      <trkpt lat="45.61962" lon="6.60024">
        <ele>2058.26</ele>
        <time>2019-10-14T09:16:46.000Z</time>
      </trkpt>
      <trkpt lat="45.6197" lon="6.60003">
        <ele>2060.05</ele>
        <time>2019-10-14T09:16:51.000Z</time>
      </trkpt>
      <trkpt lat="45.61975" lon="6.59984">
        <ele>2061.06</ele>
        <time>2019-10-14T09:16:56.000Z</time>
      </trkpt>
      <trkpt lat="45.61974" lon="6.59965">
        <ele>2062.55</ele>
        <time>2019-10-14T09:17:01.000Z</time>
      </trkpt>
      <trkpt lat="45.6196" lon="6.59958">
        <ele>2061.91</ele>
        <time>2019-10-14T09:17:06.000Z</time>
      </trkpt>
      <trkpt lat="45.61945" lon="6.59969">
        <ele>2061.01</ele>
        <time>2019-10-14T09:17:11.000Z</time>
      </trkpt>
      <trkpt lat="45.61934" lon="6.59986">
        <ele>2061.55</ele>
        <time>2019-10-14T09:17:16.000Z</time>
      </trkpt>
      <trkpt lat="45.61921" lon="6.59998">
        <ele>2063.34</ele>
        <time>2019-10-14T09:17:21.000Z</time>
      </trkpt>
      <trkpt lat="45.61907" lon="6.60004">
        <ele>2068.82</ele>
        <time>2019-10-14T09:17:26.000Z</time>
      </trkpt>
      <trkpt lat="45.61893" lon="6.60008">
        <ele>2071.47</ele>
        <time>2019-10-14T09:17:31.000Z</time>
      </trkpt>
      <trkpt lat="45.6188" lon="6.60016">
        <ele>2073.6</ele>
        <time>2019-10-14T09:17:36.000Z</time>
      </trkpt>
      <trkpt lat="45.61868" lon="6.60025">
        <ele>2073.44</ele>
        <time>2019-10-14T09:17:41.000Z</time>
      </trkpt>
      <trkpt lat="45.61856" lon="6.60039">
        <ele>2073.51</ele>
        <time>2019-10-14T09:17:46.000Z</time>
      </trkpt>
      <trkpt lat="45.61847" lon="6.60055">
        <ele>2074.9</ele>
        <time>2019-10-14T09:17:51.000Z</time>
      </trkpt>
      <trkpt lat="45.6184" lon="6.60071">
        <ele>2068.46</ele>
        <time>2019-10-14T09:17:56.000Z</time>
      </trkpt>
      <trkpt lat="45.61832" lon="6.60087">
        <ele>2069.04</ele>
        <time>2019-10-14T09:18:01.000Z</time>
      </trkpt>
      <trkpt lat="45.61823" lon="6.60101">
        <ele>2070.08</ele>
        <time>2019-10-14T09:18:06.000Z</time>
      </trkpt>
      <trkpt lat="45.61815" lon="6.60117">
        <ele>2073.23</ele>
        <time>2019-10-14T09:18:11.000Z</time>
      </trkpt>
      <trkpt lat="45.61809" lon="6.60133">
        <ele>2073.88</ele>
        <time>2019-10-14T09:18:16.000Z</time>
      </trkpt>
      <trkpt lat="45.61802" lon="6.6015">
        <ele>2074.61</ele>
        <time>2019-10-14T09:18:21.000Z</time>
      </trkpt>
      <trkpt lat="45.61794" lon="6.60166">
        <ele>2077.4</ele>
        <time>2019-10-14T09:18:26.000Z</time>
      </trkpt>
      <trkpt lat="45.61783" lon="6.60181">
        <ele>2079.59</ele>
        <time>2019-10-14T09:18:31.000Z</time>
      </trkpt>
      <trkpt lat="45.61769" lon="6.6019">
        <ele>2083.46</ele>
        <time>2019-10-14T09:18:36.000Z</time>
      </trkpt>
      <trkpt lat="45.61758" lon="6.6021">
        <ele>2086.67</ele>
        <time>2019-10-14T09:18:41.000Z</time>
      </trkpt>
      <trkpt lat="45.61747" lon="6.60229">
        <ele>2093.1</ele>
        <time>2019-10-14T09:18:46.000Z</time>
      </trkpt>
      <trkpt lat="45.61735" lon="6.60247">
        <ele>2094.39</ele>
        <time>2019-10-14T09:18:51.000Z</time>
      </trkpt>
      <trkpt lat="45.61723" lon="6.60259">
        <ele>2092.14</ele>
        <time>2019-10-14T09:18:56.000Z</time>
      </trkpt>
      <trkpt lat="45.61715" lon="6.60276">
        <ele>2093.08</ele>
        <time>2019-10-14T09:19:01.000Z</time>
      </trkpt>
      <trkpt lat="45.61716" lon="6.60296">
        <ele>2094.62</ele>
        <time>2019-10-14T09:19:06.000Z</time>
      </trkpt>
      <trkpt lat="45.61723" lon="6.6031">
        <ele>2094.73</ele>
        <time>2019-10-14T09:19:11.000Z</time>
      </trkpt>
      <trkpt lat="45.61727" lon="6.60297">
        <ele>2105.08</ele>
        <time>2019-10-14T09:21:00.000Z</time>
      </trkpt>
      <trkpt lat="45.61731" lon="6.60283">
        <ele>2106.57</ele>
        <time>2019-10-14T09:21:05.000Z</time>
      </trkpt>
      <trkpt lat="45.61734" lon="6.60271">
        <ele>2105.73</ele>
        <time>2019-10-14T09:21:13.000Z</time>
      </trkpt>
      <trkpt lat="45.61734" lon="6.60257">
        <ele>2107.05</ele>
        <time>2019-10-14T09:21:23.000Z</time>
      </trkpt>
      <trkpt lat="45.6173" lon="6.60271">
        <ele>2111.28</ele>
        <time>2019-10-14T09:21:49.000Z</time>
      </trkpt>
      <trkpt lat="45.61725" lon="6.60283">
        <ele>2116.4</ele>
        <time>2019-10-14T09:21:56.000Z</time>
      </trkpt>
      <trkpt lat="45.61726" lon="6.60296">
        <ele>2111.85</ele>
        <time>2019-10-14T09:22:02.000Z</time>
      </trkpt>
      <trkpt lat="45.61729" lon="6.60309">
        <ele>2107.15</ele>
        <time>2019-10-14T09:22:12.000Z</time>
      </trkpt>
      <trkpt lat="45.61737" lon="6.60317">
        <ele>2107.71</ele>
        <time>2019-10-14T09:25:39.000Z</time>
      </trkpt>
      <trkpt lat="45.61744" lon="6.6033">
        <ele>2106.91</ele>
        <time>2019-10-14T09:25:44.000Z</time>
      </trkpt>
      <trkpt lat="45.61746" lon="6.60347">
        <ele>2107.24</ele>
        <time>2019-10-14T09:25:49.000Z</time>
      </trkpt>
      <trkpt lat="45.61745" lon="6.60366">
        <ele>2105.8</ele>
        <time>2019-10-14T09:25:54.000Z</time>
      </trkpt>
      <trkpt lat="45.61745" lon="6.6038">
        <ele>2108.02</ele>
        <time>2019-10-14T09:25:59.000Z</time>
      </trkpt>
      <trkpt lat="45.61749" lon="6.60395">
        <ele>2105.07</ele>
        <time>2019-10-14T09:26:04.000Z</time>
      </trkpt>
      <trkpt lat="45.61757" lon="6.6041">
        <ele>2102.61</ele>
        <time>2019-10-14T09:26:09.000Z</time>
      </trkpt>
      <trkpt lat="45.61768" lon="6.60421">
        <ele>2099.18</ele>
        <time>2019-10-14T09:26:14.000Z</time>
      </trkpt>
      <trkpt lat="45.61776" lon="6.60439">
        <ele>2097.79</ele>
        <time>2019-10-14T09:26:19.000Z</time>
      </trkpt>
      <trkpt lat="45.61777" lon="6.60461">
        <ele>2094.97</ele>
        <time>2019-10-14T09:26:24.000Z</time>
      </trkpt>
      <trkpt lat="45.61779" lon="6.60482">
        <ele>2094.19</ele>
        <time>2019-10-14T09:26:29.000Z</time>
      </trkpt>
      <trkpt lat="45.61782" lon="6.60503">
        <ele>2095.11</ele>
        <time>2019-10-14T09:26:34.000Z</time>
      </trkpt>
      <trkpt lat="45.61786" lon="6.60522">
        <ele>2097.67</ele>
        <time>2019-10-14T09:26:39.000Z</time>
      </trkpt>
      <trkpt lat="45.61798" lon="6.60535">
        <ele>2098.82</ele>
        <time>2019-10-14T09:26:44.000Z</time>
      </trkpt>
      <trkpt lat="45.61814" lon="6.60534">
        <ele>2103.14</ele>
        <time>2019-10-14T09:26:49.000Z</time>
      </trkpt>
      <trkpt lat="45.61826" lon="6.60538">
        <ele>2103.95</ele>
        <time>2019-10-14T09:26:54.000Z</time>
      </trkpt>
      <trkpt lat="45.61835" lon="6.60552">
        <ele>2102.21</ele>
        <time>2019-10-14T09:26:59.000Z</time>
      </trkpt>
      <trkpt lat="45.6184" lon="6.60568">
        <ele>2102.72</ele>
        <time>2019-10-14T09:27:04.000Z</time>
      </trkpt>
      <trkpt lat="45.61841" lon="6.60582">
        <ele>2101.97</ele>
        <time>2019-10-14T09:27:10.000Z</time>
      </trkpt>
      <trkpt lat="45.61849" lon="6.60593">
        <ele>2098.74</ele>
        <time>2019-10-14T09:28:45.000Z</time>
      </trkpt>
      <trkpt lat="45.61857" lon="6.60605">
        <ele>2094.68</ele>
        <time>2019-10-14T09:28:50.000Z</time>
      </trkpt>
      <trkpt lat="45.61862" lon="6.60618">
        <ele>2092.11</ele>
        <time>2019-10-14T09:28:55.000Z</time>
      </trkpt>
      <trkpt lat="45.61864" lon="6.60635">
        <ele>2090.82</ele>
        <time>2019-10-14T09:29:00.000Z</time>
      </trkpt>
      <trkpt lat="45.61868" lon="6.60651">
        <ele>2090.73</ele>
        <time>2019-10-14T09:29:05.000Z</time>
      </trkpt>
      <trkpt lat="45.61875" lon="6.60662">
        <ele>2088.02</ele>
        <time>2019-10-14T09:29:10.000Z</time>
      </trkpt>
      <trkpt lat="45.61881" lon="6.60683">
        <ele>2087.44</ele>
        <time>2019-10-14T09:29:15.000Z</time>
      </trkpt>
      <trkpt lat="45.61887" lon="6.60703">
        <ele>2085.49</ele>
        <time>2019-10-14T09:29:20.000Z</time>
      </trkpt>
      <trkpt lat="45.61895" lon="6.60721">
        <ele>2086.04</ele>
        <time>2019-10-14T09:29:25.000Z</time>
      </trkpt>
      <trkpt lat="45.61893" lon="6.60736">
        <ele>2089.36</ele>
        <time>2019-10-14T09:29:30.000Z</time>
      </trkpt>
      <trkpt lat="45.61884" lon="6.6073">
        <ele>2090.1</ele>
        <time>2019-10-14T09:29:36.000Z</time>
      </trkpt>
      <trkpt lat="45.61876" lon="6.60713">
        <ele>2089.67</ele>
        <time>2019-10-14T09:29:41.000Z</time>
      </trkpt>
      <trkpt lat="45.61866" lon="6.60702">
        <ele>2090.98</ele>
        <time>2019-10-14T09:29:46.000Z</time>
      </trkpt>
      <trkpt lat="45.61854" lon="6.60692">
        <ele>2090.06</ele>
        <time>2019-10-14T09:29:51.000Z</time>
      </trkpt>
      <trkpt lat="45.61843" lon="6.60683">
        <ele>2088.89</ele>
        <time>2019-10-14T09:29:56.000Z</time>
      </trkpt>
      <trkpt lat="45.6183" lon="6.60686">
        <ele>2086</ele>
        <time>2019-10-14T09:30:01.000Z</time>
      </trkpt>
      <trkpt lat="45.61819" lon="6.60692">
        <ele>2083.12</ele>
        <time>2019-10-14T09:30:06.000Z</time>
      </trkpt>
      <trkpt lat="45.6181" lon="6.60707">
        <ele>2082.6</ele>
        <time>2019-10-14T09:30:11.000Z</time>
      </trkpt>
      <trkpt lat="45.61804" lon="6.60726">
        <ele>2080.02</ele>
        <time>2019-10-14T09:30:16.000Z</time>
      </trkpt>
      <trkpt lat="45.61796" lon="6.60742">
        <ele>2079.49</ele>
        <time>2019-10-14T09:30:21.000Z</time>
      </trkpt>
      <trkpt lat="45.61786" lon="6.60751">
        <ele>2078.71</ele>
        <time>2019-10-14T09:30:26.000Z</time>
      </trkpt>
      <trkpt lat="45.61773" lon="6.60762">
        <ele>2076.06</ele>
        <time>2019-10-14T09:30:31.000Z</time>
      </trkpt>
      <trkpt lat="45.61762" lon="6.60772">
        <ele>2076.63</ele>
        <time>2019-10-14T09:30:36.000Z</time>
      </trkpt>
      <trkpt lat="45.61751" lon="6.60784">
        <ele>2077.42</ele>
        <time>2019-10-14T09:30:41.000Z</time>
      </trkpt>
      <trkpt lat="45.6176" lon="6.60791">
        <ele>2071.24</ele>
        <time>2019-10-14T09:31:35.000Z</time>
      </trkpt>
      <trkpt lat="45.6177" lon="6.60787">
        <ele>2070.18</ele>
        <time>2019-10-14T09:31:40.000Z</time>
      </trkpt>
      <trkpt lat="45.61781" lon="6.60792">
        <ele>2069.71</ele>
        <time>2019-10-14T09:31:46.000Z</time>
      </trkpt>
      <trkpt lat="45.61789" lon="6.60805">
        <ele>2067.8</ele>
        <time>2019-10-14T09:31:51.000Z</time>
      </trkpt>
      <trkpt lat="45.61799" lon="6.60812">
        <ele>2066.16</ele>
        <time>2019-10-14T09:31:56.000Z</time>
      </trkpt>
      <trkpt lat="45.61813" lon="6.60811">
        <ele>2063.89</ele>
        <time>2019-10-14T09:32:01.000Z</time>
      </trkpt>
      <trkpt lat="45.61826" lon="6.60803">
        <ele>2058.81</ele>
        <time>2019-10-14T09:32:06.000Z</time>
      </trkpt>
      <trkpt lat="45.61836" lon="6.60801">
        <ele>2056.29</ele>
        <time>2019-10-14T09:32:11.000Z</time>
      </trkpt>
      <trkpt lat="45.61847" lon="6.60809">
        <ele>2057.25</ele>
        <time>2019-10-14T09:32:16.000Z</time>
      </trkpt>
      <trkpt lat="45.61857" lon="6.60821">
        <ele>2054.61</ele>
        <time>2019-10-14T09:32:21.000Z</time>
      </trkpt>
      <trkpt lat="45.61864" lon="6.60832">
        <ele>2054.26</ele>
        <time>2019-10-14T09:32:26.000Z</time>
      </trkpt>
      <trkpt lat="45.61867" lon="6.60844">
        <ele>2051.28</ele>
        <time>2019-10-14T09:32:31.000Z</time>
      </trkpt>
      <trkpt lat="45.61868" lon="6.60862">
        <ele>2049.68</ele>
        <time>2019-10-14T09:32:36.000Z</time>
      </trkpt>
      <trkpt lat="45.61869" lon="6.6088">
        <ele>2047.09</ele>
        <time>2019-10-14T09:32:41.000Z</time>
      </trkpt>
      <trkpt lat="45.61872" lon="6.60898">
        <ele>2045.27</ele>
        <time>2019-10-14T09:32:46.000Z</time>
      </trkpt>
      <trkpt lat="45.61876" lon="6.60914">
        <ele>2043.99</ele>
        <time>2019-10-14T09:32:51.000Z</time>
      </trkpt>
      <trkpt lat="45.61882" lon="6.6093">
        <ele>2042.4</ele>
        <time>2019-10-14T09:32:56.000Z</time>
      </trkpt>
      <trkpt lat="45.61885" lon="6.60948">
        <ele>2041.55</ele>
        <time>2019-10-14T09:33:01.000Z</time>
      </trkpt>
      <trkpt lat="45.61887" lon="6.60962">
        <ele>2042.07</ele>
        <time>2019-10-14T09:33:06.000Z</time>
      </trkpt>
      <trkpt lat="45.61894" lon="6.60979">
        <ele>2043.91</ele>
        <time>2019-10-14T09:33:11.000Z</time>
      </trkpt>
      <trkpt lat="45.61904" lon="6.60994">
        <ele>2042.78</ele>
        <time>2019-10-14T09:33:16.000Z</time>
      </trkpt>
      <trkpt lat="45.61915" lon="6.61008">
        <ele>2044.89</ele>
        <time>2019-10-14T09:33:21.000Z</time>
      </trkpt>
      <trkpt lat="45.61926" lon="6.61018">
        <ele>2042.86</ele>
        <time>2019-10-14T09:33:26.000Z</time>
      </trkpt>
      <trkpt lat="45.61933" lon="6.6103">
        <ele>2038.49</ele>
        <time>2019-10-14T09:33:31.000Z</time>
      </trkpt>
      <trkpt lat="45.61941" lon="6.61045">
        <ele>2037.35</ele>
        <time>2019-10-14T09:33:36.000Z</time>
      </trkpt>
      <trkpt lat="45.61945" lon="6.61065">
        <ele>2036.28</ele>
        <time>2019-10-14T09:33:41.000Z</time>
      </trkpt>
      <trkpt lat="45.6195" lon="6.61086">
        <ele>2032.34</ele>
        <time>2019-10-14T09:33:46.000Z</time>
      </trkpt>
      <trkpt lat="45.61957" lon="6.61108">
        <ele>2032.39</ele>
        <time>2019-10-14T09:33:51.000Z</time>
      </trkpt>
      <trkpt lat="45.61963" lon="6.61128">
        <ele>2029.89</ele>
        <time>2019-10-14T09:33:56.000Z</time>
      </trkpt>
      <trkpt lat="45.61967" lon="6.61139">
        <ele>2028.97</ele>
        <time>2019-10-14T09:35:04.000Z</time>
      </trkpt>
      <trkpt lat="45.61975" lon="6.61152">
        <ele>2025.54</ele>
        <time>2019-10-14T09:35:09.000Z</time>
      </trkpt>
      <trkpt lat="45.61985" lon="6.61168">
        <ele>2026.25</ele>
        <time>2019-10-14T09:35:14.000Z</time>
      </trkpt>
      <trkpt lat="45.61993" lon="6.61186">
        <ele>2025.66</ele>
        <time>2019-10-14T09:35:19.000Z</time>
      </trkpt>
      <trkpt lat="45.62001" lon="6.61202">
        <ele>2023.92</ele>
        <time>2019-10-14T09:35:24.000Z</time>
      </trkpt>
      <trkpt lat="45.62007" lon="6.6122">
        <ele>2023.84</ele>
        <time>2019-10-14T09:35:29.000Z</time>
      </trkpt>
      <trkpt lat="45.62014" lon="6.6124">
        <ele>2021.72</ele>
        <time>2019-10-14T09:35:34.000Z</time>
      </trkpt>
      <trkpt lat="45.6202" lon="6.6126">
        <ele>2013.78</ele>
        <time>2019-10-14T09:35:39.000Z</time>
      </trkpt>
      <trkpt lat="45.62027" lon="6.61277">
        <ele>2014.15</ele>
        <time>2019-10-14T09:35:44.000Z</time>
      </trkpt>
      <trkpt lat="45.62033" lon="6.61291">
        <ele>2013.37</ele>
        <time>2019-10-14T09:35:49.000Z</time>
      </trkpt>
      <trkpt lat="45.6204" lon="6.61313">
        <ele>2013.87</ele>
        <time>2019-10-14T09:35:54.000Z</time>
      </trkpt>
      <trkpt lat="45.62045" lon="6.61337">
        <ele>2011.11</ele>
        <time>2019-10-14T09:35:59.000Z</time>
      </trkpt>
      <trkpt lat="45.62046" lon="6.61356">
        <ele>2010.75</ele>
        <time>2019-10-14T09:36:04.000Z</time>
      </trkpt>
      <trkpt lat="45.62048" lon="6.61376">
        <ele>2006.88</ele>
        <time>2019-10-14T09:36:09.000Z</time>
      </trkpt>
      <trkpt lat="45.62058" lon="6.61396">
        <ele>2001.86</ele>
        <time>2019-10-14T09:36:14.000Z</time>
      </trkpt>
      <trkpt lat="45.62065" lon="6.61415">
        <ele>2002.03</ele>
        <time>2019-10-14T09:36:19.000Z</time>
      </trkpt>
      <trkpt lat="45.6207" lon="6.61436">
        <ele>2000.89</ele>
        <time>2019-10-14T09:36:24.000Z</time>
      </trkpt>
      <trkpt lat="45.62073" lon="6.61456">
        <ele>1997.01</ele>
        <time>2019-10-14T09:36:29.000Z</time>
      </trkpt>
      <trkpt lat="45.62078" lon="6.61468">
        <ele>1987.21</ele>
        <time>2019-10-14T09:36:34.000Z</time>
      </trkpt>
      <trkpt lat="45.62083" lon="6.61484">
        <ele>1984.98</ele>
        <time>2019-10-14T09:36:39.000Z</time>
      </trkpt>
      <trkpt lat="45.62083" lon="6.61502">
        <ele>1986.02</ele>
        <time>2019-10-14T09:36:44.000Z</time>
      </trkpt>
      <trkpt lat="45.62079" lon="6.61519">
        <ele>1988.75</ele>
        <time>2019-10-14T09:36:49.000Z</time>
      </trkpt>
      <trkpt lat="45.62073" lon="6.61536">
        <ele>1989.21</ele>
        <time>2019-10-14T09:36:54.000Z</time>
      </trkpt>
      <trkpt lat="45.62066" lon="6.61551">
        <ele>1989.2</ele>
        <time>2019-10-14T09:36:59.000Z</time>
      </trkpt>
      <trkpt lat="45.6206" lon="6.61565">
        <ele>1987.54</ele>
        <time>2019-10-14T09:37:04.000Z</time>
      </trkpt>
      <trkpt lat="45.62051" lon="6.61584">
        <ele>1991.77</ele>
        <time>2019-10-14T09:37:09.000Z</time>
      </trkpt>
      <trkpt lat="45.62046" lon="6.61605">
        <ele>1990.81</ele>
        <time>2019-10-14T09:37:14.000Z</time>
      </trkpt>
      <trkpt lat="45.62043" lon="6.61632">
        <ele>1989.41</ele>
        <time>2019-10-14T09:37:19.000Z</time>
      </trkpt>
      <trkpt lat="45.62037" lon="6.61653">
        <ele>1986.58</ele>
        <time>2019-10-14T09:37:24.000Z</time>
      </trkpt>
      <trkpt lat="45.6203" lon="6.61675">
        <ele>1981.53</ele>
        <time>2019-10-14T09:37:29.000Z</time>
      </trkpt>
      <trkpt lat="45.62019" lon="6.61692">
        <ele>1980.85</ele>
        <time>2019-10-14T09:37:34.000Z</time>
      </trkpt>
      <trkpt lat="45.62005" lon="6.61704">
        <ele>1979.29</ele>
        <time>2019-10-14T09:37:39.000Z</time>
      </trkpt>
      <trkpt lat="45.6199" lon="6.61716">
        <ele>1976.13</ele>
        <time>2019-10-14T09:37:44.000Z</time>
      </trkpt>
      <trkpt lat="45.61978" lon="6.61729">
        <ele>1972.53</ele>
        <time>2019-10-14T09:37:49.000Z</time>
      </trkpt>
      <trkpt lat="45.61967" lon="6.61742">
        <ele>1969.5</ele>
        <time>2019-10-14T09:37:54.000Z</time>
      </trkpt>
      <trkpt lat="45.61956" lon="6.61756">
        <ele>1969.44</ele>
        <time>2019-10-14T09:37:59.000Z</time>
      </trkpt>
      <trkpt lat="45.61943" lon="6.61765">
        <ele>1971.5</ele>
        <time>2019-10-14T09:38:04.000Z</time>
      </trkpt>
      <trkpt lat="45.61931" lon="6.61777">
        <ele>1971.35</ele>
        <time>2019-10-14T09:38:09.000Z</time>
      </trkpt>
      <trkpt lat="45.61922" lon="6.61788">
        <ele>1969.06</ele>
        <time>2019-10-14T09:38:14.000Z</time>
      </trkpt>
      <trkpt lat="45.61909" lon="6.61794">
        <ele>1967.29</ele>
        <time>2019-10-14T09:38:19.000Z</time>
      </trkpt>
      <trkpt lat="45.61897" lon="6.61801">
        <ele>1967.58</ele>
        <time>2019-10-14T09:38:24.000Z</time>
      </trkpt>
      <trkpt lat="45.61887" lon="6.61808">
        <ele>1965.81</ele>
        <time>2019-10-14T09:38:29.000Z</time>
      </trkpt>
      <trkpt lat="45.61877" lon="6.61822">
        <ele>1965.03</ele>
        <time>2019-10-14T09:38:34.000Z</time>
      </trkpt>
      <trkpt lat="45.61866" lon="6.61835">
        <ele>1956.96</ele>
        <time>2019-10-14T09:38:39.000Z</time>
      </trkpt>
      <trkpt lat="45.61858" lon="6.61828">
        <ele>1966.35</ele>
        <time>2019-10-14T09:38:47.000Z</time>
      </trkpt>
      <trkpt lat="45.61848" lon="6.61829">
        <ele>1968.09</ele>
        <time>2019-10-14T09:38:58.000Z</time>
      </trkpt>
      <trkpt lat="45.6184" lon="6.61835">
        <ele>1966.44</ele>
        <time>2019-10-14T09:40:06.000Z</time>
      </trkpt>
      <trkpt lat="45.6183" lon="6.61834">
        <ele>1965.78</ele>
        <time>2019-10-14T09:40:13.000Z</time>
      </trkpt>
      <trkpt lat="45.6182" lon="6.61844">
        <ele>1960.38</ele>
        <time>2019-10-14T09:40:18.000Z</time>
      </trkpt>
      <trkpt lat="45.6181" lon="6.61861">
        <ele>1958.07</ele>
        <time>2019-10-14T09:40:23.000Z</time>
      </trkpt>
      <trkpt lat="45.61802" lon="6.61869">
        <ele>1957.89</ele>
        <time>2019-10-14T09:40:28.000Z</time>
      </trkpt>
      <trkpt lat="45.61794" lon="6.61859">
        <ele>1954.82</ele>
        <time>2019-10-14T09:40:33.000Z</time>
      </trkpt>
      <trkpt lat="45.61792" lon="6.61836">
        <ele>1953.28</ele>
        <time>2019-10-14T09:40:38.000Z</time>
      </trkpt>
      <trkpt lat="45.61789" lon="6.61813">
        <ele>1953.85</ele>
        <time>2019-10-14T09:40:43.000Z</time>
      </trkpt>
      <trkpt lat="45.61789" lon="6.6179">
        <ele>1950.04</ele>
        <time>2019-10-14T09:40:48.000Z</time>
      </trkpt>
      <trkpt lat="45.61786" lon="6.61772">
        <ele>1947.98</ele>
        <time>2019-10-14T09:40:53.000Z</time>
      </trkpt>
      <trkpt lat="45.61771" lon="6.61775">
        <ele>1948.77</ele>
        <time>2019-10-14T09:40:58.000Z</time>
      </trkpt>
      <trkpt lat="45.61757" lon="6.61787">
        <ele>1945.89</ele>
        <time>2019-10-14T09:41:03.000Z</time>
      </trkpt>
      <trkpt lat="45.61742" lon="6.61802">
        <ele>1945.75</ele>
        <time>2019-10-14T09:41:08.000Z</time>
      </trkpt>
      <trkpt lat="45.61729" lon="6.61814">
        <ele>1944.34</ele>
        <time>2019-10-14T09:41:13.000Z</time>
      </trkpt>
      <trkpt lat="45.61719" lon="6.61822">
        <ele>1941.31</ele>
        <time>2019-10-14T09:41:18.000Z</time>
      </trkpt>
      <trkpt lat="45.61711" lon="6.6183">
        <ele>1931.66</ele>
        <time>2019-10-14T09:41:47.000Z</time>
      </trkpt>
      <trkpt lat="45.61699" lon="6.61841">
        <ele>1932.93</ele>
        <time>2019-10-14T09:41:52.000Z</time>
      </trkpt>
      <trkpt lat="45.61691" lon="6.61855">
        <ele>1930.57</ele>
        <time>2019-10-14T09:41:57.000Z</time>
      </trkpt>
      <trkpt lat="45.61685" lon="6.6187">
        <ele>1928.19</ele>
        <time>2019-10-14T09:42:02.000Z</time>
      </trkpt>
      <trkpt lat="45.61676" lon="6.6189">
        <ele>1929.17</ele>
        <time>2019-10-14T09:42:07.000Z</time>
      </trkpt>
      <trkpt lat="45.61664" lon="6.61917">
        <ele>1929.93</ele>
        <time>2019-10-14T09:42:12.000Z</time>
      </trkpt>
      <trkpt lat="45.6165" lon="6.61941">
        <ele>1930.69</ele>
        <time>2019-10-14T09:42:17.000Z</time>
      </trkpt>
      <trkpt lat="45.61637" lon="6.61966">
        <ele>1928.5</ele>
        <time>2019-10-14T09:42:22.000Z</time>
      </trkpt>
      <trkpt lat="45.61623" lon="6.61994">
        <ele>1931.31</ele>
        <time>2019-10-14T09:42:27.000Z</time>
      </trkpt>
      <trkpt lat="45.61604" lon="6.62011">
        <ele>1929.3</ele>
        <time>2019-10-14T09:42:32.000Z</time>
      </trkpt>
      <trkpt lat="45.61584" lon="6.62031">
        <ele>1929.15</ele>
        <time>2019-10-14T09:42:37.000Z</time>
      </trkpt>
      <trkpt lat="45.61563" lon="6.62054">
        <ele>1927.14</ele>
        <time>2019-10-14T09:42:42.000Z</time>
      </trkpt>
      <trkpt lat="45.61546" lon="6.62074">
        <ele>1926.1</ele>
        <time>2019-10-14T09:42:47.000Z</time>
      </trkpt>
      <trkpt lat="45.61531" lon="6.62092">
        <ele>1925.98</ele>
        <time>2019-10-14T09:42:52.000Z</time>
      </trkpt>
      <trkpt lat="45.61518" lon="6.62113">
        <ele>1922.79</ele>
        <time>2019-10-14T09:42:57.000Z</time>
      </trkpt>
      <trkpt lat="45.61513" lon="6.6215">
        <ele>1925.61</ele>
        <time>2019-10-14T09:43:02.000Z</time>
      </trkpt>
      <trkpt lat="45.61497" lon="6.62157">
        <ele>1924.22</ele>
        <time>2019-10-14T09:43:07.000Z</time>
      </trkpt>
      <trkpt lat="45.61486" lon="6.62131">
        <ele>1919.3</ele>
        <time>2019-10-14T09:43:12.000Z</time>
      </trkpt>
      <trkpt lat="45.61481" lon="6.621">
        <ele>1914.62</ele>
        <time>2019-10-14T09:43:17.000Z</time>
      </trkpt>
      <trkpt lat="45.61464" lon="6.62077">
        <ele>1913.3</ele>
        <time>2019-10-14T09:43:22.000Z</time>
      </trkpt>
      <trkpt lat="45.6145" lon="6.62107">
        <ele>1908.44</ele>
        <time>2019-10-14T09:43:27.000Z</time>
      </trkpt>
      <trkpt lat="45.61448" lon="6.62144">
        <ele>1908.91</ele>
        <time>2019-10-14T09:43:32.000Z</time>
      </trkpt>
      <trkpt lat="45.61448" lon="6.62187">
        <ele>1906.92</ele>
        <time>2019-10-14T09:43:37.000Z</time>
      </trkpt>
      <trkpt lat="45.6142" lon="6.62211">
        <ele>1902.59</ele>
        <time>2019-10-14T09:43:42.000Z</time>
      </trkpt>
      <trkpt lat="45.61383" lon="6.62229">
        <ele>1897.03</ele>
        <time>2019-10-14T09:43:47.000Z</time>
      </trkpt>
      <trkpt lat="45.61347" lon="6.62246">
        <ele>1897.52</ele>
        <time>2019-10-14T09:43:52.000Z</time>
      </trkpt>
      <trkpt lat="45.61336" lon="6.6227">
        <ele>1892.96</ele>
        <time>2019-10-14T09:43:57.000Z</time>
      </trkpt>
      <trkpt lat="45.61338" lon="6.62309">
        <ele>1890.24</ele>
        <time>2019-10-14T09:44:02.000Z</time>
      </trkpt>
      <trkpt lat="45.61326" lon="6.62346">
        <ele>1888.95</ele>
        <time>2019-10-14T09:44:07.000Z</time>
      </trkpt>
      <trkpt lat="45.61311" lon="6.62388">
        <ele>1887.01</ele>
        <time>2019-10-14T09:44:12.000Z</time>
      </trkpt>
      <trkpt lat="45.61307" lon="6.62439">
        <ele>1884.14</ele>
        <time>2019-10-14T09:44:17.000Z</time>
      </trkpt>
      <trkpt lat="45.61269" lon="6.62452">
        <ele>1883.64</ele>
        <time>2019-10-14T09:44:22.000Z</time>
      </trkpt>
      <trkpt lat="45.61235" lon="6.6247">
        <ele>1879.8</ele>
        <time>2019-10-14T09:44:27.000Z</time>
      </trkpt>
      <trkpt lat="45.61205" lon="6.62514">
        <ele>1872.29</ele>
        <time>2019-10-14T09:44:32.000Z</time>
      </trkpt>
      <trkpt lat="45.61168" lon="6.62545">
        <ele>1870.09</ele>
        <time>2019-10-14T09:44:37.000Z</time>
      </trkpt>
      <trkpt lat="45.61141" lon="6.62567">
        <ele>1865.15</ele>
        <time>2019-10-14T09:44:42.000Z</time>
      </trkpt>
      <trkpt lat="45.61125" lon="6.62556">
        <ele>1862.19</ele>
        <time>2019-10-14T09:44:47.000Z</time>
      </trkpt>
      <trkpt lat="45.61147" lon="6.62531">
        <ele>1858.78</ele>
        <time>2019-10-14T09:44:52.000Z</time>
      </trkpt>
      <trkpt lat="45.61173" lon="6.62502">
        <ele>1857.56</ele>
        <time>2019-10-14T09:44:57.000Z</time>
      </trkpt>
      <trkpt lat="45.6119" lon="6.62458">
        <ele>1854.17</ele>
        <time>2019-10-14T09:45:02.000Z</time>
      </trkpt>
      <trkpt lat="45.61195" lon="6.62428">
        <ele>1853.92</ele>
        <time>2019-10-14T09:45:07.000Z</time>
      </trkpt>
      <trkpt lat="45.61218" lon="6.62405">
        <ele>1848.64</ele>
        <time>2019-10-14T09:45:12.000Z</time>
      </trkpt>
      <trkpt lat="45.61194" lon="6.62397">
        <ele>1847.96</ele>
        <time>2019-10-14T09:45:17.000Z</time>
      </trkpt>
      <trkpt lat="45.61176" lon="6.62446">
        <ele>1846.88</ele>
        <time>2019-10-14T09:45:22.000Z</time>
      </trkpt>
      <trkpt lat="45.61151" lon="6.62478">
        <ele>1842.88</ele>
        <time>2019-10-14T09:45:27.000Z</time>
      </trkpt>
      <trkpt lat="45.61115" lon="6.62504">
        <ele>1837.54</ele>
        <time>2019-10-14T09:45:32.000Z</time>
      </trkpt>
      <trkpt lat="45.61081" lon="6.62529">
        <ele>1830.33</ele>
        <time>2019-10-14T09:45:37.000Z</time>
      </trkpt>
      <trkpt lat="45.61044" lon="6.62552">
        <ele>1826.77</ele>
        <time>2019-10-14T09:45:42.000Z</time>
      </trkpt>
      <trkpt lat="45.61012" lon="6.6258">
        <ele>1825.49</ele>
        <time>2019-10-14T09:45:47.000Z</time>
      </trkpt>
      <trkpt lat="45.60987" lon="6.62617">
        <ele>1822.26</ele>
        <time>2019-10-14T09:45:52.000Z</time>
      </trkpt>
      <trkpt lat="45.60961" lon="6.62639">
        <ele>1819.36</ele>
        <time>2019-10-14T09:45:57.000Z</time>
      </trkpt>
      <trkpt lat="45.6096" lon="6.6261">
        <ele>1817.29</ele>
        <time>2019-10-14T09:46:02.000Z</time>
      </trkpt>
      <trkpt lat="45.60963" lon="6.62597">
        <ele>1822.03</ele>
        <time>2019-10-14T09:47:30.000Z</time>
      </trkpt>
      <trkpt lat="45.60976" lon="6.62566">
        <ele>1820.14</ele>
        <time>2019-10-14T09:47:35.000Z</time>
      </trkpt>
      <trkpt lat="45.60993" lon="6.62529">
        <ele>1818.42</ele>
        <time>2019-10-14T09:47:40.000Z</time>
      </trkpt>
      <trkpt lat="45.61018" lon="6.62491">
        <ele>1815.15</ele>
        <time>2019-10-14T09:47:45.000Z</time>
      </trkpt>
      <trkpt lat="45.61037" lon="6.62467">
        <ele>1810.54</ele>
        <time>2019-10-14T09:47:50.000Z</time>
      </trkpt>
      <trkpt lat="45.61063" lon="6.62444">
        <ele>1811.43</ele>
        <time>2019-10-14T09:47:55.000Z</time>
      </trkpt>
      <trkpt lat="45.61066" lon="6.62416">
        <ele>1807.65</ele>
        <time>2019-10-14T09:48:00.000Z</time>
      </trkpt>
      <trkpt lat="45.61049" lon="6.62425">
        <ele>1804.93</ele>
        <time>2019-10-14T09:48:05.000Z</time>
      </trkpt>
      <trkpt lat="45.61025" lon="6.62444">
        <ele>1802.23</ele>
        <time>2019-10-14T09:48:10.000Z</time>
      </trkpt>
      <trkpt lat="45.60991" lon="6.62461">
        <ele>1802.28</ele>
        <time>2019-10-14T09:48:15.000Z</time>
      </trkpt>
      <trkpt lat="45.60965" lon="6.62477">
        <ele>1796.77</ele>
        <time>2019-10-14T09:48:20.000Z</time>
      </trkpt>
      <trkpt lat="45.60953" lon="6.62477">
        <ele>1797.42</ele>
        <time>2019-10-14T09:48:25.000Z</time>
      </trkpt>
      <trkpt lat="45.60975" lon="6.62448">
        <ele>1795.35</ele>
        <time>2019-10-14T09:48:30.000Z</time>
      </trkpt>
      <trkpt lat="45.61007" lon="6.6241">
        <ele>1787.36</ele>
        <time>2019-10-14T09:48:35.000Z</time>
      </trkpt>
      <trkpt lat="45.61019" lon="6.62368">
        <ele>1782.65</ele>
        <time>2019-10-14T09:48:40.000Z</time>
      </trkpt>
      <trkpt lat="45.60998" lon="6.62342">
        <ele>1785.36</ele>
        <time>2019-10-14T09:48:45.000Z</time>
      </trkpt>
      <trkpt lat="45.60976" lon="6.62344">
        <ele>1780.07</ele>
        <time>2019-10-14T09:48:50.000Z</time>
      </trkpt>
      <trkpt lat="45.60941" lon="6.62357">
        <ele>1779.79</ele>
        <time>2019-10-14T09:48:55.000Z</time>
      </trkpt>
      <trkpt lat="45.60911" lon="6.6239">
        <ele>1776.66</ele>
        <time>2019-10-14T09:49:00.000Z</time>
      </trkpt>
      <trkpt lat="45.60888" lon="6.62415">
        <ele>1771.17</ele>
        <time>2019-10-14T09:49:05.000Z</time>
      </trkpt>
      <trkpt lat="45.60866" lon="6.62438">
        <ele>1767.17</ele>
        <time>2019-10-14T09:49:10.000Z</time>
      </trkpt>
      <trkpt lat="45.60841" lon="6.62471">
        <ele>1765.15</ele>
        <time>2019-10-14T09:49:15.000Z</time>
      </trkpt>
      <trkpt lat="45.60813" lon="6.62498">
        <ele>1761.16</ele>
        <time>2019-10-14T09:49:20.000Z</time>
      </trkpt>
      <trkpt lat="45.60784" lon="6.62533">
        <ele>1762.61</ele>
        <time>2019-10-14T09:49:25.000Z</time>
      </trkpt>
      <trkpt lat="45.60772" lon="6.62548">
        <ele>1759.77</ele>
        <time>2019-10-14T09:49:30.000Z</time>
      </trkpt>
      <trkpt lat="45.60771" lon="6.62564">
        <ele>1753.71</ele>
        <time>2019-10-14T09:50:43.000Z</time>
      </trkpt>
      <trkpt lat="45.60742" lon="6.6259">
        <ele>1746.4</ele>
        <time>2019-10-14T09:50:48.000Z</time>
      </trkpt>
      <trkpt lat="45.60714" lon="6.62619">
        <ele>1747.87</ele>
        <time>2019-10-14T09:50:53.000Z</time>
      </trkpt>
      <trkpt lat="45.60686" lon="6.6265">
        <ele>1737.49</ele>
        <time>2019-10-14T09:50:58.000Z</time>
      </trkpt>
      <trkpt lat="45.60657" lon="6.62677">
        <ele>1731.39</ele>
        <time>2019-10-14T09:51:03.000Z</time>
      </trkpt>
      <trkpt lat="45.60633" lon="6.62716">
        <ele>1718.81</ele>
        <time>2019-10-14T09:51:08.000Z</time>
      </trkpt>
      <trkpt lat="45.60611" lon="6.62756">
        <ele>1716.85</ele>
        <time>2019-10-14T09:51:13.000Z</time>
      </trkpt>
      <trkpt lat="45.60575" lon="6.62777">
        <ele>1713.56</ele>
        <time>2019-10-14T09:51:18.000Z</time>
      </trkpt>
      <trkpt lat="45.6055" lon="6.62811">
        <ele>1704.97</ele>
        <time>2019-10-14T09:51:23.000Z</time>
      </trkpt>
      <trkpt lat="45.60562" lon="6.6283">
        <ele>1704.65</ele>
        <time>2019-10-14T09:51:28.000Z</time>
      </trkpt>
      <trkpt lat="45.60605" lon="6.62822">
        <ele>1707.07</ele>
        <time>2019-10-14T09:51:33.000Z</time>
      </trkpt>
      <trkpt lat="45.60632" lon="6.62837">
        <ele>1704.4</ele>
        <time>2019-10-14T09:51:38.000Z</time>
      </trkpt>
      <trkpt lat="45.60604" lon="6.62849">
        <ele>1698.47</ele>
        <time>2019-10-14T09:51:43.000Z</time>
      </trkpt>
      <trkpt lat="45.60573" lon="6.62868">
        <ele>1694.69</ele>
        <time>2019-10-14T09:51:48.000Z</time>
      </trkpt>
      <trkpt lat="45.60544" lon="6.62909">
        <ele>1689.85</ele>
        <time>2019-10-14T09:51:53.000Z</time>
      </trkpt>
      <trkpt lat="45.60521" lon="6.62944">
        <ele>1685.93</ele>
        <time>2019-10-14T09:51:58.000Z</time>
      </trkpt>
      <trkpt lat="45.60524" lon="6.62958">
        <ele>1685.46</ele>
        <time>2019-10-14T09:52:03.000Z</time>
      </trkpt>
      <trkpt lat="45.60514" lon="6.62962">
        <ele>1685.37</ele>
        <time>2019-10-14T09:53:24.000Z</time>
      </trkpt>
      <trkpt lat="45.60496" lon="6.62987">
        <ele>1679.71</ele>
        <time>2019-10-14T09:53:29.000Z</time>
      </trkpt>
      <trkpt lat="45.60482" lon="6.63001">
        <ele>1674.7</ele>
        <time>2019-10-14T09:53:34.000Z</time>
      </trkpt>
      <trkpt lat="45.60464" lon="6.63026">
        <ele>1672.96</ele>
        <time>2019-10-14T09:53:39.000Z</time>
      </trkpt>
      <trkpt lat="45.60443" lon="6.63063">
        <ele>1672.89</ele>
        <time>2019-10-14T09:53:44.000Z</time>
      </trkpt>
      <trkpt lat="45.60421" lon="6.63098">
        <ele>1666.65</ele>
        <time>2019-10-14T09:53:49.000Z</time>
      </trkpt>
      <trkpt lat="45.60388" lon="6.63137">
        <ele>1661.36</ele>
        <time>2019-10-14T09:53:54.000Z</time>
      </trkpt>
      <trkpt lat="45.6035" lon="6.63176">
        <ele>1660.02</ele>
        <time>2019-10-14T09:53:59.000Z</time>
      </trkpt>
      <trkpt lat="45.60318" lon="6.6322">
        <ele>1656.17</ele>
        <time>2019-10-14T09:54:04.000Z</time>
      </trkpt>
      <trkpt lat="45.60304" lon="6.63269">
        <ele>1654.15</ele>
        <time>2019-10-14T09:54:09.000Z</time>
      </trkpt>
      <trkpt lat="45.60314" lon="6.63308">
        <ele>1650.9</ele>
        <time>2019-10-14T09:54:14.000Z</time>
      </trkpt>
      <trkpt lat="45.60331" lon="6.63341">
        <ele>1650.44</ele>
        <time>2019-10-14T09:54:19.000Z</time>
      </trkpt>
      <trkpt lat="45.60328" lon="6.63375">
        <ele>1649.41</ele>
        <time>2019-10-14T09:54:24.000Z</time>
      </trkpt>
      <trkpt lat="45.6031" lon="6.63404">
        <ele>1646.06</ele>
        <time>2019-10-14T09:54:29.000Z</time>
      </trkpt>
      <trkpt lat="45.60292" lon="6.63433">
        <ele>1646.3</ele>
        <time>2019-10-14T09:54:34.000Z</time>
      </trkpt>
      <trkpt lat="45.60289" lon="6.63466">
        <ele>1650.27</ele>
        <time>2019-10-14T09:54:39.000Z</time>
      </trkpt>
      <trkpt lat="45.60283" lon="6.63513">
        <ele>1645.96</ele>
        <time>2019-10-14T09:54:44.000Z</time>
      </trkpt>
      <trkpt lat="45.60274" lon="6.63559">
        <ele>1641.52</ele>
        <time>2019-10-14T09:54:49.000Z</time>
      </trkpt>
      <trkpt lat="45.60279" lon="6.63592">
        <ele>1640.21</ele>
        <time>2019-10-14T09:54:54.000Z</time>
      </trkpt>
      <trkpt lat="45.6029" lon="6.63618">
        <ele>1640.96</ele>
        <time>2019-10-14T09:54:59.000Z</time>
      </trkpt>
      <trkpt lat="45.60277" lon="6.6365">
        <ele>1635.98</ele>
        <time>2019-10-14T09:55:04.000Z</time>
      </trkpt>
      <trkpt lat="45.60258" lon="6.63682">
        <ele>1631.31</ele>
        <time>2019-10-14T09:55:09.000Z</time>
      </trkpt>
      <trkpt lat="45.60243" lon="6.63698">
        <ele>1628.65</ele>
        <time>2019-10-14T09:55:14.000Z</time>
      </trkpt>
      <trkpt lat="45.60238" lon="6.63709">
        <ele>1628.17</ele>
        <time>2019-10-14T09:56:40.000Z</time>
      </trkpt>
      <trkpt lat="45.60222" lon="6.63735">
        <ele>1624.78</ele>
        <time>2019-10-14T09:56:45.000Z</time>
      </trkpt>
      <trkpt lat="45.60197" lon="6.6372">
        <ele>1618.96</ele>
        <time>2019-10-14T09:56:50.000Z</time>
      </trkpt>
      <trkpt lat="45.60177" lon="6.6371">
        <ele>1614.34</ele>
        <time>2019-10-14T09:56:55.000Z</time>
      </trkpt>
      <trkpt lat="45.60164" lon="6.63749">
        <ele>1610.94</ele>
        <time>2019-10-14T09:57:00.000Z</time>
      </trkpt>
      <trkpt lat="45.60146" lon="6.63803">
        <ele>1605.37</ele>
        <time>2019-10-14T09:57:05.000Z</time>
      </trkpt>
      <trkpt lat="45.60114" lon="6.63859">
        <ele>1602.03</ele>
        <time>2019-10-14T09:57:10.000Z</time>
      </trkpt>
      <trkpt lat="45.60086" lon="6.63895">
        <ele>1588.47</ele>
        <time>2019-10-14T09:57:15.000Z</time>
      </trkpt>
      <trkpt lat="45.60077" lon="6.63954">
        <ele>1584.29</ele>
        <time>2019-10-14T09:57:20.000Z</time>
      </trkpt>
      <trkpt lat="45.60061" lon="6.63999">
        <ele>1582.61</ele>
        <time>2019-10-14T09:57:25.000Z</time>
      </trkpt>
      <trkpt lat="45.60015" lon="6.64031">
        <ele>1579.16</ele>
        <time>2019-10-14T09:57:30.000Z</time>
      </trkpt>
      <trkpt lat="45.59973" lon="6.64066">
        <ele>1575.67</ele>
        <time>2019-10-14T09:57:35.000Z</time>
      </trkpt>
      <trkpt lat="45.59934" lon="6.64111">
        <ele>1574.32</ele>
        <time>2019-10-14T09:57:40.000Z</time>
      </trkpt>
      <trkpt lat="45.59907" lon="6.6416">
        <ele>1570.95</ele>
        <time>2019-10-14T09:57:45.000Z</time>
      </trkpt>
      <trkpt lat="45.59881" lon="6.64208">
        <ele>1570.33</ele>
        <time>2019-10-14T09:57:50.000Z</time>
      </trkpt>
      <trkpt lat="45.59855" lon="6.64264">
        <ele>1571.36</ele>
        <time>2019-10-14T09:57:55.000Z</time>
      </trkpt>
      <trkpt lat="45.59818" lon="6.64298">
        <ele>1569.86</ele>
        <time>2019-10-14T09:58:00.000Z</time>
      </trkpt>
      <trkpt lat="45.59783" lon="6.64326">
        <ele>1563.58</ele>
        <time>2019-10-14T09:58:05.000Z</time>
      </trkpt>
      <trkpt lat="45.59743" lon="6.6435">
        <ele>1556.79</ele>
        <time>2019-10-14T09:58:10.000Z</time>
      </trkpt>
      <trkpt lat="45.59717" lon="6.64384">
        <ele>1551.23</ele>
        <time>2019-10-14T09:58:15.000Z</time>
      </trkpt>
      <trkpt lat="45.59683" lon="6.64403">
        <ele>1553.59</ele>
        <time>2019-10-14T09:58:20.000Z</time>
      </trkpt>
      <trkpt lat="45.59647" lon="6.64446">
        <ele>1545.64</ele>
        <time>2019-10-14T09:58:25.000Z</time>
      </trkpt>
      <trkpt lat="45.59623" lon="6.64497">
        <ele>1542.35</ele>
        <time>2019-10-14T09:58:30.000Z</time>
      </trkpt>
      <trkpt lat="45.59616" lon="6.64554">
        <ele>1535.49</ele>
        <time>2019-10-14T09:58:35.000Z</time>
      </trkpt>
      <trkpt lat="45.59597" lon="6.64561">
        <ele>1531.5</ele>
        <time>2019-10-14T09:58:40.000Z</time>
      </trkpt>
      <trkpt lat="45.59594" lon="6.64494">
        <ele>1527.59</ele>
        <time>2019-10-14T09:58:45.000Z</time>
      </trkpt>
      <trkpt lat="45.59589" lon="6.64452">
        <ele>1525.46</ele>
        <time>2019-10-14T09:58:50.000Z</time>
      </trkpt>
      <trkpt lat="45.59577" lon="6.6448">
        <ele>1519.32</ele>
        <time>2019-10-14T09:58:55.000Z</time>
      </trkpt>
      <trkpt lat="45.59568" lon="6.64499">
        <ele>1517.59</ele>
        <time>2019-10-14T09:59:26.000Z</time>
      </trkpt>
      <trkpt lat="45.59553" lon="6.64547">
        <ele>1514.52</ele>
        <time>2019-10-14T09:59:31.000Z</time>
      </trkpt>
      <trkpt lat="45.59551" lon="6.64519">
        <ele>1509.39</ele>
        <time>2019-10-14T09:59:36.000Z</time>
      </trkpt>
      <trkpt lat="45.59537" lon="6.64488">
        <ele>1509.73</ele>
        <time>2019-10-14T09:59:41.000Z</time>
      </trkpt>
      <trkpt lat="45.59525" lon="6.64551">
        <ele>1505.22</ele>
        <time>2019-10-14T09:59:46.000Z</time>
      </trkpt>
      <trkpt lat="45.59504" lon="6.64595">
        <ele>1506.67</ele>
        <time>2019-10-14T09:59:51.000Z</time>
      </trkpt>
      <trkpt lat="45.59486" lon="6.64625">
        <ele>1505.41</ele>
        <time>2019-10-14T09:59:56.000Z</time>
      </trkpt>
      <trkpt lat="45.5947" lon="6.64678">
        <ele>1504.62</ele>
        <time>2019-10-14T10:00:01.000Z</time>
      </trkpt>
      <trkpt lat="45.59436" lon="6.64724">
        <ele>1497.78</ele>
        <time>2019-10-14T10:00:06.000Z</time>
      </trkpt>
      <trkpt lat="45.59391" lon="6.64766">
        <ele>1497.05</ele>
        <time>2019-10-14T10:00:11.000Z</time>
      </trkpt>
      <trkpt lat="45.5935" lon="6.648">
        <ele>1497.78</ele>
        <time>2019-10-14T10:00:16.000Z</time>
      </trkpt>
      <trkpt lat="45.59306" lon="6.64844">
        <ele>1498.88</ele>
        <time>2019-10-14T10:00:21.000Z</time>
      </trkpt>
      <trkpt lat="45.59253" lon="6.64863">
        <ele>1492.45</ele>
        <time>2019-10-14T10:00:26.000Z</time>
      </trkpt>
      <trkpt lat="45.59209" lon="6.64884">
        <ele>1485.96</ele>
        <time>2019-10-14T10:00:31.000Z</time>
      </trkpt>
      <trkpt lat="45.59168" lon="6.64936">
        <ele>1484.51</ele>
        <time>2019-10-14T10:00:36.000Z</time>
      </trkpt>
      <trkpt lat="45.59147" lon="6.65014">
        <ele>1476.62</ele>
        <time>2019-10-14T10:00:41.000Z</time>
      </trkpt>
      <trkpt lat="45.5909" lon="6.65068">
        <ele>1458.17</ele>
        <time>2019-10-14T10:00:46.000Z</time>
      </trkpt>
      <trkpt lat="45.59065" lon="6.65096">
        <ele>1449.33</ele>
        <time>2019-10-14T10:00:51.000Z</time>
      </trkpt>
      <trkpt lat="45.5903" lon="6.65126">
        <ele>1445.43</ele>
        <time>2019-10-14T10:00:56.000Z</time>
      </trkpt>
      <trkpt lat="45.58987" lon="6.65152">
        <ele>1437.07</ele>
        <time>2019-10-14T10:01:01.000Z</time>
      </trkpt>
      <trkpt lat="45.58951" lon="6.65196">
        <ele>1427.65</ele>
        <time>2019-10-14T10:01:06.000Z</time>
      </trkpt>
      <trkpt lat="45.58916" lon="6.65246">
        <ele>1426.18</ele>
        <time>2019-10-14T10:01:11.000Z</time>
      </trkpt>
      <trkpt lat="45.58863" lon="6.65269">
        <ele>1427.44</ele>
        <time>2019-10-14T10:01:16.000Z</time>
      </trkpt>
      <trkpt lat="45.5882" lon="6.65289">
        <ele>1429.24</ele>
        <time>2019-10-14T10:01:21.000Z</time>
      </trkpt>
      <trkpt lat="45.5879" lon="6.65321">
        <ele>1431.17</ele>
        <time>2019-10-14T10:01:26.000Z</time>
      </trkpt>
      <trkpt lat="45.58764" lon="6.6534">
        <ele>1429.68</ele>
        <time>2019-10-14T10:01:31.000Z</time>
      </trkpt>
      <trkpt lat="45.58705" lon="6.65347">
        <ele>1423.18</ele>
        <time>2019-10-14T10:01:41.000Z</time>
      </trkpt>
      <trkpt lat="45.58678" lon="6.65363">
        <ele>1415.71</ele>
        <time>2019-10-14T10:01:46.000Z</time>
      </trkpt>
      <trkpt lat="45.58651" lon="6.65369">
        <ele>1414.21</ele>
        <time>2019-10-14T10:01:51.000Z</time>
      </trkpt>
      <trkpt lat="45.58625" lon="6.65386">
        <ele>1415.47</ele>
        <time>2019-10-14T10:01:56.000Z</time>
      </trkpt>
      <trkpt lat="45.58606" lon="6.65393">
        <ele>1414.65</ele>
        <time>2019-10-14T10:02:01.000Z</time>
      </trkpt>
      <trkpt lat="45.5858" lon="6.65399">
        <ele>1416.56</ele>
        <time>2019-10-14T10:02:06.000Z</time>
      </trkpt>
      <trkpt lat="45.58551" lon="6.65397">
        <ele>1416.54</ele>
        <time>2019-10-14T10:02:11.000Z</time>
      </trkpt>
      <trkpt lat="45.58526" lon="6.65401">
        <ele>1414.93</ele>
        <time>2019-10-14T10:02:16.000Z</time>
      </trkpt>
      <trkpt lat="45.58464" lon="6.65378">
        <ele>1425.12</ele>
        <time>2019-10-14T10:02:37.000Z</time>
      </trkpt>
      <trkpt lat="45.58455" lon="6.65377">
        <ele>1418.12</ele>
        <time>2019-10-14T10:04:10.000Z</time>
      </trkpt>
      <trkpt lat="45.58464" lon="6.65379">
        <ele>1419.22</ele>
        <time>2019-10-14T10:04:35.000Z</time>
      </trkpt>
      <trkpt lat="45.58456" lon="6.65372">
        <ele>1418.9</ele>
        <time>2019-10-14T10:06:14.000Z</time>
      </trkpt>
      <trkpt lat="45.58434" lon="6.65368">
        <ele>1413.41</ele>
        <time>2019-10-14T10:06:19.000Z</time>
      </trkpt>
      <trkpt lat="45.58407" lon="6.65345">
        <ele>1407.85</ele>
        <time>2019-10-14T10:06:24.000Z</time>
      </trkpt>
      <trkpt lat="45.58384" lon="6.6533">
        <ele>1409.23</ele>
        <time>2019-10-14T10:06:29.000Z</time>
      </trkpt>
      <trkpt lat="45.58363" lon="6.65315">
        <ele>1410.48</ele>
        <time>2019-10-14T10:06:34.000Z</time>
      </trkpt>
      <trkpt lat="45.58348" lon="6.65289">
        <ele>1410.59</ele>
        <time>2019-10-14T10:06:39.000Z</time>
      </trkpt>
      <trkpt lat="45.58328" lon="6.65272">
        <ele>1413.16</ele>
        <time>2019-10-14T10:06:44.000Z</time>
      </trkpt>
      <trkpt lat="45.58307" lon="6.6527">
        <ele>1415.96</ele>
        <time>2019-10-14T10:06:49.000Z</time>
      </trkpt>
      <trkpt lat="45.58285" lon="6.65253">
        <ele>1413.79</ele>
        <time>2019-10-14T10:06:54.000Z</time>
      </trkpt>
      <trkpt lat="45.58262" lon="6.65241">
        <ele>1414.1</ele>
        <time>2019-10-14T10:06:59.000Z</time>
      </trkpt>
      <trkpt lat="45.58243" lon="6.65234">
        <ele>1414.09</ele>
        <time>2019-10-14T10:07:04.000Z</time>
      </trkpt>
      <trkpt lat="45.5822" lon="6.6522">
        <ele>1413.85</ele>
        <time>2019-10-14T10:07:09.000Z</time>
      </trkpt>
      <trkpt lat="45.58193" lon="6.65214">
        <ele>1416.48</ele>
        <time>2019-10-14T10:07:14.000Z</time>
      </trkpt>
      <trkpt lat="45.58168" lon="6.65206">
        <ele>1417.84</ele>
        <time>2019-10-14T10:07:19.000Z</time>
      </trkpt>
      <trkpt lat="45.58146" lon="6.65201">
        <ele>1416.69</ele>
        <time>2019-10-14T10:07:24.000Z</time>
      </trkpt>
      <trkpt lat="45.58121" lon="6.65205">
        <ele>1412.74</ele>
        <time>2019-10-14T10:07:29.000Z</time>
      </trkpt>
      <trkpt lat="45.58091" lon="6.65221">
        <ele>1410.91</ele>
        <time>2019-10-14T10:07:34.000Z</time>
      </trkpt>
      <trkpt lat="45.58064" lon="6.65231">
        <ele>1410.4</ele>
        <time>2019-10-14T10:07:39.000Z</time>
      </trkpt>
      <trkpt lat="45.58051" lon="6.65238">
        <ele>1411.34</ele>
        <time>2019-10-14T10:07:44.000Z</time>
      </trkpt>
      <trkpt lat="45.58036" lon="6.6524">
        <ele>1410.62</ele>
        <time>2019-10-14T10:07:49.000Z</time>
      </trkpt>
      <trkpt lat="45.58001" lon="6.65254">
        <ele>1407.28</ele>
        <time>2019-10-14T10:07:54.000Z</time>
      </trkpt>
      <trkpt lat="45.57965" lon="6.65257">
        <ele>1405.14</ele>
        <time>2019-10-14T10:07:59.000Z</time>
      </trkpt>
      <trkpt lat="45.57918" lon="6.65252">
        <ele>1403.78</ele>
        <time>2019-10-14T10:08:04.000Z</time>
      </trkpt>
      <trkpt lat="45.57863" lon="6.65238">
        <ele>1399.79</ele>
        <time>2019-10-14T10:08:09.000Z</time>
      </trkpt>
      <trkpt lat="45.57817" lon="6.65224">
        <ele>1397.14</ele>
        <time>2019-10-14T10:08:14.000Z</time>
      </trkpt>
      <trkpt lat="45.57778" lon="6.65201">
        <ele>1388.52</ele>
        <time>2019-10-14T10:08:19.000Z</time>
      </trkpt>
      <trkpt lat="45.57739" lon="6.65174">
        <ele>1384.05</ele>
        <time>2019-10-14T10:08:24.000Z</time>
      </trkpt>
      <trkpt lat="45.57687" lon="6.65163">
        <ele>1382.53</ele>
        <time>2019-10-14T10:08:29.000Z</time>
      </trkpt>
      <trkpt lat="45.5763" lon="6.6516">
        <ele>1377.42</ele>
        <time>2019-10-14T10:08:34.000Z</time>
      </trkpt>
      <trkpt lat="45.57586" lon="6.65108">
        <ele>1371.64</ele>
        <time>2019-10-14T10:08:39.000Z</time>
      </trkpt>
      <trkpt lat="45.57546" lon="6.65059">
        <ele>1364.01</ele>
        <time>2019-10-14T10:08:44.000Z</time>
      </trkpt>
      <trkpt lat="45.57509" lon="6.65004">
        <ele>1358.93</ele>
        <time>2019-10-14T10:08:49.000Z</time>
      </trkpt>
      <trkpt lat="45.57489" lon="6.64922">
        <ele>1354.85</ele>
        <time>2019-10-14T10:08:54.000Z</time>
      </trkpt>
      <trkpt lat="45.57466" lon="6.64859">
        <ele>1350.29</ele>
        <time>2019-10-14T10:08:59.000Z</time>
      </trkpt>
      <trkpt lat="45.57434" lon="6.64789">
        <ele>1343.25</ele>
        <time>2019-10-14T10:09:04.000Z</time>
      </trkpt>
      <trkpt lat="45.57399" lon="6.6473">
        <ele>1337.59</ele>
        <time>2019-10-14T10:09:09.000Z</time>
      </trkpt>
      <trkpt lat="45.57357" lon="6.6468">
        <ele>1333.5</ele>
        <time>2019-10-14T10:09:14.000Z</time>
      </trkpt>
      <trkpt lat="45.57303" lon="6.64634">
        <ele>1328.83</ele>
        <time>2019-10-14T10:09:19.000Z</time>
      </trkpt>
      <trkpt lat="45.57244" lon="6.64589">
        <ele>1324.92</ele>
        <time>2019-10-14T10:09:24.000Z</time>
      </trkpt>
      <trkpt lat="45.57185" lon="6.64535">
        <ele>1319.01</ele>
        <time>2019-10-14T10:09:29.000Z</time>
      </trkpt>
      <trkpt lat="45.57143" lon="6.64492">
        <ele>1314.9</ele>
        <time>2019-10-14T10:09:34.000Z</time>
      </trkpt>
      <trkpt lat="45.57128" lon="6.64505">
        <ele>1309.63</ele>
        <time>2019-10-14T10:09:39.000Z</time>
      </trkpt>
      <trkpt lat="45.57142" lon="6.64532">
        <ele>1309.93</ele>
        <time>2019-10-14T10:09:44.000Z</time>
      </trkpt>
      <trkpt lat="45.57163" lon="6.64566">
        <ele>1307.2</ele>
        <time>2019-10-14T10:09:49.000Z</time>
      </trkpt>
      <trkpt lat="45.57194" lon="6.64611">
        <ele>1303.3</ele>
        <time>2019-10-14T10:09:54.000Z</time>
      </trkpt>
      <trkpt lat="45.5723" lon="6.6467">
        <ele>1297.92</ele>
        <time>2019-10-14T10:09:59.000Z</time>
      </trkpt>
      <trkpt lat="45.57261" lon="6.6474">
        <ele>1294.8</ele>
        <time>2019-10-14T10:10:04.000Z</time>
      </trkpt>
      <trkpt lat="45.5728" lon="6.64808">
        <ele>1290.66</ele>
        <time>2019-10-14T10:10:09.000Z</time>
      </trkpt>
      <trkpt lat="45.57281" lon="6.6485">
        <ele>1291.24</ele>
        <time>2019-10-14T10:10:14.000Z</time>
      </trkpt>
      <trkpt lat="45.57289" lon="6.6487">
        <ele>1289.06</ele>
        <time>2019-10-14T10:10:19.000Z</time>
      </trkpt>
      <trkpt lat="45.57296" lon="6.64883">
        <ele>1284.99</ele>
        <time>2019-10-14T10:10:44.000Z</time>
      </trkpt>
      <trkpt lat="45.57307" lon="6.64919">
        <ele>1280.33</ele>
        <time>2019-10-14T10:10:49.000Z</time>
      </trkpt>
      <trkpt lat="45.57314" lon="6.64958">
        <ele>1278.64</ele>
        <time>2019-10-14T10:10:54.000Z</time>
      </trkpt>
      <trkpt lat="45.57324" lon="6.64979">
        <ele>1279.23</ele>
        <time>2019-10-14T10:10:59.000Z</time>
      </trkpt>
      <trkpt lat="45.57328" lon="6.65012">
        <ele>1272.13</ele>
        <time>2019-10-14T10:11:04.000Z</time>
      </trkpt>
      <trkpt lat="45.57331" lon="6.65059">
        <ele>1271.57</ele>
        <time>2019-10-14T10:11:09.000Z</time>
      </trkpt>
      <trkpt lat="45.57343" lon="6.65101">
        <ele>1271.8</ele>
        <time>2019-10-14T10:11:14.000Z</time>
      </trkpt>
      <trkpt lat="45.57354" lon="6.65146">
        <ele>1266.74</ele>
        <time>2019-10-14T10:11:19.000Z</time>
      </trkpt>
      <trkpt lat="45.5736" lon="6.65183">
        <ele>1262.65</ele>
        <time>2019-10-14T10:11:24.000Z</time>
      </trkpt>
      <trkpt lat="45.57337" lon="6.65179">
        <ele>1259.59</ele>
        <time>2019-10-14T10:11:29.000Z</time>
      </trkpt>
      <trkpt lat="45.57322" lon="6.6516">
        <ele>1256.51</ele>
        <time>2019-10-14T10:11:34.000Z</time>
      </trkpt>
      <trkpt lat="45.57307" lon="6.65147">
        <ele>1254.06</ele>
        <time>2019-10-14T10:11:39.000Z</time>
      </trkpt>
      <trkpt lat="45.57296" lon="6.65136">
        <ele>1253.53</ele>
        <time>2019-10-14T10:11:44.000Z</time>
      </trkpt>
      <trkpt lat="45.57289" lon="6.65124">
        <ele>1254.59</ele>
        <time>2019-10-14T10:11:49.000Z</time>
      </trkpt>
      <trkpt lat="45.57276" lon="6.65098">
        <ele>1254.02</ele>
        <time>2019-10-14T10:11:54.000Z</time>
      </trkpt>
      <trkpt lat="45.57265" lon="6.65081">
        <ele>1248.48</ele>
        <time>2019-10-14T10:11:59.000Z</time>
      </trkpt>
      <trkpt lat="45.57266" lon="6.65107">
        <ele>1243.75</ele>
        <time>2019-10-14T10:12:04.000Z</time>
      </trkpt>
      <trkpt lat="45.57269" lon="6.65146">
        <ele>1251.46</ele>
        <time>2019-10-14T10:12:09.000Z</time>
      </trkpt>
      <trkpt lat="45.57285" lon="6.65184">
        <ele>1255.11</ele>
        <time>2019-10-14T10:12:14.000Z</time>
      </trkpt>
      <trkpt lat="45.57305" lon="6.6522">
        <ele>1255.93</ele>
        <time>2019-10-14T10:12:19.000Z</time>
      </trkpt>
      <trkpt lat="45.5733" lon="6.6525">
        <ele>1251.49</ele>
        <time>2019-10-14T10:12:24.000Z</time>
      </trkpt>
      <trkpt lat="45.57354" lon="6.65277">
        <ele>1246.58</ele>
        <time>2019-10-14T10:12:29.000Z</time>
      </trkpt>
      <trkpt lat="45.57366" lon="6.65321">
        <ele>1249.45</ele>
        <time>2019-10-14T10:12:34.000Z</time>
      </trkpt>
      <trkpt lat="45.57381" lon="6.65358">
        <ele>1245.81</ele>
        <time>2019-10-14T10:12:39.000Z</time>
      </trkpt>
      <trkpt lat="45.57397" lon="6.65401">
        <ele>1244.41</ele>
        <time>2019-10-14T10:12:44.000Z</time>
      </trkpt>
      <trkpt lat="45.57419" lon="6.65437">
        <ele>1245.44</ele>
        <time>2019-10-14T10:12:49.000Z</time>
      </trkpt>
      <trkpt lat="45.57439" lon="6.65469">
        <ele>1241.27</ele>
        <time>2019-10-14T10:12:54.000Z</time>
      </trkpt>
      <trkpt lat="45.57457" lon="6.65508">
        <ele>1242.19</ele>
        <time>2019-10-14T10:12:59.000Z</time>
      </trkpt>
      <trkpt lat="45.5748" lon="6.65534">
        <ele>1242.88</ele>
        <time>2019-10-14T10:13:04.000Z</time>
      </trkpt>
      <trkpt lat="45.57499" lon="6.65561">
        <ele>1247.15</ele>
        <time>2019-10-14T10:13:09.000Z</time>
      </trkpt>
      <trkpt lat="45.57518" lon="6.65588">
        <ele>1243.59</ele>
        <time>2019-10-14T10:13:14.000Z</time>
      </trkpt>
      <trkpt lat="45.5754" lon="6.65607">
        <ele>1246.27</ele>
        <time>2019-10-14T10:13:19.000Z</time>
      </trkpt>
      <trkpt lat="45.57561" lon="6.65627">
        <ele>1246.51</ele>
        <time>2019-10-14T10:13:24.000Z</time>
      </trkpt>
      <trkpt lat="45.57582" lon="6.65644">
        <ele>1244.9</ele>
        <time>2019-10-14T10:13:29.000Z</time>
      </trkpt>
      <trkpt lat="45.57609" lon="6.65666">
        <ele>1247.99</ele>
        <time>2019-10-14T10:13:34.000Z</time>
      </trkpt>
      <trkpt lat="45.5763" lon="6.65683">
        <ele>1248.05</ele>
        <time>2019-10-14T10:13:39.000Z</time>
      </trkpt>
      <trkpt lat="45.57647" lon="6.65683">
        <ele>1242.69</ele>
        <time>2019-10-14T10:13:44.000Z</time>
      </trkpt>
      <trkpt lat="45.57655" lon="6.65677">
        <ele>1236.76</ele>
        <time>2019-10-14T10:15:09.000Z</time>
      </trkpt>
      <trkpt lat="45.57667" lon="6.65667">
        <ele>1242.47</ele>
        <time>2019-10-14T10:15:52.000Z</time>
      </trkpt>
      <trkpt lat="45.57691" lon="6.65633">
        <ele>1242.65</ele>
        <time>2019-10-14T10:15:57.000Z</time>
      </trkpt>
      <trkpt lat="45.57721" lon="6.65616">
        <ele>1241.64</ele>
        <time>2019-10-14T10:16:02.000Z</time>
      </trkpt>
      <trkpt lat="45.57751" lon="6.65637">
        <ele>1239.04</ele>
        <time>2019-10-14T10:16:07.000Z</time>
      </trkpt>
      <trkpt lat="45.57783" lon="6.65645">
        <ele>1241.34</ele>
        <time>2019-10-14T10:16:12.000Z</time>
      </trkpt>
      <trkpt lat="45.57817" lon="6.65636">
        <ele>1241.82</ele>
        <time>2019-10-14T10:16:17.000Z</time>
      </trkpt>
      <trkpt lat="45.57844" lon="6.65679">
        <ele>1242.85</ele>
        <time>2019-10-14T10:16:22.000Z</time>
      </trkpt>
      <trkpt lat="45.57873" lon="6.65703">
        <ele>1240.42</ele>
        <time>2019-10-14T10:16:27.000Z</time>
      </trkpt>
      <trkpt lat="45.57908" lon="6.65726">
        <ele>1238.7</ele>
        <time>2019-10-14T10:16:32.000Z</time>
      </trkpt>
      <trkpt lat="45.57915" lon="6.65787">
        <ele>1240.84</ele>
        <time>2019-10-14T10:16:37.000Z</time>
      </trkpt>
      <trkpt lat="45.57942" lon="6.65815">
        <ele>1242.01</ele>
        <time>2019-10-14T10:16:42.000Z</time>
      </trkpt>
      <trkpt lat="45.57977" lon="6.65817">
        <ele>1239.26</ele>
        <time>2019-10-14T10:16:47.000Z</time>
      </trkpt>
      <trkpt lat="45.58012" lon="6.65826">
        <ele>1235.19</ele>
        <time>2019-10-14T10:16:52.000Z</time>
      </trkpt>
      <trkpt lat="45.58051" lon="6.65811">
        <ele>1229.98</ele>
        <time>2019-10-14T10:16:57.000Z</time>
      </trkpt>
      <trkpt lat="45.58087" lon="6.65803">
        <ele>1226.99</ele>
        <time>2019-10-14T10:17:02.000Z</time>
      </trkpt>
      <trkpt lat="45.58119" lon="6.65773">
        <ele>1226.81</ele>
        <time>2019-10-14T10:17:07.000Z</time>
      </trkpt>
      <trkpt lat="45.5816" lon="6.65776">
        <ele>1225.24</ele>
        <time>2019-10-14T10:17:12.000Z</time>
      </trkpt>
      <trkpt lat="45.58188" lon="6.65798">
        <ele>1227.62</ele>
        <time>2019-10-14T10:17:17.000Z</time>
      </trkpt>
      <trkpt lat="45.58212" lon="6.65842">
        <ele>1224.2</ele>
        <time>2019-10-14T10:17:22.000Z</time>
      </trkpt>
      <trkpt lat="45.58243" lon="6.65876">
        <ele>1217.65</ele>
        <time>2019-10-14T10:17:27.000Z</time>
      </trkpt>
      <trkpt lat="45.58277" lon="6.65911">
        <ele>1220.89</ele>
        <time>2019-10-14T10:17:32.000Z</time>
      </trkpt>
      <trkpt lat="45.58319" lon="6.6593">
        <ele>1217.74</ele>
        <time>2019-10-14T10:17:37.000Z</time>
      </trkpt>
      <trkpt lat="45.58362" lon="6.65936">
        <ele>1216.7</ele>
        <time>2019-10-14T10:17:42.000Z</time>
      </trkpt>
      <trkpt lat="45.58406" lon="6.65948">
        <ele>1213.75</ele>
        <time>2019-10-14T10:17:47.000Z</time>
      </trkpt>
      <trkpt lat="45.58448" lon="6.65962">
        <ele>1216.64</ele>
        <time>2019-10-14T10:17:52.000Z</time>
      </trkpt>
      <trkpt lat="45.5849" lon="6.65974">
        <ele>1213.72</ele>
        <time>2019-10-14T10:17:57.000Z</time>
      </trkpt>
      <trkpt lat="45.58528" lon="6.65986">
        <ele>1214.04</ele>
        <time>2019-10-14T10:18:02.000Z</time>
      </trkpt>
      <trkpt lat="45.58536" lon="6.6603">
        <ele>1211.28</ele>
        <time>2019-10-14T10:18:07.000Z</time>
      </trkpt>
      <trkpt lat="45.58519" lon="6.66082">
        <ele>1209.14</ele>
        <time>2019-10-14T10:18:12.000Z</time>
      </trkpt>
      <trkpt lat="45.58489" lon="6.66122">
        <ele>1203.75</ele>
        <time>2019-10-14T10:18:17.000Z</time>
      </trkpt>
      <trkpt lat="45.5846" lon="6.66157">
        <ele>1199.15</ele>
        <time>2019-10-14T10:18:22.000Z</time>
      </trkpt>
      <trkpt lat="45.58462" lon="6.66208">
        <ele>1193.08</ele>
        <time>2019-10-14T10:18:27.000Z</time>
      </trkpt>
      <trkpt lat="45.58493" lon="6.66246">
        <ele>1190.21</ele>
        <time>2019-10-14T10:18:32.000Z</time>
      </trkpt>
      <trkpt lat="45.58524" lon="6.66273">
        <ele>1190.72</ele>
        <time>2019-10-14T10:18:37.000Z</time>
      </trkpt>
      <trkpt lat="45.58519" lon="6.66306">
        <ele>1191.43</ele>
        <time>2019-10-14T10:18:42.000Z</time>
      </trkpt>
      <trkpt lat="45.58482" lon="6.66289">
        <ele>1189.56</ele>
        <time>2019-10-14T10:18:47.000Z</time>
      </trkpt>
      <trkpt lat="45.58434" lon="6.66272">
        <ele>1188.89</ele>
        <time>2019-10-14T10:18:52.000Z</time>
      </trkpt>
      <trkpt lat="45.58386" lon="6.66244">
        <ele>1188.38</ele>
        <time>2019-10-14T10:18:57.000Z</time>
      </trkpt>
      <trkpt lat="45.58336" lon="6.66238">
        <ele>1184.24</ele>
        <time>2019-10-14T10:19:02.000Z</time>
      </trkpt>
      <trkpt lat="45.58283" lon="6.6624">
        <ele>1183.75</ele>
        <time>2019-10-14T10:19:07.000Z</time>
      </trkpt>
      <trkpt lat="45.5822" lon="6.66242">
        <ele>1180.16</ele>
        <time>2019-10-14T10:19:12.000Z</time>
      </trkpt>
      <trkpt lat="45.58171" lon="6.66247">
        <ele>1176.04</ele>
        <time>2019-10-14T10:19:17.000Z</time>
      </trkpt>
      <trkpt lat="45.58126" lon="6.66261">
        <ele>1169.96</ele>
        <time>2019-10-14T10:19:22.000Z</time>
      </trkpt>
      <trkpt lat="45.58074" lon="6.66285">
        <ele>1162.29</ele>
        <time>2019-10-14T10:19:27.000Z</time>
      </trkpt>
      <trkpt lat="45.58024" lon="6.66319">
        <ele>1156.21</ele>
        <time>2019-10-14T10:19:32.000Z</time>
      </trkpt>
      <trkpt lat="45.5799" lon="6.66386">
        <ele>1149.29</ele>
        <time>2019-10-14T10:19:37.000Z</time>
      </trkpt>
      <trkpt lat="45.57937" lon="6.66421">
        <ele>1147.27</ele>
        <time>2019-10-14T10:19:42.000Z</time>
      </trkpt>
      <trkpt lat="45.57879" lon="6.66456">
        <ele>1144.39</ele>
        <time>2019-10-14T10:19:47.000Z</time>
      </trkpt>
      <trkpt lat="45.57835" lon="6.66512">
        <ele>1138.52</ele>
        <time>2019-10-14T10:19:52.000Z</time>
      </trkpt>
      <trkpt lat="45.57827" lon="6.66566">
        <ele>1135</ele>
        <time>2019-10-14T10:19:57.000Z</time>
      </trkpt>
      <trkpt lat="45.57836" lon="6.66636">
        <ele>1133.96</ele>
        <time>2019-10-14T10:20:02.000Z</time>
      </trkpt>
      <trkpt lat="45.57802" lon="6.66644">
        <ele>1133.12</ele>
        <time>2019-10-14T10:20:07.000Z</time>
      </trkpt>
      <trkpt lat="45.5775" lon="6.66628">
        <ele>1134.52</ele>
        <time>2019-10-14T10:20:12.000Z</time>
      </trkpt>
      <trkpt lat="45.57704" lon="6.66596">
        <ele>1129.96</ele>
        <time>2019-10-14T10:20:17.000Z</time>
      </trkpt>
      <trkpt lat="45.57658" lon="6.66621">
        <ele>1125.68</ele>
        <time>2019-10-14T10:20:22.000Z</time>
      </trkpt>
      <trkpt lat="45.57627" lon="6.66654">
        <ele>1119.69</ele>
        <time>2019-10-14T10:20:27.000Z</time>
      </trkpt>
      <trkpt lat="45.5759" lon="6.66667">
        <ele>1113.45</ele>
        <time>2019-10-14T10:20:32.000Z</time>
      </trkpt>
      <trkpt lat="45.57541" lon="6.66704">
        <ele>1112.11</ele>
        <time>2019-10-14T10:20:37.000Z</time>
      </trkpt>
      <trkpt lat="45.57488" lon="6.66717">
        <ele>1105.38</ele>
        <time>2019-10-14T10:20:42.000Z</time>
      </trkpt>
      <trkpt lat="45.57438" lon="6.66715">
        <ele>1106.42</ele>
        <time>2019-10-14T10:20:47.000Z</time>
      </trkpt>
      <trkpt lat="45.57394" lon="6.6675">
        <ele>1100.59</ele>
        <time>2019-10-14T10:20:52.000Z</time>
      </trkpt>
      <trkpt lat="45.57353" lon="6.66736">
        <ele>1091.23</ele>
        <time>2019-10-14T10:20:57.000Z</time>
      </trkpt>
      <trkpt lat="45.57315" lon="6.66759">
        <ele>1091</ele>
        <time>2019-10-14T10:21:02.000Z</time>
      </trkpt>
      <trkpt lat="45.57295" lon="6.66804">
        <ele>1086.21</ele>
        <time>2019-10-14T10:21:07.000Z</time>
      </trkpt>
      <trkpt lat="45.57283" lon="6.6684">
        <ele>1084.99</ele>
        <time>2019-10-14T10:21:12.000Z</time>
      </trkpt>
      <trkpt lat="45.57281" lon="6.66889">
        <ele>1081.68</ele>
        <time>2019-10-14T10:21:17.000Z</time>
      </trkpt>
      <trkpt lat="45.57294" lon="6.66925">
        <ele>1080.7</ele>
        <time>2019-10-14T10:21:22.000Z</time>
      </trkpt>
      <trkpt lat="45.57327" lon="6.66951">
        <ele>1077.97</ele>
        <time>2019-10-14T10:21:27.000Z</time>
      </trkpt>
      <trkpt lat="45.5733" lon="6.66987">
        <ele>1079.45</ele>
        <time>2019-10-14T10:21:32.000Z</time>
      </trkpt>
      <trkpt lat="45.57294" lon="6.66974">
        <ele>1080.04</ele>
        <time>2019-10-14T10:21:37.000Z</time>
      </trkpt>
      <trkpt lat="45.57259" lon="6.66972">
        <ele>1078.74</ele>
        <time>2019-10-14T10:21:42.000Z</time>
      </trkpt>
      <trkpt lat="45.57217" lon="6.66976">
        <ele>1072.36</ele>
        <time>2019-10-14T10:21:47.000Z</time>
      </trkpt>
      <trkpt lat="45.57189" lon="6.6699">
        <ele>1065.96</ele>
        <time>2019-10-14T10:21:52.000Z</time>
      </trkpt>
      <trkpt lat="45.5716" lon="6.67008">
        <ele>1064.95</ele>
        <time>2019-10-14T10:21:57.000Z</time>
      </trkpt>
      <trkpt lat="45.57137" lon="6.67038">
        <ele>1066.14</ele>
        <time>2019-10-14T10:22:02.000Z</time>
      </trkpt>
      <trkpt lat="45.57123" lon="6.67064">
        <ele>1064.81</ele>
        <time>2019-10-14T10:22:07.000Z</time>
      </trkpt>
      <trkpt lat="45.57115" lon="6.67075">
        <ele>1064.16</ele>
        <time>2019-10-14T10:22:12.000Z</time>
      </trkpt>
      <trkpt lat="45.5711" lon="6.67089">
        <ele>1062.13</ele>
        <time>2019-10-14T10:23:12.000Z</time>
      </trkpt>
      <trkpt lat="45.57104" lon="6.67118">
        <ele>1064.28</ele>
        <time>2019-10-14T10:23:17.000Z</time>
      </trkpt>
      <trkpt lat="45.57095" lon="6.67145">
        <ele>1064.03</ele>
        <time>2019-10-14T10:23:22.000Z</time>
      </trkpt>
      <trkpt lat="45.57094" lon="6.67186">
        <ele>1067.34</ele>
        <time>2019-10-14T10:23:27.000Z</time>
      </trkpt>
      <trkpt lat="45.571" lon="6.67208">
        <ele>1066.53</ele>
        <time>2019-10-14T10:23:32.000Z</time>
      </trkpt>
      <trkpt lat="45.57101" lon="6.67234">
        <ele>1065.88</ele>
        <time>2019-10-14T10:23:37.000Z</time>
      </trkpt>
      <trkpt lat="45.57103" lon="6.67261">
        <ele>1069.93</ele>
        <time>2019-10-14T10:23:42.000Z</time>
      </trkpt>
      <trkpt lat="45.57106" lon="6.6729">
        <ele>1069.75</ele>
        <time>2019-10-14T10:23:47.000Z</time>
      </trkpt>
      <trkpt lat="45.5711" lon="6.67318">
        <ele>1070.84</ele>
        <time>2019-10-14T10:23:52.000Z</time>
      </trkpt>
      <trkpt lat="45.57124" lon="6.67347">
        <ele>1074.73</ele>
        <time>2019-10-14T10:23:57.000Z</time>
      </trkpt>
      <trkpt lat="45.57131" lon="6.67365">
        <ele>1073.48</ele>
        <time>2019-10-14T10:24:02.000Z</time>
      </trkpt>
      <trkpt lat="45.57141" lon="6.67392">
        <ele>1074.39</ele>
        <time>2019-10-14T10:24:07.000Z</time>
      </trkpt>
      <trkpt lat="45.57153" lon="6.67419">
        <ele>1072.39</ele>
        <time>2019-10-14T10:24:12.000Z</time>
      </trkpt>
      <trkpt lat="45.57161" lon="6.67447">
        <ele>1073.66</ele>
        <time>2019-10-14T10:24:17.000Z</time>
      </trkpt>
      <trkpt lat="45.57163" lon="6.67474">
        <ele>1073.43</ele>
        <time>2019-10-14T10:24:22.000Z</time>
      </trkpt>
      <trkpt lat="45.57163" lon="6.67497">
        <ele>1077.01</ele>
        <time>2019-10-14T10:24:27.000Z</time>
      </trkpt>
      <trkpt lat="45.57163" lon="6.67514">
        <ele>1079.33</ele>
        <time>2019-10-14T10:24:32.000Z</time>
      </trkpt>
      <trkpt lat="45.57164" lon="6.67538">
        <ele>1085.77</ele>
        <time>2019-10-14T10:24:37.000Z</time>
      </trkpt>
      <trkpt lat="45.57166" lon="6.67564">
        <ele>1087.14</ele>
        <time>2019-10-14T10:24:42.000Z</time>
      </trkpt>
      <trkpt lat="45.57167" lon="6.67587">
        <ele>1093.54</ele>
        <time>2019-10-14T10:24:47.000Z</time>
      </trkpt>
      <trkpt lat="45.57172" lon="6.67608">
        <ele>1098.72</ele>
        <time>2019-10-14T10:24:52.000Z</time>
      </trkpt>
      <trkpt lat="45.57185" lon="6.67629">
        <ele>1102.94</ele>
        <time>2019-10-14T10:24:57.000Z</time>
      </trkpt>
      <trkpt lat="45.57198" lon="6.67631">
        <ele>1102.97</ele>
        <time>2019-10-14T10:25:02.000Z</time>
      </trkpt>
      <trkpt lat="45.57216" lon="6.67636">
        <ele>1104.43</ele>
        <time>2019-10-14T10:25:07.000Z</time>
      </trkpt>
      <trkpt lat="45.57235" lon="6.67641">
        <ele>1107.61</ele>
        <time>2019-10-14T10:25:12.000Z</time>
      </trkpt>
      <trkpt lat="45.57249" lon="6.67654">
        <ele>1107.85</ele>
        <time>2019-10-14T10:25:17.000Z</time>
      </trkpt>
      <trkpt lat="45.57259" lon="6.67679">
        <ele>1106.5</ele>
        <time>2019-10-14T10:25:22.000Z</time>
      </trkpt>
      <trkpt lat="45.57271" lon="6.67695">
        <ele>1103.58</ele>
        <time>2019-10-14T10:25:27.000Z</time>
      </trkpt>
      <trkpt lat="45.57275" lon="6.67725">
        <ele>1105.28</ele>
        <time>2019-10-14T10:25:32.000Z</time>
      </trkpt>
      <trkpt lat="45.57283" lon="6.67754">
        <ele>1105.8</ele>
        <time>2019-10-14T10:25:37.000Z</time>
      </trkpt>
      <trkpt lat="45.57294" lon="6.67775">
        <ele>1108.51</ele>
        <time>2019-10-14T10:25:42.000Z</time>
      </trkpt>
      <trkpt lat="45.57308" lon="6.67788">
        <ele>1109.53</ele>
        <time>2019-10-14T10:25:47.000Z</time>
      </trkpt>
      <trkpt lat="45.57327" lon="6.67794">
        <ele>1111.53</ele>
        <time>2019-10-14T10:25:52.000Z</time>
      </trkpt>
      <trkpt lat="45.57343" lon="6.67811">
        <ele>1113.33</ele>
        <time>2019-10-14T10:25:57.000Z</time>
      </trkpt>
      <trkpt lat="45.57352" lon="6.67838">
        <ele>1114.34</ele>
        <time>2019-10-14T10:26:02.000Z</time>
      </trkpt>
      <trkpt lat="45.5736" lon="6.67865">
        <ele>1120.53</ele>
        <time>2019-10-14T10:26:07.000Z</time>
      </trkpt>
      <trkpt lat="45.57363" lon="6.67891">
        <ele>1121.79</ele>
        <time>2019-10-14T10:26:12.000Z</time>
      </trkpt>
      <trkpt lat="45.57364" lon="6.67918">
        <ele>1124.32</ele>
        <time>2019-10-14T10:26:17.000Z</time>
      </trkpt>
      <trkpt lat="45.57366" lon="6.6795">
        <ele>1127.04</ele>
        <time>2019-10-14T10:26:22.000Z</time>
      </trkpt>
      <trkpt lat="45.57372" lon="6.67977">
        <ele>1127.15</ele>
        <time>2019-10-14T10:26:27.000Z</time>
      </trkpt>
      <trkpt lat="45.57377" lon="6.68">
        <ele>1128.14</ele>
        <time>2019-10-14T10:26:32.000Z</time>
      </trkpt>
      <trkpt lat="45.57387" lon="6.68023">
        <ele>1130.41</ele>
        <time>2019-10-14T10:26:37.000Z</time>
      </trkpt>
      <trkpt lat="45.57406" lon="6.68034">
        <ele>1133.4</ele>
        <time>2019-10-14T10:26:42.000Z</time>
      </trkpt>
      <trkpt lat="45.57427" lon="6.68036">
        <ele>1135.76</ele>
        <time>2019-10-14T10:26:47.000Z</time>
      </trkpt>
      <trkpt lat="45.57446" lon="6.68039">
        <ele>1137.25</ele>
        <time>2019-10-14T10:26:52.000Z</time>
      </trkpt>
      <trkpt lat="45.57458" lon="6.68046">
        <ele>1138.45</ele>
        <time>2019-10-14T10:26:57.000Z</time>
      </trkpt>
      <trkpt lat="45.57449" lon="6.68073">
        <ele>1139.36</ele>
        <time>2019-10-14T10:27:02.000Z</time>
      </trkpt>
      <trkpt lat="45.57435" lon="6.68096">
        <ele>1137.93</ele>
        <time>2019-10-14T10:27:07.000Z</time>
      </trkpt>
      <trkpt lat="45.57416" lon="6.68122">
        <ele>1133.49</ele>
        <time>2019-10-14T10:27:12.000Z</time>
      </trkpt>
      <trkpt lat="45.57407" lon="6.68161">
        <ele>1133.59</ele>
        <time>2019-10-14T10:27:17.000Z</time>
      </trkpt>
      <trkpt lat="45.57399" lon="6.682">
        <ele>1139.24</ele>
        <time>2019-10-14T10:27:22.000Z</time>
      </trkpt>
      <trkpt lat="45.574" lon="6.68234">
        <ele>1140.14</ele>
        <time>2019-10-14T10:27:27.000Z</time>
      </trkpt>
      <trkpt lat="45.5741" lon="6.68264">
        <ele>1141.55</ele>
        <time>2019-10-14T10:27:32.000Z</time>
      </trkpt>
      <trkpt lat="45.57419" lon="6.68301">
        <ele>1150.5</ele>
        <time>2019-10-14T10:27:37.000Z</time>
      </trkpt>
      <trkpt lat="45.5743" lon="6.68335">
        <ele>1147.42</ele>
        <time>2019-10-14T10:27:42.000Z</time>
      </trkpt>
      <trkpt lat="45.57444" lon="6.68366">
        <ele>1144.57</ele>
        <time>2019-10-14T10:27:47.000Z</time>
      </trkpt>
      <trkpt lat="45.57457" lon="6.68397">
        <ele>1141.97</ele>
        <time>2019-10-14T10:27:52.000Z</time>
      </trkpt>
      <trkpt lat="45.57482" lon="6.68423">
        <ele>1141.3</ele>
        <time>2019-10-14T10:27:57.000Z</time>
      </trkpt>
      <trkpt lat="45.57507" lon="6.68448">
        <ele>1136.44</ele>
        <time>2019-10-14T10:28:02.000Z</time>
      </trkpt>
      <trkpt lat="45.57527" lon="6.68475">
        <ele>1131.87</ele>
        <time>2019-10-14T10:28:07.000Z</time>
      </trkpt>
      <trkpt lat="45.57527" lon="6.68521">
        <ele>1132.25</ele>
        <time>2019-10-14T10:28:12.000Z</time>
      </trkpt>
      <trkpt lat="45.57514" lon="6.68561">
        <ele>1133.63</ele>
        <time>2019-10-14T10:28:17.000Z</time>
      </trkpt>
      <trkpt lat="45.57524" lon="6.6861">
        <ele>1137.87</ele>
        <time>2019-10-14T10:28:22.000Z</time>
      </trkpt>
      <trkpt lat="45.57552" lon="6.68631">
        <ele>1138.31</ele>
        <time>2019-10-14T10:28:27.000Z</time>
      </trkpt>
      <trkpt lat="45.57578" lon="6.68638">
        <ele>1139.13</ele>
        <time>2019-10-14T10:28:32.000Z</time>
      </trkpt>
      <trkpt lat="45.57605" lon="6.68645">
        <ele>1142.48</ele>
        <time>2019-10-14T10:28:37.000Z</time>
      </trkpt>
      <trkpt lat="45.57628" lon="6.68655">
        <ele>1147.53</ele>
        <time>2019-10-14T10:28:42.000Z</time>
      </trkpt>
      <trkpt lat="45.57655" lon="6.68678">
        <ele>1147.47</ele>
        <time>2019-10-14T10:28:47.000Z</time>
      </trkpt>
      <trkpt lat="45.57673" lon="6.68695">
        <ele>1147.65</ele>
        <time>2019-10-14T10:28:52.000Z</time>
      </trkpt>
      <trkpt lat="45.57695" lon="6.68692">
        <ele>1147.94</ele>
        <time>2019-10-14T10:28:57.000Z</time>
      </trkpt>
      <trkpt lat="45.57719" lon="6.68687">
        <ele>1151.16</ele>
        <time>2019-10-14T10:29:02.000Z</time>
      </trkpt>
      <trkpt lat="45.57743" lon="6.68689">
        <ele>1152.66</ele>
        <time>2019-10-14T10:29:07.000Z</time>
      </trkpt>
      <trkpt lat="45.57767" lon="6.68687">
        <ele>1153.73</ele>
        <time>2019-10-14T10:29:12.000Z</time>
      </trkpt>
      <trkpt lat="45.57787" lon="6.68708">
        <ele>1154.86</ele>
        <time>2019-10-14T10:29:17.000Z</time>
      </trkpt>
      <trkpt lat="45.57777" lon="6.68741">
        <ele>1155.16</ele>
        <time>2019-10-14T10:29:22.000Z</time>
      </trkpt>
      <trkpt lat="45.57767" lon="6.68773">
        <ele>1155.28</ele>
        <time>2019-10-14T10:29:27.000Z</time>
      </trkpt>
      <trkpt lat="45.57757" lon="6.68798">
        <ele>1155.3</ele>
        <time>2019-10-14T10:29:32.000Z</time>
      </trkpt>
      <trkpt lat="45.57741" lon="6.68829">
        <ele>1152.82</ele>
        <time>2019-10-14T10:29:37.000Z</time>
      </trkpt>
      <trkpt lat="45.57724" lon="6.68853">
        <ele>1157.27</ele>
        <time>2019-10-14T10:29:42.000Z</time>
      </trkpt>
      <trkpt lat="45.57718" lon="6.68878">
        <ele>1158.69</ele>
        <time>2019-10-14T10:29:47.000Z</time>
      </trkpt>
      <trkpt lat="45.57711" lon="6.68912">
        <ele>1161.02</ele>
        <time>2019-10-14T10:29:52.000Z</time>
      </trkpt>
      <trkpt lat="45.57705" lon="6.68943">
        <ele>1159.64</ele>
        <time>2019-10-14T10:29:57.000Z</time>
      </trkpt>
      <trkpt lat="45.57694" lon="6.68979">
        <ele>1166.37</ele>
        <time>2019-10-14T10:30:02.000Z</time>
      </trkpt>
      <trkpt lat="45.57687" lon="6.69007">
        <ele>1167.27</ele>
        <time>2019-10-14T10:30:07.000Z</time>
      </trkpt>
      <trkpt lat="45.57679" lon="6.69037">
        <ele>1168.31</ele>
        <time>2019-10-14T10:30:12.000Z</time>
      </trkpt>
      <trkpt lat="45.57671" lon="6.69064">
        <ele>1172.62</ele>
        <time>2019-10-14T10:30:17.000Z</time>
      </trkpt>
      <trkpt lat="45.5765" lon="6.6907">
        <ele>1174.67</ele>
        <time>2019-10-14T10:30:22.000Z</time>
      </trkpt>
      <trkpt lat="45.57626" lon="6.69073">
        <ele>1178.5</ele>
        <time>2019-10-14T10:30:27.000Z</time>
      </trkpt>
      <trkpt lat="45.57608" lon="6.69091">
        <ele>1178.28</ele>
        <time>2019-10-14T10:30:32.000Z</time>
      </trkpt>
      <trkpt lat="45.57593" lon="6.69116">
        <ele>1178.05</ele>
        <time>2019-10-14T10:30:37.000Z</time>
      </trkpt>
      <trkpt lat="45.57586" lon="6.69137">
        <ele>1180.9</ele>
        <time>2019-10-14T10:30:42.000Z</time>
      </trkpt>
      <trkpt lat="45.57573" lon="6.69154">
        <ele>1181.22</ele>
        <time>2019-10-14T10:30:47.000Z</time>
      </trkpt>
      <trkpt lat="45.57553" lon="6.69179">
        <ele>1181.84</ele>
        <time>2019-10-14T10:30:52.000Z</time>
      </trkpt>
      <trkpt lat="45.57543" lon="6.69209">
        <ele>1183.13</ele>
        <time>2019-10-14T10:30:57.000Z</time>
      </trkpt>
      <trkpt lat="45.57532" lon="6.69236">
        <ele>1184</ele>
        <time>2019-10-14T10:31:02.000Z</time>
      </trkpt>
      <trkpt lat="45.57524" lon="6.69265">
        <ele>1184.54</ele>
        <time>2019-10-14T10:31:07.000Z</time>
      </trkpt>
      <trkpt lat="45.57523" lon="6.69294">
        <ele>1186.33</ele>
        <time>2019-10-14T10:31:12.000Z</time>
      </trkpt>
      <trkpt lat="45.57532" lon="6.69324">
        <ele>1188.98</ele>
        <time>2019-10-14T10:31:17.000Z</time>
      </trkpt>
      <trkpt lat="45.5754" lon="6.69349">
        <ele>1190.97</ele>
        <time>2019-10-14T10:31:22.000Z</time>
      </trkpt>
      <trkpt lat="45.57554" lon="6.69373">
        <ele>1193.22</ele>
        <time>2019-10-14T10:31:27.000Z</time>
      </trkpt>
      <trkpt lat="45.57563" lon="6.69401">
        <ele>1193.85</ele>
        <time>2019-10-14T10:31:32.000Z</time>
      </trkpt>
      <trkpt lat="45.57572" lon="6.69433">
        <ele>1200.93</ele>
        <time>2019-10-14T10:31:37.000Z</time>
      </trkpt>
      <trkpt lat="45.57578" lon="6.69465">
        <ele>1195.96</ele>
        <time>2019-10-14T10:31:42.000Z</time>
      </trkpt>
      <trkpt lat="45.57583" lon="6.69494">
        <ele>1195.86</ele>
        <time>2019-10-14T10:31:47.000Z</time>
      </trkpt>
      <trkpt lat="45.57595" lon="6.69525">
        <ele>1199.09</ele>
        <time>2019-10-14T10:31:52.000Z</time>
      </trkpt>
      <trkpt lat="45.57607" lon="6.69548">
        <ele>1201.42</ele>
        <time>2019-10-14T10:31:57.000Z</time>
      </trkpt>
      <trkpt lat="45.5762" lon="6.69574">
        <ele>1201.97</ele>
        <time>2019-10-14T10:32:02.000Z</time>
      </trkpt>
      <trkpt lat="45.57633" lon="6.69602">
        <ele>1202.8</ele>
        <time>2019-10-14T10:32:07.000Z</time>
      </trkpt>
      <trkpt lat="45.57642" lon="6.69632">
        <ele>1203.1</ele>
        <time>2019-10-14T10:32:12.000Z</time>
      </trkpt>
      <trkpt lat="45.57649" lon="6.69659">
        <ele>1202.64</ele>
        <time>2019-10-14T10:32:17.000Z</time>
      </trkpt>
      <trkpt lat="45.5766" lon="6.69689">
        <ele>1202.35</ele>
        <time>2019-10-14T10:32:22.000Z</time>
      </trkpt>
      <trkpt lat="45.57667" lon="6.69719">
        <ele>1206.83</ele>
        <time>2019-10-14T10:32:27.000Z</time>
      </trkpt>
      <trkpt lat="45.57664" lon="6.6975">
        <ele>1202.39</ele>
        <time>2019-10-14T10:32:32.000Z</time>
      </trkpt>
      <trkpt lat="45.57658" lon="6.69772">
        <ele>1202.98</ele>
        <time>2019-10-14T10:32:37.000Z</time>
      </trkpt>
      <trkpt lat="45.57663" lon="6.69785">
        <ele>1206.75</ele>
        <time>2019-10-14T10:33:18.000Z</time>
      </trkpt>
      <trkpt lat="45.57669" lon="6.69819">
        <ele>1200.82</ele>
        <time>2019-10-14T10:33:23.000Z</time>
      </trkpt>
      <trkpt lat="45.57677" lon="6.69856">
        <ele>1198.71</ele>
        <time>2019-10-14T10:33:28.000Z</time>
      </trkpt>
      <trkpt lat="45.5768" lon="6.69885">
        <ele>1199.11</ele>
        <time>2019-10-14T10:33:33.000Z</time>
      </trkpt>
      <trkpt lat="45.57672" lon="6.69916">
        <ele>1201.24</ele>
        <time>2019-10-14T10:33:38.000Z</time>
      </trkpt>
      <trkpt lat="45.57669" lon="6.69957">
        <ele>1204.82</ele>
        <time>2019-10-14T10:33:43.000Z</time>
      </trkpt>
      <trkpt lat="45.57679" lon="6.69997">
        <ele>1204.69</ele>
        <time>2019-10-14T10:33:48.000Z</time>
      </trkpt>
      <trkpt lat="45.57674" lon="6.70039">
        <ele>1206.99</ele>
        <time>2019-10-14T10:33:53.000Z</time>
      </trkpt>
      <trkpt lat="45.57669" lon="6.70075">
        <ele>1202.83</ele>
        <time>2019-10-14T10:33:58.000Z</time>
      </trkpt>
      <trkpt lat="45.57655" lon="6.70109">
        <ele>1205.5</ele>
        <time>2019-10-14T10:34:03.000Z</time>
      </trkpt>
      <trkpt lat="45.57666" lon="6.70142">
        <ele>1205.57</ele>
        <time>2019-10-14T10:34:08.000Z</time>
      </trkpt>
      <trkpt lat="45.57681" lon="6.70175">
        <ele>1206.29</ele>
        <time>2019-10-14T10:34:13.000Z</time>
      </trkpt>
      <trkpt lat="45.57699" lon="6.70207">
        <ele>1208.42</ele>
        <time>2019-10-14T10:34:18.000Z</time>
      </trkpt>
      <trkpt lat="45.57719" lon="6.70232">
        <ele>1208.73</ele>
        <time>2019-10-14T10:34:23.000Z</time>
      </trkpt>
      <trkpt lat="45.57739" lon="6.7026">
        <ele>1207.99</ele>
        <time>2019-10-14T10:34:28.000Z</time>
      </trkpt>
      <trkpt lat="45.57755" lon="6.7029">
        <ele>1214.54</ele>
        <time>2019-10-14T10:34:33.000Z</time>
      </trkpt>
      <trkpt lat="45.57769" lon="6.70323">
        <ele>1212.52</ele>
        <time>2019-10-14T10:34:38.000Z</time>
      </trkpt>
      <trkpt lat="45.57788" lon="6.70339">
        <ele>1208.86</ele>
        <time>2019-10-14T10:34:43.000Z</time>
      </trkpt>
      <trkpt lat="45.57818" lon="6.70353">
        <ele>1206.6</ele>
        <time>2019-10-14T10:34:48.000Z</time>
      </trkpt>
      <trkpt lat="45.57835" lon="6.70371">
        <ele>1208.68</ele>
        <time>2019-10-14T10:34:53.000Z</time>
      </trkpt>
      <trkpt lat="45.57853" lon="6.7039">
        <ele>1212.02</ele>
        <time>2019-10-14T10:34:58.000Z</time>
      </trkpt>
      <trkpt lat="45.57873" lon="6.70409">
        <ele>1207.68</ele>
        <time>2019-10-14T10:35:03.000Z</time>
      </trkpt>
      <trkpt lat="45.57895" lon="6.7042">
        <ele>1212.87</ele>
        <time>2019-10-14T10:35:08.000Z</time>
      </trkpt>
      <trkpt lat="45.57919" lon="6.70412">
        <ele>1212.19</ele>
        <time>2019-10-14T10:35:13.000Z</time>
      </trkpt>
      <trkpt lat="45.57942" lon="6.70425">
        <ele>1213.94</ele>
        <time>2019-10-14T10:35:18.000Z</time>
      </trkpt>
      <trkpt lat="45.5796" lon="6.70454">
        <ele>1215.72</ele>
        <time>2019-10-14T10:35:23.000Z</time>
      </trkpt>
      <trkpt lat="45.57974" lon="6.70494">
        <ele>1216.2</ele>
        <time>2019-10-14T10:35:28.000Z</time>
      </trkpt>
      <trkpt lat="45.57986" lon="6.70534">
        <ele>1214.07</ele>
        <time>2019-10-14T10:35:33.000Z</time>
      </trkpt>
      <trkpt lat="45.57999" lon="6.70579">
        <ele>1212.74</ele>
        <time>2019-10-14T10:35:38.000Z</time>
      </trkpt>
      <trkpt lat="45.58006" lon="6.70619">
        <ele>1211.07</ele>
        <time>2019-10-14T10:35:43.000Z</time>
      </trkpt>
      <trkpt lat="45.58011" lon="6.70658">
        <ele>1213.92</ele>
        <time>2019-10-14T10:35:48.000Z</time>
      </trkpt>
      <trkpt lat="45.5802" lon="6.70699">
        <ele>1217.44</ele>
        <time>2019-10-14T10:35:53.000Z</time>
      </trkpt>
      <trkpt lat="45.58035" lon="6.70733">
        <ele>1218.4</ele>
        <time>2019-10-14T10:35:58.000Z</time>
      </trkpt>
      <trkpt lat="45.58055" lon="6.70761">
        <ele>1217.61</ele>
        <time>2019-10-14T10:36:03.000Z</time>
      </trkpt>
      <trkpt lat="45.58074" lon="6.70785">
        <ele>1220.11</ele>
        <time>2019-10-14T10:36:08.000Z</time>
      </trkpt>
      <trkpt lat="45.58092" lon="6.70807">
        <ele>1220.1</ele>
        <time>2019-10-14T10:36:13.000Z</time>
      </trkpt>
      <trkpt lat="45.58109" lon="6.70823">
        <ele>1218.64</ele>
        <time>2019-10-14T10:36:18.000Z</time>
      </trkpt>
      <trkpt lat="45.58125" lon="6.70846">
        <ele>1216.49</ele>
        <time>2019-10-14T10:36:23.000Z</time>
      </trkpt>
      <trkpt lat="45.58138" lon="6.70876">
        <ele>1217.52</ele>
        <time>2019-10-14T10:36:28.000Z</time>
      </trkpt>
      <trkpt lat="45.58157" lon="6.70903">
        <ele>1217.47</ele>
        <time>2019-10-14T10:36:33.000Z</time>
      </trkpt>
      <trkpt lat="45.58177" lon="6.70935">
        <ele>1220.27</ele>
        <time>2019-10-14T10:36:38.000Z</time>
      </trkpt>
      <trkpt lat="45.58187" lon="6.70971">
        <ele>1219.31</ele>
        <time>2019-10-14T10:36:43.000Z</time>
      </trkpt>
      <trkpt lat="45.58192" lon="6.71007">
        <ele>1219.03</ele>
        <time>2019-10-14T10:36:48.000Z</time>
      </trkpt>
      <trkpt lat="45.58199" lon="6.7105">
        <ele>1216.64</ele>
        <time>2019-10-14T10:36:53.000Z</time>
      </trkpt>
      <trkpt lat="45.58213" lon="6.71077">
        <ele>1219.54</ele>
        <time>2019-10-14T10:36:58.000Z</time>
      </trkpt>
      <trkpt lat="45.58229" lon="6.71094">
        <ele>1219.82</ele>
        <time>2019-10-14T10:37:03.000Z</time>
      </trkpt>
      <trkpt lat="45.58236" lon="6.71127">
        <ele>1218.85</ele>
        <time>2019-10-14T10:37:08.000Z</time>
      </trkpt>
      <trkpt lat="45.58241" lon="6.71159">
        <ele>1221.1</ele>
        <time>2019-10-14T10:37:13.000Z</time>
      </trkpt>
      <trkpt lat="45.58242" lon="6.71188">
        <ele>1222.81</ele>
        <time>2019-10-14T10:37:18.000Z</time>
      </trkpt>
      <trkpt lat="45.58239" lon="6.71225">
        <ele>1226.13</ele>
        <time>2019-10-14T10:37:23.000Z</time>
      </trkpt>
      <trkpt lat="45.58237" lon="6.71267">
        <ele>1227.84</ele>
        <time>2019-10-14T10:37:28.000Z</time>
      </trkpt>
      <trkpt lat="45.58235" lon="6.71294">
        <ele>1237.63</ele>
        <time>2019-10-14T10:37:33.000Z</time>
      </trkpt>
      <trkpt lat="45.58238" lon="6.71316">
        <ele>1236.32</ele>
        <time>2019-10-14T10:37:38.000Z</time>
      </trkpt>
      <trkpt lat="45.5824" lon="6.7133">
        <ele>1235.1</ele>
        <time>2019-10-14T10:37:48.000Z</time>
      </trkpt>
      <trkpt lat="45.58243" lon="6.71347">
        <ele>1231.88</ele>
        <time>2019-10-14T10:37:53.000Z</time>
      </trkpt>
      <trkpt lat="45.5826" lon="6.71376">
        <ele>1231.23</ele>
        <time>2019-10-14T10:37:58.000Z</time>
      </trkpt>
      <trkpt lat="45.58263" lon="6.71404">
        <ele>1229.08</ele>
        <time>2019-10-14T10:38:03.000Z</time>
      </trkpt>
      <trkpt lat="45.58253" lon="6.71431">
        <ele>1228.5</ele>
        <time>2019-10-14T10:38:08.000Z</time>
      </trkpt>
      <trkpt lat="45.58248" lon="6.71453">
        <ele>1223.03</ele>
        <time>2019-10-14T10:38:13.000Z</time>
      </trkpt>
      <trkpt lat="45.58245" lon="6.71474">
        <ele>1223.07</ele>
        <time>2019-10-14T10:38:18.000Z</time>
      </trkpt>
      <trkpt lat="45.58234" lon="6.71505">
        <ele>1220.4</ele>
        <time>2019-10-14T10:38:23.000Z</time>
      </trkpt>
      <trkpt lat="45.58225" lon="6.71523">
        <ele>1217.28</ele>
        <time>2019-10-14T10:38:28.000Z</time>
      </trkpt>
      <trkpt lat="45.58222" lon="6.71538">
        <ele>1220.88</ele>
        <time>2019-10-14T10:39:12.000Z</time>
      </trkpt>
      <trkpt lat="45.58216" lon="6.71569">
        <ele>1219.68</ele>
        <time>2019-10-14T10:39:17.000Z</time>
      </trkpt>
      <trkpt lat="45.58217" lon="6.71614">
        <ele>1219.33</ele>
        <time>2019-10-14T10:39:22.000Z</time>
      </trkpt>
      <trkpt lat="45.58227" lon="6.71662">
        <ele>1218.82</ele>
        <time>2019-10-14T10:39:27.000Z</time>
      </trkpt>
      <trkpt lat="45.58241" lon="6.71705">
        <ele>1213.87</ele>
        <time>2019-10-14T10:39:32.000Z</time>
      </trkpt>
      <trkpt lat="45.58253" lon="6.71752">
        <ele>1213.86</ele>
        <time>2019-10-14T10:39:37.000Z</time>
      </trkpt>
      <trkpt lat="45.58254" lon="6.71806">
        <ele>1212.68</ele>
        <time>2019-10-14T10:39:42.000Z</time>
      </trkpt>
      <trkpt lat="45.58256" lon="6.71858">
        <ele>1210.47</ele>
        <time>2019-10-14T10:39:47.000Z</time>
      </trkpt>
      <trkpt lat="45.58269" lon="6.71912">
        <ele>1207.7</ele>
        <time>2019-10-14T10:39:52.000Z</time>
      </trkpt>
      <trkpt lat="45.58284" lon="6.71964">
        <ele>1207.97</ele>
        <time>2019-10-14T10:39:57.000Z</time>
      </trkpt>
      <trkpt lat="45.58297" lon="6.72019">
        <ele>1203.55</ele>
        <time>2019-10-14T10:40:02.000Z</time>
      </trkpt>
      <trkpt lat="45.58314" lon="6.72084">
        <ele>1204.12</ele>
        <time>2019-10-14T10:40:07.000Z</time>
      </trkpt>
      <trkpt lat="45.58329" lon="6.72142">
        <ele>1200.64</ele>
        <time>2019-10-14T10:40:12.000Z</time>
      </trkpt>
      <trkpt lat="45.58322" lon="6.72208">
        <ele>1200.51</ele>
        <time>2019-10-14T10:40:17.000Z</time>
      </trkpt>
      <trkpt lat="45.5833" lon="6.72268">
        <ele>1203.07</ele>
        <time>2019-10-14T10:40:22.000Z</time>
      </trkpt>
      <trkpt lat="45.58334" lon="6.72332">
        <ele>1203.02</ele>
        <time>2019-10-14T10:40:27.000Z</time>
      </trkpt>
      <trkpt lat="45.58324" lon="6.72394">
        <ele>1200.46</ele>
        <time>2019-10-14T10:40:32.000Z</time>
      </trkpt>
      <trkpt lat="45.58313" lon="6.72445">
        <ele>1196.42</ele>
        <time>2019-10-14T10:40:37.000Z</time>
      </trkpt>
      <trkpt lat="45.58338" lon="6.72475">
        <ele>1195</ele>
        <time>2019-10-14T10:40:42.000Z</time>
      </trkpt>
      <trkpt lat="45.58366" lon="6.72502">
        <ele>1191.1</ele>
        <time>2019-10-14T10:40:47.000Z</time>
      </trkpt>
      <trkpt lat="45.58387" lon="6.72548">
        <ele>1189.27</ele>
        <time>2019-10-14T10:40:52.000Z</time>
      </trkpt>
      <trkpt lat="45.58402" lon="6.72601">
        <ele>1190.1</ele>
        <time>2019-10-14T10:40:57.000Z</time>
      </trkpt>
      <trkpt lat="45.58424" lon="6.72645">
        <ele>1188.01</ele>
        <time>2019-10-14T10:41:02.000Z</time>
      </trkpt>
      <trkpt lat="45.58446" lon="6.72685">
        <ele>1187.38</ele>
        <time>2019-10-14T10:41:07.000Z</time>
      </trkpt>
      <trkpt lat="45.58466" lon="6.72732">
        <ele>1186.64</ele>
        <time>2019-10-14T10:41:12.000Z</time>
      </trkpt>
      <trkpt lat="45.58485" lon="6.72775">
        <ele>1181.99</ele>
        <time>2019-10-14T10:41:17.000Z</time>
      </trkpt>
      <trkpt lat="45.58515" lon="6.7281">
        <ele>1181.18</ele>
        <time>2019-10-14T10:41:22.000Z</time>
      </trkpt>
      <trkpt lat="45.58544" lon="6.72845">
        <ele>1182.78</ele>
        <time>2019-10-14T10:41:27.000Z</time>
      </trkpt>
      <trkpt lat="45.58555" lon="6.72894">
        <ele>1183.41</ele>
        <time>2019-10-14T10:41:32.000Z</time>
      </trkpt>
      <trkpt lat="45.58556" lon="6.72955">
        <ele>1183.89</ele>
        <time>2019-10-14T10:41:37.000Z</time>
      </trkpt>
      <trkpt lat="45.5858" lon="6.73002">
        <ele>1184.51</ele>
        <time>2019-10-14T10:41:42.000Z</time>
      </trkpt>
      <trkpt lat="45.5861" lon="6.73046">
        <ele>1178.56</ele>
        <time>2019-10-14T10:41:47.000Z</time>
      </trkpt>
      <trkpt lat="45.5863" lon="6.73086">
        <ele>1175.83</ele>
        <time>2019-10-14T10:41:52.000Z</time>
      </trkpt>
      <trkpt lat="45.58646" lon="6.7314">
        <ele>1175.98</ele>
        <time>2019-10-14T10:41:57.000Z</time>
      </trkpt>
      <trkpt lat="45.5866" lon="6.7318">
        <ele>1175.83</ele>
        <time>2019-10-14T10:42:02.000Z</time>
      </trkpt>
      <trkpt lat="45.58675" lon="6.73212">
        <ele>1172.15</ele>
        <time>2019-10-14T10:42:07.000Z</time>
      </trkpt>
      <trkpt lat="45.58696" lon="6.73241">
        <ele>1172.49</ele>
        <time>2019-10-14T10:42:12.000Z</time>
      </trkpt>
      <trkpt lat="45.58717" lon="6.73258">
        <ele>1171.85</ele>
        <time>2019-10-14T10:42:17.000Z</time>
      </trkpt>
      <trkpt lat="45.58745" lon="6.73274">
        <ele>1172.79</ele>
        <time>2019-10-14T10:42:22.000Z</time>
      </trkpt>
      <trkpt lat="45.58781" lon="6.7329">
        <ele>1173.07</ele>
        <time>2019-10-14T10:42:27.000Z</time>
      </trkpt>
      <trkpt lat="45.58804" lon="6.73303">
        <ele>1168.19</ele>
        <time>2019-10-14T10:42:32.000Z</time>
      </trkpt>
      <trkpt lat="45.58837" lon="6.73311">
        <ele>1166.16</ele>
        <time>2019-10-14T10:42:37.000Z</time>
      </trkpt>
      <trkpt lat="45.58871" lon="6.733">
        <ele>1164.53</ele>
        <time>2019-10-14T10:42:42.000Z</time>
      </trkpt>
      <trkpt lat="45.58898" lon="6.73313">
        <ele>1164.19</ele>
        <time>2019-10-14T10:42:47.000Z</time>
      </trkpt>
      <trkpt lat="45.58906" lon="6.73356">
        <ele>1166.08</ele>
        <time>2019-10-14T10:42:52.000Z</time>
      </trkpt>
      <trkpt lat="45.58928" lon="6.73375">
        <ele>1167.21</ele>
        <time>2019-10-14T10:42:57.000Z</time>
      </trkpt>
      <trkpt lat="45.58952" lon="6.73344">
        <ele>1166.24</ele>
        <time>2019-10-14T10:43:02.000Z</time>
      </trkpt>
      <trkpt lat="45.58981" lon="6.73324">
        <ele>1168.04</ele>
        <time>2019-10-14T10:43:07.000Z</time>
      </trkpt>
      <trkpt lat="45.58996" lon="6.73363">
        <ele>1169.54</ele>
        <time>2019-10-14T10:43:12.000Z</time>
      </trkpt>
      <trkpt lat="45.59006" lon="6.73396">
        <ele>1167.32</ele>
        <time>2019-10-14T10:43:17.000Z</time>
      </trkpt>
      <trkpt lat="45.59025" lon="6.73425">
        <ele>1172.45</ele>
        <time>2019-10-14T10:43:22.000Z</time>
      </trkpt>
      <trkpt lat="45.59046" lon="6.73452">
        <ele>1168.29</ele>
        <time>2019-10-14T10:43:27.000Z</time>
      </trkpt>
      <trkpt lat="45.59061" lon="6.73481">
        <ele>1169.65</ele>
        <time>2019-10-14T10:43:32.000Z</time>
      </trkpt>
      <trkpt lat="45.59088" lon="6.73499">
        <ele>1172.36</ele>
        <time>2019-10-14T10:43:37.000Z</time>
      </trkpt>
      <trkpt lat="45.59115" lon="6.73521">
        <ele>1175.82</ele>
        <time>2019-10-14T10:43:42.000Z</time>
      </trkpt>
      <trkpt lat="45.59134" lon="6.73551">
        <ele>1178.28</ele>
        <time>2019-10-14T10:43:47.000Z</time>
      </trkpt>
      <trkpt lat="45.59149" lon="6.73569">
        <ele>1180.09</ele>
        <time>2019-10-14T10:44:17.000Z</time>
      </trkpt>
      <trkpt lat="45.59179" lon="6.73599">
        <ele>1183.89</ele>
        <time>2019-10-14T10:44:22.000Z</time>
      </trkpt>
      <trkpt lat="45.59196" lon="6.73627">
        <ele>1184.02</ele>
        <time>2019-10-14T10:44:27.000Z</time>
      </trkpt>
      <trkpt lat="45.59206" lon="6.73653">
        <ele>1183.14</ele>
        <time>2019-10-14T10:44:32.000Z</time>
      </trkpt>
      <trkpt lat="45.5922" lon="6.73694">
        <ele>1182.27</ele>
        <time>2019-10-14T10:44:37.000Z</time>
      </trkpt>
      <trkpt lat="45.59222" lon="6.73737">
        <ele>1183</ele>
        <time>2019-10-14T10:44:42.000Z</time>
      </trkpt>
      <trkpt lat="45.5924" lon="6.73794">
        <ele>1183.87</ele>
        <time>2019-10-14T10:44:47.000Z</time>
      </trkpt>
      <trkpt lat="45.59265" lon="6.73822">
        <ele>1184.12</ele>
        <time>2019-10-14T10:44:52.000Z</time>
      </trkpt>
      <trkpt lat="45.59288" lon="6.73856">
        <ele>1177.48</ele>
        <time>2019-10-14T10:44:57.000Z</time>
      </trkpt>
      <trkpt lat="45.59318" lon="6.73899">
        <ele>1177.59</ele>
        <time>2019-10-14T10:45:02.000Z</time>
      </trkpt>
      <trkpt lat="45.59341" lon="6.73942">
        <ele>1176.87</ele>
        <time>2019-10-14T10:45:07.000Z</time>
      </trkpt>
      <trkpt lat="45.59366" lon="6.73976">
        <ele>1173.12</ele>
        <time>2019-10-14T10:45:12.000Z</time>
      </trkpt>
      <trkpt lat="45.59396" lon="6.74018">
        <ele>1168.49</ele>
        <time>2019-10-14T10:45:17.000Z</time>
      </trkpt>
      <trkpt lat="45.59438" lon="6.74055">
        <ele>1161.18</ele>
        <time>2019-10-14T10:45:22.000Z</time>
      </trkpt>
      <trkpt lat="45.59477" lon="6.74101">
        <ele>1158.17</ele>
        <time>2019-10-14T10:45:27.000Z</time>
      </trkpt>
      <trkpt lat="45.59518" lon="6.74143">
        <ele>1156.93</ele>
        <time>2019-10-14T10:45:32.000Z</time>
      </trkpt>
      <trkpt lat="45.59558" lon="6.74176">
        <ele>1147.79</ele>
        <time>2019-10-14T10:45:37.000Z</time>
      </trkpt>
      <trkpt lat="45.59608" lon="6.7422">
        <ele>1140.12</ele>
        <time>2019-10-14T10:45:42.000Z</time>
      </trkpt>
      <trkpt lat="45.59643" lon="6.74264">
        <ele>1137.21</ele>
        <time>2019-10-14T10:45:47.000Z</time>
      </trkpt>
      <trkpt lat="45.59687" lon="6.74245">
        <ele>1132.47</ele>
        <time>2019-10-14T10:45:52.000Z</time>
      </trkpt>
      <trkpt lat="45.59729" lon="6.74246">
        <ele>1127.63</ele>
        <time>2019-10-14T10:45:57.000Z</time>
      </trkpt>
      <trkpt lat="45.59749" lon="6.743">
        <ele>1122.94</ele>
        <time>2019-10-14T10:46:02.000Z</time>
      </trkpt>
      <trkpt lat="45.59775" lon="6.74345">
        <ele>1117.97</ele>
        <time>2019-10-14T10:46:07.000Z</time>
      </trkpt>
      <trkpt lat="45.59813" lon="6.74344">
        <ele>1112.94</ele>
        <time>2019-10-14T10:46:12.000Z</time>
      </trkpt>
      <trkpt lat="45.59859" lon="6.74363">
        <ele>1109.22</ele>
        <time>2019-10-14T10:46:17.000Z</time>
      </trkpt>
      <trkpt lat="45.599" lon="6.744">
        <ele>1111.07</ele>
        <time>2019-10-14T10:46:22.000Z</time>
      </trkpt>
      <trkpt lat="45.59947" lon="6.74424">
        <ele>1112.95</ele>
        <time>2019-10-14T10:46:27.000Z</time>
      </trkpt>
      <trkpt lat="45.60001" lon="6.74446">
        <ele>1103.99</ele>
        <time>2019-10-14T10:46:32.000Z</time>
      </trkpt>
      <trkpt lat="45.6005" lon="6.74479">
        <ele>1100.67</ele>
        <time>2019-10-14T10:46:37.000Z</time>
      </trkpt>
      <trkpt lat="45.601" lon="6.74521">
        <ele>1093.66</ele>
        <time>2019-10-14T10:46:42.000Z</time>
      </trkpt>
      <trkpt lat="45.60127" lon="6.74546">
        <ele>1091.16</ele>
        <time>2019-10-14T10:46:47.000Z</time>
      </trkpt>
      <trkpt lat="45.60162" lon="6.74561">
        <ele>1087.68</ele>
        <time>2019-10-14T10:46:52.000Z</time>
      </trkpt>
      <trkpt lat="45.60206" lon="6.74588">
        <ele>1085.4</ele>
        <time>2019-10-14T10:46:57.000Z</time>
      </trkpt>
      <trkpt lat="45.60233" lon="6.74652">
        <ele>1085.15</ele>
        <time>2019-10-14T10:47:02.000Z</time>
      </trkpt>
      <trkpt lat="45.60264" lon="6.74703">
        <ele>1086.68</ele>
        <time>2019-10-14T10:47:07.000Z</time>
      </trkpt>
      <trkpt lat="45.60303" lon="6.74733">
        <ele>1084.67</ele>
        <time>2019-10-14T10:47:12.000Z</time>
      </trkpt>
      <trkpt lat="45.60331" lon="6.74745">
        <ele>1082.36</ele>
        <time>2019-10-14T10:47:17.000Z</time>
      </trkpt>
      <trkpt lat="45.60365" lon="6.74756">
        <ele>1073.57</ele>
        <time>2019-10-14T10:47:22.000Z</time>
      </trkpt>
      <trkpt lat="45.60393" lon="6.7479">
        <ele>1075.81</ele>
        <time>2019-10-14T10:47:27.000Z</time>
      </trkpt>
      <trkpt lat="45.60425" lon="6.74807">
        <ele>1068.22</ele>
        <time>2019-10-14T10:47:32.000Z</time>
      </trkpt>
      <trkpt lat="45.60448" lon="6.74782">
        <ele>1065.15</ele>
        <time>2019-10-14T10:47:37.000Z</time>
      </trkpt>
      <trkpt lat="45.60462" lon="6.74737">
        <ele>1056.2</ele>
        <time>2019-10-14T10:47:42.000Z</time>
      </trkpt>
      <trkpt lat="45.60483" lon="6.7469">
        <ele>1050.84</ele>
        <time>2019-10-14T10:47:47.000Z</time>
      </trkpt>
      <trkpt lat="45.60507" lon="6.74646">
        <ele>1049.51</ele>
        <time>2019-10-14T10:47:52.000Z</time>
      </trkpt>
      <trkpt lat="45.60526" lon="6.7468">
        <ele>1049.43</ele>
        <time>2019-10-14T10:47:57.000Z</time>
      </trkpt>
      <trkpt lat="45.60541" lon="6.7473">
        <ele>1045.86</ele>
        <time>2019-10-14T10:48:02.000Z</time>
      </trkpt>
      <trkpt lat="45.60537" lon="6.74786">
        <ele>1043.9</ele>
        <time>2019-10-14T10:48:07.000Z</time>
      </trkpt>
      <trkpt lat="45.60529" lon="6.74852">
        <ele>1042.64</ele>
        <time>2019-10-14T10:48:12.000Z</time>
      </trkpt>
      <trkpt lat="45.60567" lon="6.74865">
        <ele>1044.25</ele>
        <time>2019-10-14T10:48:17.000Z</time>
      </trkpt>
      <trkpt lat="45.60616" lon="6.74898">
        <ele>1044.72</ele>
        <time>2019-10-14T10:48:22.000Z</time>
      </trkpt>
      <trkpt lat="45.60665" lon="6.74923">
        <ele>1042.09</ele>
        <time>2019-10-14T10:48:27.000Z</time>
      </trkpt>
      <trkpt lat="45.60712" lon="6.74958">
        <ele>1037.01</ele>
        <time>2019-10-14T10:48:32.000Z</time>
      </trkpt>
      <trkpt lat="45.60766" lon="6.74994">
        <ele>1037.82</ele>
        <time>2019-10-14T10:48:37.000Z</time>
      </trkpt>
      <trkpt lat="45.60801" lon="6.7503">
        <ele>1038.88</ele>
        <time>2019-10-14T10:48:42.000Z</time>
      </trkpt>
      <trkpt lat="45.60826" lon="6.75055">
        <ele>1035.39</ele>
        <time>2019-10-14T10:48:47.000Z</time>
      </trkpt>
      <trkpt lat="45.60853" lon="6.75099">
        <ele>1028.95</ele>
        <time>2019-10-14T10:48:52.000Z</time>
      </trkpt>
      <trkpt lat="45.60868" lon="6.75146">
        <ele>1027.98</ele>
        <time>2019-10-14T10:48:57.000Z</time>
      </trkpt>
      <trkpt lat="45.60879" lon="6.75195">
        <ele>1032.77</ele>
        <time>2019-10-14T10:49:02.000Z</time>
      </trkpt>
      <trkpt lat="45.60874" lon="6.75234">
        <ele>1034.44</ele>
        <time>2019-10-14T10:49:07.000Z</time>
      </trkpt>
      <trkpt lat="45.60858" lon="6.7524">
        <ele>1033.42</ele>
        <time>2019-10-14T10:49:12.000Z</time>
      </trkpt>
      <trkpt lat="45.60831" lon="6.75248">
        <ele>1029.75</ele>
        <time>2019-10-14T10:49:17.000Z</time>
      </trkpt>
      <trkpt lat="45.60794" lon="6.75249">
        <ele>1029.98</ele>
        <time>2019-10-14T10:49:22.000Z</time>
      </trkpt>
      <trkpt lat="45.60763" lon="6.75227">
        <ele>1026.93</ele>
        <time>2019-10-14T10:49:27.000Z</time>
      </trkpt>
      <trkpt lat="45.60733" lon="6.75217">
        <ele>1016.98</ele>
        <time>2019-10-14T10:49:32.000Z</time>
      </trkpt>
      <trkpt lat="45.607" lon="6.75255">
        <ele>1012.88</ele>
        <time>2019-10-14T10:49:37.000Z</time>
      </trkpt>
      <trkpt lat="45.60678" lon="6.75317">
        <ele>1007.37</ele>
        <time>2019-10-14T10:49:42.000Z</time>
      </trkpt>
      <trkpt lat="45.60672" lon="6.75389">
        <ele>1000.87</ele>
        <time>2019-10-14T10:49:47.000Z</time>
      </trkpt>
      <trkpt lat="45.6069" lon="6.75453">
        <ele>995.24</ele>
        <time>2019-10-14T10:49:52.000Z</time>
      </trkpt>
      <trkpt lat="45.60718" lon="6.75516">
        <ele>994.47</ele>
        <time>2019-10-14T10:49:57.000Z</time>
      </trkpt>
      <trkpt lat="45.60763" lon="6.75564">
        <ele>993.55</ele>
        <time>2019-10-14T10:50:02.000Z</time>
      </trkpt>
      <trkpt lat="45.60803" lon="6.75596">
        <ele>984.89</ele>
        <time>2019-10-14T10:50:07.000Z</time>
      </trkpt>
      <trkpt lat="45.60852" lon="6.75636">
        <ele>983.29</ele>
        <time>2019-10-14T10:50:12.000Z</time>
      </trkpt>
      <trkpt lat="45.60886" lon="6.75692">
        <ele>983.54</ele>
        <time>2019-10-14T10:50:17.000Z</time>
      </trkpt>
      <trkpt lat="45.60928" lon="6.7573">
        <ele>980.08</ele>
        <time>2019-10-14T10:50:22.000Z</time>
      </trkpt>
      <trkpt lat="45.60981" lon="6.75759">
        <ele>979.42</ele>
        <time>2019-10-14T10:50:27.000Z</time>
      </trkpt>
      <trkpt lat="45.61024" lon="6.75792">
        <ele>976.5</ele>
        <time>2019-10-14T10:50:32.000Z</time>
      </trkpt>
      <trkpt lat="45.61069" lon="6.75831">
        <ele>971.31</ele>
        <time>2019-10-14T10:50:37.000Z</time>
      </trkpt>
      <trkpt lat="45.61114" lon="6.7587">
        <ele>965.44</ele>
        <time>2019-10-14T10:50:42.000Z</time>
      </trkpt>
      <trkpt lat="45.61155" lon="6.75893">
        <ele>963.28</ele>
        <time>2019-10-14T10:50:47.000Z</time>
      </trkpt>
      <trkpt lat="45.61188" lon="6.75864">
        <ele>960.72</ele>
        <time>2019-10-14T10:50:52.000Z</time>
      </trkpt>
      <trkpt lat="45.61221" lon="6.75827">
        <ele>959.49</ele>
        <time>2019-10-14T10:50:57.000Z</time>
      </trkpt>
      <trkpt lat="45.61273" lon="6.75783">
        <ele>953.85</ele>
        <time>2019-10-14T10:51:02.000Z</time>
      </trkpt>
      <trkpt lat="45.61328" lon="6.75759">
        <ele>949.33</ele>
        <time>2019-10-14T10:51:07.000Z</time>
      </trkpt>
      <trkpt lat="45.61378" lon="6.75727">
        <ele>947.32</ele>
        <time>2019-10-14T10:51:12.000Z</time>
      </trkpt>
      <trkpt lat="45.61427" lon="6.75697">
        <ele>945.47</ele>
        <time>2019-10-14T10:51:17.000Z</time>
      </trkpt>
      <trkpt lat="45.6148" lon="6.75724">
        <ele>946.06</ele>
        <time>2019-10-14T10:51:22.000Z</time>
      </trkpt>
      <trkpt lat="45.61518" lon="6.75744">
        <ele>940.76</ele>
        <time>2019-10-14T10:51:27.000Z</time>
      </trkpt>
      <trkpt lat="45.61522" lon="6.75789">
        <ele>933.33</ele>
        <time>2019-10-14T10:51:32.000Z</time>
      </trkpt>
      <trkpt lat="45.61503" lon="6.75813">
        <ele>928.17</ele>
        <time>2019-10-14T10:51:37.000Z</time>
      </trkpt>
      <trkpt lat="45.61487" lon="6.7586">
        <ele>924.49</ele>
        <time>2019-10-14T10:51:42.000Z</time>
      </trkpt>
      <trkpt lat="45.61464" lon="6.75918">
        <ele>919.81</ele>
        <time>2019-10-14T10:51:47.000Z</time>
      </trkpt>
      <trkpt lat="45.61442" lon="6.75991">
        <ele>915.23</ele>
        <time>2019-10-14T10:51:52.000Z</time>
      </trkpt>
      <trkpt lat="45.61409" lon="6.76054">
        <ele>913.12</ele>
        <time>2019-10-14T10:51:57.000Z</time>
      </trkpt>
      <trkpt lat="45.61367" lon="6.76123">
        <ele>908.49</ele>
        <time>2019-10-14T10:52:02.000Z</time>
      </trkpt>
      <trkpt lat="45.61342" lon="6.76168">
        <ele>906.53</ele>
        <time>2019-10-14T10:52:07.000Z</time>
      </trkpt>
      <trkpt lat="45.61351" lon="6.76182">
        <ele>904.94</ele>
        <time>2019-10-14T10:52:12.000Z</time>
      </trkpt>
      <trkpt lat="45.61361" lon="6.76186">
        <ele>898.38</ele>
        <time>2019-10-14T10:52:17.000Z</time>
      </trkpt>
      <trkpt lat="45.61377" lon="6.7619">
        <ele>896.31</ele>
        <time>2019-10-14T10:52:22.000Z</time>
      </trkpt>
      <trkpt lat="45.61387" lon="6.76186">
        <ele>897.4</ele>
        <time>2019-10-14T10:52:28.000Z</time>
      </trkpt>
      <trkpt lat="45.61408" lon="6.76188">
        <ele>895.98</ele>
        <time>2019-10-14T10:52:33.000Z</time>
      </trkpt>
      <trkpt lat="45.61438" lon="6.76217">
        <ele>895.8</ele>
        <time>2019-10-14T10:52:38.000Z</time>
      </trkpt>
      <trkpt lat="45.61465" lon="6.76233">
        <ele>894.89</ele>
        <time>2019-10-14T10:52:43.000Z</time>
      </trkpt>
      <trkpt lat="45.61488" lon="6.76235">
        <ele>899.48</ele>
        <time>2019-10-14T10:52:48.000Z</time>
      </trkpt>
      <trkpt lat="45.61511" lon="6.7624">
        <ele>897.48</ele>
        <time>2019-10-14T10:52:53.000Z</time>
      </trkpt>
      <trkpt lat="45.61526" lon="6.76283">
        <ele>893.05</ele>
        <time>2019-10-14T10:52:58.000Z</time>
      </trkpt>
      <trkpt lat="45.61522" lon="6.76333">
        <ele>890.27</ele>
        <time>2019-10-14T10:53:03.000Z</time>
      </trkpt>
      <trkpt lat="45.61516" lon="6.76382">
        <ele>889.73</ele>
        <time>2019-10-14T10:53:08.000Z</time>
      </trkpt>
      <trkpt lat="45.615" lon="6.76428">
        <ele>887.82</ele>
        <time>2019-10-14T10:53:13.000Z</time>
      </trkpt>
      <trkpt lat="45.61484" lon="6.76475">
        <ele>880.47</ele>
        <time>2019-10-14T10:53:18.000Z</time>
      </trkpt>
      <trkpt lat="45.61488" lon="6.76506">
        <ele>881.67</ele>
        <time>2019-10-14T10:53:23.000Z</time>
      </trkpt>
      <trkpt lat="45.61508" lon="6.76541">
        <ele>883.17</ele>
        <time>2019-10-14T10:53:28.000Z</time>
      </trkpt>
      <trkpt lat="45.61545" lon="6.76555">
        <ele>883.16</ele>
        <time>2019-10-14T10:53:33.000Z</time>
      </trkpt>
      <trkpt lat="45.61573" lon="6.7659">
        <ele>880.63</ele>
        <time>2019-10-14T10:53:38.000Z</time>
      </trkpt>
      <trkpt lat="45.61585" lon="6.76619">
        <ele>875.07</ele>
        <time>2019-10-14T10:53:43.000Z</time>
      </trkpt>
      <trkpt lat="45.61594" lon="6.76651">
        <ele>869.53</ele>
        <time>2019-10-14T10:53:48.000Z</time>
      </trkpt>
      <trkpt lat="45.61596" lon="6.76673">
        <ele>863.16</ele>
        <time>2019-10-14T10:53:53.000Z</time>
      </trkpt>
      <trkpt lat="45.61597" lon="6.76686">
        <ele>851.41</ele>
        <time>2019-10-14T10:55:04.000Z</time>
      </trkpt>
      <trkpt lat="45.61605" lon="6.7668">
        <ele>850.44</ele>
        <time>2019-10-14T10:55:09.000Z</time>
      </trkpt>
      <trkpt lat="45.61618" lon="6.76678">
        <ele>851.63</ele>
        <time>2019-10-14T10:55:14.000Z</time>
      </trkpt>
      <trkpt lat="45.61644" lon="6.76682">
        <ele>847.1</ele>
        <time>2019-10-14T10:55:19.000Z</time>
      </trkpt>
      <trkpt lat="45.61672" lon="6.76695">
        <ele>846.85</ele>
        <time>2019-10-14T10:55:24.000Z</time>
      </trkpt>
      <trkpt lat="45.61689" lon="6.7671">
        <ele>847.96</ele>
        <time>2019-10-14T10:55:29.000Z</time>
      </trkpt>
      <trkpt lat="45.61684" lon="6.7673">
        <ele>850.36</ele>
        <time>2019-10-14T10:55:34.000Z</time>
      </trkpt>
      <trkpt lat="45.6167" lon="6.76751">
        <ele>850.3</ele>
        <time>2019-10-14T10:55:39.000Z</time>
      </trkpt>
      <trkpt lat="45.61656" lon="6.76774">
        <ele>851.97</ele>
        <time>2019-10-14T10:55:44.000Z</time>
      </trkpt>
      <trkpt lat="45.61679" lon="6.76793">
        <ele>848.42</ele>
        <time>2019-10-14T10:55:49.000Z</time>
      </trkpt>
      <trkpt lat="45.61704" lon="6.76815">
        <ele>846.74</ele>
        <time>2019-10-14T10:55:54.000Z</time>
      </trkpt>
      <trkpt lat="45.61727" lon="6.76834">
        <ele>845.44</ele>
        <time>2019-10-14T10:55:59.000Z</time>
      </trkpt>
      <trkpt lat="45.61745" lon="6.76852">
        <ele>847.34</ele>
        <time>2019-10-14T10:56:04.000Z</time>
      </trkpt>
      <trkpt lat="45.61768" lon="6.76875">
        <ele>844.31</ele>
        <time>2019-10-14T10:56:09.000Z</time>
      </trkpt>
      <trkpt lat="45.61791" lon="6.76906">
        <ele>841.65</ele>
        <time>2019-10-14T10:56:14.000Z</time>
      </trkpt>
      <trkpt lat="45.61789" lon="6.76937">
        <ele>836.21</ele>
        <time>2019-10-14T10:56:19.000Z</time>
      </trkpt>
      <trkpt lat="45.61784" lon="6.76953">
        <ele>831.84</ele>
        <time>2019-10-14T10:56:24.000Z</time>
      </trkpt>
      <trkpt lat="45.61786" lon="6.76968">
        <ele>830.45</ele>
        <time>2019-10-14T10:56:30.000Z</time>
      </trkpt>
      <trkpt lat="45.61801" lon="6.76977">
        <ele>830.97</ele>
        <time>2019-10-14T10:56:35.000Z</time>
      </trkpt>
      <trkpt lat="45.61827" lon="6.76974">
        <ele>830.79</ele>
        <time>2019-10-14T10:56:40.000Z</time>
      </trkpt>
      <trkpt lat="45.61842" lon="6.76989">
        <ele>830.33</ele>
        <time>2019-10-14T10:56:45.000Z</time>
      </trkpt>
      <trkpt lat="45.6185" lon="6.77026">
        <ele>826.65</ele>
        <time>2019-10-14T10:56:50.000Z</time>
      </trkpt>
      <trkpt lat="45.61847" lon="6.77069">
        <ele>824.24</ele>
        <time>2019-10-14T10:56:55.000Z</time>
      </trkpt>
      <trkpt lat="45.61841" lon="6.77081">
        <ele>823.17</ele>
        <time>2019-10-14T10:57:00.000Z</time>
      </trkpt>
      <trkpt lat="45.61852" lon="6.77089">
        <ele>823.41</ele>
        <time>2019-10-14T10:57:05.000Z</time>
      </trkpt>
      <trkpt lat="45.61874" lon="6.77093">
        <ele>824.15</ele>
        <time>2019-10-14T10:57:10.000Z</time>
      </trkpt>
      <trkpt lat="45.61898" lon="6.77092">
        <ele>822.07</ele>
        <time>2019-10-14T10:57:15.000Z</time>
      </trkpt>
      <trkpt lat="45.61921" lon="6.7709">
        <ele>822.66</ele>
        <time>2019-10-14T10:57:20.000Z</time>
      </trkpt>
      <trkpt lat="45.61941" lon="6.77094">
        <ele>818.16</ele>
        <time>2019-10-14T10:57:25.000Z</time>
      </trkpt>
      <trkpt lat="45.61963" lon="6.77098">
        <ele>815.3</ele>
        <time>2019-10-14T10:57:30.000Z</time>
      </trkpt>
      <trkpt lat="45.61987" lon="6.77102">
        <ele>814.78</ele>
        <time>2019-10-14T10:57:35.000Z</time>
      </trkpt>
      <trkpt lat="45.62013" lon="6.77114">
        <ele>815.76</ele>
        <time>2019-10-14T10:57:40.000Z</time>
      </trkpt>
      <trkpt lat="45.62015" lon="6.77143">
        <ele>817.48</ele>
        <time>2019-10-14T10:57:45.000Z</time>
      </trkpt>
      <trkpt lat="45.62004" lon="6.77175">
        <ele>815.45</ele>
        <time>2019-10-14T10:57:50.000Z</time>
      </trkpt>
      <trkpt lat="45.61976" lon="6.77195">
        <ele>810.54</ele>
        <time>2019-10-14T10:57:55.000Z</time>
      </trkpt>
      <trkpt lat="45.6195" lon="6.77218">
        <ele>811.45</ele>
        <time>2019-10-14T10:58:00.000Z</time>
      </trkpt>
      <trkpt lat="45.61924" lon="6.77239">
        <ele>809.3</ele>
        <time>2019-10-14T10:58:05.000Z</time>
      </trkpt>
      <trkpt lat="45.61907" lon="6.77265">
        <ele>809.58</ele>
        <time>2019-10-14T10:58:10.000Z</time>
      </trkpt>
      <trkpt lat="45.61902" lon="6.77281">
        <ele>808.16</ele>
        <time>2019-10-14T10:58:15.000Z</time>
      </trkpt>
      <trkpt lat="45.61907" lon="6.77297">
        <ele>805.92</ele>
        <time>2019-10-14T10:58:20.000Z</time>
      </trkpt>
      <trkpt lat="45.61922" lon="6.77308">
        <ele>808.33</ele>
        <time>2019-10-14T10:58:25.000Z</time>
      </trkpt>
      <trkpt lat="45.61935" lon="6.77318">
        <ele>809.46</ele>
        <time>2019-10-14T10:58:30.000Z</time>
      </trkpt>
      <trkpt lat="45.61948" lon="6.77335">
        <ele>807.92</ele>
        <time>2019-10-14T10:58:35.000Z</time>
      </trkpt>
      <trkpt lat="45.61965" lon="6.77361">
        <ele>808.5</ele>
        <time>2019-10-14T10:58:40.000Z</time>
      </trkpt>
      <trkpt lat="45.61975" lon="6.77382">
        <ele>808.96</ele>
        <time>2019-10-14T10:58:45.000Z</time>
      </trkpt>
      <trkpt lat="45.61972" lon="6.77402">
        <ele>810.61</ele>
        <time>2019-10-14T10:58:50.000Z</time>
      </trkpt>
      <trkpt lat="45.61959" lon="6.77422">
        <ele>811.7</ele>
        <time>2019-10-14T10:58:55.000Z</time>
      </trkpt>
      <trkpt lat="45.61946" lon="6.77445">
        <ele>809.55</ele>
        <time>2019-10-14T10:59:00.000Z</time>
      </trkpt>
      <trkpt lat="45.6195" lon="6.77464">
        <ele>810.03</ele>
        <time>2019-10-14T10:59:05.000Z</time>
      </trkpt>
      <trkpt lat="45.61958" lon="6.77472">
        <ele>809.1</ele>
        <time>2019-10-14T10:59:10.000Z</time>
      </trkpt>
      <trkpt lat="45.61951" lon="6.77461">
        <ele>809.3</ele>
        <time>2019-10-14T10:59:19.000Z</time>
      </trkpt>
      <trkpt lat="45.61958" lon="6.77429">
        <ele>809.86</ele>
        <time>2019-10-14T10:59:24.000Z</time>
      </trkpt>
      <trkpt lat="45.61976" lon="6.77402">
        <ele>809.71</ele>
        <time>2019-10-14T10:59:29.000Z</time>
      </trkpt>
      <trkpt lat="45.61991" lon="6.7737">
        <ele>807.94</ele>
        <time>2019-10-14T10:59:34.000Z</time>
      </trkpt>
      <trkpt lat="45.62007" lon="6.77346">
        <ele>807.57</ele>
        <time>2019-10-14T10:59:39.000Z</time>
      </trkpt>
      <trkpt lat="45.62024" lon="6.7732">
        <ele>808.11</ele>
        <time>2019-10-14T10:59:44.000Z</time>
      </trkpt>
      <trkpt lat="45.62039" lon="6.77298">
        <ele>810.64</ele>
        <time>2019-10-14T10:59:49.000Z</time>
      </trkpt>
      <trkpt lat="45.62054" lon="6.77272">
        <ele>812.19</ele>
        <time>2019-10-14T10:59:54.000Z</time>
      </trkpt>
      <trkpt lat="45.62062" lon="6.77239">
        <ele>812.78</ele>
        <time>2019-10-14T10:59:59.000Z</time>
      </trkpt>
      <trkpt lat="45.62065" lon="6.77207">
        <ele>812.75</ele>
        <time>2019-10-14T11:00:04.000Z</time>
      </trkpt>
      <trkpt lat="45.62063" lon="6.77195">
        <ele>816.37</ele>
        <time>2019-10-14T11:00:09.000Z</time>
      </trkpt>
      <trkpt lat="45.62071" lon="6.77202">
        <ele>828.26</ele>
        <time>2019-10-14T11:01:06.000Z</time>
      </trkpt>
      <trkpt lat="45.6209" lon="6.77241">
        <ele>828.68</ele>
        <time>2019-10-14T11:01:11.000Z</time>
      </trkpt>
      <trkpt lat="45.62106" lon="6.77272">
        <ele>828.33</ele>
        <time>2019-10-14T11:01:16.000Z</time>
      </trkpt>
      <trkpt lat="45.62122" lon="6.77318">
        <ele>827</ele>
        <time>2019-10-14T11:01:21.000Z</time>
      </trkpt>
      <trkpt lat="45.62137" lon="6.77359">
        <ele>823.52</ele>
        <time>2019-10-14T11:01:26.000Z</time>
      </trkpt>
      <trkpt lat="45.62149" lon="6.77398">
        <ele>821.27</ele>
        <time>2019-10-14T11:01:31.000Z</time>
      </trkpt>
      <trkpt lat="45.62164" lon="6.77443">
        <ele>820.45</ele>
        <time>2019-10-14T11:01:36.000Z</time>
      </trkpt>
      <trkpt lat="45.62176" lon="6.77477">
        <ele>818.79</ele>
        <time>2019-10-14T11:01:41.000Z</time>
      </trkpt>
      <trkpt lat="45.62191" lon="6.77515">
        <ele>817.63</ele>
        <time>2019-10-14T11:01:46.000Z</time>
      </trkpt>
      <trkpt lat="45.62208" lon="6.77554">
        <ele>819.28</ele>
        <time>2019-10-14T11:01:51.000Z</time>
      </trkpt>
      <trkpt lat="45.62225" lon="6.77589">
        <ele>816.25</ele>
        <time>2019-10-14T11:01:56.000Z</time>
      </trkpt>
      <trkpt lat="45.6224" lon="6.77621">
        <ele>815.95</ele>
        <time>2019-10-14T11:02:01.000Z</time>
      </trkpt>
      <trkpt lat="45.62256" lon="6.77649">
        <ele>817.06</ele>
        <time>2019-10-14T11:02:06.000Z</time>
      </trkpt>
      <trkpt lat="45.62272" lon="6.77686">
        <ele>814.51</ele>
        <time>2019-10-14T11:02:11.000Z</time>
      </trkpt>
      <trkpt lat="45.62287" lon="6.77722">
        <ele>814.32</ele>
        <time>2019-10-14T11:02:16.000Z</time>
      </trkpt>
      <trkpt lat="45.62296" lon="6.77758">
        <ele>811.91</ele>
        <time>2019-10-14T11:02:21.000Z</time>
      </trkpt>
      <trkpt lat="45.62316" lon="6.77794">
        <ele>814.15</ele>
        <time>2019-10-14T11:02:26.000Z</time>
      </trkpt>
      <trkpt lat="45.62325" lon="6.77827">
        <ele>812.88</ele>
        <time>2019-10-14T11:02:31.000Z</time>
      </trkpt>
      <trkpt lat="45.6233" lon="6.77863">
        <ele>813.43</ele>
        <time>2019-10-14T11:02:36.000Z</time>
      </trkpt>
      <trkpt lat="45.62328" lon="6.77899">
        <ele>813.55</ele>
        <time>2019-10-14T11:02:41.000Z</time>
      </trkpt>
      <trkpt lat="45.62322" lon="6.7793">
        <ele>814.42</ele>
        <time>2019-10-14T11:02:46.000Z</time>
      </trkpt>
      <trkpt lat="45.62321" lon="6.77955">
        <ele>815.75</ele>
        <time>2019-10-14T11:02:51.000Z</time>
      </trkpt>
      <trkpt lat="45.62323" lon="6.77988">
        <ele>815.89</ele>
        <time>2019-10-14T11:02:56.000Z</time>
      </trkpt>
      <trkpt lat="45.62324" lon="6.78019">
        <ele>814.23</ele>
        <time>2019-10-14T11:03:01.000Z</time>
      </trkpt>
      <trkpt lat="45.62332" lon="6.78023">
        <ele>813.9</ele>
        <time>2019-10-14T11:03:15.000Z</time>
      </trkpt>
      <trkpt lat="45.62341" lon="6.78028">
        <ele>808.25</ele>
        <time>2019-10-14T11:03:23.000Z</time>
      </trkpt>
      <trkpt lat="45.62347" lon="6.78041">
        <ele>812.62</ele>
        <time>2019-10-14T11:03:40.000Z</time>
      </trkpt>
      <trkpt lat="45.62363" lon="6.78082">
        <ele>815.05</ele>
        <time>2019-10-14T11:03:45.000Z</time>
      </trkpt>
      <trkpt lat="45.62378" lon="6.78112">
        <ele>817.16</ele>
        <time>2019-10-14T11:03:50.000Z</time>
      </trkpt>
      <trkpt lat="45.62393" lon="6.78135">
        <ele>817.41</ele>
        <time>2019-10-14T11:03:55.000Z</time>
      </trkpt>
      <trkpt lat="45.62402" lon="6.7815">
        <ele>826.16</ele>
        <time>2019-10-14T11:04:00.000Z</time>
      </trkpt>
      <trkpt lat="45.62413" lon="6.78143">
        <ele>830.43</ele>
        <time>2019-10-14T11:04:06.000Z</time>
      </trkpt>
      <trkpt lat="45.62427" lon="6.7812">
        <ele>826.09</ele>
        <time>2019-10-14T11:04:11.000Z</time>
      </trkpt>
      <trkpt lat="45.6244" lon="6.78107">
        <ele>826.78</ele>
        <time>2019-10-14T11:04:16.000Z</time>
      </trkpt>
      <trkpt lat="45.62432" lon="6.78116">
        <ele>830.56</ele>
        <time>2019-10-14T11:04:28.000Z</time>
      </trkpt>
      <trkpt lat="45.6242" lon="6.78134">
        <ele>830.62</ele>
        <time>2019-10-14T11:04:33.000Z</time>
      </trkpt>
      <trkpt lat="45.62413" lon="6.78153">
        <ele>826.02</ele>
        <time>2019-10-14T11:04:38.000Z</time>
      </trkpt>
      <trkpt lat="45.62421" lon="6.78172">
        <ele>828.29</ele>
        <time>2019-10-14T11:04:43.000Z</time>
      </trkpt>
      <trkpt lat="45.62437" lon="6.78192">
        <ele>826.38</ele>
        <time>2019-10-14T11:04:48.000Z</time>
      </trkpt>
      <trkpt lat="45.62443" lon="6.78202">
        <ele>824.93</ele>
        <time>2019-10-14T11:04:53.000Z</time>
      </trkpt>
      <trkpt lat="45.62438" lon="6.78191">
        <ele>821.74</ele>
        <time>2019-10-14T11:05:00.000Z</time>
      </trkpt>
      <trkpt lat="45.62424" lon="6.78172">
        <ele>819.32</ele>
        <time>2019-10-14T11:05:05.000Z</time>
      </trkpt>
      <trkpt lat="45.62412" lon="6.78159">
        <ele>822.45</ele>
        <time>2019-10-14T11:05:10.000Z</time>
      </trkpt>
      <trkpt lat="45.62414" lon="6.78146">
        <ele>823.02</ele>
        <time>2019-10-14T11:05:17.000Z</time>
      </trkpt>
      <trkpt lat="45.62428" lon="6.78122">
        <ele>821.64</ele>
        <time>2019-10-14T11:05:22.000Z</time>
      </trkpt>
      <trkpt lat="45.62441" lon="6.781">
        <ele>819.92</ele>
        <time>2019-10-14T11:05:27.000Z</time>
      </trkpt>
      <trkpt lat="45.62453" lon="6.78095">
        <ele>817.76</ele>
        <time>2019-10-14T11:05:32.000Z</time>
      </trkpt>
      <trkpt lat="45.62448" lon="6.78084">
        <ele>814.5</ele>
        <time>2019-10-14T11:05:37.000Z</time>
      </trkpt>
      <trkpt lat="45.62434" lon="6.78066">
        <ele>813.71</ele>
        <time>2019-10-14T11:05:42.000Z</time>
      </trkpt>
      <trkpt lat="45.6242" lon="6.78042">
        <ele>815.52</ele>
        <time>2019-10-14T11:05:47.000Z</time>
      </trkpt>
      <trkpt lat="45.62408" lon="6.78035">
        <ele>815.67</ele>
        <time>2019-10-14T11:05:52.000Z</time>
      </trkpt>
      <trkpt lat="45.62386" lon="6.78053">
        <ele>815.29</ele>
        <time>2019-10-14T11:05:57.000Z</time>
      </trkpt>
      <trkpt lat="45.62367" lon="6.78067">
        <ele>814.27</ele>
        <time>2019-10-14T11:06:02.000Z</time>
      </trkpt>
      <trkpt lat="45.6236" lon="6.78053">
        <ele>816.06</ele>
        <time>2019-10-14T11:06:07.000Z</time>
      </trkpt>
      <trkpt lat="45.62352" lon="6.7803">
        <ele>811.8</ele>
        <time>2019-10-14T11:06:12.000Z</time>
      </trkpt>
      <trkpt lat="45.62339" lon="6.78007">
        <ele>811.35</ele>
        <time>2019-10-14T11:06:17.000Z</time>
      </trkpt>
      <trkpt lat="45.62331" lon="6.77974">
        <ele>808.73</ele>
        <time>2019-10-14T11:06:22.000Z</time>
      </trkpt>
      <trkpt lat="45.62333" lon="6.77933">
        <ele>810.72</ele>
        <time>2019-10-14T11:06:27.000Z</time>
      </trkpt>
      <trkpt lat="45.62335" lon="6.7789">
        <ele>809.49</ele>
        <time>2019-10-14T11:06:32.000Z</time>
      </trkpt>
      <trkpt lat="45.62354" lon="6.77855">
        <ele>808.16</ele>
        <time>2019-10-14T11:06:37.000Z</time>
      </trkpt>
      <trkpt lat="45.62344" lon="6.77824">
        <ele>814.03</ele>
        <time>2019-10-14T11:06:42.000Z</time>
      </trkpt>
      <trkpt lat="45.62323" lon="6.77788">
        <ele>817.97</ele>
        <time>2019-10-14T11:06:47.000Z</time>
      </trkpt>
      <trkpt lat="45.62306" lon="6.77746">
        <ele>818.08</ele>
        <time>2019-10-14T11:06:52.000Z</time>
      </trkpt>
      <trkpt lat="45.62293" lon="6.77708">
        <ele>817.67</ele>
        <time>2019-10-14T11:06:57.000Z</time>
      </trkpt>
      <trkpt lat="45.62273" lon="6.77668">
        <ele>813.54</ele>
        <time>2019-10-14T11:07:02.000Z</time>
      </trkpt>
      <trkpt lat="45.62258" lon="6.77638">
        <ele>809.35</ele>
        <time>2019-10-14T11:07:07.000Z</time>
      </trkpt>
      <trkpt lat="45.62245" lon="6.77609">
        <ele>809.1</ele>
        <time>2019-10-14T11:07:12.000Z</time>
      </trkpt>
      <trkpt lat="45.62229" lon="6.77573">
        <ele>809.42</ele>
        <time>2019-10-14T11:07:17.000Z</time>
      </trkpt>
      <trkpt lat="45.6221" lon="6.77536">
        <ele>810.12</ele>
        <time>2019-10-14T11:07:22.000Z</time>
      </trkpt>
      <trkpt lat="45.62191" lon="6.77495">
        <ele>810.86</ele>
        <time>2019-10-14T11:07:27.000Z</time>
      </trkpt>
      <trkpt lat="45.62172" lon="6.77451">
        <ele>809.9</ele>
        <time>2019-10-14T11:07:32.000Z</time>
      </trkpt>
      <trkpt lat="45.62159" lon="6.77414">
        <ele>808.49</ele>
        <time>2019-10-14T11:07:37.000Z</time>
      </trkpt>
      <trkpt lat="45.62166" lon="6.77405">
        <ele>813.59</ele>
        <time>2019-10-14T11:09:31.000Z</time>
      </trkpt>
      <trkpt lat="45.62173" lon="6.77415">
        <ele>817.53</ele>
        <time>2019-10-14T11:12:32.000Z</time>
      </trkpt>
      <trkpt lat="45.62163" lon="6.77408">
        <ele>817.12</ele>
        <time>2019-10-14T11:12:42.000Z</time>
      </trkpt>
      <trkpt lat="45.62151" lon="6.77399">
        <ele>816.94</ele>
        <time>2019-10-14T11:12:47.000Z</time>
      </trkpt>
      <trkpt lat="45.62142" lon="6.77385">
        <ele>816.77</ele>
        <time>2019-10-14T11:12:52.000Z</time>
      </trkpt>
      <trkpt lat="45.62167" lon="6.77416">
        <ele>816.5</ele>
        <time>2019-10-14T11:13:16.000Z</time>
      </trkpt>
      <trkpt lat="45.62148" lon="6.7743">
        <ele>808.04</ele>
        <time>2019-10-14T11:13:57.000Z</time>
      </trkpt>
      <trkpt lat="45.62157" lon="6.77423">
        <ele>810.33</ele>
        <time>2019-10-14T11:14:06.000Z</time>
      </trkpt>
      <trkpt lat="45.62151" lon="6.77433">
        <ele>809.07</ele>
        <time>2019-10-14T11:14:18.000Z</time>
      </trkpt>
      <trkpt lat="45.62162" lon="6.77421">
        <ele>818.37</ele>
        <time>2019-10-14T11:19:09.000Z</time>
      </trkpt>
      <trkpt lat="45.62155" lon="6.77432">
        <ele>809.76</ele>
        <time>2019-10-14T11:19:36.000Z</time>
      </trkpt>
      <trkpt lat="45.62157" lon="6.77419">
        <ele>832.06</ele>
        <time>2019-10-14T12:10:49.000Z</time>
      </trkpt>
      <trkpt lat="45.62163" lon="6.77407">
        <ele>826.37</ele>
        <time>2019-10-14T12:10:55.000Z</time>
      </trkpt>
      <trkpt lat="45.62171" lon="6.774">
        <ele>814.15</ele>
        <time>2019-10-14T12:11:38.000Z</time>
      </trkpt>
      <trkpt lat="45.62164" lon="6.77409">
        <ele>811.48</ele>
        <time>2019-10-14T12:13:40.000Z</time>
      </trkpt>
      <trkpt lat="45.62157" lon="6.77417">
        <ele>813.09</ele>
        <time>2019-10-14T12:13:47.000Z</time>
      </trkpt>
      <trkpt lat="45.62161" lon="6.77429">
        <ele>812.38</ele>
        <time>2019-10-14T12:14:23.000Z</time>
      </trkpt>
      <trkpt lat="45.62168" lon="6.77442">
        <ele>810.99</ele>
        <time>2019-10-14T12:14:28.000Z</time>
      </trkpt>
      <trkpt lat="45.62175" lon="6.7746">
        <ele>813.47</ele>
        <time>2019-10-14T12:14:33.000Z</time>
      </trkpt>
      <trkpt lat="45.62183" lon="6.77481">
        <ele>817.32</ele>
        <time>2019-10-14T12:14:38.000Z</time>
      </trkpt>
      <trkpt lat="45.62191" lon="6.77503">
        <ele>815.49</ele>
        <time>2019-10-14T12:14:43.000Z</time>
      </trkpt>
      <trkpt lat="45.62201" lon="6.77526">
        <ele>816.04</ele>
        <time>2019-10-14T12:14:48.000Z</time>
      </trkpt>
      <trkpt lat="45.62214" lon="6.77549">
        <ele>816.12</ele>
        <time>2019-10-14T12:14:53.000Z</time>
      </trkpt>
      <trkpt lat="45.62225" lon="6.77572">
        <ele>815.39</ele>
        <time>2019-10-14T12:14:58.000Z</time>
      </trkpt>
      <trkpt lat="45.62235" lon="6.77595">
        <ele>815.12</ele>
        <time>2019-10-14T12:15:03.000Z</time>
      </trkpt>
      <trkpt lat="45.62246" lon="6.77618">
        <ele>812.93</ele>
        <time>2019-10-14T12:15:08.000Z</time>
      </trkpt>
      <trkpt lat="45.62258" lon="6.77642">
        <ele>814.9</ele>
        <time>2019-10-14T12:15:13.000Z</time>
      </trkpt>
      <trkpt lat="45.62269" lon="6.77664">
        <ele>814.87</ele>
        <time>2019-10-14T12:15:18.000Z</time>
      </trkpt>
      <trkpt lat="45.6228" lon="6.77686">
        <ele>816.61</ele>
        <time>2019-10-14T12:15:23.000Z</time>
      </trkpt>
      <trkpt lat="45.62292" lon="6.77708">
        <ele>819.22</ele>
        <time>2019-10-14T12:15:28.000Z</time>
      </trkpt>
      <trkpt lat="45.62302" lon="6.77731">
        <ele>817.75</ele>
        <time>2019-10-14T12:15:33.000Z</time>
      </trkpt>
      <trkpt lat="45.6231" lon="6.77755">
        <ele>817.01</ele>
        <time>2019-10-14T12:15:38.000Z</time>
      </trkpt>
      <trkpt lat="45.62319" lon="6.77779">
        <ele>816.93</ele>
        <time>2019-10-14T12:15:43.000Z</time>
      </trkpt>
      <trkpt lat="45.62328" lon="6.77803">
        <ele>817.17</ele>
        <time>2019-10-14T12:15:48.000Z</time>
      </trkpt>
      <trkpt lat="45.62334" lon="6.77828">
        <ele>815.32</ele>
        <time>2019-10-14T12:15:53.000Z</time>
      </trkpt>
      <trkpt lat="45.62337" lon="6.77852">
        <ele>813.77</ele>
        <time>2019-10-14T12:15:58.000Z</time>
      </trkpt>
      <trkpt lat="45.62335" lon="6.77876">
        <ele>810.99</ele>
        <time>2019-10-14T12:16:03.000Z</time>
      </trkpt>
      <trkpt lat="45.62335" lon="6.77899">
        <ele>812.26</ele>
        <time>2019-10-14T12:16:08.000Z</time>
      </trkpt>
      <trkpt lat="45.62338" lon="6.77922">
        <ele>811.91</ele>
        <time>2019-10-14T12:16:13.000Z</time>
      </trkpt>
      <trkpt lat="45.62339" lon="6.77944">
        <ele>811.42</ele>
        <time>2019-10-14T12:16:18.000Z</time>
      </trkpt>
      <trkpt lat="45.62338" lon="6.77963">
        <ele>812.52</ele>
        <time>2019-10-14T12:16:23.000Z</time>
      </trkpt>
      <trkpt lat="45.62339" lon="6.77983">
        <ele>812.98</ele>
        <time>2019-10-14T12:16:28.000Z</time>
      </trkpt>
      <trkpt lat="45.6234" lon="6.78005">
        <ele>812.04</ele>
        <time>2019-10-14T12:16:33.000Z</time>
      </trkpt>
      <trkpt lat="45.62348" lon="6.78027">
        <ele>811.09</ele>
        <time>2019-10-14T12:16:38.000Z</time>
      </trkpt>
      <trkpt lat="45.62359" lon="6.78051">
        <ele>810.82</ele>
        <time>2019-10-14T12:16:43.000Z</time>
      </trkpt>
      <trkpt lat="45.62369" lon="6.78075">
        <ele>811.32</ele>
        <time>2019-10-14T12:16:48.000Z</time>
      </trkpt>
      <trkpt lat="45.62378" lon="6.78095">
        <ele>811.39</ele>
        <time>2019-10-14T12:16:53.000Z</time>
      </trkpt>
      <trkpt lat="45.6239" lon="6.78114">
        <ele>813.15</ele>
        <time>2019-10-14T12:16:58.000Z</time>
      </trkpt>
      <trkpt lat="45.62401" lon="6.78129">
        <ele>815.48</ele>
        <time>2019-10-14T12:17:03.000Z</time>
      </trkpt>
      <trkpt lat="45.62414" lon="6.7815">
        <ele>817.1</ele>
        <time>2019-10-14T12:17:08.000Z</time>
      </trkpt>
      <trkpt lat="45.62427" lon="6.78169">
        <ele>816.74</ele>
        <time>2019-10-14T12:17:13.000Z</time>
      </trkpt>
      <trkpt lat="45.62438" lon="6.78184">
        <ele>818.5</ele>
        <time>2019-10-14T12:17:18.000Z</time>
      </trkpt>
      <trkpt lat="45.62445" lon="6.78192">
        <ele>816.09</ele>
        <time>2019-10-14T12:17:23.000Z</time>
      </trkpt>
      <trkpt lat="45.62437" lon="6.78183">
        <ele>815.08</ele>
        <time>2019-10-14T12:17:35.000Z</time>
      </trkpt>
      <trkpt lat="45.62421" lon="6.78168">
        <ele>818.34</ele>
        <time>2019-10-14T12:17:40.000Z</time>
      </trkpt>
      <trkpt lat="45.62409" lon="6.78151">
        <ele>820.93</ele>
        <time>2019-10-14T12:17:45.000Z</time>
      </trkpt>
      <trkpt lat="45.6241" lon="6.78137">
        <ele>818.05</ele>
        <time>2019-10-14T12:17:52.000Z</time>
      </trkpt>
      <trkpt lat="45.62419" lon="6.78134">
        <ele>811.38</ele>
        <time>2019-10-14T12:20:30.000Z</time>
      </trkpt>
      <trkpt lat="45.62428" lon="6.78131">
        <ele>812.04</ele>
        <time>2019-10-14T12:20:43.000Z</time>
      </trkpt>
      <trkpt lat="45.62465" lon="6.78133">
        <ele>812.52</ele>
        <time>2019-10-14T12:20:48.000Z</time>
      </trkpt>
      <trkpt lat="45.62473" lon="6.78141">
        <ele>813.97</ele>
        <time>2019-10-14T12:20:53.000Z</time>
      </trkpt>
      <trkpt lat="45.62477" lon="6.78161">
        <ele>814.24</ele>
        <time>2019-10-14T12:20:58.000Z</time>
      </trkpt>
      <trkpt lat="45.6245" lon="6.78163">
        <ele>814.04</ele>
        <time>2019-10-14T12:21:08.000Z</time>
      </trkpt>
      <trkpt lat="45.6245" lon="6.7813">
        <ele>812.6</ele>
        <time>2019-10-14T12:21:13.000Z</time>
      </trkpt>
      <trkpt lat="45.62454" lon="6.78118">
        <ele>812.69</ele>
        <time>2019-10-14T12:21:19.000Z</time>
      </trkpt>
      <trkpt lat="45.62465" lon="6.78116">
        <ele>809.94</ele>
        <time>2019-10-14T12:21:29.000Z</time>
      </trkpt>
      <trkpt lat="45.6247" lon="6.78105">
        <ele>809.39</ele>
        <time>2019-10-14T12:21:55.000Z</time>
      </trkpt>
      <trkpt lat="45.6246" lon="6.78103">
        <ele>807.87</ele>
        <time>2019-10-14T12:22:03.000Z</time>
      </trkpt>
      <trkpt lat="45.6245" lon="6.78103">
        <ele>807.51</ele>
        <time>2019-10-14T12:22:10.000Z</time>
      </trkpt>
      <trkpt lat="45.62444" lon="6.78142">
        <ele>807.33</ele>
        <time>2019-10-14T12:22:15.000Z</time>
      </trkpt>
      <trkpt lat="45.62435" lon="6.78141">
        <ele>811.02</ele>
        <time>2019-10-14T12:22:31.000Z</time>
      </trkpt>
      <trkpt lat="45.62434" lon="6.78155">
        <ele>813.25</ele>
        <time>2019-10-14T12:22:40.000Z</time>
      </trkpt>
      <trkpt lat="45.62417" lon="6.78136">
        <ele>812.14</ele>
        <time>2019-10-14T12:22:45.000Z</time>
      </trkpt>
      <trkpt lat="45.62416" lon="6.78151">
        <ele>822.91</ele>
        <time>2019-10-14T12:26:23.000Z</time>
      </trkpt>
      <trkpt lat="45.62406" lon="6.78148">
        <ele>824.99</ele>
        <time>2019-10-14T12:26:30.000Z</time>
      </trkpt>
      <trkpt lat="45.62398" lon="6.78134">
        <ele>829.69</ele>
        <time>2019-10-14T12:26:35.000Z</time>
      </trkpt>
      <trkpt lat="45.62389" lon="6.78123">
        <ele>831.91</ele>
        <time>2019-10-14T12:26:40.000Z</time>
      </trkpt>
      <trkpt lat="45.62378" lon="6.78116">
        <ele>828.82</ele>
        <time>2019-10-14T12:26:45.000Z</time>
      </trkpt>
      <trkpt lat="45.62369" lon="6.78113">
        <ele>828.14</ele>
        <time>2019-10-14T12:26:53.000Z</time>
      </trkpt>
      <trkpt lat="45.62358" lon="6.78116">
        <ele>830.63</ele>
        <time>2019-10-14T12:26:58.000Z</time>
      </trkpt>
      <trkpt lat="45.62349" lon="6.78124">
        <ele>824.83</ele>
        <time>2019-10-14T12:27:03.000Z</time>
      </trkpt>
      <trkpt lat="45.62346" lon="6.78139">
        <ele>822.12</ele>
        <time>2019-10-14T12:27:08.000Z</time>
      </trkpt>
      <trkpt lat="45.62356" lon="6.78135">
        <ele>820.05</ele>
        <time>2019-10-14T12:27:16.000Z</time>
      </trkpt>
      <trkpt lat="45.62366" lon="6.78124">
        <ele>819.61</ele>
        <time>2019-10-14T12:27:21.000Z</time>
      </trkpt>
      <trkpt lat="45.62357" lon="6.7813">
        <ele>820.21</ele>
        <time>2019-10-14T12:29:12.000Z</time>
      </trkpt>
      <trkpt lat="45.62361" lon="6.78141">
        <ele>812.63</ele>
        <time>2019-10-14T12:31:38.000Z</time>
      </trkpt>
      <trkpt lat="45.62367" lon="6.78131">
        <ele>821</ele>
        <time>2019-10-14T12:31:50.000Z</time>
      </trkpt>
      <trkpt lat="45.62375" lon="6.78124">
        <ele>817.1</ele>
        <time>2019-10-14T12:31:57.000Z</time>
      </trkpt>
      <trkpt lat="45.62382" lon="6.78116">
        <ele>821.52</ele>
        <time>2019-10-14T12:32:04.000Z</time>
      </trkpt>
      <trkpt lat="45.62372" lon="6.78115">
        <ele>832.05</ele>
        <time>2019-10-14T12:32:26.000Z</time>
      </trkpt>
      <trkpt lat="45.62363" lon="6.78109">
        <ele>837.57</ele>
        <time>2019-10-14T12:32:32.000Z</time>
      </trkpt>
      <trkpt lat="45.62394" lon="6.78112">
        <ele>832.94</ele>
        <time>2019-10-14T12:33:17.000Z</time>
      </trkpt>
      <trkpt lat="45.62426" lon="6.78119">
        <ele>826</ele>
        <time>2019-10-14T12:33:22.000Z</time>
      </trkpt>
      <trkpt lat="45.6243" lon="6.78095">
        <ele>812.48</ele>
        <time>2019-10-14T12:33:27.000Z</time>
      </trkpt>
      <trkpt lat="45.62428" lon="6.78081">
        <ele>813.78</ele>
        <time>2019-10-14T12:33:41.000Z</time>
      </trkpt>
      <trkpt lat="45.62436" lon="6.78074">
        <ele>808.13</ele>
        <time>2019-10-14T12:47:49.000Z</time>
      </trkpt>
      <trkpt lat="45.62433" lon="6.78087">
        <ele>816.75</ele>
        <time>2019-10-14T12:47:57.000Z</time>
      </trkpt>
      <trkpt lat="45.62427" lon="6.78097">
        <ele>816.03</ele>
        <time>2019-10-14T12:48:10.000Z</time>
      </trkpt>
      <trkpt lat="45.62436" lon="6.78118">
        <ele>815.19</ele>
        <time>2019-10-14T12:48:39.000Z</time>
      </trkpt>
      <trkpt lat="45.62436" lon="6.78143">
        <ele>817.5</ele>
        <time>2019-10-14T12:48:44.000Z</time>
      </trkpt>
      <trkpt lat="45.62435" lon="6.78101">
        <ele>814.38</ele>
        <time>2019-10-14T12:48:49.000Z</time>
      </trkpt>
      <trkpt lat="45.62438" lon="6.78085">
        <ele>816.63</ele>
        <time>2019-10-14T12:48:54.000Z</time>
      </trkpt>
      <trkpt lat="45.6243" lon="6.78053">
        <ele>823.13</ele>
        <time>2019-10-14T12:48:59.000Z</time>
      </trkpt>
      <trkpt lat="45.62429" lon="6.78038">
        <ele>819.91</ele>
        <time>2019-10-14T12:49:05.000Z</time>
      </trkpt>
      <trkpt lat="45.62442" lon="6.7806">
        <ele>823.59</ele>
        <time>2019-10-14T12:49:10.000Z</time>
      </trkpt>
      <trkpt lat="45.62431" lon="6.78055">
        <ele>829.23</ele>
        <time>2019-10-14T12:49:15.000Z</time>
      </trkpt>
      <trkpt lat="45.6243" lon="6.78068">
        <ele>829.75</ele>
        <time>2019-10-14T12:49:23.000Z</time>
      </trkpt>
      <trkpt lat="45.62423" lon="6.78114">
        <ele>828.95</ele>
        <time>2019-10-14T12:53:34.000Z</time>
      </trkpt>
      <trkpt lat="45.6241" lon="6.78122">
        <ele>827.68</ele>
        <time>2019-10-14T12:53:39.000Z</time>
      </trkpt>
      <trkpt lat="45.6241" lon="6.78109">
        <ele>823.3</ele>
        <time>2019-10-14T12:53:54.000Z</time>
      </trkpt>
      <trkpt lat="45.62353" lon="6.78144">
        <ele>814.75</ele>
        <time>2019-10-14T13:02:38.000Z</time>
      </trkpt>
      <trkpt lat="45.62361" lon="6.78137">
        <ele>821.21</ele>
        <time>2019-10-14T13:02:51.000Z</time>
      </trkpt>
      <trkpt lat="45.62368" lon="6.7813">
        <ele>820.3</ele>
        <time>2019-10-14T13:03:03.000Z</time>
      </trkpt>
      <trkpt lat="45.62377" lon="6.78123">
        <ele>817.58</ele>
        <time>2019-10-14T13:03:13.000Z</time>
      </trkpt>
      <trkpt lat="45.6238" lon="6.78111">
        <ele>819.51</ele>
        <time>2019-10-14T13:03:30.000Z</time>
      </trkpt>
      <trkpt lat="45.62378" lon="6.78098">
        <ele>825.89</ele>
        <time>2019-10-14T13:03:37.000Z</time>
      </trkpt>
      <trkpt lat="45.62381" lon="6.78085">
        <ele>822.23</ele>
        <time>2019-10-14T13:03:47.000Z</time>
      </trkpt>
      <trkpt lat="45.62378" lon="6.7807">
        <ele>821.86</ele>
        <time>2019-10-14T13:03:54.000Z</time>
      </trkpt>
      <trkpt lat="45.62364" lon="6.78058">
        <ele>818.41</ele>
        <time>2019-10-14T13:03:59.000Z</time>
      </trkpt>
      <trkpt lat="45.62361" lon="6.78044">
        <ele>812.34</ele>
        <time>2019-10-14T13:04:08.000Z</time>
      </trkpt>
      <trkpt lat="45.62354" lon="6.78035">
        <ele>809.26</ele>
        <time>2019-10-14T13:04:15.000Z</time>
      </trkpt>
      <trkpt lat="45.62346" lon="6.78026">
        <ele>812.37</ele>
        <time>2019-10-14T13:04:24.000Z</time>
      </trkpt>
      <trkpt lat="45.62337" lon="6.78023">
        <ele>812</ele>
        <time>2019-10-14T13:04:31.000Z</time>
      </trkpt>
      <trkpt lat="45.62327" lon="6.78023">
        <ele>807.14</ele>
        <time>2019-10-14T13:04:38.000Z</time>
      </trkpt>
      <trkpt lat="45.62317" lon="6.78025">
        <ele>804.72</ele>
        <time>2019-10-14T13:04:45.000Z</time>
      </trkpt>
      <trkpt lat="45.62308" lon="6.78025">
        <ele>807.44</ele>
        <time>2019-10-14T13:04:54.000Z</time>
      </trkpt>
      <trkpt lat="45.62299" lon="6.78017">
        <ele>806.75</ele>
        <time>2019-10-14T13:05:04.000Z</time>
      </trkpt>
      <trkpt lat="45.62294" lon="6.78006">
        <ele>807.43</ele>
        <time>2019-10-14T13:05:16.000Z</time>
      </trkpt>
      <trkpt lat="45.62284" lon="6.78008">
        <ele>808.72</ele>
        <time>2019-10-14T13:05:24.000Z</time>
      </trkpt>
      <trkpt lat="45.62275" lon="6.78007">
        <ele>803.75</ele>
        <time>2019-10-14T13:05:32.000Z</time>
      </trkpt>
      <trkpt lat="45.62265" lon="6.78003">
        <ele>804.34</ele>
        <time>2019-10-14T13:05:37.000Z</time>
      </trkpt>
      <trkpt lat="45.62255" lon="6.78001">
        <ele>805.42</ele>
        <time>2019-10-14T13:05:42.000Z</time>
      </trkpt>
      <trkpt lat="45.62249" lon="6.7801">
        <ele>806.38</ele>
        <time>2019-10-14T13:05:51.000Z</time>
      </trkpt>
      <trkpt lat="45.62241" lon="6.7802">
        <ele>810</ele>
        <time>2019-10-14T13:05:58.000Z</time>
      </trkpt>
      <trkpt lat="45.62233" lon="6.78023">
        <ele>809.35</ele>
        <time>2019-10-14T13:06:06.000Z</time>
      </trkpt>
      <trkpt lat="45.62226" lon="6.78033">
        <ele>807.01</ele>
        <time>2019-10-14T13:06:14.000Z</time>
      </trkpt>
      <trkpt lat="45.62219" lon="6.78042">
        <ele>807.74</ele>
        <time>2019-10-14T13:06:21.000Z</time>
      </trkpt>
      <trkpt lat="45.62213" lon="6.78053">
        <ele>807.11</ele>
        <time>2019-10-14T13:06:27.000Z</time>
      </trkpt>
      <trkpt lat="45.62207" lon="6.78065">
        <ele>809.17</ele>
        <time>2019-10-14T13:06:34.000Z</time>
      </trkpt>
      <trkpt lat="45.62205" lon="6.78052">
        <ele>802.65</ele>
        <time>2019-10-14T13:07:08.000Z</time>
      </trkpt>
      <trkpt lat="45.62202" lon="6.78038">
        <ele>809.66</ele>
        <time>2019-10-14T13:07:18.000Z</time>
      </trkpt>
      <trkpt lat="45.62196" lon="6.78027">
        <ele>812.25</ele>
        <time>2019-10-14T13:07:27.000Z</time>
      </trkpt>
      <trkpt lat="45.62187" lon="6.7802">
        <ele>809.61</ele>
        <time>2019-10-14T13:07:32.000Z</time>
      </trkpt>
      <trkpt lat="45.6218" lon="6.78009">
        <ele>812.42</ele>
        <time>2019-10-14T13:07:41.000Z</time>
      </trkpt>
      <trkpt lat="45.62174" lon="6.77998">
        <ele>812.21</ele>
        <time>2019-10-14T13:07:49.000Z</time>
      </trkpt>
      <trkpt lat="45.62168" lon="6.77988">
        <ele>806.75</ele>
        <time>2019-10-14T13:08:00.000Z</time>
      </trkpt>
      <trkpt lat="45.62161" lon="6.77978">
        <ele>806.02</ele>
        <time>2019-10-14T13:08:09.000Z</time>
      </trkpt>
      <trkpt lat="45.62153" lon="6.77969">
        <ele>800.82</ele>
        <time>2019-10-14T13:08:16.000Z</time>
      </trkpt>
      <trkpt lat="45.62147" lon="6.7796">
        <ele>797.83</ele>
        <time>2019-10-14T13:08:25.000Z</time>
      </trkpt>
      <trkpt lat="45.62139" lon="6.7795">
        <ele>796.75</ele>
        <time>2019-10-14T13:08:36.000Z</time>
      </trkpt>
      <trkpt lat="45.62131" lon="6.77944">
        <ele>796.4</ele>
        <time>2019-10-14T13:08:42.000Z</time>
      </trkpt>
      <trkpt lat="45.62123" lon="6.77937">
        <ele>794.12</ele>
        <time>2019-10-14T13:08:51.000Z</time>
      </trkpt>
      <trkpt lat="45.62114" lon="6.77931">
        <ele>797.72</ele>
        <time>2019-10-14T13:09:01.000Z</time>
      </trkpt>
      <trkpt lat="45.62106" lon="6.77927">
        <ele>797.4</ele>
        <time>2019-10-14T13:09:09.000Z</time>
      </trkpt>
      <trkpt lat="45.62096" lon="6.77922">
        <ele>794.77</ele>
        <time>2019-10-14T13:09:18.000Z</time>
      </trkpt>
      <trkpt lat="45.62087" lon="6.77918">
        <ele>794.97</ele>
        <time>2019-10-14T13:09:26.000Z</time>
      </trkpt>
      <trkpt lat="45.62078" lon="6.77913">
        <ele>792.9</ele>
        <time>2019-10-14T13:09:34.000Z</time>
      </trkpt>
      <trkpt lat="45.62068" lon="6.77909">
        <ele>789.97</ele>
        <time>2019-10-14T13:09:45.000Z</time>
      </trkpt>
      <trkpt lat="45.6206" lon="6.77914">
        <ele>792.8</ele>
        <time>2019-10-14T13:09:52.000Z</time>
      </trkpt>
      <trkpt lat="45.62052" lon="6.7792">
        <ele>792.88</ele>
        <time>2019-10-14T13:09:59.000Z</time>
      </trkpt>
      <trkpt lat="45.62045" lon="6.7793">
        <ele>791.66</ele>
        <time>2019-10-14T13:10:05.000Z</time>
      </trkpt>
      <trkpt lat="45.62037" lon="6.77939">
        <ele>797.1</ele>
        <time>2019-10-14T13:10:13.000Z</time>
      </trkpt>
      <trkpt lat="45.62029" lon="6.77947">
        <ele>799.94</ele>
        <time>2019-10-14T13:10:23.000Z</time>
      </trkpt>
      <trkpt lat="45.62023" lon="6.77955">
        <ele>799.78</ele>
        <time>2019-10-14T13:10:36.000Z</time>
      </trkpt>
      <trkpt lat="45.62012" lon="6.77958">
        <ele>803.89</ele>
        <time>2019-10-14T13:10:53.000Z</time>
      </trkpt>
      <trkpt lat="45.62003" lon="6.77957">
        <ele>806.31</ele>
        <time>2019-10-14T13:11:01.000Z</time>
      </trkpt>
      <trkpt lat="45.61993" lon="6.7796">
        <ele>799.56</ele>
        <time>2019-10-14T13:11:32.000Z</time>
      </trkpt>
      <trkpt lat="45.61984" lon="6.77955">
        <ele>800.11</ele>
        <time>2019-10-14T13:11:39.000Z</time>
      </trkpt>
      <trkpt lat="45.61974" lon="6.77952">
        <ele>799.98</ele>
        <time>2019-10-14T13:11:45.000Z</time>
      </trkpt>
      <trkpt lat="45.61965" lon="6.77948">
        <ele>802.74</ele>
        <time>2019-10-14T13:11:52.000Z</time>
      </trkpt>
      <trkpt lat="45.61957" lon="6.77943">
        <ele>797.53</ele>
        <time>2019-10-14T13:12:07.000Z</time>
      </trkpt>
      <trkpt lat="45.61948" lon="6.77939">
        <ele>793.38</ele>
        <time>2019-10-14T13:12:15.000Z</time>
      </trkpt>
      <trkpt lat="45.61938" lon="6.77935">
        <ele>790.29</ele>
        <time>2019-10-14T13:12:21.000Z</time>
      </trkpt>
      <trkpt lat="45.61929" lon="6.7793">
        <ele>797.27</ele>
        <time>2019-10-14T13:12:28.000Z</time>
      </trkpt>
      <trkpt lat="45.61919" lon="6.77927">
        <ele>800.68</ele>
        <time>2019-10-14T13:12:37.000Z</time>
      </trkpt>
      <trkpt lat="45.6191" lon="6.77923">
        <ele>800.26</ele>
        <time>2019-10-14T13:12:43.000Z</time>
      </trkpt>
      <trkpt lat="45.619" lon="6.77918">
        <ele>798.71</ele>
        <time>2019-10-14T13:12:49.000Z</time>
      </trkpt>
      <trkpt lat="45.61893" lon="6.77909">
        <ele>798.7</ele>
        <time>2019-10-14T13:12:57.000Z</time>
      </trkpt>
      <trkpt lat="45.61885" lon="6.779">
        <ele>797.25</ele>
        <time>2019-10-14T13:13:06.000Z</time>
      </trkpt>
      <trkpt lat="45.61878" lon="6.7789">
        <ele>795.58</ele>
        <time>2019-10-14T13:13:15.000Z</time>
      </trkpt>
      <trkpt lat="45.61871" lon="6.77881">
        <ele>798.5</ele>
        <time>2019-10-14T13:13:24.000Z</time>
      </trkpt>
      <trkpt lat="45.61865" lon="6.77872">
        <ele>796.44</ele>
        <time>2019-10-14T13:13:32.000Z</time>
      </trkpt>
      <trkpt lat="45.6186" lon="6.77861">
        <ele>798.61</ele>
        <time>2019-10-14T13:13:40.000Z</time>
      </trkpt>
      <trkpt lat="45.61852" lon="6.77853">
        <ele>799.34</ele>
        <time>2019-10-14T13:13:48.000Z</time>
      </trkpt>
      <trkpt lat="45.61845" lon="6.77844">
        <ele>800.37</ele>
        <time>2019-10-14T13:13:55.000Z</time>
      </trkpt>
      <trkpt lat="45.61838" lon="6.77834">
        <ele>803.42</ele>
        <time>2019-10-14T13:14:03.000Z</time>
      </trkpt>
      <trkpt lat="45.61838" lon="6.7782">
        <ele>802.02</ele>
        <time>2019-10-14T13:14:14.000Z</time>
      </trkpt>
      <trkpt lat="45.61832" lon="6.77809">
        <ele>799.62</ele>
        <time>2019-10-14T13:14:26.000Z</time>
      </trkpt>
      <trkpt lat="45.61835" lon="6.77796">
        <ele>799.11</ele>
        <time>2019-10-14T13:15:00.000Z</time>
      </trkpt>
      <trkpt lat="45.61839" lon="6.77783">
        <ele>803.54</ele>
        <time>2019-10-14T13:15:07.000Z</time>
      </trkpt>
      <trkpt lat="45.61844" lon="6.77773">
        <ele>809.05</ele>
        <time>2019-10-14T13:15:15.000Z</time>
      </trkpt>
      <trkpt lat="45.61844" lon="6.77759">
        <ele>805.93</ele>
        <time>2019-10-14T13:15:23.000Z</time>
      </trkpt>
      <trkpt lat="45.61842" lon="6.77745">
        <ele>806.44</ele>
        <time>2019-10-14T13:15:29.000Z</time>
      </trkpt>
      <trkpt lat="45.6184" lon="6.77731">
        <ele>804.98</ele>
        <time>2019-10-14T13:15:37.000Z</time>
      </trkpt>
      <trkpt lat="45.61844" lon="6.77719">
        <ele>808.57</ele>
        <time>2019-10-14T13:15:45.000Z</time>
      </trkpt>
      <trkpt lat="45.6184" lon="6.77706">
        <ele>802.17</ele>
        <time>2019-10-14T13:15:54.000Z</time>
      </trkpt>
      <trkpt lat="45.61841" lon="6.77692">
        <ele>800.7</ele>
        <time>2019-10-14T13:16:14.000Z</time>
      </trkpt>
      <trkpt lat="45.61847" lon="6.77682">
        <ele>801.34</ele>
        <time>2019-10-14T13:16:25.000Z</time>
      </trkpt>
      <trkpt lat="45.61851" lon="6.77669">
        <ele>805.19</ele>
        <time>2019-10-14T13:16:36.000Z</time>
      </trkpt>
      <trkpt lat="45.61855" lon="6.77657">
        <ele>807.13</ele>
        <time>2019-10-14T13:16:46.000Z</time>
      </trkpt>
      <trkpt lat="45.61858" lon="6.77644">
        <ele>807.79</ele>
        <time>2019-10-14T13:16:52.000Z</time>
      </trkpt>
      <trkpt lat="45.61861" lon="6.77631">
        <ele>809.55</ele>
        <time>2019-10-14T13:16:57.000Z</time>
      </trkpt>
      <trkpt lat="45.61862" lon="6.77618">
        <ele>811.11</ele>
        <time>2019-10-14T13:17:06.000Z</time>
      </trkpt>
      <trkpt lat="45.61864" lon="6.77604">
        <ele>808.86</ele>
        <time>2019-10-14T13:17:15.000Z</time>
      </trkpt>
      <trkpt lat="45.61864" lon="6.7759">
        <ele>806.44</ele>
        <time>2019-10-14T13:17:24.000Z</time>
      </trkpt>
      <trkpt lat="45.61867" lon="6.77577">
        <ele>807.98</ele>
        <time>2019-10-14T13:17:33.000Z</time>
      </trkpt>
      <trkpt lat="45.61872" lon="6.77566">
        <ele>807.29</ele>
        <time>2019-10-14T13:17:41.000Z</time>
      </trkpt>
      <trkpt lat="45.61878" lon="6.77555">
        <ele>808.34</ele>
        <time>2019-10-14T13:17:52.000Z</time>
      </trkpt>
      <trkpt lat="45.61884" lon="6.77545">
        <ele>806.03</ele>
        <time>2019-10-14T13:18:01.000Z</time>
      </trkpt>
      <trkpt lat="45.6189" lon="6.77534">
        <ele>807.7</ele>
        <time>2019-10-14T13:18:08.000Z</time>
      </trkpt>
      <trkpt lat="45.61896" lon="6.77523">
        <ele>807.58</ele>
        <time>2019-10-14T13:18:16.000Z</time>
      </trkpt>
      <trkpt lat="45.61903" lon="6.77515">
        <ele>805.15</ele>
        <time>2019-10-14T13:18:22.000Z</time>
      </trkpt>
      <trkpt lat="45.61911" lon="6.77506">
        <ele>807.74</ele>
        <time>2019-10-14T13:18:29.000Z</time>
      </trkpt>
      <trkpt lat="45.61917" lon="6.77497">
        <ele>807.88</ele>
        <time>2019-10-14T13:18:36.000Z</time>
      </trkpt>
      <trkpt lat="45.61925" lon="6.77491">
        <ele>812.98</ele>
        <time>2019-10-14T13:18:45.000Z</time>
      </trkpt>
      <trkpt lat="45.61933" lon="6.77482">
        <ele>813.51</ele>
        <time>2019-10-14T13:18:55.000Z</time>
      </trkpt>
      <trkpt lat="45.61935" lon="6.77468">
        <ele>808.94</ele>
        <time>2019-10-14T13:19:04.000Z</time>
      </trkpt>
      <trkpt lat="45.61941" lon="6.77457">
        <ele>811.01</ele>
        <time>2019-10-14T13:19:10.000Z</time>
      </trkpt>
      <trkpt lat="45.61946" lon="6.77445">
        <ele>811</ele>
        <time>2019-10-14T13:19:16.000Z</time>
      </trkpt>
      <trkpt lat="45.61951" lon="6.77433">
        <ele>812.32</ele>
        <time>2019-10-14T13:19:25.000Z</time>
      </trkpt>
      <trkpt lat="45.61957" lon="6.77421">
        <ele>812.98</ele>
        <time>2019-10-14T13:19:34.000Z</time>
      </trkpt>
      <trkpt lat="45.61963" lon="6.77411">
        <ele>814.35</ele>
        <time>2019-10-14T13:19:40.000Z</time>
      </trkpt>
      <trkpt lat="45.61969" lon="6.77399">
        <ele>812.81</ele>
        <time>2019-10-14T13:19:47.000Z</time>
      </trkpt>
      <trkpt lat="45.61975" lon="6.77388">
        <ele>812.89</ele>
        <time>2019-10-14T13:19:55.000Z</time>
      </trkpt>
      <trkpt lat="45.61982" lon="6.77378">
        <ele>812.05</ele>
        <time>2019-10-14T13:20:02.000Z</time>
      </trkpt>
      <trkpt lat="45.6199" lon="6.77368">
        <ele>812.51</ele>
        <time>2019-10-14T13:20:10.000Z</time>
      </trkpt>
      <trkpt lat="45.61997" lon="6.77358">
        <ele>810.05</ele>
        <time>2019-10-14T13:20:19.000Z</time>
      </trkpt>
      <trkpt lat="45.62005" lon="6.77349">
        <ele>806.33</ele>
        <time>2019-10-14T13:20:26.000Z</time>
      </trkpt>
      <trkpt lat="45.62013" lon="6.77339">
        <ele>805.57</ele>
        <time>2019-10-14T13:20:32.000Z</time>
      </trkpt>
      <trkpt lat="45.6202" lon="6.7733">
        <ele>808.03</ele>
        <time>2019-10-14T13:20:39.000Z</time>
      </trkpt>
      <trkpt lat="45.62028" lon="6.77321">
        <ele>811.12</ele>
        <time>2019-10-14T13:20:47.000Z</time>
      </trkpt>
      <trkpt lat="45.62034" lon="6.77312">
        <ele>808.76</ele>
        <time>2019-10-14T13:20:57.000Z</time>
      </trkpt>
      <trkpt lat="45.62042" lon="6.77301">
        <ele>810.6</ele>
        <time>2019-10-14T13:21:02.000Z</time>
      </trkpt>
      <trkpt lat="45.6205" lon="6.77285">
        <ele>810.28</ele>
        <time>2019-10-14T13:21:07.000Z</time>
      </trkpt>
      <trkpt lat="45.62058" lon="6.77277">
        <ele>807.68</ele>
        <time>2019-10-14T13:21:14.000Z</time>
      </trkpt>
      <trkpt lat="45.62064" lon="6.77267">
        <ele>811.1</ele>
        <time>2019-10-14T13:21:24.000Z</time>
      </trkpt>
      <trkpt lat="45.6207" lon="6.77255">
        <ele>812.96</ele>
        <time>2019-10-14T13:21:32.000Z</time>
      </trkpt>
      <trkpt lat="45.6207" lon="6.77242">
        <ele>812.96</ele>
        <time>2019-10-14T13:21:40.000Z</time>
      </trkpt>
      <trkpt lat="45.62068" lon="6.77229">
        <ele>817.93</ele>
        <time>2019-10-14T13:21:49.000Z</time>
      </trkpt>
      <trkpt lat="45.62075" lon="6.77219">
        <ele>823.16</ele>
        <time>2019-10-14T13:21:59.000Z</time>
      </trkpt>
      <trkpt lat="45.62078" lon="6.77206">
        <ele>820.58</ele>
        <time>2019-10-14T13:22:06.000Z</time>
      </trkpt>
      <trkpt lat="45.6208" lon="6.77192">
        <ele>815.68</ele>
        <time>2019-10-14T13:22:14.000Z</time>
      </trkpt>
      <trkpt lat="45.62076" lon="6.77179">
        <ele>818.2</ele>
        <time>2019-10-14T13:22:20.000Z</time>
      </trkpt>
      <trkpt lat="45.6207" lon="6.77167">
        <ele>817.18</ele>
        <time>2019-10-14T13:22:26.000Z</time>
      </trkpt>
      <trkpt lat="45.6206" lon="6.77156">
        <ele>813.48</ele>
        <time>2019-10-14T13:22:31.000Z</time>
      </trkpt>
      <trkpt lat="45.62053" lon="6.77147">
        <ele>813.12</ele>
        <time>2019-10-14T13:22:37.000Z</time>
      </trkpt>
      <trkpt lat="45.62045" lon="6.77138">
        <ele>811.25</ele>
        <time>2019-10-14T13:22:45.000Z</time>
      </trkpt>
      <trkpt lat="45.62036" lon="6.77133">
        <ele>807.29</ele>
        <time>2019-10-14T13:22:53.000Z</time>
      </trkpt>
      <trkpt lat="45.62028" lon="6.77126">
        <ele>809.16</ele>
        <time>2019-10-14T13:23:03.000Z</time>
      </trkpt>
      <trkpt lat="45.6202" lon="6.77118">
        <ele>809.42</ele>
        <time>2019-10-14T13:23:11.000Z</time>
      </trkpt>
      <trkpt lat="45.62012" lon="6.77112">
        <ele>809.24</ele>
        <time>2019-10-14T13:23:17.000Z</time>
      </trkpt>
      <trkpt lat="45.62002" lon="6.77108">
        <ele>809.19</ele>
        <time>2019-10-14T13:23:24.000Z</time>
      </trkpt>
      <trkpt lat="45.61993" lon="6.77101">
        <ele>811.23</ele>
        <time>2019-10-14T13:23:41.000Z</time>
      </trkpt>
      <trkpt lat="45.61995" lon="6.77087">
        <ele>808.95</ele>
        <time>2019-10-14T13:23:49.000Z</time>
      </trkpt>
      <trkpt lat="45.61992" lon="6.77072">
        <ele>810.01</ele>
        <time>2019-10-14T13:23:57.000Z</time>
      </trkpt>
      <trkpt lat="45.61988" lon="6.77061">
        <ele>812.01</ele>
        <time>2019-10-14T13:24:07.000Z</time>
      </trkpt>
      <trkpt lat="45.62015" lon="6.77028">
        <ele>811.11</ele>
        <time>2019-10-14T13:24:27.000Z</time>
      </trkpt>
      <trkpt lat="45.62023" lon="6.77019">
        <ele>811.27</ele>
        <time>2019-10-14T13:24:35.000Z</time>
      </trkpt>
      <trkpt lat="45.62019" lon="6.77036">
        <ele>811.11</ele>
        <time>2019-10-14T13:24:54.000Z</time>
      </trkpt>
      <trkpt lat="45.62013" lon="6.77052">
        <ele>816.75</ele>
        <time>2019-10-14T13:24:59.000Z</time>
      </trkpt>
      <trkpt lat="45.61969" lon="6.76998">
        <ele>813.24</ele>
        <time>2019-10-14T13:27:07.000Z</time>
      </trkpt>
      <trkpt lat="45.61993" lon="6.76986">
        <ele>812.13</ele>
        <time>2019-10-14T13:27:17.000Z</time>
      </trkpt>
      <trkpt lat="45.61993" lon="6.77074">
        <ele>810.42</ele>
        <time>2019-10-14T13:27:33.000Z</time>
      </trkpt>
      <trkpt lat="45.62005" lon="6.77067">
        <ele>809.2</ele>
        <time>2019-10-14T13:27:38.000Z</time>
      </trkpt>
      <trkpt lat="45.62005" lon="6.7708">
        <ele>815.31</ele>
        <time>2019-10-14T13:39:07.000Z</time>
      </trkpt>
      <trkpt lat="45.62015" lon="6.77081">
        <ele>813.91</ele>
        <time>2019-10-14T13:39:16.000Z</time>
      </trkpt>
      <trkpt lat="45.62025" lon="6.77079">
        <ele>809.99</ele>
        <time>2019-10-14T13:39:22.000Z</time>
      </trkpt>
      <trkpt lat="45.62035" lon="6.77085">
        <ele>810.05</ele>
        <time>2019-10-14T13:39:30.000Z</time>
      </trkpt>
      <trkpt lat="45.62044" lon="6.7709">
        <ele>810.78</ele>
        <time>2019-10-14T13:39:38.000Z</time>
      </trkpt>
      <trkpt lat="45.62054" lon="6.77091">
        <ele>807.18</ele>
        <time>2019-10-14T13:39:45.000Z</time>
      </trkpt>
      <trkpt lat="45.62062" lon="6.77099">
        <ele>804.21</ele>
        <time>2019-10-14T13:39:51.000Z</time>
      </trkpt>
      <trkpt lat="45.62068" lon="6.7711">
        <ele>802.67</ele>
        <time>2019-10-14T13:39:58.000Z</time>
      </trkpt>
      <trkpt lat="45.62062" lon="6.77121">
        <ele>808.2</ele>
        <time>2019-10-14T13:40:09.000Z</time>
      </trkpt>
      <trkpt lat="45.62059" lon="6.77134">
        <ele>808.16</ele>
        <time>2019-10-14T13:40:16.000Z</time>
      </trkpt>
      <trkpt lat="45.62062" lon="6.77148">
        <ele>808.15</ele>
        <time>2019-10-14T13:40:22.000Z</time>
      </trkpt>
      <trkpt lat="45.62066" lon="6.77161">
        <ele>808.68</ele>
        <time>2019-10-14T13:40:30.000Z</time>
      </trkpt>
      <trkpt lat="45.62071" lon="6.77173">
        <ele>810.19</ele>
        <time>2019-10-14T13:40:39.000Z</time>
      </trkpt>
      <trkpt lat="45.62078" lon="6.77183">
        <ele>808.5</ele>
        <time>2019-10-14T13:40:44.000Z</time>
      </trkpt>
      <trkpt lat="45.62084" lon="6.77193">
        <ele>810.32</ele>
        <time>2019-10-14T13:40:52.000Z</time>
      </trkpt>
      <trkpt lat="45.62088" lon="6.77207">
        <ele>813.42</ele>
        <time>2019-10-14T13:40:59.000Z</time>
      </trkpt>
      <trkpt lat="45.6209" lon="6.77221">
        <ele>814.54</ele>
        <time>2019-10-14T13:41:06.000Z</time>
      </trkpt>
      <trkpt lat="45.62093" lon="6.77234">
        <ele>809.48</ele>
        <time>2019-10-14T13:41:15.000Z</time>
      </trkpt>
      <trkpt lat="45.621" lon="6.77243">
        <ele>806.74</ele>
        <time>2019-10-14T13:41:21.000Z</time>
      </trkpt>
      <trkpt lat="45.62105" lon="6.77254">
        <ele>806.45</ele>
        <time>2019-10-14T13:41:26.000Z</time>
      </trkpt>
      <trkpt lat="45.62114" lon="6.7726">
        <ele>807</ele>
        <time>2019-10-14T13:41:32.000Z</time>
      </trkpt>
      <trkpt lat="45.62116" lon="6.77273">
        <ele>813.83</ele>
        <time>2019-10-14T13:41:49.000Z</time>
      </trkpt>
      <trkpt lat="45.62117" lon="6.77287">
        <ele>822.07</ele>
        <time>2019-10-14T13:41:57.000Z</time>
      </trkpt>
      <trkpt lat="45.62119" lon="6.773">
        <ele>821.32</ele>
        <time>2019-10-14T13:42:03.000Z</time>
      </trkpt>
      <trkpt lat="45.62125" lon="6.77313">
        <ele>815.8</ele>
        <time>2019-10-14T13:42:08.000Z</time>
      </trkpt>
      <trkpt lat="45.62131" lon="6.77323">
        <ele>812.57</ele>
        <time>2019-10-14T13:42:13.000Z</time>
      </trkpt>
      <trkpt lat="45.62137" lon="6.77335">
        <ele>811.21</ele>
        <time>2019-10-14T13:42:20.000Z</time>
      </trkpt>
      <trkpt lat="45.62144" lon="6.77343">
        <ele>809.27</ele>
        <time>2019-10-14T13:42:25.000Z</time>
      </trkpt>
      <trkpt lat="45.62146" lon="6.77357">
        <ele>813.73</ele>
        <time>2019-10-14T13:42:32.000Z</time>
      </trkpt>
      <trkpt lat="45.62149" lon="6.77371">
        <ele>814.7</ele>
        <time>2019-10-14T13:42:41.000Z</time>
      </trkpt>
      <trkpt lat="45.62152" lon="6.77385">
        <ele>817.74</ele>
        <time>2019-10-14T13:42:48.000Z</time>
      </trkpt>
      <trkpt lat="45.62155" lon="6.77399">
        <ele>818.28</ele>
        <time>2019-10-14T13:42:56.000Z</time>
      </trkpt>
      <trkpt lat="45.62157" lon="6.77412">
        <ele>823.64</ele>
        <time>2019-10-14T13:43:05.000Z</time>
      </trkpt>
      <trkpt lat="45.62159" lon="6.77426">
        <ele>823.94</ele>
        <time>2019-10-14T13:43:14.000Z</time>
      </trkpt>
      <trkpt lat="45.62165" lon="6.77435">
        <ele>823.18</ele>
        <time>2019-10-14T13:43:20.000Z</time>
      </trkpt>
      <trkpt lat="45.62172" lon="6.77446">
        <ele>821.4</ele>
        <time>2019-10-14T13:43:29.000Z</time>
      </trkpt>
      <trkpt lat="45.62178" lon="6.77458">
        <ele>819.99</ele>
        <time>2019-10-14T13:43:35.000Z</time>
      </trkpt>
      <trkpt lat="45.62182" lon="6.77472">
        <ele>818.27</ele>
        <time>2019-10-14T13:43:43.000Z</time>
      </trkpt>
      <trkpt lat="45.62188" lon="6.77484">
        <ele>815.7</ele>
        <time>2019-10-14T13:43:49.000Z</time>
      </trkpt>
      <trkpt lat="45.62193" lon="6.77495">
        <ele>817.56</ele>
        <time>2019-10-14T13:44:02.000Z</time>
      </trkpt>
      <trkpt lat="45.62201" lon="6.77507">
        <ele>816.63</ele>
        <time>2019-10-14T13:44:07.000Z</time>
      </trkpt>
      <trkpt lat="45.62206" lon="6.7752">
        <ele>817.73</ele>
        <time>2019-10-14T13:44:17.000Z</time>
      </trkpt>
      <trkpt lat="45.62212" lon="6.77531">
        <ele>817.56</ele>
        <time>2019-10-14T13:44:25.000Z</time>
      </trkpt>
      <trkpt lat="45.62215" lon="6.77546">
        <ele>815.37</ele>
        <time>2019-10-14T13:44:32.000Z</time>
      </trkpt>
      <trkpt lat="45.62219" lon="6.77558">
        <ele>815.37</ele>
        <time>2019-10-14T13:44:38.000Z</time>
      </trkpt>
      <trkpt lat="45.62227" lon="6.77567">
        <ele>814.06</ele>
        <time>2019-10-14T13:44:44.000Z</time>
      </trkpt>
      <trkpt lat="45.62232" lon="6.77579">
        <ele>812.81</ele>
        <time>2019-10-14T13:44:49.000Z</time>
      </trkpt>
      <trkpt lat="45.62238" lon="6.7759">
        <ele>814.12</ele>
        <time>2019-10-14T13:44:55.000Z</time>
      </trkpt>
      <trkpt lat="45.62245" lon="6.77601">
        <ele>811.92</ele>
        <time>2019-10-14T13:45:02.000Z</time>
      </trkpt>
      <trkpt lat="45.62254" lon="6.77608">
        <ele>806.34</ele>
        <time>2019-10-14T13:45:07.000Z</time>
      </trkpt>
      <trkpt lat="45.62258" lon="6.77619">
        <ele>806.4</ele>
        <time>2019-10-14T13:45:12.000Z</time>
      </trkpt>
      <trkpt lat="45.62262" lon="6.77633">
        <ele>809.64</ele>
        <time>2019-10-14T13:45:20.000Z</time>
      </trkpt>
      <trkpt lat="45.62268" lon="6.77644">
        <ele>814.62</ele>
        <time>2019-10-14T13:45:28.000Z</time>
      </trkpt>
      <trkpt lat="45.62272" lon="6.77657">
        <ele>815.17</ele>
        <time>2019-10-14T13:45:35.000Z</time>
      </trkpt>
      <trkpt lat="45.62278" lon="6.77668">
        <ele>813.51</ele>
        <time>2019-10-14T13:45:43.000Z</time>
      </trkpt>
      <trkpt lat="45.62283" lon="6.7768">
        <ele>812.54</ele>
        <time>2019-10-14T13:45:50.000Z</time>
      </trkpt>
      <trkpt lat="45.62288" lon="6.77691">
        <ele>812.81</ele>
        <time>2019-10-14T13:45:58.000Z</time>
      </trkpt>
      <trkpt lat="45.62292" lon="6.77704">
        <ele>814.76</ele>
        <time>2019-10-14T13:46:06.000Z</time>
      </trkpt>
      <trkpt lat="45.62297" lon="6.77715">
        <ele>813.9</ele>
        <time>2019-10-14T13:46:12.000Z</time>
      </trkpt>
      <trkpt lat="45.623" lon="6.77728">
        <ele>814.75</ele>
        <time>2019-10-14T13:46:19.000Z</time>
      </trkpt>
      <trkpt lat="45.62305" lon="6.7774">
        <ele>814.44</ele>
        <time>2019-10-14T13:46:26.000Z</time>
      </trkpt>
      <trkpt lat="45.6231" lon="6.77751">
        <ele>813.71</ele>
        <time>2019-10-14T13:46:33.000Z</time>
      </trkpt>
      <trkpt lat="45.62313" lon="6.77764">
        <ele>816.88</ele>
        <time>2019-10-14T13:46:41.000Z</time>
      </trkpt>
      <trkpt lat="45.6232" lon="6.77773">
        <ele>817.79</ele>
        <time>2019-10-14T13:46:48.000Z</time>
      </trkpt>
      <trkpt lat="45.62326" lon="6.77784">
        <ele>816.19</ele>
        <time>2019-10-14T13:46:56.000Z</time>
      </trkpt>
      <trkpt lat="45.62331" lon="6.77795">
        <ele>815.66</ele>
        <time>2019-10-14T13:47:04.000Z</time>
      </trkpt>
      <trkpt lat="45.62339" lon="6.77805">
        <ele>811.68</ele>
        <time>2019-10-14T13:47:11.000Z</time>
      </trkpt>
      <trkpt lat="45.62348" lon="6.77814">
        <ele>806.13</ele>
        <time>2019-10-14T13:47:16.000Z</time>
      </trkpt>
      <trkpt lat="45.62357" lon="6.7782">
        <ele>804.56</ele>
        <time>2019-10-14T13:47:22.000Z</time>
      </trkpt>
      <trkpt lat="45.62363" lon="6.77831">
        <ele>806.05</ele>
        <time>2019-10-14T13:47:28.000Z</time>
      </trkpt>
      <trkpt lat="45.62367" lon="6.77842">
        <ele>806.81</ele>
        <time>2019-10-14T13:47:35.000Z</time>
      </trkpt>
      <trkpt lat="45.62366" lon="6.77855">
        <ele>812.73</ele>
        <time>2019-10-14T13:47:43.000Z</time>
      </trkpt>
      <trkpt lat="45.62366" lon="6.77869">
        <ele>810.24</ele>
        <time>2019-10-14T13:47:52.000Z</time>
      </trkpt>
      <trkpt lat="45.62361" lon="6.77881">
        <ele>810.95</ele>
        <time>2019-10-14T13:47:59.000Z</time>
      </trkpt>
      <trkpt lat="45.62355" lon="6.77892">
        <ele>807.99</ele>
        <time>2019-10-14T13:48:06.000Z</time>
      </trkpt>
      <trkpt lat="45.62349" lon="6.77904">
        <ele>810.54</ele>
        <time>2019-10-14T13:48:14.000Z</time>
      </trkpt>
      <trkpt lat="45.62348" lon="6.77916">
        <ele>811.41</ele>
        <time>2019-10-14T13:48:23.000Z</time>
      </trkpt>
      <trkpt lat="45.62349" lon="6.7793">
        <ele>814.14</ele>
        <time>2019-10-14T13:48:30.000Z</time>
      </trkpt>
      <trkpt lat="45.62351" lon="6.77944">
        <ele>818.05</ele>
        <time>2019-10-14T13:48:39.000Z</time>
      </trkpt>
      <trkpt lat="45.62354" lon="6.77958">
        <ele>817.78</ele>
        <time>2019-10-14T13:48:47.000Z</time>
      </trkpt>
      <trkpt lat="45.62358" lon="6.77972">
        <ele>815.87</ele>
        <time>2019-10-14T13:48:54.000Z</time>
      </trkpt>
      <trkpt lat="45.62363" lon="6.77983">
        <ele>814.52</ele>
        <time>2019-10-14T13:49:00.000Z</time>
      </trkpt>
      <trkpt lat="45.6236" lon="6.77996">
        <ele>818.13</ele>
        <time>2019-10-14T13:49:15.000Z</time>
      </trkpt>
      <trkpt lat="45.6236" lon="6.78011">
        <ele>818.28</ele>
        <time>2019-10-14T13:49:25.000Z</time>
      </trkpt>
      <trkpt lat="45.62362" lon="6.78024">
        <ele>816.01</ele>
        <time>2019-10-14T13:49:31.000Z</time>
      </trkpt>
      <trkpt lat="45.62362" lon="6.78039">
        <ele>817.26</ele>
        <time>2019-10-14T13:49:38.000Z</time>
      </trkpt>
      <trkpt lat="45.62364" lon="6.78053">
        <ele>818.67</ele>
        <time>2019-10-14T13:49:46.000Z</time>
      </trkpt>
      <trkpt lat="45.62367" lon="6.78067">
        <ele>817.07</ele>
        <time>2019-10-14T13:49:54.000Z</time>
      </trkpt>
      <trkpt lat="45.6237" lon="6.7808">
        <ele>817.18</ele>
        <time>2019-10-14T13:50:01.000Z</time>
      </trkpt>
      <trkpt lat="45.62377" lon="6.7809">
        <ele>815.79</ele>
        <time>2019-10-14T13:50:07.000Z</time>
      </trkpt>
      <trkpt lat="45.62376" lon="6.78103">
        <ele>820.37</ele>
        <time>2019-10-14T13:50:16.000Z</time>
      </trkpt>
      <trkpt lat="45.62383" lon="6.78113">
        <ele>821.61</ele>
        <time>2019-10-14T13:50:26.000Z</time>
      </trkpt>
      <trkpt lat="45.62395" lon="6.7812">
        <ele>812.38</ele>
        <time>2019-10-14T13:50:31.000Z</time>
      </trkpt>
      <trkpt lat="45.62396" lon="6.78134">
        <ele>827.72</ele>
        <time>2019-10-14T13:50:44.000Z</time>
      </trkpt>
      <trkpt lat="45.624" lon="6.78147">
        <ele>834.89</ele>
        <time>2019-10-14T13:50:51.000Z</time>
      </trkpt>
      <trkpt lat="45.62409" lon="6.78143">
        <ele>833.75</ele>
        <time>2019-10-14T13:51:02.000Z</time>
      </trkpt>
      <trkpt lat="45.62418" lon="6.78141">
        <ele>832.72</ele>
        <time>2019-10-14T13:51:18.000Z</time>
      </trkpt>
      <trkpt lat="45.62427" lon="6.78146">
        <ele>833.23</ele>
        <time>2019-10-14T13:51:26.000Z</time>
      </trkpt>
      <trkpt lat="45.62438" lon="6.78119">
        <ele>796.31</ele>
        <time>2019-10-14T14:02:15.000Z</time>
      </trkpt>
      <trkpt lat="45.6243" lon="6.7813">
        <ele>813.4</ele>
        <time>2019-10-14T14:04:13.000Z</time>
      </trkpt>
      <trkpt lat="45.6242" lon="6.78135">
        <ele>822.94</ele>
        <time>2019-10-14T14:05:21.000Z</time>
      </trkpt>
      <trkpt lat="45.62411" lon="6.78131">
        <ele>818.63</ele>
        <time>2019-10-14T14:05:42.000Z</time>
      </trkpt>
      <trkpt lat="45.62404" lon="6.78123">
        <ele>819.48</ele>
        <time>2019-10-14T14:05:51.000Z</time>
      </trkpt>
      <trkpt lat="45.62395" lon="6.78118">
        <ele>820.01</ele>
        <time>2019-10-14T14:05:58.000Z</time>
      </trkpt>
      <trkpt lat="45.62386" lon="6.78121">
        <ele>825.22</ele>
        <time>2019-10-14T14:06:03.000Z</time>
      </trkpt>
      <trkpt lat="45.62378" lon="6.78126">
        <ele>830.19</ele>
        <time>2019-10-14T14:06:09.000Z</time>
      </trkpt>
      <trkpt lat="45.62371" lon="6.78136">
        <ele>824.42</ele>
        <time>2019-10-14T14:06:19.000Z</time>
      </trkpt>
      <trkpt lat="45.62362" lon="6.78134">
        <ele>829.6</ele>
        <time>2019-10-14T14:07:23.000Z</time>
      </trkpt>
      <trkpt lat="45.62372" lon="6.78132">
        <ele>818.88</ele>
        <time>2019-10-14T14:10:26.000Z</time>
      </trkpt>
      <trkpt lat="45.6238" lon="6.78122">
        <ele>815.59</ele>
        <time>2019-10-14T14:10:34.000Z</time>
      </trkpt>
      <trkpt lat="45.62377" lon="6.78098">
        <ele>812.57</ele>
        <time>2019-10-14T14:10:39.000Z</time>
      </trkpt>
      <trkpt lat="45.62362" lon="6.78066">
        <ele>810.6</ele>
        <time>2019-10-14T14:10:44.000Z</time>
      </trkpt>
      <trkpt lat="45.62358" lon="6.78034">
        <ele>807.64</ele>
        <time>2019-10-14T14:10:49.000Z</time>
      </trkpt>
      <trkpt lat="45.6235" lon="6.78004">
        <ele>803.5</ele>
        <time>2019-10-14T14:10:54.000Z</time>
      </trkpt>
      <trkpt lat="45.62342" lon="6.77976">
        <ele>807.29</ele>
        <time>2019-10-14T14:10:59.000Z</time>
      </trkpt>
      <trkpt lat="45.62343" lon="6.77933">
        <ele>806.87</ele>
        <time>2019-10-14T14:11:04.000Z</time>
      </trkpt>
      <trkpt lat="45.62345" lon="6.77892">
        <ele>806.26</ele>
        <time>2019-10-14T14:11:09.000Z</time>
      </trkpt>
      <trkpt lat="45.62351" lon="6.7786">
        <ele>806.03</ele>
        <time>2019-10-14T14:11:14.000Z</time>
      </trkpt>
      <trkpt lat="45.62361" lon="6.77829">
        <ele>806.53</ele>
        <time>2019-10-14T14:11:19.000Z</time>
      </trkpt>
      <trkpt lat="45.62341" lon="6.778">
        <ele>808.33</ele>
        <time>2019-10-14T14:11:24.000Z</time>
      </trkpt>
      <trkpt lat="45.62324" lon="6.77766">
        <ele>814.12</ele>
        <time>2019-10-14T14:11:29.000Z</time>
      </trkpt>
      <trkpt lat="45.62307" lon="6.77728">
        <ele>812.12</ele>
        <time>2019-10-14T14:11:34.000Z</time>
      </trkpt>
      <trkpt lat="45.62288" lon="6.77688">
        <ele>806.64</ele>
        <time>2019-10-14T14:11:39.000Z</time>
      </trkpt>
      <trkpt lat="45.62261" lon="6.77643">
        <ele>804.66</ele>
        <time>2019-10-14T14:11:44.000Z</time>
      </trkpt>
      <trkpt lat="45.62243" lon="6.77598">
        <ele>802.83</ele>
        <time>2019-10-14T14:11:49.000Z</time>
      </trkpt>
      <trkpt lat="45.62225" lon="6.77561">
        <ele>801.91</ele>
        <time>2019-10-14T14:11:54.000Z</time>
      </trkpt>
      <trkpt lat="45.62218" lon="6.77542">
        <ele>802.76</ele>
        <time>2019-10-14T14:11:59.000Z</time>
      </trkpt>
      <trkpt lat="45.62222" lon="6.77529">
        <ele>796.75</ele>
        <time>2019-10-14T14:12:43.000Z</time>
      </trkpt>
      <trkpt lat="45.62215" lon="6.77513">
        <ele>796.45</ele>
        <time>2019-10-14T14:12:48.000Z</time>
      </trkpt>
      <trkpt lat="45.62204" lon="6.77493">
        <ele>795.55</ele>
        <time>2019-10-14T14:12:53.000Z</time>
      </trkpt>
      <trkpt lat="45.62195" lon="6.77467">
        <ele>795.92</ele>
        <time>2019-10-14T14:12:58.000Z</time>
      </trkpt>
      <trkpt lat="45.62182" lon="6.7744">
        <ele>795.88</ele>
        <time>2019-10-14T14:13:03.000Z</time>
      </trkpt>
      <trkpt lat="45.62174" lon="6.77409">
        <ele>795.2</ele>
        <time>2019-10-14T14:13:08.000Z</time>
      </trkpt>
      <trkpt lat="45.62162" lon="6.77383">
        <ele>796.02</ele>
        <time>2019-10-14T14:13:13.000Z</time>
      </trkpt>
      <trkpt lat="45.62155" lon="6.77354">
        <ele>796.05</ele>
        <time>2019-10-14T14:13:18.000Z</time>
      </trkpt>
      <trkpt lat="45.62141" lon="6.7733">
        <ele>795.57</ele>
        <time>2019-10-14T14:13:23.000Z</time>
      </trkpt>
      <trkpt lat="45.62129" lon="6.77305">
        <ele>796.87</ele>
        <time>2019-10-14T14:13:28.000Z</time>
      </trkpt>
      <trkpt lat="45.62119" lon="6.77284">
        <ele>800.74</ele>
        <time>2019-10-14T14:13:33.000Z</time>
      </trkpt>
      <trkpt lat="45.62112" lon="6.77257">
        <ele>800.46</ele>
        <time>2019-10-14T14:13:38.000Z</time>
      </trkpt>
      <trkpt lat="45.621" lon="6.77234">
        <ele>802.75</ele>
        <time>2019-10-14T14:13:43.000Z</time>
      </trkpt>
      <trkpt lat="45.62089" lon="6.77211">
        <ele>803.57</ele>
        <time>2019-10-14T14:13:48.000Z</time>
      </trkpt>
      <trkpt lat="45.62076" lon="6.77188">
        <ele>806.8</ele>
        <time>2019-10-14T14:13:53.000Z</time>
      </trkpt>
      <trkpt lat="45.62064" lon="6.77155">
        <ele>805.95</ele>
        <time>2019-10-14T14:13:58.000Z</time>
      </trkpt>
      <trkpt lat="45.62054" lon="6.77129">
        <ele>805.25</ele>
        <time>2019-10-14T14:14:03.000Z</time>
      </trkpt>
      <trkpt lat="45.62056" lon="6.77106">
        <ele>804.01</ele>
        <time>2019-10-14T14:14:08.000Z</time>
      </trkpt>
      <trkpt lat="45.62073" lon="6.77093">
        <ele>803.11</ele>
        <time>2019-10-14T14:14:13.000Z</time>
      </trkpt>
      <trkpt lat="45.62093" lon="6.77091">
        <ele>805.18</ele>
        <time>2019-10-14T14:14:18.000Z</time>
      </trkpt>
      <trkpt lat="45.62114" lon="6.77091">
        <ele>804.06</ele>
        <time>2019-10-14T14:14:23.000Z</time>
      </trkpt>
      <trkpt lat="45.62134" lon="6.77091">
        <ele>804.44</ele>
        <time>2019-10-14T14:14:28.000Z</time>
      </trkpt>
      <trkpt lat="45.62152" lon="6.77096">
        <ele>807.52</ele>
        <time>2019-10-14T14:14:33.000Z</time>
      </trkpt>
      <trkpt lat="45.62178" lon="6.77095">
        <ele>812.2</ele>
        <time>2019-10-14T14:14:38.000Z</time>
      </trkpt>
      <trkpt lat="45.62202" lon="6.77092">
        <ele>814.19</ele>
        <time>2019-10-14T14:14:43.000Z</time>
      </trkpt>
      <trkpt lat="45.62221" lon="6.77098">
        <ele>816.77</ele>
        <time>2019-10-14T14:14:48.000Z</time>
      </trkpt>
      <trkpt lat="45.62244" lon="6.77103">
        <ele>819.98</ele>
        <time>2019-10-14T14:14:53.000Z</time>
      </trkpt>
      <trkpt lat="45.62268" lon="6.77113">
        <ele>823.51</ele>
        <time>2019-10-14T14:14:58.000Z</time>
      </trkpt>
      <trkpt lat="45.62291" lon="6.77126">
        <ele>823.14</ele>
        <time>2019-10-14T14:15:03.000Z</time>
      </trkpt>
      <trkpt lat="45.62314" lon="6.77137">
        <ele>823.57</ele>
        <time>2019-10-14T14:15:08.000Z</time>
      </trkpt>
      <trkpt lat="45.62334" lon="6.77152">
        <ele>826.08</ele>
        <time>2019-10-14T14:15:13.000Z</time>
      </trkpt>
      <trkpt lat="45.62345" lon="6.77171">
        <ele>827.25</ele>
        <time>2019-10-14T14:15:18.000Z</time>
      </trkpt>
      <trkpt lat="45.62354" lon="6.77173">
        <ele>824.93</ele>
        <time>2019-10-14T14:16:31.000Z</time>
      </trkpt>
      <trkpt lat="45.62365" lon="6.77187">
        <ele>818.88</ele>
        <time>2019-10-14T14:16:36.000Z</time>
      </trkpt>
      <trkpt lat="45.62377" lon="6.77209">
        <ele>821.82</ele>
        <time>2019-10-14T14:16:41.000Z</time>
      </trkpt>
      <trkpt lat="45.62389" lon="6.77227">
        <ele>820.46</ele>
        <time>2019-10-14T14:16:46.000Z</time>
      </trkpt>
      <trkpt lat="45.624" lon="6.77248">
        <ele>816.35</ele>
        <time>2019-10-14T14:16:51.000Z</time>
      </trkpt>
      <trkpt lat="45.62409" lon="6.77273">
        <ele>818.42</ele>
        <time>2019-10-14T14:16:56.000Z</time>
      </trkpt>
      <trkpt lat="45.62418" lon="6.77297">
        <ele>817.36</ele>
        <time>2019-10-14T14:17:01.000Z</time>
      </trkpt>
      <trkpt lat="45.62426" lon="6.77321">
        <ele>818.3</ele>
        <time>2019-10-14T14:17:06.000Z</time>
      </trkpt>
      <trkpt lat="45.62437" lon="6.77344">
        <ele>820.99</ele>
        <time>2019-10-14T14:17:11.000Z</time>
      </trkpt>
      <trkpt lat="45.62446" lon="6.77367">
        <ele>821.4</ele>
        <time>2019-10-14T14:17:16.000Z</time>
      </trkpt>
      <trkpt lat="45.62453" lon="6.77391">
        <ele>824.17</ele>
        <time>2019-10-14T14:17:21.000Z</time>
      </trkpt>
      <trkpt lat="45.62459" lon="6.77414">
        <ele>825.94</ele>
        <time>2019-10-14T14:17:26.000Z</time>
      </trkpt>
      <trkpt lat="45.62469" lon="6.77437">
        <ele>819.13</ele>
        <time>2019-10-14T14:17:31.000Z</time>
      </trkpt>
      <trkpt lat="45.62478" lon="6.7746">
        <ele>820.25</ele>
        <time>2019-10-14T14:17:36.000Z</time>
      </trkpt>
      <trkpt lat="45.62486" lon="6.77485">
        <ele>822.41</ele>
        <time>2019-10-14T14:17:41.000Z</time>
      </trkpt>
      <trkpt lat="45.62497" lon="6.77507">
        <ele>822.69</ele>
        <time>2019-10-14T14:17:46.000Z</time>
      </trkpt>
      <trkpt lat="45.62507" lon="6.77527">
        <ele>826.88</ele>
        <time>2019-10-14T14:17:51.000Z</time>
      </trkpt>
      <trkpt lat="45.62515" lon="6.77549">
        <ele>827.4</ele>
        <time>2019-10-14T14:17:56.000Z</time>
      </trkpt>
      <trkpt lat="45.62519" lon="6.77572">
        <ele>828.04</ele>
        <time>2019-10-14T14:18:01.000Z</time>
      </trkpt>
      <trkpt lat="45.62514" lon="6.77595">
        <ele>828.11</ele>
        <time>2019-10-14T14:18:06.000Z</time>
      </trkpt>
      <trkpt lat="45.62508" lon="6.77624">
        <ele>827.85</ele>
        <time>2019-10-14T14:18:11.000Z</time>
      </trkpt>
      <trkpt lat="45.62506" lon="6.77655">
        <ele>830.2</ele>
        <time>2019-10-14T14:18:16.000Z</time>
      </trkpt>
      <trkpt lat="45.62508" lon="6.77681">
        <ele>834.73</ele>
        <time>2019-10-14T14:18:21.000Z</time>
      </trkpt>
      <trkpt lat="45.6251" lon="6.77708">
        <ele>842.01</ele>
        <time>2019-10-14T14:18:26.000Z</time>
      </trkpt>
      <trkpt lat="45.6252" lon="6.7773">
        <ele>839.8</ele>
        <time>2019-10-14T14:18:31.000Z</time>
      </trkpt>
      <trkpt lat="45.62531" lon="6.77751">
        <ele>841.73</ele>
        <time>2019-10-14T14:18:36.000Z</time>
      </trkpt>
      <trkpt lat="45.6254" lon="6.77772">
        <ele>841.19</ele>
        <time>2019-10-14T14:18:41.000Z</time>
      </trkpt>
      <trkpt lat="45.62555" lon="6.77785">
        <ele>844.44</ele>
        <time>2019-10-14T14:18:46.000Z</time>
      </trkpt>
      <trkpt lat="45.62572" lon="6.77779">
        <ele>846.42</ele>
        <time>2019-10-14T14:18:51.000Z</time>
      </trkpt>
      <trkpt lat="45.62589" lon="6.77776">
        <ele>846.2</ele>
        <time>2019-10-14T14:18:56.000Z</time>
      </trkpt>
      <trkpt lat="45.62608" lon="6.77777">
        <ele>843.18</ele>
        <time>2019-10-14T14:19:01.000Z</time>
      </trkpt>
      <trkpt lat="45.62625" lon="6.77784">
        <ele>841.68</ele>
        <time>2019-10-14T14:19:06.000Z</time>
      </trkpt>
      <trkpt lat="45.62631" lon="6.77809">
        <ele>844.88</ele>
        <time>2019-10-14T14:19:11.000Z</time>
      </trkpt>
      <trkpt lat="45.62628" lon="6.77833">
        <ele>845.04</ele>
        <time>2019-10-14T14:19:16.000Z</time>
      </trkpt>
      <trkpt lat="45.6262" lon="6.77861">
        <ele>853.07</ele>
        <time>2019-10-14T14:19:21.000Z</time>
      </trkpt>
      <trkpt lat="45.62617" lon="6.77891">
        <ele>854.91</ele>
        <time>2019-10-14T14:19:26.000Z</time>
      </trkpt>
      <trkpt lat="45.6262" lon="6.77917">
        <ele>856.84</ele>
        <time>2019-10-14T14:19:31.000Z</time>
      </trkpt>
      <trkpt lat="45.62635" lon="6.77935">
        <ele>859.03</ele>
        <time>2019-10-14T14:19:36.000Z</time>
      </trkpt>
      <trkpt lat="45.62649" lon="6.77951">
        <ele>866.6</ele>
        <time>2019-10-14T14:19:41.000Z</time>
      </trkpt>
      <trkpt lat="45.62663" lon="6.77969">
        <ele>866.55</ele>
        <time>2019-10-14T14:19:46.000Z</time>
      </trkpt>
      <trkpt lat="45.62673" lon="6.7799">
        <ele>868.07</ele>
        <time>2019-10-14T14:19:51.000Z</time>
      </trkpt>
      <trkpt lat="45.62681" lon="6.78014">
        <ele>869.4</ele>
        <time>2019-10-14T14:19:56.000Z</time>
      </trkpt>
      <trkpt lat="45.62687" lon="6.78039">
        <ele>871.62</ele>
        <time>2019-10-14T14:20:01.000Z</time>
      </trkpt>
      <trkpt lat="45.62693" lon="6.78063">
        <ele>872.63</ele>
        <time>2019-10-14T14:20:06.000Z</time>
      </trkpt>
      <trkpt lat="45.62701" lon="6.78086">
        <ele>875.35</ele>
        <time>2019-10-14T14:20:11.000Z</time>
      </trkpt>
      <trkpt lat="45.62709" lon="6.78108">
        <ele>878.96</ele>
        <time>2019-10-14T14:20:16.000Z</time>
      </trkpt>
      <trkpt lat="45.62718" lon="6.78128">
        <ele>881.67</ele>
        <time>2019-10-14T14:20:21.000Z</time>
      </trkpt>
      <trkpt lat="45.62727" lon="6.78149">
        <ele>883.58</ele>
        <time>2019-10-14T14:20:26.000Z</time>
      </trkpt>
      <trkpt lat="45.62737" lon="6.78171">
        <ele>887.49</ele>
        <time>2019-10-14T14:20:31.000Z</time>
      </trkpt>
      <trkpt lat="45.62748" lon="6.78189">
        <ele>886.16</ele>
        <time>2019-10-14T14:20:36.000Z</time>
      </trkpt>
      <trkpt lat="45.62753" lon="6.78212">
        <ele>886.79</ele>
        <time>2019-10-14T14:20:41.000Z</time>
      </trkpt>
      <trkpt lat="45.62759" lon="6.78237">
        <ele>887.03</ele>
        <time>2019-10-14T14:20:46.000Z</time>
      </trkpt>
      <trkpt lat="45.62764" lon="6.78262">
        <ele>887.09</ele>
        <time>2019-10-14T14:20:51.000Z</time>
      </trkpt>
      <trkpt lat="45.62768" lon="6.78284">
        <ele>890.66</ele>
        <time>2019-10-14T14:20:56.000Z</time>
      </trkpt>
      <trkpt lat="45.62772" lon="6.78308">
        <ele>889.61</ele>
        <time>2019-10-14T14:21:01.000Z</time>
      </trkpt>
      <trkpt lat="45.62779" lon="6.78332">
        <ele>887.99</ele>
        <time>2019-10-14T14:21:06.000Z</time>
      </trkpt>
      <trkpt lat="45.62788" lon="6.78352">
        <ele>886.84</ele>
        <time>2019-10-14T14:21:11.000Z</time>
      </trkpt>
      <trkpt lat="45.628" lon="6.78373">
        <ele>885.05</ele>
        <time>2019-10-14T14:21:16.000Z</time>
      </trkpt>
      <trkpt lat="45.62815" lon="6.78389">
        <ele>881.12</ele>
        <time>2019-10-14T14:21:21.000Z</time>
      </trkpt>
      <trkpt lat="45.62832" lon="6.78407">
        <ele>875.13</ele>
        <time>2019-10-14T14:21:26.000Z</time>
      </trkpt>
      <trkpt lat="45.62843" lon="6.78428">
        <ele>880.13</ele>
        <time>2019-10-14T14:21:31.000Z</time>
      </trkpt>
      <trkpt lat="45.62853" lon="6.78451">
        <ele>879.89</ele>
        <time>2019-10-14T14:21:36.000Z</time>
      </trkpt>
      <trkpt lat="45.62865" lon="6.78471">
        <ele>883.21</ele>
        <time>2019-10-14T14:21:41.000Z</time>
      </trkpt>
      <trkpt lat="45.62875" lon="6.7849">
        <ele>897.42</ele>
        <time>2019-10-14T14:21:46.000Z</time>
      </trkpt>
      <trkpt lat="45.62887" lon="6.78509">
        <ele>900.41</ele>
        <time>2019-10-14T14:21:51.000Z</time>
      </trkpt>
      <trkpt lat="45.62902" lon="6.78524">
        <ele>905.18</ele>
        <time>2019-10-14T14:21:56.000Z</time>
      </trkpt>
      <trkpt lat="45.62918" lon="6.78532">
        <ele>906.12</ele>
        <time>2019-10-14T14:22:01.000Z</time>
      </trkpt>
      <trkpt lat="45.62937" lon="6.78535">
        <ele>907.44</ele>
        <time>2019-10-14T14:22:06.000Z</time>
      </trkpt>
      <trkpt lat="45.62956" lon="6.78538">
        <ele>905.7</ele>
        <time>2019-10-14T14:22:11.000Z</time>
      </trkpt>
      <trkpt lat="45.62973" lon="6.78548">
        <ele>907.7</ele>
        <time>2019-10-14T14:22:16.000Z</time>
      </trkpt>
      <trkpt lat="45.62989" lon="6.78559">
        <ele>908.31</ele>
        <time>2019-10-14T14:22:21.000Z</time>
      </trkpt>
      <trkpt lat="45.63005" lon="6.78555">
        <ele>907.66</ele>
        <time>2019-10-14T14:22:26.000Z</time>
      </trkpt>
      <trkpt lat="45.63002" lon="6.78529">
        <ele>909.23</ele>
        <time>2019-10-14T14:22:31.000Z</time>
      </trkpt>
      <trkpt lat="45.62983" lon="6.78518">
        <ele>911.17</ele>
        <time>2019-10-14T14:22:36.000Z</time>
      </trkpt>
      <trkpt lat="45.62965" lon="6.78511">
        <ele>913.56</ele>
        <time>2019-10-14T14:22:41.000Z</time>
      </trkpt>
      <trkpt lat="45.62948" lon="6.78502">
        <ele>915.66</ele>
        <time>2019-10-14T14:22:46.000Z</time>
      </trkpt>
      <trkpt lat="45.62932" lon="6.7849">
        <ele>917.07</ele>
        <time>2019-10-14T14:22:51.000Z</time>
      </trkpt>
      <trkpt lat="45.62915" lon="6.78477">
        <ele>916.58</ele>
        <time>2019-10-14T14:22:56.000Z</time>
      </trkpt>
      <trkpt lat="45.629" lon="6.78462">
        <ele>918.59</ele>
        <time>2019-10-14T14:23:01.000Z</time>
      </trkpt>
      <trkpt lat="45.6289" lon="6.7844">
        <ele>921.73</ele>
        <time>2019-10-14T14:23:06.000Z</time>
      </trkpt>
      <trkpt lat="45.62886" lon="6.78416">
        <ele>926.82</ele>
        <time>2019-10-14T14:23:11.000Z</time>
      </trkpt>
      <trkpt lat="45.62882" lon="6.78391">
        <ele>928.09</ele>
        <time>2019-10-14T14:23:16.000Z</time>
      </trkpt>
      <trkpt lat="45.62882" lon="6.78366">
        <ele>924.44</ele>
        <time>2019-10-14T14:23:21.000Z</time>
      </trkpt>
      <trkpt lat="45.62884" lon="6.78339">
        <ele>924.68</ele>
        <time>2019-10-14T14:23:26.000Z</time>
      </trkpt>
      <trkpt lat="45.6289" lon="6.78314">
        <ele>925.57</ele>
        <time>2019-10-14T14:23:31.000Z</time>
      </trkpt>
      <trkpt lat="45.62904" lon="6.783">
        <ele>926.35</ele>
        <time>2019-10-14T14:23:36.000Z</time>
      </trkpt>
      <trkpt lat="45.62918" lon="6.78293">
        <ele>926.62</ele>
        <time>2019-10-14T14:23:41.000Z</time>
      </trkpt>
      <trkpt lat="45.62933" lon="6.78306">
        <ele>929.63</ele>
        <time>2019-10-14T14:23:46.000Z</time>
      </trkpt>
      <trkpt lat="45.62949" lon="6.78321">
        <ele>928.95</ele>
        <time>2019-10-14T14:23:51.000Z</time>
      </trkpt>
      <trkpt lat="45.62965" lon="6.78337">
        <ele>929.68</ele>
        <time>2019-10-14T14:23:56.000Z</time>
      </trkpt>
      <trkpt lat="45.62979" lon="6.78353">
        <ele>930.79</ele>
        <time>2019-10-14T14:24:01.000Z</time>
      </trkpt>
      <trkpt lat="45.62993" lon="6.78368">
        <ele>935.11</ele>
        <time>2019-10-14T14:24:06.000Z</time>
      </trkpt>
      <trkpt lat="45.63007" lon="6.78379">
        <ele>934.59</ele>
        <time>2019-10-14T14:24:11.000Z</time>
      </trkpt>
      <trkpt lat="45.63023" lon="6.78388">
        <ele>937.17</ele>
        <time>2019-10-14T14:24:16.000Z</time>
      </trkpt>
      <trkpt lat="45.63041" lon="6.78398">
        <ele>941.25</ele>
        <time>2019-10-14T14:24:21.000Z</time>
      </trkpt>
      <trkpt lat="45.6306" lon="6.78405">
        <ele>944.18</ele>
        <time>2019-10-14T14:24:26.000Z</time>
      </trkpt>
      <trkpt lat="45.63078" lon="6.7841">
        <ele>943.25</ele>
        <time>2019-10-14T14:24:31.000Z</time>
      </trkpt>
      <trkpt lat="45.63101" lon="6.78421">
        <ele>945.95</ele>
        <time>2019-10-14T14:24:36.000Z</time>
      </trkpt>
      <trkpt lat="45.63126" lon="6.78426">
        <ele>948.96</ele>
        <time>2019-10-14T14:24:41.000Z</time>
      </trkpt>
      <trkpt lat="45.63152" lon="6.78422">
        <ele>949.05</ele>
        <time>2019-10-14T14:24:46.000Z</time>
      </trkpt>
      <trkpt lat="45.63177" lon="6.78419">
        <ele>948.78</ele>
        <time>2019-10-14T14:24:51.000Z</time>
      </trkpt>
      <trkpt lat="45.63204" lon="6.78417">
        <ele>947.63</ele>
        <time>2019-10-14T14:24:56.000Z</time>
      </trkpt>
      <trkpt lat="45.63232" lon="6.78415">
        <ele>944.61</ele>
        <time>2019-10-14T14:25:01.000Z</time>
      </trkpt>
      <trkpt lat="45.63259" lon="6.78428">
        <ele>938.96</ele>
        <time>2019-10-14T14:25:06.000Z</time>
      </trkpt>
      <trkpt lat="45.63284" lon="6.78457">
        <ele>938.59</ele>
        <time>2019-10-14T14:25:11.000Z</time>
      </trkpt>
      <trkpt lat="45.63315" lon="6.78483">
        <ele>938.53</ele>
        <time>2019-10-14T14:25:16.000Z</time>
      </trkpt>
      <trkpt lat="45.63341" lon="6.785">
        <ele>940.03</ele>
        <time>2019-10-14T14:25:21.000Z</time>
      </trkpt>
      <trkpt lat="45.63374" lon="6.78517">
        <ele>939.53</ele>
        <time>2019-10-14T14:25:26.000Z</time>
      </trkpt>
      <trkpt lat="45.63398" lon="6.78531">
        <ele>935.34</ele>
        <time>2019-10-14T14:25:31.000Z</time>
      </trkpt>
      <trkpt lat="45.63423" lon="6.78541">
        <ele>934.77</ele>
        <time>2019-10-14T14:25:36.000Z</time>
      </trkpt>
      <trkpt lat="45.63452" lon="6.78532">
        <ele>935.81</ele>
        <time>2019-10-14T14:25:41.000Z</time>
      </trkpt>
      <trkpt lat="45.63484" lon="6.78532">
        <ele>932.87</ele>
        <time>2019-10-14T14:25:46.000Z</time>
      </trkpt>
      <trkpt lat="45.63521" lon="6.7854">
        <ele>933.55</ele>
        <time>2019-10-14T14:25:51.000Z</time>
      </trkpt>
      <trkpt lat="45.63549" lon="6.78549">
        <ele>938.49</ele>
        <time>2019-10-14T14:25:56.000Z</time>
      </trkpt>
      <trkpt lat="45.63578" lon="6.78539">
        <ele>941.46</ele>
        <time>2019-10-14T14:26:01.000Z</time>
      </trkpt>
      <trkpt lat="45.6361" lon="6.78522">
        <ele>938.55</ele>
        <time>2019-10-14T14:26:06.000Z</time>
      </trkpt>
      <trkpt lat="45.63632" lon="6.78523">
        <ele>939.13</ele>
        <time>2019-10-14T14:26:11.000Z</time>
      </trkpt>
      <trkpt lat="45.63655" lon="6.7852">
        <ele>943.34</ele>
        <time>2019-10-14T14:26:16.000Z</time>
      </trkpt>
      <trkpt lat="45.63676" lon="6.78506">
        <ele>946.58</ele>
        <time>2019-10-14T14:26:21.000Z</time>
      </trkpt>
      <trkpt lat="45.637" lon="6.78484">
        <ele>942.6</ele>
        <time>2019-10-14T14:26:26.000Z</time>
      </trkpt>
      <trkpt lat="45.63726" lon="6.78463">
        <ele>939.77</ele>
        <time>2019-10-14T14:26:31.000Z</time>
      </trkpt>
      <trkpt lat="45.63761" lon="6.78457">
        <ele>939.72</ele>
        <time>2019-10-14T14:26:36.000Z</time>
      </trkpt>
      <trkpt lat="45.63791" lon="6.78441">
        <ele>941.31</ele>
        <time>2019-10-14T14:26:41.000Z</time>
      </trkpt>
      <trkpt lat="45.63821" lon="6.78442">
        <ele>943.41</ele>
        <time>2019-10-14T14:26:46.000Z</time>
      </trkpt>
      <trkpt lat="45.6385" lon="6.78447">
        <ele>944.22</ele>
        <time>2019-10-14T14:26:51.000Z</time>
      </trkpt>
      <trkpt lat="45.63878" lon="6.78441">
        <ele>942.6</ele>
        <time>2019-10-14T14:26:56.000Z</time>
      </trkpt>
      <trkpt lat="45.63902" lon="6.7843">
        <ele>944.24</ele>
        <time>2019-10-14T14:27:01.000Z</time>
      </trkpt>
      <trkpt lat="45.63929" lon="6.78441">
        <ele>945.73</ele>
        <time>2019-10-14T14:27:06.000Z</time>
      </trkpt>
      <trkpt lat="45.63952" lon="6.78468">
        <ele>940.81</ele>
        <time>2019-10-14T14:27:11.000Z</time>
      </trkpt>
      <trkpt lat="45.63983" lon="6.78499">
        <ele>941.79</ele>
        <time>2019-10-14T14:27:16.000Z</time>
      </trkpt>
      <trkpt lat="45.64011" lon="6.7851">
        <ele>939.36</ele>
        <time>2019-10-14T14:27:21.000Z</time>
      </trkpt>
      <trkpt lat="45.64041" lon="6.78513">
        <ele>939.35</ele>
        <time>2019-10-14T14:27:26.000Z</time>
      </trkpt>
      <trkpt lat="45.64075" lon="6.78527">
        <ele>938.06</ele>
        <time>2019-10-14T14:27:31.000Z</time>
      </trkpt>
      <trkpt lat="45.64104" lon="6.78542">
        <ele>935.73</ele>
        <time>2019-10-14T14:27:36.000Z</time>
      </trkpt>
      <trkpt lat="45.64134" lon="6.7856">
        <ele>938.98</ele>
        <time>2019-10-14T14:27:41.000Z</time>
      </trkpt>
      <trkpt lat="45.64161" lon="6.78581">
        <ele>937.87</ele>
        <time>2019-10-14T14:27:46.000Z</time>
      </trkpt>
      <trkpt lat="45.64188" lon="6.78602">
        <ele>937.46</ele>
        <time>2019-10-14T14:27:51.000Z</time>
      </trkpt>
      <trkpt lat="45.64215" lon="6.78619">
        <ele>939.09</ele>
        <time>2019-10-14T14:27:56.000Z</time>
      </trkpt>
      <trkpt lat="45.64242" lon="6.78621">
        <ele>937.93</ele>
        <time>2019-10-14T14:28:01.000Z</time>
      </trkpt>
      <trkpt lat="45.64272" lon="6.7862">
        <ele>939.11</ele>
        <time>2019-10-14T14:28:06.000Z</time>
      </trkpt>
      <trkpt lat="45.64299" lon="6.78616">
        <ele>939.01</ele>
        <time>2019-10-14T14:28:11.000Z</time>
      </trkpt>
      <trkpt lat="45.64324" lon="6.78616">
        <ele>941.81</ele>
        <time>2019-10-14T14:28:16.000Z</time>
      </trkpt>
      <trkpt lat="45.6435" lon="6.78613">
        <ele>940.31</ele>
        <time>2019-10-14T14:28:21.000Z</time>
      </trkpt>
      <trkpt lat="45.64378" lon="6.7861">
        <ele>936.76</ele>
        <time>2019-10-14T14:28:26.000Z</time>
      </trkpt>
      <trkpt lat="45.64403" lon="6.78603">
        <ele>938.44</ele>
        <time>2019-10-14T14:28:31.000Z</time>
      </trkpt>
      <trkpt lat="45.64431" lon="6.78602">
        <ele>939.24</ele>
        <time>2019-10-14T14:28:36.000Z</time>
      </trkpt>
      <trkpt lat="45.64455" lon="6.78602">
        <ele>940.43</ele>
        <time>2019-10-14T14:28:41.000Z</time>
      </trkpt>
      <trkpt lat="45.64484" lon="6.78602">
        <ele>940.62</ele>
        <time>2019-10-14T14:28:46.000Z</time>
      </trkpt>
      <trkpt lat="45.64509" lon="6.786">
        <ele>943.86</ele>
        <time>2019-10-14T14:28:51.000Z</time>
      </trkpt>
      <trkpt lat="45.64538" lon="6.78594">
        <ele>947.25</ele>
        <time>2019-10-14T14:28:56.000Z</time>
      </trkpt>
      <trkpt lat="45.64565" lon="6.78582">
        <ele>945.72</ele>
        <time>2019-10-14T14:29:01.000Z</time>
      </trkpt>
      <trkpt lat="45.64591" lon="6.78583">
        <ele>948.69</ele>
        <time>2019-10-14T14:29:06.000Z</time>
      </trkpt>
      <trkpt lat="45.64624" lon="6.78589">
        <ele>950.53</ele>
        <time>2019-10-14T14:29:11.000Z</time>
      </trkpt>
      <trkpt lat="45.64651" lon="6.78596">
        <ele>951.39</ele>
        <time>2019-10-14T14:29:16.000Z</time>
      </trkpt>
      <trkpt lat="45.64673" lon="6.78601">
        <ele>954.83</ele>
        <time>2019-10-14T14:29:21.000Z</time>
      </trkpt>
      <trkpt lat="45.64702" lon="6.78595">
        <ele>959.62</ele>
        <time>2019-10-14T14:29:26.000Z</time>
      </trkpt>
      <trkpt lat="45.64731" lon="6.78597">
        <ele>961.35</ele>
        <time>2019-10-14T14:29:31.000Z</time>
      </trkpt>
      <trkpt lat="45.64756" lon="6.78602">
        <ele>962.79</ele>
        <time>2019-10-14T14:29:36.000Z</time>
      </trkpt>
      <trkpt lat="45.64777" lon="6.78612">
        <ele>964.54</ele>
        <time>2019-10-14T14:29:41.000Z</time>
      </trkpt>
      <trkpt lat="45.64798" lon="6.78623">
        <ele>965.11</ele>
        <time>2019-10-14T14:29:46.000Z</time>
      </trkpt>
      <trkpt lat="45.64817" lon="6.78635">
        <ele>970.78</ele>
        <time>2019-10-14T14:29:51.000Z</time>
      </trkpt>
      <trkpt lat="45.64837" lon="6.78649">
        <ele>976.35</ele>
        <time>2019-10-14T14:29:56.000Z</time>
      </trkpt>
      <trkpt lat="45.64855" lon="6.78662">
        <ele>975.74</ele>
        <time>2019-10-14T14:30:01.000Z</time>
      </trkpt>
      <trkpt lat="45.64873" lon="6.78675">
        <ele>974.42</ele>
        <time>2019-10-14T14:30:06.000Z</time>
      </trkpt>
      <trkpt lat="45.64891" lon="6.78685">
        <ele>973.99</ele>
        <time>2019-10-14T14:30:11.000Z</time>
      </trkpt>
      <trkpt lat="45.64904" lon="6.78699">
        <ele>975.23</ele>
        <time>2019-10-14T14:30:16.000Z</time>
      </trkpt>
      <trkpt lat="45.64914" lon="6.78715">
        <ele>970.27</ele>
        <time>2019-10-14T14:30:21.000Z</time>
      </trkpt>
      <trkpt lat="45.64931" lon="6.78728">
        <ele>972.28</ele>
        <time>2019-10-14T14:30:26.000Z</time>
      </trkpt>
      <trkpt lat="45.64949" lon="6.78738">
        <ele>975.98</ele>
        <time>2019-10-14T14:30:31.000Z</time>
      </trkpt>
      <trkpt lat="45.64964" lon="6.7875">
        <ele>978.06</ele>
        <time>2019-10-14T14:30:36.000Z</time>
      </trkpt>
      <trkpt lat="45.64982" lon="6.78761">
        <ele>977.31</ele>
        <time>2019-10-14T14:30:41.000Z</time>
      </trkpt>
      <trkpt lat="45.65001" lon="6.78772">
        <ele>976.61</ele>
        <time>2019-10-14T14:30:46.000Z</time>
      </trkpt>
      <trkpt lat="45.65017" lon="6.78779">
        <ele>979.24</ele>
        <time>2019-10-14T14:30:51.000Z</time>
      </trkpt>
      <trkpt lat="45.65034" lon="6.78781">
        <ele>978.84</ele>
        <time>2019-10-14T14:30:56.000Z</time>
      </trkpt>
      <trkpt lat="45.65051" lon="6.78778">
        <ele>981.98</ele>
        <time>2019-10-14T14:31:01.000Z</time>
      </trkpt>
      <trkpt lat="45.6507" lon="6.7877">
        <ele>983.36</ele>
        <time>2019-10-14T14:31:06.000Z</time>
      </trkpt>
      <trkpt lat="45.65087" lon="6.78768">
        <ele>986.97</ele>
        <time>2019-10-14T14:31:11.000Z</time>
      </trkpt>
      <trkpt lat="45.65104" lon="6.78766">
        <ele>985.94</ele>
        <time>2019-10-14T14:31:16.000Z</time>
      </trkpt>
      <trkpt lat="45.65123" lon="6.78762">
        <ele>987.64</ele>
        <time>2019-10-14T14:31:21.000Z</time>
      </trkpt>
      <trkpt lat="45.65141" lon="6.78759">
        <ele>988.65</ele>
        <time>2019-10-14T14:31:26.000Z</time>
      </trkpt>
      <trkpt lat="45.65158" lon="6.78753">
        <ele>991.83</ele>
        <time>2019-10-14T14:31:31.000Z</time>
      </trkpt>
      <trkpt lat="45.65175" lon="6.78744">
        <ele>994.29</ele>
        <time>2019-10-14T14:31:36.000Z</time>
      </trkpt>
      <trkpt lat="45.65191" lon="6.78732">
        <ele>996.8</ele>
        <time>2019-10-14T14:31:41.000Z</time>
      </trkpt>
      <trkpt lat="45.65208" lon="6.78719">
        <ele>996.69</ele>
        <time>2019-10-14T14:31:46.000Z</time>
      </trkpt>
      <trkpt lat="45.65222" lon="6.78705">
        <ele>999.9</ele>
        <time>2019-10-14T14:31:51.000Z</time>
      </trkpt>
      <trkpt lat="45.65239" lon="6.78693">
        <ele>1000.59</ele>
        <time>2019-10-14T14:31:56.000Z</time>
      </trkpt>
      <trkpt lat="45.65257" lon="6.78686">
        <ele>1000.82</ele>
        <time>2019-10-14T14:32:01.000Z</time>
      </trkpt>
      <trkpt lat="45.65273" lon="6.78675">
        <ele>1003.89</ele>
        <time>2019-10-14T14:32:06.000Z</time>
      </trkpt>
      <trkpt lat="45.65294" lon="6.78672">
        <ele>1002.86</ele>
        <time>2019-10-14T14:32:11.000Z</time>
      </trkpt>
      <trkpt lat="45.6531" lon="6.78677">
        <ele>1002.74</ele>
        <time>2019-10-14T14:32:16.000Z</time>
      </trkpt>
      <trkpt lat="45.65328" lon="6.7868">
        <ele>1005.65</ele>
        <time>2019-10-14T14:32:21.000Z</time>
      </trkpt>
      <trkpt lat="45.65352" lon="6.78677">
        <ele>1008.04</ele>
        <time>2019-10-14T14:32:26.000Z</time>
      </trkpt>
      <trkpt lat="45.65376" lon="6.78671">
        <ele>1007.11</ele>
        <time>2019-10-14T14:32:31.000Z</time>
      </trkpt>
      <trkpt lat="45.65395" lon="6.78664">
        <ele>1008.13</ele>
        <time>2019-10-14T14:32:36.000Z</time>
      </trkpt>
      <trkpt lat="45.65408" lon="6.78657">
        <ele>1009.96</ele>
        <time>2019-10-14T14:32:41.000Z</time>
      </trkpt>
      <trkpt lat="45.6542" lon="6.78647">
        <ele>1013.62</ele>
        <time>2019-10-14T14:32:46.000Z</time>
      </trkpt>
      <trkpt lat="45.65433" lon="6.7863">
        <ele>1016.02</ele>
        <time>2019-10-14T14:32:51.000Z</time>
      </trkpt>
      <trkpt lat="45.6545" lon="6.78614">
        <ele>1015.98</ele>
        <time>2019-10-14T14:32:56.000Z</time>
      </trkpt>
      <trkpt lat="45.65467" lon="6.78602">
        <ele>1015.7</ele>
        <time>2019-10-14T14:33:01.000Z</time>
      </trkpt>
      <trkpt lat="45.65475" lon="6.7858">
        <ele>1017.45</ele>
        <time>2019-10-14T14:33:06.000Z</time>
      </trkpt>
      <trkpt lat="45.65492" lon="6.78559">
        <ele>1015.16</ele>
        <time>2019-10-14T14:33:11.000Z</time>
      </trkpt>
      <trkpt lat="45.65504" lon="6.78544">
        <ele>1014.22</ele>
        <time>2019-10-14T14:33:16.000Z</time>
      </trkpt>
      <trkpt lat="45.6552" lon="6.78528">
        <ele>1018.57</ele>
        <time>2019-10-14T14:33:21.000Z</time>
      </trkpt>
      <trkpt lat="45.65534" lon="6.78513">
        <ele>1018.48</ele>
        <time>2019-10-14T14:33:26.000Z</time>
      </trkpt>
      <trkpt lat="45.65551" lon="6.78501">
        <ele>1017.93</ele>
        <time>2019-10-14T14:33:31.000Z</time>
      </trkpt>
      <trkpt lat="45.65567" lon="6.78485">
        <ele>1015.21</ele>
        <time>2019-10-14T14:33:36.000Z</time>
      </trkpt>
      <trkpt lat="45.65585" lon="6.78472">
        <ele>1014.81</ele>
        <time>2019-10-14T14:33:41.000Z</time>
      </trkpt>
      <trkpt lat="45.65598" lon="6.78456">
        <ele>1016.33</ele>
        <time>2019-10-14T14:33:46.000Z</time>
      </trkpt>
      <trkpt lat="45.65614" lon="6.7844">
        <ele>1015.79</ele>
        <time>2019-10-14T14:33:51.000Z</time>
      </trkpt>
      <trkpt lat="45.65625" lon="6.78419">
        <ele>1020.89</ele>
        <time>2019-10-14T14:33:56.000Z</time>
      </trkpt>
      <trkpt lat="45.65634" lon="6.78401">
        <ele>1020.92</ele>
        <time>2019-10-14T14:34:01.000Z</time>
      </trkpt>
      <trkpt lat="45.65649" lon="6.78392">
        <ele>1020.77</ele>
        <time>2019-10-14T14:34:06.000Z</time>
      </trkpt>
      <trkpt lat="45.65662" lon="6.7838">
        <ele>1023.62</ele>
        <time>2019-10-14T14:34:11.000Z</time>
      </trkpt>
      <trkpt lat="45.6568" lon="6.78373">
        <ele>1025.29</ele>
        <time>2019-10-14T14:34:16.000Z</time>
      </trkpt>
      <trkpt lat="45.65695" lon="6.78356">
        <ele>1031.31</ele>
        <time>2019-10-14T14:34:21.000Z</time>
      </trkpt>
      <trkpt lat="45.65713" lon="6.78343">
        <ele>1034.19</ele>
        <time>2019-10-14T14:34:26.000Z</time>
      </trkpt>
      <trkpt lat="45.65727" lon="6.7833">
        <ele>1036.41</ele>
        <time>2019-10-14T14:34:31.000Z</time>
      </trkpt>
      <trkpt lat="45.65743" lon="6.78313">
        <ele>1037.43</ele>
        <time>2019-10-14T14:34:36.000Z</time>
      </trkpt>
      <trkpt lat="45.6576" lon="6.78305">
        <ele>1037.64</ele>
        <time>2019-10-14T14:34:41.000Z</time>
      </trkpt>
      <trkpt lat="45.65773" lon="6.78298">
        <ele>1039.52</ele>
        <time>2019-10-14T14:34:46.000Z</time>
      </trkpt>
      <trkpt lat="45.65791" lon="6.78286">
        <ele>1042.16</ele>
        <time>2019-10-14T14:34:51.000Z</time>
      </trkpt>
      <trkpt lat="45.65809" lon="6.78279">
        <ele>1046.18</ele>
        <time>2019-10-14T14:34:56.000Z</time>
      </trkpt>
      <trkpt lat="45.65829" lon="6.78272">
        <ele>1051.51</ele>
        <time>2019-10-14T14:35:01.000Z</time>
      </trkpt>
      <trkpt lat="45.65847" lon="6.78269">
        <ele>1057.01</ele>
        <time>2019-10-14T14:35:06.000Z</time>
      </trkpt>
      <trkpt lat="45.65863" lon="6.78266">
        <ele>1062.33</ele>
        <time>2019-10-14T14:35:11.000Z</time>
      </trkpt>
      <trkpt lat="45.65881" lon="6.78261">
        <ele>1062.38</ele>
        <time>2019-10-14T14:35:16.000Z</time>
      </trkpt>
      <trkpt lat="45.65896" lon="6.78247">
        <ele>1061.97</ele>
        <time>2019-10-14T14:35:21.000Z</time>
      </trkpt>
      <trkpt lat="45.65904" lon="6.78229">
        <ele>1064.01</ele>
        <time>2019-10-14T14:35:26.000Z</time>
      </trkpt>
      <trkpt lat="45.65919" lon="6.78212">
        <ele>1062.13</ele>
        <time>2019-10-14T14:35:31.000Z</time>
      </trkpt>
      <trkpt lat="45.65932" lon="6.78193">
        <ele>1062.47</ele>
        <time>2019-10-14T14:35:36.000Z</time>
      </trkpt>
      <trkpt lat="45.65946" lon="6.78178">
        <ele>1063.66</ele>
        <time>2019-10-14T14:35:41.000Z</time>
      </trkpt>
      <trkpt lat="45.65963" lon="6.7817">
        <ele>1063.43</ele>
        <time>2019-10-14T14:35:46.000Z</time>
      </trkpt>
      <trkpt lat="45.65985" lon="6.78168">
        <ele>1062.01</ele>
        <time>2019-10-14T14:35:51.000Z</time>
      </trkpt>
      <trkpt lat="45.66003" lon="6.78168">
        <ele>1063.12</ele>
        <time>2019-10-14T14:35:56.000Z</time>
      </trkpt>
      <trkpt lat="45.66021" lon="6.78174">
        <ele>1069.01</ele>
        <time>2019-10-14T14:36:01.000Z</time>
      </trkpt>
      <trkpt lat="45.6604" lon="6.78177">
        <ele>1070.73</ele>
        <time>2019-10-14T14:36:06.000Z</time>
      </trkpt>
      <trkpt lat="45.66059" lon="6.78166">
        <ele>1072.42</ele>
        <time>2019-10-14T14:36:11.000Z</time>
      </trkpt>
      <trkpt lat="45.66076" lon="6.78153">
        <ele>1072.3</ele>
        <time>2019-10-14T14:36:16.000Z</time>
      </trkpt>
      <trkpt lat="45.66084" lon="6.78127">
        <ele>1074.15</ele>
        <time>2019-10-14T14:36:21.000Z</time>
      </trkpt>
      <trkpt lat="45.66094" lon="6.78105">
        <ele>1077.82</ele>
        <time>2019-10-14T14:36:26.000Z</time>
      </trkpt>
      <trkpt lat="45.66108" lon="6.78088">
        <ele>1076.7</ele>
        <time>2019-10-14T14:36:31.000Z</time>
      </trkpt>
      <trkpt lat="45.66123" lon="6.78077">
        <ele>1075.36</ele>
        <time>2019-10-14T14:36:36.000Z</time>
      </trkpt>
      <trkpt lat="45.6614" lon="6.78066">
        <ele>1078.44</ele>
        <time>2019-10-14T14:36:41.000Z</time>
      </trkpt>
      <trkpt lat="45.66154" lon="6.78055">
        <ele>1079.49</ele>
        <time>2019-10-14T14:36:46.000Z</time>
      </trkpt>
      <trkpt lat="45.66171" lon="6.7804">
        <ele>1081.39</ele>
        <time>2019-10-14T14:36:51.000Z</time>
      </trkpt>
      <trkpt lat="45.66189" lon="6.78024">
        <ele>1080.91</ele>
        <time>2019-10-14T14:36:56.000Z</time>
      </trkpt>
      <trkpt lat="45.66207" lon="6.78007">
        <ele>1084.33</ele>
        <time>2019-10-14T14:37:01.000Z</time>
      </trkpt>
      <trkpt lat="45.66224" lon="6.77987">
        <ele>1081.07</ele>
        <time>2019-10-14T14:37:06.000Z</time>
      </trkpt>
      <trkpt lat="45.66236" lon="6.77973">
        <ele>1078.93</ele>
        <time>2019-10-14T14:37:11.000Z</time>
      </trkpt>
      <trkpt lat="45.66249" lon="6.77956">
        <ele>1079.31</ele>
        <time>2019-10-14T14:37:16.000Z</time>
      </trkpt>
      <trkpt lat="45.66264" lon="6.77945">
        <ele>1082.2</ele>
        <time>2019-10-14T14:37:21.000Z</time>
      </trkpt>
      <trkpt lat="45.66279" lon="6.77936">
        <ele>1089.84</ele>
        <time>2019-10-14T14:37:26.000Z</time>
      </trkpt>
      <trkpt lat="45.66293" lon="6.77936">
        <ele>1098.81</ele>
        <time>2019-10-14T14:37:31.000Z</time>
      </trkpt>
      <trkpt lat="45.66312" lon="6.77936">
        <ele>1109.48</ele>
        <time>2019-10-14T14:37:36.000Z</time>
      </trkpt>
      <trkpt lat="45.66327" lon="6.77925">
        <ele>1119.27</ele>
        <time>2019-10-14T14:37:41.000Z</time>
      </trkpt>
      <trkpt lat="45.66339" lon="6.77906">
        <ele>1124.25</ele>
        <time>2019-10-14T14:37:46.000Z</time>
      </trkpt>
      <trkpt lat="45.66348" lon="6.77889">
        <ele>1126.26</ele>
        <time>2019-10-14T14:37:51.000Z</time>
      </trkpt>
      <trkpt lat="45.66359" lon="6.77863">
        <ele>1130.14</ele>
        <time>2019-10-14T14:37:56.000Z</time>
      </trkpt>
      <trkpt lat="45.66375" lon="6.77848">
        <ele>1131.11</ele>
        <time>2019-10-14T14:38:01.000Z</time>
      </trkpt>
      <trkpt lat="45.6639" lon="6.77835">
        <ele>1133.14</ele>
        <time>2019-10-14T14:38:06.000Z</time>
      </trkpt>
      <trkpt lat="45.66401" lon="6.77817">
        <ele>1133.39</ele>
        <time>2019-10-14T14:38:11.000Z</time>
      </trkpt>
      <trkpt lat="45.66417" lon="6.77798">
        <ele>1133.11</ele>
        <time>2019-10-14T14:38:16.000Z</time>
      </trkpt>
      <trkpt lat="45.66435" lon="6.77786">
        <ele>1130.64</ele>
        <time>2019-10-14T14:38:21.000Z</time>
      </trkpt>
      <trkpt lat="45.66453" lon="6.77774">
        <ele>1135.45</ele>
        <time>2019-10-14T14:38:26.000Z</time>
      </trkpt>
      <trkpt lat="45.66466" lon="6.77759">
        <ele>1137.62</ele>
        <time>2019-10-14T14:38:31.000Z</time>
      </trkpt>
      <trkpt lat="45.66483" lon="6.77743">
        <ele>1136.6</ele>
        <time>2019-10-14T14:38:36.000Z</time>
      </trkpt>
      <trkpt lat="45.66497" lon="6.77726">
        <ele>1137.26</ele>
        <time>2019-10-14T14:38:41.000Z</time>
      </trkpt>
      <trkpt lat="45.66508" lon="6.77706">
        <ele>1135.74</ele>
        <time>2019-10-14T14:38:46.000Z</time>
      </trkpt>
      <trkpt lat="45.66514" lon="6.77682">
        <ele>1135.07</ele>
        <time>2019-10-14T14:38:51.000Z</time>
      </trkpt>
      <trkpt lat="45.66515" lon="6.77651">
        <ele>1135.24</ele>
        <time>2019-10-14T14:38:56.000Z</time>
      </trkpt>
      <trkpt lat="45.66519" lon="6.77621">
        <ele>1131.71</ele>
        <time>2019-10-14T14:39:01.000Z</time>
      </trkpt>
      <trkpt lat="45.66525" lon="6.77595">
        <ele>1130.26</ele>
        <time>2019-10-14T14:39:06.000Z</time>
      </trkpt>
      <trkpt lat="45.66529" lon="6.77568">
        <ele>1131.43</ele>
        <time>2019-10-14T14:39:11.000Z</time>
      </trkpt>
      <trkpt lat="45.66535" lon="6.77541">
        <ele>1138.83</ele>
        <time>2019-10-14T14:39:16.000Z</time>
      </trkpt>
      <trkpt lat="45.66547" lon="6.77519">
        <ele>1143.92</ele>
        <time>2019-10-14T14:39:21.000Z</time>
      </trkpt>
      <trkpt lat="45.66563" lon="6.77506">
        <ele>1150.12</ele>
        <time>2019-10-14T14:39:26.000Z</time>
      </trkpt>
      <trkpt lat="45.66572" lon="6.77489">
        <ele>1151.04</ele>
        <time>2019-10-14T14:39:31.000Z</time>
      </trkpt>
      <trkpt lat="45.66584" lon="6.77471">
        <ele>1153.37</ele>
        <time>2019-10-14T14:39:36.000Z</time>
      </trkpt>
      <trkpt lat="45.66597" lon="6.7745">
        <ele>1155.24</ele>
        <time>2019-10-14T14:39:41.000Z</time>
      </trkpt>
      <trkpt lat="45.66614" lon="6.77433">
        <ele>1162.64</ele>
        <time>2019-10-14T14:39:46.000Z</time>
      </trkpt>
      <trkpt lat="45.6663" lon="6.77452">
        <ele>1162.16</ele>
        <time>2019-10-14T14:39:51.000Z</time>
      </trkpt>
      <trkpt lat="45.66621" lon="6.77481">
        <ele>1159.69</ele>
        <time>2019-10-14T14:39:56.000Z</time>
      </trkpt>
      <trkpt lat="45.66614" lon="6.77508">
        <ele>1161.53</ele>
        <time>2019-10-14T14:40:01.000Z</time>
      </trkpt>
      <trkpt lat="45.66623" lon="6.77532">
        <ele>1164.17</ele>
        <time>2019-10-14T14:40:06.000Z</time>
      </trkpt>
      <trkpt lat="45.66638" lon="6.77554">
        <ele>1169.47</ele>
        <time>2019-10-14T14:40:11.000Z</time>
      </trkpt>
      <trkpt lat="45.66649" lon="6.77585">
        <ele>1170.2</ele>
        <time>2019-10-14T14:40:16.000Z</time>
      </trkpt>
      <trkpt lat="45.66651" lon="6.77608">
        <ele>1169.31</ele>
        <time>2019-10-14T14:40:21.000Z</time>
      </trkpt>
      <trkpt lat="45.66665" lon="6.77609">
        <ele>1171.28</ele>
        <time>2019-10-14T14:40:26.000Z</time>
      </trkpt>
      <trkpt lat="45.66674" lon="6.77588">
        <ele>1171.3</ele>
        <time>2019-10-14T14:40:31.000Z</time>
      </trkpt>
      <trkpt lat="45.66675" lon="6.77559">
        <ele>1172.19</ele>
        <time>2019-10-14T14:40:36.000Z</time>
      </trkpt>
      <trkpt lat="45.66682" lon="6.77539">
        <ele>1171.76</ele>
        <time>2019-10-14T14:40:41.000Z</time>
      </trkpt>
      <trkpt lat="45.66688" lon="6.77518">
        <ele>1172.81</ele>
        <time>2019-10-14T14:40:46.000Z</time>
      </trkpt>
      <trkpt lat="45.66699" lon="6.77481">
        <ele>1173.75</ele>
        <time>2019-10-14T14:40:51.000Z</time>
      </trkpt>
      <trkpt lat="45.66712" lon="6.77456">
        <ele>1176.66</ele>
        <time>2019-10-14T14:40:56.000Z</time>
      </trkpt>
      <trkpt lat="45.66718" lon="6.77431">
        <ele>1179.87</ele>
        <time>2019-10-14T14:41:01.000Z</time>
      </trkpt>
      <trkpt lat="45.66715" lon="6.77412">
        <ele>1177.86</ele>
        <time>2019-10-14T14:41:06.000Z</time>
      </trkpt>
      <trkpt lat="45.6671" lon="6.77382">
        <ele>1177.11</ele>
        <time>2019-10-14T14:41:11.000Z</time>
      </trkpt>
      <trkpt lat="45.66702" lon="6.7736">
        <ele>1180.81</ele>
        <time>2019-10-14T14:41:16.000Z</time>
      </trkpt>
      <trkpt lat="45.66691" lon="6.77344">
        <ele>1182.16</ele>
        <time>2019-10-14T14:41:21.000Z</time>
      </trkpt>
      <trkpt lat="45.66683" lon="6.77322">
        <ele>1180.86</ele>
        <time>2019-10-14T14:41:26.000Z</time>
      </trkpt>
      <trkpt lat="45.66686" lon="6.77299">
        <ele>1183.93</ele>
        <time>2019-10-14T14:41:31.000Z</time>
      </trkpt>
      <trkpt lat="45.66698" lon="6.7727">
        <ele>1186.67</ele>
        <time>2019-10-14T14:41:36.000Z</time>
      </trkpt>
      <trkpt lat="45.66704" lon="6.77239">
        <ele>1181.86</ele>
        <time>2019-10-14T14:41:41.000Z</time>
      </trkpt>
      <trkpt lat="45.66709" lon="6.77206">
        <ele>1183.76</ele>
        <time>2019-10-14T14:41:46.000Z</time>
      </trkpt>
      <trkpt lat="45.66714" lon="6.7719">
        <ele>1184.87</ele>
        <time>2019-10-14T14:41:51.000Z</time>
      </trkpt>
      <trkpt lat="45.6671" lon="6.77222">
        <ele>1187.26</ele>
        <time>2019-10-14T14:41:56.000Z</time>
      </trkpt>
      <trkpt lat="45.66707" lon="6.7725">
        <ele>1192.41</ele>
        <time>2019-10-14T14:42:01.000Z</time>
      </trkpt>
      <trkpt lat="45.66714" lon="6.77273">
        <ele>1193.09</ele>
        <time>2019-10-14T14:42:06.000Z</time>
      </trkpt>
      <trkpt lat="45.66731" lon="6.77291">
        <ele>1192.4</ele>
        <time>2019-10-14T14:42:11.000Z</time>
      </trkpt>
      <trkpt lat="45.66743" lon="6.77314">
        <ele>1195.38</ele>
        <time>2019-10-14T14:42:16.000Z</time>
      </trkpt>
      <trkpt lat="45.66741" lon="6.77337">
        <ele>1194.09</ele>
        <time>2019-10-14T14:42:21.000Z</time>
      </trkpt>
      <trkpt lat="45.66738" lon="6.77365">
        <ele>1196.86</ele>
        <time>2019-10-14T14:42:26.000Z</time>
      </trkpt>
      <trkpt lat="45.66747" lon="6.77391">
        <ele>1198.33</ele>
        <time>2019-10-14T14:42:31.000Z</time>
      </trkpt>
      <trkpt lat="45.66761" lon="6.77409">
        <ele>1203.12</ele>
        <time>2019-10-14T14:42:36.000Z</time>
      </trkpt>
      <trkpt lat="45.66774" lon="6.77431">
        <ele>1201.44</ele>
        <time>2019-10-14T14:42:41.000Z</time>
      </trkpt>
      <trkpt lat="45.66781" lon="6.77454">
        <ele>1200.36</ele>
        <time>2019-10-14T14:42:46.000Z</time>
      </trkpt>
      <trkpt lat="45.66787" lon="6.77481">
        <ele>1199.72</ele>
        <time>2019-10-14T14:42:51.000Z</time>
      </trkpt>
      <trkpt lat="45.668" lon="6.7749">
        <ele>1201.19</ele>
        <time>2019-10-14T14:42:56.000Z</time>
      </trkpt>
      <trkpt lat="45.66803" lon="6.77461">
        <ele>1197.79</ele>
        <time>2019-10-14T14:43:01.000Z</time>
      </trkpt>
      <trkpt lat="45.66793" lon="6.77428">
        <ele>1195.88</ele>
        <time>2019-10-14T14:43:06.000Z</time>
      </trkpt>
      <trkpt lat="45.66788" lon="6.774">
        <ele>1197.65</ele>
        <time>2019-10-14T14:43:11.000Z</time>
      </trkpt>
      <trkpt lat="45.66783" lon="6.77379">
        <ele>1196.93</ele>
        <time>2019-10-14T14:43:16.000Z</time>
      </trkpt>
      <trkpt lat="45.66775" lon="6.77354">
        <ele>1198.56</ele>
        <time>2019-10-14T14:43:21.000Z</time>
      </trkpt>
      <trkpt lat="45.66772" lon="6.7733">
        <ele>1201.66</ele>
        <time>2019-10-14T14:43:26.000Z</time>
      </trkpt>
      <trkpt lat="45.66772" lon="6.77303">
        <ele>1204.25</ele>
        <time>2019-10-14T14:43:31.000Z</time>
      </trkpt>
      <trkpt lat="45.66776" lon="6.77273">
        <ele>1206.13</ele>
        <time>2019-10-14T14:43:36.000Z</time>
      </trkpt>
      <trkpt lat="45.66773" lon="6.77249">
        <ele>1207.64</ele>
        <time>2019-10-14T14:43:41.000Z</time>
      </trkpt>
      <trkpt lat="45.66779" lon="6.77222">
        <ele>1206.2</ele>
        <time>2019-10-14T14:43:46.000Z</time>
      </trkpt>
      <trkpt lat="45.66804" lon="6.77214">
        <ele>1204.79</ele>
        <time>2019-10-14T14:43:51.000Z</time>
      </trkpt>
      <trkpt lat="45.66814" lon="6.77211">
        <ele>1209.56</ele>
        <time>2019-10-14T14:43:56.000Z</time>
      </trkpt>
      <trkpt lat="45.66821" lon="6.77202">
        <ele>1210.06</ele>
        <time>2019-10-14T14:44:01.000Z</time>
      </trkpt>
      <trkpt lat="45.66823" lon="6.77171">
        <ele>1214.5</ele>
        <time>2019-10-14T14:44:06.000Z</time>
      </trkpt>
      <trkpt lat="45.66831" lon="6.77161">
        <ele>1219.66</ele>
        <time>2019-10-14T14:44:11.000Z</time>
      </trkpt>
      <trkpt lat="45.66832" lon="6.77193">
        <ele>1218.05</ele>
        <time>2019-10-14T14:44:16.000Z</time>
      </trkpt>
      <trkpt lat="45.66827" lon="6.77221">
        <ele>1216.48</ele>
        <time>2019-10-14T14:44:21.000Z</time>
      </trkpt>
      <trkpt lat="45.66817" lon="6.77244">
        <ele>1221.87</ele>
        <time>2019-10-14T14:44:26.000Z</time>
      </trkpt>
      <trkpt lat="45.66805" lon="6.77264">
        <ele>1221.84</ele>
        <time>2019-10-14T14:44:31.000Z</time>
      </trkpt>
      <trkpt lat="45.66814" lon="6.77293">
        <ele>1224.73</ele>
        <time>2019-10-14T14:44:36.000Z</time>
      </trkpt>
      <trkpt lat="45.66822" lon="6.77311">
        <ele>1228.82</ele>
        <time>2019-10-14T14:44:41.000Z</time>
      </trkpt>
      <trkpt lat="45.66828" lon="6.77337">
        <ele>1231.85</ele>
        <time>2019-10-14T14:44:46.000Z</time>
      </trkpt>
      <trkpt lat="45.66832" lon="6.7736">
        <ele>1229.65</ele>
        <time>2019-10-14T14:44:51.000Z</time>
      </trkpt>
      <trkpt lat="45.66836" lon="6.77383">
        <ele>1230.52</ele>
        <time>2019-10-14T14:44:56.000Z</time>
      </trkpt>
      <trkpt lat="45.6684" lon="6.7741">
        <ele>1234.55</ele>
        <time>2019-10-14T14:45:01.000Z</time>
      </trkpt>
      <trkpt lat="45.66848" lon="6.77436">
        <ele>1237.72</ele>
        <time>2019-10-14T14:45:06.000Z</time>
      </trkpt>
      <trkpt lat="45.6686" lon="6.77457">
        <ele>1238.48</ele>
        <time>2019-10-14T14:45:11.000Z</time>
      </trkpt>
      <trkpt lat="45.66872" lon="6.7747">
        <ele>1241.24</ele>
        <time>2019-10-14T14:45:16.000Z</time>
      </trkpt>
      <trkpt lat="45.66875" lon="6.77493">
        <ele>1239.67</ele>
        <time>2019-10-14T14:45:21.000Z</time>
      </trkpt>
      <trkpt lat="45.66867" lon="6.77514">
        <ele>1242.63</ele>
        <time>2019-10-14T14:45:26.000Z</time>
      </trkpt>
      <trkpt lat="45.66859" lon="6.77539">
        <ele>1244.73</ele>
        <time>2019-10-14T14:45:31.000Z</time>
      </trkpt>
      <trkpt lat="45.66875" lon="6.77545">
        <ele>1247.43</ele>
        <time>2019-10-14T14:45:36.000Z</time>
      </trkpt>
      <trkpt lat="45.66884" lon="6.77529">
        <ele>1254.44</ele>
        <time>2019-10-14T14:45:41.000Z</time>
      </trkpt>
      <trkpt lat="45.66887" lon="6.77502">
        <ele>1259.47</ele>
        <time>2019-10-14T14:45:46.000Z</time>
      </trkpt>
      <trkpt lat="45.66892" lon="6.77472">
        <ele>1261.63</ele>
        <time>2019-10-14T14:45:51.000Z</time>
      </trkpt>
      <trkpt lat="45.66883" lon="6.77442">
        <ele>1264.61</ele>
        <time>2019-10-14T14:45:56.000Z</time>
      </trkpt>
      <trkpt lat="45.66874" lon="6.77419">
        <ele>1266.87</ele>
        <time>2019-10-14T14:46:01.000Z</time>
      </trkpt>
      <trkpt lat="45.66877" lon="6.77392">
        <ele>1270.21</ele>
        <time>2019-10-14T14:46:06.000Z</time>
      </trkpt>
      <trkpt lat="45.66879" lon="6.7737">
        <ele>1276.48</ele>
        <time>2019-10-14T14:46:11.000Z</time>
      </trkpt>
      <trkpt lat="45.66876" lon="6.77348">
        <ele>1278.67</ele>
        <time>2019-10-14T14:46:16.000Z</time>
      </trkpt>
      <trkpt lat="45.66874" lon="6.77321">
        <ele>1281.47</ele>
        <time>2019-10-14T14:46:21.000Z</time>
      </trkpt>
      <trkpt lat="45.66873" lon="6.77296">
        <ele>1287.71</ele>
        <time>2019-10-14T14:46:26.000Z</time>
      </trkpt>
      <trkpt lat="45.66876" lon="6.77271">
        <ele>1293.41</ele>
        <time>2019-10-14T14:46:31.000Z</time>
      </trkpt>
      <trkpt lat="45.6688" lon="6.77242">
        <ele>1297.92</ele>
        <time>2019-10-14T14:46:36.000Z</time>
      </trkpt>
      <trkpt lat="45.66882" lon="6.77214">
        <ele>1296.7</ele>
        <time>2019-10-14T14:46:41.000Z</time>
      </trkpt>
      <trkpt lat="45.6688" lon="6.77196">
        <ele>1296.97</ele>
        <time>2019-10-14T14:46:46.000Z</time>
      </trkpt>
      <trkpt lat="45.66887" lon="6.77178">
        <ele>1298.27</ele>
        <time>2019-10-14T14:46:51.000Z</time>
      </trkpt>
      <trkpt lat="45.66883" lon="6.77191">
        <ele>1306.83</ele>
        <time>2019-10-14T14:47:54.000Z</time>
      </trkpt>
      <trkpt lat="45.66883" lon="6.77205">
        <ele>1306.55</ele>
        <time>2019-10-14T14:48:05.000Z</time>
      </trkpt>
      <trkpt lat="45.66887" lon="6.77192">
        <ele>1295.72</ele>
        <time>2019-10-14T14:48:25.000Z</time>
      </trkpt>
      <trkpt lat="45.6689" lon="6.7718">
        <ele>1299.84</ele>
        <time>2019-10-14T14:48:33.000Z</time>
      </trkpt>
      <trkpt lat="45.6689" lon="6.77193">
        <ele>1301.02</ele>
        <time>2019-10-14T14:50:25.000Z</time>
      </trkpt>
      <trkpt lat="45.6689" lon="6.77225">
        <ele>1304.04</ele>
        <time>2019-10-14T14:50:30.000Z</time>
      </trkpt>
      <trkpt lat="45.66889" lon="6.77253">
        <ele>1306.48</ele>
        <time>2019-10-14T14:50:35.000Z</time>
      </trkpt>
      <trkpt lat="45.66892" lon="6.77283">
        <ele>1307.59</ele>
        <time>2019-10-14T14:50:40.000Z</time>
      </trkpt>
      <trkpt lat="45.66895" lon="6.7731">
        <ele>1309.36</ele>
        <time>2019-10-14T14:50:45.000Z</time>
      </trkpt>
      <trkpt lat="45.66897" lon="6.77334">
        <ele>1312.93</ele>
        <time>2019-10-14T14:50:50.000Z</time>
      </trkpt>
      <trkpt lat="45.66906" lon="6.7736">
        <ele>1313.32</ele>
        <time>2019-10-14T14:50:55.000Z</time>
      </trkpt>
      <trkpt lat="45.66919" lon="6.77383">
        <ele>1314.33</ele>
        <time>2019-10-14T14:51:00.000Z</time>
      </trkpt>
      <trkpt lat="45.66921" lon="6.77413">
        <ele>1313.76</ele>
        <time>2019-10-14T14:51:05.000Z</time>
      </trkpt>
      <trkpt lat="45.66931" lon="6.7743">
        <ele>1311.61</ele>
        <time>2019-10-14T14:51:10.000Z</time>
      </trkpt>
      <trkpt lat="45.66939" lon="6.77405">
        <ele>1314.58</ele>
        <time>2019-10-14T14:51:15.000Z</time>
      </trkpt>
      <trkpt lat="45.66931" lon="6.77371">
        <ele>1318.07</ele>
        <time>2019-10-14T14:51:20.000Z</time>
      </trkpt>
      <trkpt lat="45.66929" lon="6.7734">
        <ele>1317.19</ele>
        <time>2019-10-14T14:51:25.000Z</time>
      </trkpt>
      <trkpt lat="45.66932" lon="6.77307">
        <ele>1317.33</ele>
        <time>2019-10-14T14:51:30.000Z</time>
      </trkpt>
      <trkpt lat="45.66932" lon="6.77281">
        <ele>1318.45</ele>
        <time>2019-10-14T14:51:35.000Z</time>
      </trkpt>
      <trkpt lat="45.66934" lon="6.77257">
        <ele>1318.86</ele>
        <time>2019-10-14T14:51:40.000Z</time>
      </trkpt>
      <trkpt lat="45.66938" lon="6.77233">
        <ele>1320.36</ele>
        <time>2019-10-14T14:51:45.000Z</time>
      </trkpt>
      <trkpt lat="45.66947" lon="6.77216">
        <ele>1321.61</ele>
        <time>2019-10-14T14:51:50.000Z</time>
      </trkpt>
      <trkpt lat="45.66958" lon="6.77192">
        <ele>1323.6</ele>
        <time>2019-10-14T14:51:55.000Z</time>
      </trkpt>
      <trkpt lat="45.66959" lon="6.77163">
        <ele>1324.94</ele>
        <time>2019-10-14T14:52:00.000Z</time>
      </trkpt>
      <trkpt lat="45.66975" lon="6.77158">
        <ele>1327.71</ele>
        <time>2019-10-14T14:52:05.000Z</time>
      </trkpt>
      <trkpt lat="45.66974" lon="6.77186">
        <ele>1330.24</ele>
        <time>2019-10-14T14:52:10.000Z</time>
      </trkpt>
      <trkpt lat="45.66967" lon="6.77218">
        <ele>1328.43</ele>
        <time>2019-10-14T14:52:15.000Z</time>
      </trkpt>
      <trkpt lat="45.66969" lon="6.77249">
        <ele>1330.52</ele>
        <time>2019-10-14T14:52:20.000Z</time>
      </trkpt>
      <trkpt lat="45.66972" lon="6.77279">
        <ele>1332.85</ele>
        <time>2019-10-14T14:52:25.000Z</time>
      </trkpt>
      <trkpt lat="45.66973" lon="6.77304">
        <ele>1338.82</ele>
        <time>2019-10-14T14:52:30.000Z</time>
      </trkpt>
      <trkpt lat="45.66975" lon="6.77328">
        <ele>1337.85</ele>
        <time>2019-10-14T14:52:35.000Z</time>
      </trkpt>
      <trkpt lat="45.66977" lon="6.77354">
        <ele>1337.94</ele>
        <time>2019-10-14T14:52:40.000Z</time>
      </trkpt>
      <trkpt lat="45.66981" lon="6.7738">
        <ele>1338.65</ele>
        <time>2019-10-14T14:52:45.000Z</time>
      </trkpt>
      <trkpt lat="45.66983" lon="6.77408">
        <ele>1336.59</ele>
        <time>2019-10-14T14:52:50.000Z</time>
      </trkpt>
      <trkpt lat="45.66978" lon="6.77432">
        <ele>1340.75</ele>
        <time>2019-10-14T14:52:55.000Z</time>
      </trkpt>
      <trkpt lat="45.66981" lon="6.77458">
        <ele>1342.35</ele>
        <time>2019-10-14T14:53:00.000Z</time>
      </trkpt>
      <trkpt lat="45.66992" lon="6.77443">
        <ele>1341.54</ele>
        <time>2019-10-14T14:53:05.000Z</time>
      </trkpt>
      <trkpt lat="45.66998" lon="6.77414">
        <ele>1342.28</ele>
        <time>2019-10-14T14:53:10.000Z</time>
      </trkpt>
      <trkpt lat="45.67007" lon="6.7739">
        <ele>1345.94</ele>
        <time>2019-10-14T14:53:15.000Z</time>
      </trkpt>
      <trkpt lat="45.67013" lon="6.7736">
        <ele>1348.66</ele>
        <time>2019-10-14T14:53:20.000Z</time>
      </trkpt>
      <trkpt lat="45.67017" lon="6.77331">
        <ele>1350.14</ele>
        <time>2019-10-14T14:53:25.000Z</time>
      </trkpt>
      <trkpt lat="45.67018" lon="6.77302">
        <ele>1352.72</ele>
        <time>2019-10-14T14:53:30.000Z</time>
      </trkpt>
      <trkpt lat="45.67017" lon="6.77274">
        <ele>1353.25</ele>
        <time>2019-10-14T14:53:35.000Z</time>
      </trkpt>
      <trkpt lat="45.67015" lon="6.77249">
        <ele>1353.75</ele>
        <time>2019-10-14T14:53:40.000Z</time>
      </trkpt>
      <trkpt lat="45.67015" lon="6.77224">
        <ele>1352.86</ele>
        <time>2019-10-14T14:53:45.000Z</time>
      </trkpt>
      <trkpt lat="45.67016" lon="6.77201">
        <ele>1354.5</ele>
        <time>2019-10-14T14:53:50.000Z</time>
      </trkpt>
      <trkpt lat="45.67019" lon="6.77186">
        <ele>1355.17</ele>
        <time>2019-10-14T14:53:55.000Z</time>
      </trkpt>
      <trkpt lat="45.67021" lon="6.77165">
        <ele>1357.97</ele>
        <time>2019-10-14T14:54:00.000Z</time>
      </trkpt>
      <trkpt lat="45.67029" lon="6.77142">
        <ele>1355.08</ele>
        <time>2019-10-14T14:54:05.000Z</time>
      </trkpt>
      <trkpt lat="45.67035" lon="6.7712">
        <ele>1357.1</ele>
        <time>2019-10-14T14:54:10.000Z</time>
      </trkpt>
      <trkpt lat="45.6705" lon="6.77092">
        <ele>1361.6</ele>
        <time>2019-10-14T14:54:15.000Z</time>
      </trkpt>
      <trkpt lat="45.67042" lon="6.77065">
        <ele>1366.17</ele>
        <time>2019-10-14T14:54:20.000Z</time>
      </trkpt>
      <trkpt lat="45.67029" lon="6.77038">
        <ele>1365.04</ele>
        <time>2019-10-14T14:54:25.000Z</time>
      </trkpt>
      <trkpt lat="45.6703" lon="6.7701">
        <ele>1365.17</ele>
        <time>2019-10-14T14:54:30.000Z</time>
      </trkpt>
      <trkpt lat="45.67038" lon="6.76996">
        <ele>1365.98</ele>
        <time>2019-10-14T14:54:35.000Z</time>
      </trkpt>
      <trkpt lat="45.67048" lon="6.76973">
        <ele>1367.84</ele>
        <time>2019-10-14T14:54:40.000Z</time>
      </trkpt>
      <trkpt lat="45.67061" lon="6.76961">
        <ele>1369.5</ele>
        <time>2019-10-14T14:54:45.000Z</time>
      </trkpt>
      <trkpt lat="45.67071" lon="6.76945">
        <ele>1367.39</ele>
        <time>2019-10-14T14:54:50.000Z</time>
      </trkpt>
      <trkpt lat="45.67077" lon="6.76921">
        <ele>1369.39</ele>
        <time>2019-10-14T14:54:55.000Z</time>
      </trkpt>
      <trkpt lat="45.67088" lon="6.769">
        <ele>1369.18</ele>
        <time>2019-10-14T14:55:00.000Z</time>
      </trkpt>
      <trkpt lat="45.67096" lon="6.76879">
        <ele>1374.89</ele>
        <time>2019-10-14T14:55:05.000Z</time>
      </trkpt>
      <trkpt lat="45.67099" lon="6.76854">
        <ele>1376.77</ele>
        <time>2019-10-14T14:55:10.000Z</time>
      </trkpt>
      <trkpt lat="45.671" lon="6.76832">
        <ele>1378.78</ele>
        <time>2019-10-14T14:55:15.000Z</time>
      </trkpt>
      <trkpt lat="45.67101" lon="6.76815">
        <ele>1380.53</ele>
        <time>2019-10-14T14:55:20.000Z</time>
      </trkpt>
      <trkpt lat="45.6711" lon="6.76786">
        <ele>1379.22</ele>
        <time>2019-10-14T14:55:25.000Z</time>
      </trkpt>
      <trkpt lat="45.67113" lon="6.76761">
        <ele>1376.33</ele>
        <time>2019-10-14T14:55:30.000Z</time>
      </trkpt>
      <trkpt lat="45.67105" lon="6.76735">
        <ele>1379.36</ele>
        <time>2019-10-14T14:55:35.000Z</time>
      </trkpt>
      <trkpt lat="45.67101" lon="6.76706">
        <ele>1385.08</ele>
        <time>2019-10-14T14:55:40.000Z</time>
      </trkpt>
      <trkpt lat="45.67104" lon="6.7669">
        <ele>1386.32</ele>
        <time>2019-10-14T14:55:45.000Z</time>
      </trkpt>
      <trkpt lat="45.67109" lon="6.76664">
        <ele>1385.7</ele>
        <time>2019-10-14T14:55:50.000Z</time>
      </trkpt>
      <trkpt lat="45.6711" lon="6.76641">
        <ele>1385.02</ele>
        <time>2019-10-14T14:55:55.000Z</time>
      </trkpt>
      <trkpt lat="45.67111" lon="6.76612">
        <ele>1388.03</ele>
        <time>2019-10-14T14:56:00.000Z</time>
      </trkpt>
      <trkpt lat="45.67112" lon="6.76582">
        <ele>1382.07</ele>
        <time>2019-10-14T14:56:05.000Z</time>
      </trkpt>
      <trkpt lat="45.67113" lon="6.76556">
        <ele>1384.23</ele>
        <time>2019-10-14T14:56:10.000Z</time>
      </trkpt>
      <trkpt lat="45.67109" lon="6.76527">
        <ele>1387.85</ele>
        <time>2019-10-14T14:56:15.000Z</time>
      </trkpt>
      <trkpt lat="45.67117" lon="6.76508">
        <ele>1384.08</ele>
        <time>2019-10-14T14:56:20.000Z</time>
      </trkpt>
      <trkpt lat="45.67131" lon="6.76489">
        <ele>1385.13</ele>
        <time>2019-10-14T14:56:25.000Z</time>
      </trkpt>
      <trkpt lat="45.67134" lon="6.76458">
        <ele>1383.55</ele>
        <time>2019-10-14T14:56:30.000Z</time>
      </trkpt>
      <trkpt lat="45.6713" lon="6.76429">
        <ele>1379.43</ele>
        <time>2019-10-14T14:56:35.000Z</time>
      </trkpt>
      <trkpt lat="45.67125" lon="6.76406">
        <ele>1380.43</ele>
        <time>2019-10-14T14:56:40.000Z</time>
      </trkpt>
      <trkpt lat="45.67121" lon="6.76385">
        <ele>1377.06</ele>
        <time>2019-10-14T14:56:45.000Z</time>
      </trkpt>
      <trkpt lat="45.67117" lon="6.76364">
        <ele>1378.91</ele>
        <time>2019-10-14T14:56:50.000Z</time>
      </trkpt>
      <trkpt lat="45.67116" lon="6.76342">
        <ele>1380.73</ele>
        <time>2019-10-14T14:56:55.000Z</time>
      </trkpt>
      <trkpt lat="45.67123" lon="6.76319">
        <ele>1383.98</ele>
        <time>2019-10-14T14:57:00.000Z</time>
      </trkpt>
      <trkpt lat="45.67127" lon="6.76296">
        <ele>1387.58</ele>
        <time>2019-10-14T14:57:05.000Z</time>
      </trkpt>
      <trkpt lat="45.67127" lon="6.76275">
        <ele>1392.76</ele>
        <time>2019-10-14T14:57:10.000Z</time>
      </trkpt>
      <trkpt lat="45.67126" lon="6.7625">
        <ele>1397.07</ele>
        <time>2019-10-14T14:57:15.000Z</time>
      </trkpt>
      <trkpt lat="45.67128" lon="6.76226">
        <ele>1398.1</ele>
        <time>2019-10-14T14:57:20.000Z</time>
      </trkpt>
      <trkpt lat="45.6713" lon="6.76199">
        <ele>1402.56</ele>
        <time>2019-10-14T14:57:25.000Z</time>
      </trkpt>
      <trkpt lat="45.67128" lon="6.76178">
        <ele>1402.03</ele>
        <time>2019-10-14T14:57:30.000Z</time>
      </trkpt>
      <trkpt lat="45.67127" lon="6.76153">
        <ele>1402.24</ele>
        <time>2019-10-14T14:57:35.000Z</time>
      </trkpt>
      <trkpt lat="45.67128" lon="6.76135">
        <ele>1403.09</ele>
        <time>2019-10-14T14:57:40.000Z</time>
      </trkpt>
      <trkpt lat="45.6713" lon="6.7611">
        <ele>1401.65</ele>
        <time>2019-10-14T14:57:45.000Z</time>
      </trkpt>
      <trkpt lat="45.67132" lon="6.76081">
        <ele>1398.21</ele>
        <time>2019-10-14T14:57:50.000Z</time>
      </trkpt>
      <trkpt lat="45.67125" lon="6.76061">
        <ele>1397.65</ele>
        <time>2019-10-14T14:57:55.000Z</time>
      </trkpt>
      <trkpt lat="45.67119" lon="6.76042">
        <ele>1393.77</ele>
        <time>2019-10-14T14:58:00.000Z</time>
      </trkpt>
      <trkpt lat="45.6712" lon="6.76017">
        <ele>1392.14</ele>
        <time>2019-10-14T14:58:05.000Z</time>
      </trkpt>
      <trkpt lat="45.67118" lon="6.75993">
        <ele>1389.06</ele>
        <time>2019-10-14T14:58:10.000Z</time>
      </trkpt>
      <trkpt lat="45.67107" lon="6.75964">
        <ele>1389.73</ele>
        <time>2019-10-14T14:58:15.000Z</time>
      </trkpt>
      <trkpt lat="45.67094" lon="6.75949">
        <ele>1387.86</ele>
        <time>2019-10-14T14:58:20.000Z</time>
      </trkpt>
      <trkpt lat="45.67079" lon="6.75934">
        <ele>1386.98</ele>
        <time>2019-10-14T14:58:25.000Z</time>
      </trkpt>
      <trkpt lat="45.6707" lon="6.75916">
        <ele>1388.97</ele>
        <time>2019-10-14T14:58:30.000Z</time>
      </trkpt>
      <trkpt lat="45.67063" lon="6.75893">
        <ele>1391.28</ele>
        <time>2019-10-14T14:58:35.000Z</time>
      </trkpt>
      <trkpt lat="45.6707" lon="6.7587">
        <ele>1400.95</ele>
        <time>2019-10-14T14:58:40.000Z</time>
      </trkpt>
      <trkpt lat="45.67082" lon="6.75854">
        <ele>1407.68</ele>
        <time>2019-10-14T14:58:45.000Z</time>
      </trkpt>
      <trkpt lat="45.67093" lon="6.75818">
        <ele>1413.55</ele>
        <time>2019-10-14T14:58:50.000Z</time>
      </trkpt>
      <trkpt lat="45.67103" lon="6.75783">
        <ele>1417.75</ele>
        <time>2019-10-14T14:58:55.000Z</time>
      </trkpt>
      <trkpt lat="45.67124" lon="6.75756">
        <ele>1424.77</ele>
        <time>2019-10-14T14:59:00.000Z</time>
      </trkpt>
      <trkpt lat="45.67152" lon="6.75758">
        <ele>1430.05</ele>
        <time>2019-10-14T14:59:05.000Z</time>
      </trkpt>
      <trkpt lat="45.67179" lon="6.75764">
        <ele>1435.52</ele>
        <time>2019-10-14T14:59:10.000Z</time>
      </trkpt>
      <trkpt lat="45.67211" lon="6.7575">
        <ele>1437.73</ele>
        <time>2019-10-14T14:59:15.000Z</time>
      </trkpt>
      <trkpt lat="45.67238" lon="6.75731">
        <ele>1439.26</ele>
        <time>2019-10-14T14:59:20.000Z</time>
      </trkpt>
      <trkpt lat="45.67264" lon="6.75699">
        <ele>1438.62</ele>
        <time>2019-10-14T14:59:25.000Z</time>
      </trkpt>
      <trkpt lat="45.67287" lon="6.75663">
        <ele>1443.57</ele>
        <time>2019-10-14T14:59:30.000Z</time>
      </trkpt>
      <trkpt lat="45.67302" lon="6.75625">
        <ele>1447.29</ele>
        <time>2019-10-14T14:59:35.000Z</time>
      </trkpt>
      <trkpt lat="45.67317" lon="6.75585">
        <ele>1450.6</ele>
        <time>2019-10-14T14:59:40.000Z</time>
      </trkpt>
      <trkpt lat="45.67327" lon="6.75542">
        <ele>1452.05</ele>
        <time>2019-10-14T14:59:45.000Z</time>
      </trkpt>
      <trkpt lat="45.67349" lon="6.7551">
        <ele>1451.6</ele>
        <time>2019-10-14T14:59:50.000Z</time>
      </trkpt>
      <trkpt lat="45.67377" lon="6.75483">
        <ele>1454.07</ele>
        <time>2019-10-14T14:59:55.000Z</time>
      </trkpt>
      <trkpt lat="45.67401" lon="6.75447">
        <ele>1454.1</ele>
        <time>2019-10-14T15:00:00.000Z</time>
      </trkpt>
      <trkpt lat="45.67414" lon="6.75406">
        <ele>1450.45</ele>
        <time>2019-10-14T15:00:05.000Z</time>
      </trkpt>
      <trkpt lat="45.67423" lon="6.75365">
        <ele>1445.46</ele>
        <time>2019-10-14T15:00:10.000Z</time>
      </trkpt>
      <trkpt lat="45.67416" lon="6.75327">
        <ele>1443.01</ele>
        <time>2019-10-14T15:00:15.000Z</time>
      </trkpt>
      <trkpt lat="45.67412" lon="6.75292">
        <ele>1441.87</ele>
        <time>2019-10-14T15:00:20.000Z</time>
      </trkpt>
      <trkpt lat="45.6741" lon="6.75262">
        <ele>1435.27</ele>
        <time>2019-10-14T15:00:25.000Z</time>
      </trkpt>
      <trkpt lat="45.67413" lon="6.75248">
        <ele>1434.34</ele>
        <time>2019-10-14T15:00:31.000Z</time>
      </trkpt>
      <trkpt lat="45.67416" lon="6.75234">
        <ele>1425.53</ele>
        <time>2019-10-14T15:01:21.000Z</time>
      </trkpt>
      <trkpt lat="45.67419" lon="6.75206">
        <ele>1426.01</ele>
        <time>2019-10-14T15:01:26.000Z</time>
      </trkpt>
      <trkpt lat="45.67421" lon="6.75182">
        <ele>1424.46</ele>
        <time>2019-10-14T15:01:31.000Z</time>
      </trkpt>
      <trkpt lat="45.67431" lon="6.75155">
        <ele>1428.16</ele>
        <time>2019-10-14T15:01:36.000Z</time>
      </trkpt>
      <trkpt lat="45.67448" lon="6.75136">
        <ele>1432.09</ele>
        <time>2019-10-14T15:01:41.000Z</time>
      </trkpt>
      <trkpt lat="45.67468" lon="6.75116">
        <ele>1432.77</ele>
        <time>2019-10-14T15:01:46.000Z</time>
      </trkpt>
      <trkpt lat="45.67484" lon="6.75091">
        <ele>1436.98</ele>
        <time>2019-10-14T15:01:51.000Z</time>
      </trkpt>
      <trkpt lat="45.675" lon="6.75071">
        <ele>1441.11</ele>
        <time>2019-10-14T15:01:56.000Z</time>
      </trkpt>
      <trkpt lat="45.67521" lon="6.75052">
        <ele>1445.1</ele>
        <time>2019-10-14T15:02:01.000Z</time>
      </trkpt>
      <trkpt lat="45.67542" lon="6.75029">
        <ele>1447.89</ele>
        <time>2019-10-14T15:02:06.000Z</time>
      </trkpt>
      <trkpt lat="45.67558" lon="6.75002">
        <ele>1449.78</ele>
        <time>2019-10-14T15:02:11.000Z</time>
      </trkpt>
      <trkpt lat="45.67567" lon="6.74975">
        <ele>1449.38</ele>
        <time>2019-10-14T15:02:16.000Z</time>
      </trkpt>
      <trkpt lat="45.67572" lon="6.74947">
        <ele>1449.5</ele>
        <time>2019-10-14T15:02:21.000Z</time>
      </trkpt>
      <trkpt lat="45.67574" lon="6.74922">
        <ele>1446.06</ele>
        <time>2019-10-14T15:02:26.000Z</time>
      </trkpt>
      <trkpt lat="45.67572" lon="6.7489">
        <ele>1448.06</ele>
        <time>2019-10-14T15:02:31.000Z</time>
      </trkpt>
      <trkpt lat="45.67572" lon="6.74861">
        <ele>1447.52</ele>
        <time>2019-10-14T15:02:36.000Z</time>
      </trkpt>
      <trkpt lat="45.67581" lon="6.74837">
        <ele>1448.52</ele>
        <time>2019-10-14T15:02:41.000Z</time>
      </trkpt>
      <trkpt lat="45.67593" lon="6.74815">
        <ele>1443.43</ele>
        <time>2019-10-14T15:02:46.000Z</time>
      </trkpt>
      <trkpt lat="45.67602" lon="6.74789">
        <ele>1444.54</ele>
        <time>2019-10-14T15:02:51.000Z</time>
      </trkpt>
      <trkpt lat="45.6761" lon="6.74763">
        <ele>1448.15</ele>
        <time>2019-10-14T15:02:56.000Z</time>
      </trkpt>
      <trkpt lat="45.67623" lon="6.74736">
        <ele>1448.99</ele>
        <time>2019-10-14T15:03:01.000Z</time>
      </trkpt>
      <trkpt lat="45.67638" lon="6.74714">
        <ele>1452.7</ele>
        <time>2019-10-14T15:03:06.000Z</time>
      </trkpt>
      <trkpt lat="45.67659" lon="6.74699">
        <ele>1457.68</ele>
        <time>2019-10-14T15:03:11.000Z</time>
      </trkpt>
      <trkpt lat="45.67678" lon="6.74687">
        <ele>1456.56</ele>
        <time>2019-10-14T15:03:16.000Z</time>
      </trkpt>
      <trkpt lat="45.677" lon="6.74669">
        <ele>1459.51</ele>
        <time>2019-10-14T15:03:21.000Z</time>
      </trkpt>
      <trkpt lat="45.67717" lon="6.74652">
        <ele>1459.82</ele>
        <time>2019-10-14T15:03:26.000Z</time>
      </trkpt>
      <trkpt lat="45.67726" lon="6.74626">
        <ele>1460.9</ele>
        <time>2019-10-14T15:03:31.000Z</time>
      </trkpt>
      <trkpt lat="45.67741" lon="6.74596">
        <ele>1456.26</ele>
        <time>2019-10-14T15:03:36.000Z</time>
      </trkpt>
      <trkpt lat="45.6775" lon="6.74575">
        <ele>1450.39</ele>
        <time>2019-10-14T15:03:41.000Z</time>
      </trkpt>
      <trkpt lat="45.67758" lon="6.74546">
        <ele>1447.4</ele>
        <time>2019-10-14T15:03:46.000Z</time>
      </trkpt>
      <trkpt lat="45.67768" lon="6.74522">
        <ele>1450.25</ele>
        <time>2019-10-14T15:03:51.000Z</time>
      </trkpt>
      <trkpt lat="45.67777" lon="6.74496">
        <ele>1450.96</ele>
        <time>2019-10-14T15:03:56.000Z</time>
      </trkpt>
      <trkpt lat="45.67786" lon="6.74469">
        <ele>1454.67</ele>
        <time>2019-10-14T15:04:01.000Z</time>
      </trkpt>
      <trkpt lat="45.67795" lon="6.74436">
        <ele>1456.44</ele>
        <time>2019-10-14T15:04:06.000Z</time>
      </trkpt>
      <trkpt lat="45.67806" lon="6.74407">
        <ele>1458.47</ele>
        <time>2019-10-14T15:04:11.000Z</time>
      </trkpt>
      <trkpt lat="45.67818" lon="6.74383">
        <ele>1460.04</ele>
        <time>2019-10-14T15:04:16.000Z</time>
      </trkpt>
      <trkpt lat="45.67826" lon="6.74359">
        <ele>1458.78</ele>
        <time>2019-10-14T15:04:21.000Z</time>
      </trkpt>
      <trkpt lat="45.67838" lon="6.74338">
        <ele>1463.8</ele>
        <time>2019-10-14T15:04:26.000Z</time>
      </trkpt>
      <trkpt lat="45.67851" lon="6.7432">
        <ele>1465.19</ele>
        <time>2019-10-14T15:04:31.000Z</time>
      </trkpt>
      <trkpt lat="45.67862" lon="6.74301">
        <ele>1466.11</ele>
        <time>2019-10-14T15:04:36.000Z</time>
      </trkpt>
      <trkpt lat="45.67879" lon="6.74284">
        <ele>1471.31</ele>
        <time>2019-10-14T15:04:41.000Z</time>
      </trkpt>
      <trkpt lat="45.67893" lon="6.74265">
        <ele>1474.52</ele>
        <time>2019-10-14T15:04:46.000Z</time>
      </trkpt>
      <trkpt lat="45.67908" lon="6.74246">
        <ele>1476.63</ele>
        <time>2019-10-14T15:04:51.000Z</time>
      </trkpt>
      <trkpt lat="45.67924" lon="6.74229">
        <ele>1481.48</ele>
        <time>2019-10-14T15:04:56.000Z</time>
      </trkpt>
      <trkpt lat="45.67937" lon="6.74211">
        <ele>1483.57</ele>
        <time>2019-10-14T15:05:01.000Z</time>
      </trkpt>
      <trkpt lat="45.67953" lon="6.74193">
        <ele>1485.95</ele>
        <time>2019-10-14T15:05:06.000Z</time>
      </trkpt>
      <trkpt lat="45.67966" lon="6.74175">
        <ele>1489.18</ele>
        <time>2019-10-14T15:05:11.000Z</time>
      </trkpt>
      <trkpt lat="45.67979" lon="6.74156">
        <ele>1491.4</ele>
        <time>2019-10-14T15:05:16.000Z</time>
      </trkpt>
      <trkpt lat="45.67993" lon="6.74138">
        <ele>1497.04</ele>
        <time>2019-10-14T15:05:21.000Z</time>
      </trkpt>
      <trkpt lat="45.6801" lon="6.74121">
        <ele>1499.35</ele>
        <time>2019-10-14T15:05:26.000Z</time>
      </trkpt>
      <trkpt lat="45.68023" lon="6.74104">
        <ele>1502.2</ele>
        <time>2019-10-14T15:05:31.000Z</time>
      </trkpt>
      <trkpt lat="45.68038" lon="6.74086">
        <ele>1501.12</ele>
        <time>2019-10-14T15:05:36.000Z</time>
      </trkpt>
      <trkpt lat="45.68053" lon="6.7407">
        <ele>1500.21</ele>
        <time>2019-10-14T15:05:41.000Z</time>
      </trkpt>
      <trkpt lat="45.68069" lon="6.74056">
        <ele>1502.07</ele>
        <time>2019-10-14T15:05:46.000Z</time>
      </trkpt>
      <trkpt lat="45.68079" lon="6.74038">
        <ele>1503.15</ele>
        <time>2019-10-14T15:05:51.000Z</time>
      </trkpt>
      <trkpt lat="45.68092" lon="6.74022">
        <ele>1504.75</ele>
        <time>2019-10-14T15:05:56.000Z</time>
      </trkpt>
      <trkpt lat="45.68106" lon="6.74005">
        <ele>1504.49</ele>
        <time>2019-10-14T15:06:01.000Z</time>
      </trkpt>
      <trkpt lat="45.6812" lon="6.73993">
        <ele>1503.69</ele>
        <time>2019-10-14T15:06:06.000Z</time>
      </trkpt>
      <trkpt lat="45.68138" lon="6.73978">
        <ele>1506.09</ele>
        <time>2019-10-14T15:06:11.000Z</time>
      </trkpt>
      <trkpt lat="45.68157" lon="6.73968">
        <ele>1510.72</ele>
        <time>2019-10-14T15:06:16.000Z</time>
      </trkpt>
      <trkpt lat="45.68174" lon="6.73959">
        <ele>1510.82</ele>
        <time>2019-10-14T15:06:21.000Z</time>
      </trkpt>
      <trkpt lat="45.68191" lon="6.73946">
        <ele>1517.41</ele>
        <time>2019-10-14T15:06:26.000Z</time>
      </trkpt>
      <trkpt lat="45.68208" lon="6.73937">
        <ele>1514.57</ele>
        <time>2019-10-14T15:06:31.000Z</time>
      </trkpt>
      <trkpt lat="45.68221" lon="6.73918">
        <ele>1510.51</ele>
        <time>2019-10-14T15:06:36.000Z</time>
      </trkpt>
      <trkpt lat="45.68229" lon="6.73901">
        <ele>1507.74</ele>
        <time>2019-10-14T15:06:41.000Z</time>
      </trkpt>
      <trkpt lat="45.68244" lon="6.73877">
        <ele>1508.06</ele>
        <time>2019-10-14T15:06:46.000Z</time>
      </trkpt>
      <trkpt lat="45.68255" lon="6.73853">
        <ele>1505.58</ele>
        <time>2019-10-14T15:06:51.000Z</time>
      </trkpt>
      <trkpt lat="45.6827" lon="6.73829">
        <ele>1503.35</ele>
        <time>2019-10-14T15:06:56.000Z</time>
      </trkpt>
      <trkpt lat="45.68286" lon="6.73798">
        <ele>1508.13</ele>
        <time>2019-10-14T15:07:01.000Z</time>
      </trkpt>
      <trkpt lat="45.68314" lon="6.73774">
        <ele>1514.62</ele>
        <time>2019-10-14T15:07:06.000Z</time>
      </trkpt>
      <trkpt lat="45.68338" lon="6.73752">
        <ele>1512.18</ele>
        <time>2019-10-14T15:07:11.000Z</time>
      </trkpt>
      <trkpt lat="45.68368" lon="6.73736">
        <ele>1515.78</ele>
        <time>2019-10-14T15:07:16.000Z</time>
      </trkpt>
      <trkpt lat="45.68396" lon="6.73734">
        <ele>1518.46</ele>
        <time>2019-10-14T15:07:21.000Z</time>
      </trkpt>
      <trkpt lat="45.68424" lon="6.73729">
        <ele>1518.72</ele>
        <time>2019-10-14T15:07:26.000Z</time>
      </trkpt>
      <trkpt lat="45.68449" lon="6.73716">
        <ele>1515.27</ele>
        <time>2019-10-14T15:07:31.000Z</time>
      </trkpt>
      <trkpt lat="45.68475" lon="6.73701">
        <ele>1514.1</ele>
        <time>2019-10-14T15:07:36.000Z</time>
      </trkpt>
      <trkpt lat="45.68501" lon="6.7368">
        <ele>1518.26</ele>
        <time>2019-10-14T15:07:41.000Z</time>
      </trkpt>
      <trkpt lat="45.68524" lon="6.73664">
        <ele>1516.85</ele>
        <time>2019-10-14T15:07:46.000Z</time>
      </trkpt>
      <trkpt lat="45.68516" lon="6.73674">
        <ele>1525.59</ele>
        <time>2019-10-14T15:08:04.000Z</time>
      </trkpt>
      <trkpt lat="45.68517" lon="6.7366">
        <ele>1515.39</ele>
        <time>2019-10-14T15:11:12.000Z</time>
      </trkpt>
      <trkpt lat="45.6853" lon="6.73642">
        <ele>1515.49</ele>
        <time>2019-10-14T15:11:17.000Z</time>
      </trkpt>
      <trkpt lat="45.68543" lon="6.73623">
        <ele>1512.45</ele>
        <time>2019-10-14T15:11:22.000Z</time>
      </trkpt>
      <trkpt lat="45.68553" lon="6.73602">
        <ele>1507</ele>
        <time>2019-10-14T15:11:27.000Z</time>
      </trkpt>
      <trkpt lat="45.68564" lon="6.73579">
        <ele>1508.3</ele>
        <time>2019-10-14T15:11:32.000Z</time>
      </trkpt>
      <trkpt lat="45.68573" lon="6.73547">
        <ele>1508.6</ele>
        <time>2019-10-14T15:11:37.000Z</time>
      </trkpt>
      <trkpt lat="45.68577" lon="6.73519">
        <ele>1512.41</ele>
        <time>2019-10-14T15:11:42.000Z</time>
      </trkpt>
      <trkpt lat="45.6858" lon="6.73486">
        <ele>1519.1</ele>
        <time>2019-10-14T15:11:47.000Z</time>
      </trkpt>
      <trkpt lat="45.68579" lon="6.73454">
        <ele>1520.36</ele>
        <time>2019-10-14T15:11:52.000Z</time>
      </trkpt>
      <trkpt lat="45.68581" lon="6.7342">
        <ele>1524.14</ele>
        <time>2019-10-14T15:11:57.000Z</time>
      </trkpt>
      <trkpt lat="45.68585" lon="6.73388">
        <ele>1527.36</ele>
        <time>2019-10-14T15:12:02.000Z</time>
      </trkpt>
      <trkpt lat="45.68597" lon="6.7336">
        <ele>1532.03</ele>
        <time>2019-10-14T15:12:07.000Z</time>
      </trkpt>
      <trkpt lat="45.68612" lon="6.73334">
        <ele>1539.83</ele>
        <time>2019-10-14T15:12:12.000Z</time>
      </trkpt>
      <trkpt lat="45.6863" lon="6.7332">
        <ele>1542.16</ele>
        <time>2019-10-14T15:12:17.000Z</time>
      </trkpt>
      <trkpt lat="45.6865" lon="6.73308">
        <ele>1544.01</ele>
        <time>2019-10-14T15:12:22.000Z</time>
      </trkpt>
      <trkpt lat="45.68667" lon="6.73302">
        <ele>1546.13</ele>
        <time>2019-10-14T15:12:27.000Z</time>
      </trkpt>
      <trkpt lat="45.68687" lon="6.73296">
        <ele>1545.15</ele>
        <time>2019-10-14T15:12:32.000Z</time>
      </trkpt>
      <trkpt lat="45.68704" lon="6.7329">
        <ele>1543.13</ele>
        <time>2019-10-14T15:12:37.000Z</time>
      </trkpt>
      <trkpt lat="45.68722" lon="6.73284">
        <ele>1547.78</ele>
        <time>2019-10-14T15:12:42.000Z</time>
      </trkpt>
      <trkpt lat="45.6874" lon="6.73278">
        <ele>1548.3</ele>
        <time>2019-10-14T15:12:47.000Z</time>
      </trkpt>
      <trkpt lat="45.68753" lon="6.73277">
        <ele>1550.99</ele>
        <time>2019-10-14T15:12:52.000Z</time>
      </trkpt>
      <trkpt lat="45.68753" lon="6.7329">
        <ele>1561.76</ele>
        <time>2019-10-14T15:13:46.000Z</time>
      </trkpt>
      <trkpt lat="45.68762" lon="6.73285">
        <ele>1556.79</ele>
        <time>2019-10-14T15:14:56.000Z</time>
      </trkpt>
      <trkpt lat="45.68778" lon="6.73276">
        <ele>1557.9</ele>
        <time>2019-10-14T15:15:01.000Z</time>
      </trkpt>
      <trkpt lat="45.68797" lon="6.73267">
        <ele>1559.23</ele>
        <time>2019-10-14T15:15:06.000Z</time>
      </trkpt>
      <trkpt lat="45.68815" lon="6.7327">
        <ele>1561.75</ele>
        <time>2019-10-14T15:15:11.000Z</time>
      </trkpt>
      <trkpt lat="45.68835" lon="6.73277">
        <ele>1567.18</ele>
        <time>2019-10-14T15:15:16.000Z</time>
      </trkpt>
      <trkpt lat="45.68854" lon="6.73283">
        <ele>1568.96</ele>
        <time>2019-10-14T15:15:21.000Z</time>
      </trkpt>
      <trkpt lat="45.68873" lon="6.73292">
        <ele>1569.5</ele>
        <time>2019-10-14T15:15:26.000Z</time>
      </trkpt>
      <trkpt lat="45.68893" lon="6.73296">
        <ele>1569.99</ele>
        <time>2019-10-14T15:15:31.000Z</time>
      </trkpt>
      <trkpt lat="45.68914" lon="6.73295">
        <ele>1569.62</ele>
        <time>2019-10-14T15:15:36.000Z</time>
      </trkpt>
      <trkpt lat="45.68933" lon="6.73293">
        <ele>1573.62</ele>
        <time>2019-10-14T15:15:41.000Z</time>
      </trkpt>
      <trkpt lat="45.6895" lon="6.73289">
        <ele>1576.89</ele>
        <time>2019-10-14T15:15:46.000Z</time>
      </trkpt>
      <trkpt lat="45.68964" lon="6.73283">
        <ele>1576.87</ele>
        <time>2019-10-14T15:15:51.000Z</time>
      </trkpt>
      <trkpt lat="45.68982" lon="6.73276">
        <ele>1579.01</ele>
        <time>2019-10-14T15:15:56.000Z</time>
      </trkpt>
      <trkpt lat="45.69002" lon="6.73271">
        <ele>1585.43</ele>
        <time>2019-10-14T15:16:01.000Z</time>
      </trkpt>
      <trkpt lat="45.6902" lon="6.73269">
        <ele>1586.24</ele>
        <time>2019-10-14T15:16:06.000Z</time>
      </trkpt>
      <trkpt lat="45.69037" lon="6.73265">
        <ele>1584.47</ele>
        <time>2019-10-14T15:16:11.000Z</time>
      </trkpt>
      <trkpt lat="45.69054" lon="6.73253">
        <ele>1583.04</ele>
        <time>2019-10-14T15:16:16.000Z</time>
      </trkpt>
      <trkpt lat="45.69072" lon="6.73244">
        <ele>1583.39</ele>
        <time>2019-10-14T15:16:21.000Z</time>
      </trkpt>
      <trkpt lat="45.69089" lon="6.73241">
        <ele>1579.95</ele>
        <time>2019-10-14T15:16:26.000Z</time>
      </trkpt>
      <trkpt lat="45.69106" lon="6.73243">
        <ele>1587.48</ele>
        <time>2019-10-14T15:16:31.000Z</time>
      </trkpt>
      <trkpt lat="45.69125" lon="6.73243">
        <ele>1587.73</ele>
        <time>2019-10-14T15:16:36.000Z</time>
      </trkpt>
      <trkpt lat="45.69144" lon="6.73242">
        <ele>1589.86</ele>
        <time>2019-10-14T15:16:41.000Z</time>
      </trkpt>
      <trkpt lat="45.69164" lon="6.73237">
        <ele>1591.24</ele>
        <time>2019-10-14T15:16:46.000Z</time>
      </trkpt>
      <trkpt lat="45.69184" lon="6.73231">
        <ele>1592.4</ele>
        <time>2019-10-14T15:16:51.000Z</time>
      </trkpt>
      <trkpt lat="45.69201" lon="6.7323">
        <ele>1596.17</ele>
        <time>2019-10-14T15:16:56.000Z</time>
      </trkpt>
      <trkpt lat="45.69214" lon="6.7323">
        <ele>1595.73</ele>
        <time>2019-10-14T15:17:01.000Z</time>
      </trkpt>
      <trkpt lat="45.69234" lon="6.73219">
        <ele>1598.91</ele>
        <time>2019-10-14T15:17:06.000Z</time>
      </trkpt>
      <trkpt lat="45.6925" lon="6.73218">
        <ele>1599.05</ele>
        <time>2019-10-14T15:17:11.000Z</time>
      </trkpt>
      <trkpt lat="45.69268" lon="6.73216">
        <ele>1598.09</ele>
        <time>2019-10-14T15:17:16.000Z</time>
      </trkpt>
      <trkpt lat="45.69285" lon="6.73211">
        <ele>1596.33</ele>
        <time>2019-10-14T15:17:21.000Z</time>
      </trkpt>
      <trkpt lat="45.69301" lon="6.73202">
        <ele>1597.44</ele>
        <time>2019-10-14T15:17:26.000Z</time>
      </trkpt>
      <trkpt lat="45.69318" lon="6.7319">
        <ele>1596.07</ele>
        <time>2019-10-14T15:17:31.000Z</time>
      </trkpt>
      <trkpt lat="45.69334" lon="6.73175">
        <ele>1598.91</ele>
        <time>2019-10-14T15:17:36.000Z</time>
      </trkpt>
      <trkpt lat="45.69343" lon="6.73165">
        <ele>1603.5</ele>
        <time>2019-10-14T15:17:41.000Z</time>
      </trkpt>
      <trkpt lat="45.6934" lon="6.73146">
        <ele>1604.72</ele>
        <time>2019-10-14T15:17:46.000Z</time>
      </trkpt>
      <trkpt lat="45.69328" lon="6.73121">
        <ele>1606.09</ele>
        <time>2019-10-14T15:17:51.000Z</time>
      </trkpt>
      <trkpt lat="45.69328" lon="6.7309">
        <ele>1608.16</ele>
        <time>2019-10-14T15:17:56.000Z</time>
      </trkpt>
      <trkpt lat="45.69333" lon="6.73067">
        <ele>1606.64</ele>
        <time>2019-10-14T15:18:01.000Z</time>
      </trkpt>
      <trkpt lat="45.69338" lon="6.73043">
        <ele>1609.9</ele>
        <time>2019-10-14T15:18:06.000Z</time>
      </trkpt>
      <trkpt lat="45.69343" lon="6.73019">
        <ele>1611.01</ele>
        <time>2019-10-14T15:18:11.000Z</time>
      </trkpt>
      <trkpt lat="45.69346" lon="6.72995">
        <ele>1613.58</ele>
        <time>2019-10-14T15:18:16.000Z</time>
      </trkpt>
      <trkpt lat="45.69354" lon="6.72974">
        <ele>1614.49</ele>
        <time>2019-10-14T15:18:21.000Z</time>
      </trkpt>
      <trkpt lat="45.69359" lon="6.72949">
        <ele>1617.52</ele>
        <time>2019-10-14T15:18:26.000Z</time>
      </trkpt>
      <trkpt lat="45.69359" lon="6.72924">
        <ele>1619.96</ele>
        <time>2019-10-14T15:18:31.000Z</time>
      </trkpt>
      <trkpt lat="45.69362" lon="6.72899">
        <ele>1624.41</ele>
        <time>2019-10-14T15:18:36.000Z</time>
      </trkpt>
      <trkpt lat="45.69365" lon="6.72873">
        <ele>1626.01</ele>
        <time>2019-10-14T15:18:41.000Z</time>
      </trkpt>
      <trkpt lat="45.69369" lon="6.72847">
        <ele>1626.91</ele>
        <time>2019-10-14T15:18:46.000Z</time>
      </trkpt>
      <trkpt lat="45.69374" lon="6.72824">
        <ele>1627.88</ele>
        <time>2019-10-14T15:18:51.000Z</time>
      </trkpt>
      <trkpt lat="45.6938" lon="6.728">
        <ele>1628.02</ele>
        <time>2019-10-14T15:18:56.000Z</time>
      </trkpt>
      <trkpt lat="45.69384" lon="6.72777">
        <ele>1635.14</ele>
        <time>2019-10-14T15:19:01.000Z</time>
      </trkpt>
      <trkpt lat="45.69389" lon="6.72752">
        <ele>1632.82</ele>
        <time>2019-10-14T15:19:06.000Z</time>
      </trkpt>
      <trkpt lat="45.69392" lon="6.72725">
        <ele>1632.11</ele>
        <time>2019-10-14T15:19:11.000Z</time>
      </trkpt>
      <trkpt lat="45.69395" lon="6.72698">
        <ele>1630.89</ele>
        <time>2019-10-14T15:19:16.000Z</time>
      </trkpt>
      <trkpt lat="45.69398" lon="6.72672">
        <ele>1632.91</ele>
        <time>2019-10-14T15:19:21.000Z</time>
      </trkpt>
      <trkpt lat="45.694" lon="6.72648">
        <ele>1634.69</ele>
        <time>2019-10-14T15:19:26.000Z</time>
      </trkpt>
      <trkpt lat="45.69401" lon="6.72625">
        <ele>1637.88</ele>
        <time>2019-10-14T15:19:31.000Z</time>
      </trkpt>
      <trkpt lat="45.69401" lon="6.726">
        <ele>1639.37</ele>
        <time>2019-10-14T15:19:36.000Z</time>
      </trkpt>
      <trkpt lat="45.69402" lon="6.72575">
        <ele>1638.28</ele>
        <time>2019-10-14T15:19:41.000Z</time>
      </trkpt>
      <trkpt lat="45.694" lon="6.72549">
        <ele>1638.73</ele>
        <time>2019-10-14T15:19:46.000Z</time>
      </trkpt>
      <trkpt lat="45.69399" lon="6.72523">
        <ele>1640.67</ele>
        <time>2019-10-14T15:19:51.000Z</time>
      </trkpt>
      <trkpt lat="45.69399" lon="6.72498">
        <ele>1655.41</ele>
        <time>2019-10-14T15:19:56.000Z</time>
      </trkpt>
      <trkpt lat="45.69398" lon="6.72475">
        <ele>1656.76</ele>
        <time>2019-10-14T15:20:01.000Z</time>
      </trkpt>
      <trkpt lat="45.69397" lon="6.72451">
        <ele>1658.08</ele>
        <time>2019-10-14T15:20:06.000Z</time>
      </trkpt>
      <trkpt lat="45.69394" lon="6.72428">
        <ele>1658.35</ele>
        <time>2019-10-14T15:20:11.000Z</time>
      </trkpt>
      <trkpt lat="45.69388" lon="6.72402">
        <ele>1656.74</ele>
        <time>2019-10-14T15:20:16.000Z</time>
      </trkpt>
      <trkpt lat="45.6939" lon="6.72378">
        <ele>1667.56</ele>
        <time>2019-10-14T15:20:21.000Z</time>
      </trkpt>
      <trkpt lat="45.69392" lon="6.72354">
        <ele>1671.34</ele>
        <time>2019-10-14T15:20:26.000Z</time>
      </trkpt>
      <trkpt lat="45.69398" lon="6.7233">
        <ele>1668.9</ele>
        <time>2019-10-14T15:20:31.000Z</time>
      </trkpt>
      <trkpt lat="45.69409" lon="6.72307">
        <ele>1672.48</ele>
        <time>2019-10-14T15:20:36.000Z</time>
      </trkpt>
      <trkpt lat="45.6942" lon="6.72284">
        <ele>1673.24</ele>
        <time>2019-10-14T15:20:41.000Z</time>
      </trkpt>
      <trkpt lat="45.6943" lon="6.72261">
        <ele>1674.76</ele>
        <time>2019-10-14T15:20:46.000Z</time>
      </trkpt>
      <trkpt lat="45.69444" lon="6.72243">
        <ele>1676.44</ele>
        <time>2019-10-14T15:20:51.000Z</time>
      </trkpt>
      <trkpt lat="45.69457" lon="6.72221">
        <ele>1678.29</ele>
        <time>2019-10-14T15:20:56.000Z</time>
      </trkpt>
      <trkpt lat="45.69471" lon="6.72203">
        <ele>1679.51</ele>
        <time>2019-10-14T15:21:01.000Z</time>
      </trkpt>
      <trkpt lat="45.69487" lon="6.72193">
        <ele>1679.17</ele>
        <time>2019-10-14T15:21:06.000Z</time>
      </trkpt>
      <trkpt lat="45.69504" lon="6.72203">
        <ele>1681.27</ele>
        <time>2019-10-14T15:21:11.000Z</time>
      </trkpt>
      <trkpt lat="45.69519" lon="6.72228">
        <ele>1683.24</ele>
        <time>2019-10-14T15:21:16.000Z</time>
      </trkpt>
      <trkpt lat="45.69526" lon="6.72252">
        <ele>1686.9</ele>
        <time>2019-10-14T15:21:21.000Z</time>
      </trkpt>
      <trkpt lat="45.69531" lon="6.72273">
        <ele>1689.67</ele>
        <time>2019-10-14T15:21:26.000Z</time>
      </trkpt>
      <trkpt lat="45.69533" lon="6.72301">
        <ele>1688.48</ele>
        <time>2019-10-14T15:21:31.000Z</time>
      </trkpt>
      <trkpt lat="45.69532" lon="6.72328">
        <ele>1685.88</ele>
        <time>2019-10-14T15:21:36.000Z</time>
      </trkpt>
      <trkpt lat="45.69529" lon="6.72354">
        <ele>1685.35</ele>
        <time>2019-10-14T15:21:41.000Z</time>
      </trkpt>
      <trkpt lat="45.69522" lon="6.7238">
        <ele>1683.95</ele>
        <time>2019-10-14T15:21:46.000Z</time>
      </trkpt>
      <trkpt lat="45.69518" lon="6.72404">
        <ele>1685.65</ele>
        <time>2019-10-14T15:21:51.000Z</time>
      </trkpt>
      <trkpt lat="45.69526" lon="6.72433">
        <ele>1687.99</ele>
        <time>2019-10-14T15:21:56.000Z</time>
      </trkpt>
      <trkpt lat="45.69544" lon="6.72459">
        <ele>1693.26</ele>
        <time>2019-10-14T15:22:01.000Z</time>
      </trkpt>
      <trkpt lat="45.69561" lon="6.72487">
        <ele>1695.76</ele>
        <time>2019-10-14T15:22:06.000Z</time>
      </trkpt>
      <trkpt lat="45.69576" lon="6.7252">
        <ele>1695.01</ele>
        <time>2019-10-14T15:22:11.000Z</time>
      </trkpt>
      <trkpt lat="45.69588" lon="6.72551">
        <ele>1696.58</ele>
        <time>2019-10-14T15:22:16.000Z</time>
      </trkpt>
      <trkpt lat="45.69597" lon="6.7259">
        <ele>1693.72</ele>
        <time>2019-10-14T15:22:21.000Z</time>
      </trkpt>
      <trkpt lat="45.69606" lon="6.72627">
        <ele>1695.99</ele>
        <time>2019-10-14T15:22:26.000Z</time>
      </trkpt>
      <trkpt lat="45.6961" lon="6.72666">
        <ele>1696.14</ele>
        <time>2019-10-14T15:22:31.000Z</time>
      </trkpt>
      <trkpt lat="45.69627" lon="6.7268">
        <ele>1699.01</ele>
        <time>2019-10-14T15:22:36.000Z</time>
      </trkpt>
      <trkpt lat="45.69618" lon="6.72682">
        <ele>1708.68</ele>
        <time>2019-10-14T15:23:27.000Z</time>
      </trkpt>
      <trkpt lat="45.69627" lon="6.7268">
        <ele>1704.2</ele>
        <time>2019-10-14T15:27:36.000Z</time>
      </trkpt>
      <trkpt lat="45.69634" lon="6.72669">
        <ele>1700</ele>
        <time>2019-10-14T15:28:23.000Z</time>
      </trkpt>
      <trkpt lat="45.69642" lon="6.72644">
        <ele>1704.47</ele>
        <time>2019-10-14T15:28:28.000Z</time>
      </trkpt>
      <trkpt lat="45.69639" lon="6.7262">
        <ele>1696.79</ele>
        <time>2019-10-14T15:28:33.000Z</time>
      </trkpt>
      <trkpt lat="45.69633" lon="6.72595">
        <ele>1698.45</ele>
        <time>2019-10-14T15:28:38.000Z</time>
      </trkpt>
      <trkpt lat="45.69625" lon="6.72567">
        <ele>1703.92</ele>
        <time>2019-10-14T15:28:43.000Z</time>
      </trkpt>
      <trkpt lat="45.69618" lon="6.72538">
        <ele>1707.96</ele>
        <time>2019-10-14T15:28:48.000Z</time>
      </trkpt>
      <trkpt lat="45.69617" lon="6.72509">
        <ele>1709.77</ele>
        <time>2019-10-14T15:28:53.000Z</time>
      </trkpt>
      <trkpt lat="45.69615" lon="6.72484">
        <ele>1713.7</ele>
        <time>2019-10-14T15:28:58.000Z</time>
      </trkpt>
      <trkpt lat="45.69616" lon="6.7246">
        <ele>1711.78</ele>
        <time>2019-10-14T15:29:03.000Z</time>
      </trkpt>
      <trkpt lat="45.69618" lon="6.72437">
        <ele>1712.56</ele>
        <time>2019-10-14T15:29:08.000Z</time>
      </trkpt>
      <trkpt lat="45.69617" lon="6.7241">
        <ele>1711.75</ele>
        <time>2019-10-14T15:29:13.000Z</time>
      </trkpt>
      <trkpt lat="45.69616" lon="6.72386">
        <ele>1711.7</ele>
        <time>2019-10-14T15:29:18.000Z</time>
      </trkpt>
      <trkpt lat="45.69616" lon="6.72362">
        <ele>1713.4</ele>
        <time>2019-10-14T15:29:23.000Z</time>
      </trkpt>
      <trkpt lat="45.69614" lon="6.72338">
        <ele>1714.66</ele>
        <time>2019-10-14T15:29:28.000Z</time>
      </trkpt>
      <trkpt lat="45.69611" lon="6.72318">
        <ele>1719.45</ele>
        <time>2019-10-14T15:29:33.000Z</time>
      </trkpt>
      <trkpt lat="45.69603" lon="6.72297">
        <ele>1723.42</ele>
        <time>2019-10-14T15:29:38.000Z</time>
      </trkpt>
      <trkpt lat="45.69592" lon="6.72278">
        <ele>1723.73</ele>
        <time>2019-10-14T15:29:43.000Z</time>
      </trkpt>
      <trkpt lat="45.6959" lon="6.72256">
        <ele>1723.63</ele>
        <time>2019-10-14T15:29:48.000Z</time>
      </trkpt>
      <trkpt lat="45.69609" lon="6.7226">
        <ele>1726.72</ele>
        <time>2019-10-14T15:29:53.000Z</time>
      </trkpt>
      <trkpt lat="45.69621" lon="6.72288">
        <ele>1728.37</ele>
        <time>2019-10-14T15:29:58.000Z</time>
      </trkpt>
      <trkpt lat="45.69633" lon="6.72312">
        <ele>1733.24</ele>
        <time>2019-10-14T15:30:03.000Z</time>
      </trkpt>
      <trkpt lat="45.69644" lon="6.72332">
        <ele>1737.6</ele>
        <time>2019-10-14T15:30:08.000Z</time>
      </trkpt>
      <trkpt lat="45.69651" lon="6.72354">
        <ele>1737.54</ele>
        <time>2019-10-14T15:30:13.000Z</time>
      </trkpt>
      <trkpt lat="45.69659" lon="6.72375">
        <ele>1739.41</ele>
        <time>2019-10-14T15:30:18.000Z</time>
      </trkpt>
      <trkpt lat="45.69669" lon="6.72395">
        <ele>1741.17</ele>
        <time>2019-10-14T15:30:23.000Z</time>
      </trkpt>
      <trkpt lat="45.69678" lon="6.72413">
        <ele>1747.54</ele>
        <time>2019-10-14T15:30:28.000Z</time>
      </trkpt>
      <trkpt lat="45.69688" lon="6.72432">
        <ele>1752.43</ele>
        <time>2019-10-14T15:30:33.000Z</time>
      </trkpt>
      <trkpt lat="45.69697" lon="6.72451">
        <ele>1751.81</ele>
        <time>2019-10-14T15:30:38.000Z</time>
      </trkpt>
      <trkpt lat="45.69703" lon="6.72474">
        <ele>1753.52</ele>
        <time>2019-10-14T15:30:43.000Z</time>
      </trkpt>
      <trkpt lat="45.6971" lon="6.72491">
        <ele>1760.22</ele>
        <time>2019-10-14T15:30:48.000Z</time>
      </trkpt>
      <trkpt lat="45.69721" lon="6.72508">
        <ele>1760.66</ele>
        <time>2019-10-14T15:30:53.000Z</time>
      </trkpt>
      <trkpt lat="45.69739" lon="6.72516">
        <ele>1761.72</ele>
        <time>2019-10-14T15:30:58.000Z</time>
      </trkpt>
      <trkpt lat="45.69759" lon="6.72519">
        <ele>1768.24</ele>
        <time>2019-10-14T15:31:03.000Z</time>
      </trkpt>
      <trkpt lat="45.69777" lon="6.72527">
        <ele>1768.28</ele>
        <time>2019-10-14T15:31:08.000Z</time>
      </trkpt>
      <trkpt lat="45.69797" lon="6.72533">
        <ele>1771.61</ele>
        <time>2019-10-14T15:31:13.000Z</time>
      </trkpt>
      <trkpt lat="45.69813" lon="6.72525">
        <ele>1774.11</ele>
        <time>2019-10-14T15:31:18.000Z</time>
      </trkpt>
      <trkpt lat="45.6982" lon="6.72502">
        <ele>1772.35</ele>
        <time>2019-10-14T15:31:23.000Z</time>
      </trkpt>
      <trkpt lat="45.69816" lon="6.72475">
        <ele>1771.49</ele>
        <time>2019-10-14T15:31:28.000Z</time>
      </trkpt>
      <trkpt lat="45.69798" lon="6.7245">
        <ele>1769.74</ele>
        <time>2019-10-14T15:31:33.000Z</time>
      </trkpt>
      <trkpt lat="45.69777" lon="6.72427">
        <ele>1769.6</ele>
        <time>2019-10-14T15:31:38.000Z</time>
      </trkpt>
      <trkpt lat="45.69756" lon="6.72407">
        <ele>1764.49</ele>
        <time>2019-10-14T15:31:43.000Z</time>
      </trkpt>
      <trkpt lat="45.69746" lon="6.72382">
        <ele>1765.71</ele>
        <time>2019-10-14T15:31:48.000Z</time>
      </trkpt>
      <trkpt lat="45.69748" lon="6.72352">
        <ele>1773.19</ele>
        <time>2019-10-14T15:31:53.000Z</time>
      </trkpt>
      <trkpt lat="45.69757" lon="6.72322">
        <ele>1777.47</ele>
        <time>2019-10-14T15:31:58.000Z</time>
      </trkpt>
      <trkpt lat="45.69765" lon="6.72286">
        <ele>1780.45</ele>
        <time>2019-10-14T15:32:03.000Z</time>
      </trkpt>
      <trkpt lat="45.69777" lon="6.72247">
        <ele>1777.59</ele>
        <time>2019-10-14T15:32:08.000Z</time>
      </trkpt>
      <trkpt lat="45.69769" lon="6.72206">
        <ele>1778.04</ele>
        <time>2019-10-14T15:32:13.000Z</time>
      </trkpt>
      <trkpt lat="45.69754" lon="6.72187">
        <ele>1770.63</ele>
        <time>2019-10-14T15:32:18.000Z</time>
      </trkpt>
      <trkpt lat="45.69739" lon="6.72169">
        <ele>1770.9</ele>
        <time>2019-10-14T15:32:23.000Z</time>
      </trkpt>
      <trkpt lat="45.69735" lon="6.72143">
        <ele>1771.86</ele>
        <time>2019-10-14T15:32:28.000Z</time>
      </trkpt>
      <trkpt lat="45.69735" lon="6.72115">
        <ele>1774.24</ele>
        <time>2019-10-14T15:32:33.000Z</time>
      </trkpt>
      <trkpt lat="45.6974" lon="6.72087">
        <ele>1774.1</ele>
        <time>2019-10-14T15:32:38.000Z</time>
      </trkpt>
      <trkpt lat="45.69744" lon="6.72055">
        <ele>1774.15</ele>
        <time>2019-10-14T15:32:43.000Z</time>
      </trkpt>
      <trkpt lat="45.69749" lon="6.72025">
        <ele>1771.17</ele>
        <time>2019-10-14T15:32:48.000Z</time>
      </trkpt>
      <trkpt lat="45.69748" lon="6.71995">
        <ele>1769.28</ele>
        <time>2019-10-14T15:32:53.000Z</time>
      </trkpt>
      <trkpt lat="45.69744" lon="6.71966">
        <ele>1768.91</ele>
        <time>2019-10-14T15:32:58.000Z</time>
      </trkpt>
      <trkpt lat="45.69734" lon="6.71942">
        <ele>1774.21</ele>
        <time>2019-10-14T15:33:03.000Z</time>
      </trkpt>
      <trkpt lat="45.69714" lon="6.71927">
        <ele>1779.64</ele>
        <time>2019-10-14T15:33:08.000Z</time>
      </trkpt>
      <trkpt lat="45.69696" lon="6.71916">
        <ele>1779.92</ele>
        <time>2019-10-14T15:33:13.000Z</time>
      </trkpt>
      <trkpt lat="45.69678" lon="6.71906">
        <ele>1780.77</ele>
        <time>2019-10-14T15:33:18.000Z</time>
      </trkpt>
      <trkpt lat="45.69664" lon="6.71884">
        <ele>1779.89</ele>
        <time>2019-10-14T15:33:23.000Z</time>
      </trkpt>
      <trkpt lat="45.69648" lon="6.71871">
        <ele>1782.21</ele>
        <time>2019-10-14T15:33:28.000Z</time>
      </trkpt>
      <trkpt lat="45.69631" lon="6.71861">
        <ele>1782.96</ele>
        <time>2019-10-14T15:33:33.000Z</time>
      </trkpt>
      <trkpt lat="45.69612" lon="6.71851">
        <ele>1788.43</ele>
        <time>2019-10-14T15:33:38.000Z</time>
      </trkpt>
      <trkpt lat="45.69595" lon="6.7184">
        <ele>1788.6</ele>
        <time>2019-10-14T15:33:43.000Z</time>
      </trkpt>
      <trkpt lat="45.6958" lon="6.71821">
        <ele>1786.23</ele>
        <time>2019-10-14T15:33:48.000Z</time>
      </trkpt>
      <trkpt lat="45.69573" lon="6.71797">
        <ele>1784.86</ele>
        <time>2019-10-14T15:33:53.000Z</time>
      </trkpt>
      <trkpt lat="45.69575" lon="6.71767">
        <ele>1786.47</ele>
        <time>2019-10-14T15:33:58.000Z</time>
      </trkpt>
      <trkpt lat="45.69573" lon="6.71735">
        <ele>1788.56</ele>
        <time>2019-10-14T15:34:03.000Z</time>
      </trkpt>
      <trkpt lat="45.69581" lon="6.71707">
        <ele>1789.94</ele>
        <time>2019-10-14T15:34:08.000Z</time>
      </trkpt>
      <trkpt lat="45.69587" lon="6.7168">
        <ele>1786.17</ele>
        <time>2019-10-14T15:34:13.000Z</time>
      </trkpt>
      <trkpt lat="45.69581" lon="6.7165">
        <ele>1787.36</ele>
        <time>2019-10-14T15:34:18.000Z</time>
      </trkpt>
      <trkpt lat="45.69563" lon="6.71632">
        <ele>1788.71</ele>
        <time>2019-10-14T15:34:23.000Z</time>
      </trkpt>
      <trkpt lat="45.69542" lon="6.7163">
        <ele>1793.17</ele>
        <time>2019-10-14T15:34:28.000Z</time>
      </trkpt>
      <trkpt lat="45.69522" lon="6.71639">
        <ele>1793.97</ele>
        <time>2019-10-14T15:34:33.000Z</time>
      </trkpt>
      <trkpt lat="45.69503" lon="6.7165">
        <ele>1799.13</ele>
        <time>2019-10-14T15:34:38.000Z</time>
      </trkpt>
      <trkpt lat="45.69487" lon="6.71662">
        <ele>1802.27</ele>
        <time>2019-10-14T15:34:43.000Z</time>
      </trkpt>
      <trkpt lat="45.6947" lon="6.71665">
        <ele>1802.69</ele>
        <time>2019-10-14T15:34:48.000Z</time>
      </trkpt>
      <trkpt lat="45.69457" lon="6.71669">
        <ele>1800.21</ele>
        <time>2019-10-14T15:34:53.000Z</time>
      </trkpt>
      <trkpt lat="45.69464" lon="6.7166">
        <ele>1805.93</ele>
        <time>2019-10-14T15:36:23.000Z</time>
      </trkpt>
      <trkpt lat="45.69457" lon="6.7165">
        <ele>1806.22</ele>
        <time>2019-10-14T15:36:43.000Z</time>
      </trkpt>
      <trkpt lat="45.69446" lon="6.71628">
        <ele>1805.39</ele>
        <time>2019-10-14T15:36:48.000Z</time>
      </trkpt>
      <trkpt lat="45.69436" lon="6.71598">
        <ele>1804.79</ele>
        <time>2019-10-14T15:36:53.000Z</time>
      </trkpt>
      <trkpt lat="45.69442" lon="6.71567">
        <ele>1804.57</ele>
        <time>2019-10-14T15:36:58.000Z</time>
      </trkpt>
      <trkpt lat="45.69451" lon="6.71538">
        <ele>1805.99</ele>
        <time>2019-10-14T15:37:03.000Z</time>
      </trkpt>
      <trkpt lat="45.69452" lon="6.71507">
        <ele>1802.29</ele>
        <time>2019-10-14T15:37:08.000Z</time>
      </trkpt>
      <trkpt lat="45.69455" lon="6.71477">
        <ele>1801.18</ele>
        <time>2019-10-14T15:37:13.000Z</time>
      </trkpt>
      <trkpt lat="45.69451" lon="6.71442">
        <ele>1809.6</ele>
        <time>2019-10-14T15:37:18.000Z</time>
      </trkpt>
      <trkpt lat="45.69441" lon="6.71414">
        <ele>1808.66</ele>
        <time>2019-10-14T15:37:23.000Z</time>
      </trkpt>
      <trkpt lat="45.69429" lon="6.71384">
        <ele>1808.01</ele>
        <time>2019-10-14T15:37:28.000Z</time>
      </trkpt>
      <trkpt lat="45.6942" lon="6.71356">
        <ele>1806.74</ele>
        <time>2019-10-14T15:37:33.000Z</time>
      </trkpt>
      <trkpt lat="45.69406" lon="6.71323">
        <ele>1804.66</ele>
        <time>2019-10-14T15:37:38.000Z</time>
      </trkpt>
      <trkpt lat="45.69399" lon="6.71295">
        <ele>1807.59</ele>
        <time>2019-10-14T15:37:43.000Z</time>
      </trkpt>
      <trkpt lat="45.69396" lon="6.71265">
        <ele>1816.36</ele>
        <time>2019-10-14T15:37:48.000Z</time>
      </trkpt>
      <trkpt lat="45.69392" lon="6.71234">
        <ele>1817.64</ele>
        <time>2019-10-14T15:37:53.000Z</time>
      </trkpt>
      <trkpt lat="45.6939" lon="6.71205">
        <ele>1818.43</ele>
        <time>2019-10-14T15:37:58.000Z</time>
      </trkpt>
      <trkpt lat="45.69389" lon="6.71175">
        <ele>1818.13</ele>
        <time>2019-10-14T15:38:03.000Z</time>
      </trkpt>
      <trkpt lat="45.69385" lon="6.71149">
        <ele>1817.45</ele>
        <time>2019-10-14T15:38:08.000Z</time>
      </trkpt>
      <trkpt lat="45.69382" lon="6.71119">
        <ele>1819.4</ele>
        <time>2019-10-14T15:38:13.000Z</time>
      </trkpt>
      <trkpt lat="45.69379" lon="6.7109">
        <ele>1820.98</ele>
        <time>2019-10-14T15:38:18.000Z</time>
      </trkpt>
      <trkpt lat="45.69375" lon="6.7106">
        <ele>1825.09</ele>
        <time>2019-10-14T15:38:23.000Z</time>
      </trkpt>
      <trkpt lat="45.69372" lon="6.71034">
        <ele>1827.5</ele>
        <time>2019-10-14T15:38:28.000Z</time>
      </trkpt>
      <trkpt lat="45.69368" lon="6.71023">
        <ele>1822.76</ele>
        <time>2019-10-14T15:40:20.000Z</time>
      </trkpt>
      <trkpt lat="45.69363" lon="6.71008">
        <ele>1832.29</ele>
        <time>2019-10-14T15:40:37.000Z</time>
      </trkpt>
      <trkpt lat="45.69362" lon="6.70981">
        <ele>1837.3</ele>
        <time>2019-10-14T15:40:42.000Z</time>
      </trkpt>
      <trkpt lat="45.69362" lon="6.70954">
        <ele>1838.25</ele>
        <time>2019-10-14T15:40:47.000Z</time>
      </trkpt>
      <trkpt lat="45.69359" lon="6.70928">
        <ele>1837.61</ele>
        <time>2019-10-14T15:40:52.000Z</time>
      </trkpt>
      <trkpt lat="45.69355" lon="6.70903">
        <ele>1842.13</ele>
        <time>2019-10-14T15:40:57.000Z</time>
      </trkpt>
      <trkpt lat="45.69353" lon="6.70878">
        <ele>1842.97</ele>
        <time>2019-10-14T15:41:02.000Z</time>
      </trkpt>
      <trkpt lat="45.6935" lon="6.70856">
        <ele>1846.64</ele>
        <time>2019-10-14T15:41:07.000Z</time>
      </trkpt>
      <trkpt lat="45.69351" lon="6.70833">
        <ele>1846.62</ele>
        <time>2019-10-14T15:41:12.000Z</time>
      </trkpt>
      <trkpt lat="45.69347" lon="6.7081">
        <ele>1842.27</ele>
        <time>2019-10-14T15:41:17.000Z</time>
      </trkpt>
      <trkpt lat="45.69343" lon="6.70784">
        <ele>1842.04</ele>
        <time>2019-10-14T15:41:22.000Z</time>
      </trkpt>
      <trkpt lat="45.6934" lon="6.7076">
        <ele>1840.73</ele>
        <time>2019-10-14T15:41:27.000Z</time>
      </trkpt>
      <trkpt lat="45.69335" lon="6.70735">
        <ele>1845.61</ele>
        <time>2019-10-14T15:41:32.000Z</time>
      </trkpt>
      <trkpt lat="45.69331" lon="6.70707">
        <ele>1844.56</ele>
        <time>2019-10-14T15:41:37.000Z</time>
      </trkpt>
      <trkpt lat="45.69328" lon="6.70681">
        <ele>1848.23</ele>
        <time>2019-10-14T15:41:42.000Z</time>
      </trkpt>
      <trkpt lat="45.69326" lon="6.70658">
        <ele>1848.92</ele>
        <time>2019-10-14T15:41:47.000Z</time>
      </trkpt>
      <trkpt lat="45.69322" lon="6.70633">
        <ele>1849.29</ele>
        <time>2019-10-14T15:41:52.000Z</time>
      </trkpt>
      <trkpt lat="45.6932" lon="6.70606">
        <ele>1848.07</ele>
        <time>2019-10-14T15:41:57.000Z</time>
      </trkpt>
      <trkpt lat="45.69316" lon="6.7058">
        <ele>1845.8</ele>
        <time>2019-10-14T15:42:02.000Z</time>
      </trkpt>
      <trkpt lat="45.69313" lon="6.70548">
        <ele>1848.28</ele>
        <time>2019-10-14T15:42:07.000Z</time>
      </trkpt>
      <trkpt lat="45.69307" lon="6.70519">
        <ele>1845.75</ele>
        <time>2019-10-14T15:42:12.000Z</time>
      </trkpt>
      <trkpt lat="45.69302" lon="6.70489">
        <ele>1840.67</ele>
        <time>2019-10-14T15:42:17.000Z</time>
      </trkpt>
      <trkpt lat="45.69297" lon="6.70457">
        <ele>1838.85</ele>
        <time>2019-10-14T15:42:22.000Z</time>
      </trkpt>
      <trkpt lat="45.6929" lon="6.70426">
        <ele>1837.74</ele>
        <time>2019-10-14T15:42:27.000Z</time>
      </trkpt>
      <trkpt lat="45.69283" lon="6.70397">
        <ele>1838.13</ele>
        <time>2019-10-14T15:42:32.000Z</time>
      </trkpt>
      <trkpt lat="45.69278" lon="6.70372">
        <ele>1842.44</ele>
        <time>2019-10-14T15:42:37.000Z</time>
      </trkpt>
      <trkpt lat="45.6927" lon="6.70344">
        <ele>1846.02</ele>
        <time>2019-10-14T15:42:42.000Z</time>
      </trkpt>
      <trkpt lat="45.69265" lon="6.7032">
        <ele>1847.07</ele>
        <time>2019-10-14T15:42:47.000Z</time>
      </trkpt>
      <trkpt lat="45.69256" lon="6.70299">
        <ele>1847.35</ele>
        <time>2019-10-14T15:42:52.000Z</time>
      </trkpt>
      <trkpt lat="45.69247" lon="6.70279">
        <ele>1855.73</ele>
        <time>2019-10-14T15:42:57.000Z</time>
      </trkpt>
      <trkpt lat="45.69238" lon="6.70258">
        <ele>1859.94</ele>
        <time>2019-10-14T15:43:02.000Z</time>
      </trkpt>
      <trkpt lat="45.69231" lon="6.70236">
        <ele>1860.63</ele>
        <time>2019-10-14T15:43:07.000Z</time>
      </trkpt>
      <trkpt lat="45.69223" lon="6.70212">
        <ele>1860.99</ele>
        <time>2019-10-14T15:43:12.000Z</time>
      </trkpt>
      <trkpt lat="45.69219" lon="6.70186">
        <ele>1862.05</ele>
        <time>2019-10-14T15:43:17.000Z</time>
      </trkpt>
      <trkpt lat="45.69218" lon="6.7016">
        <ele>1860.77</ele>
        <time>2019-10-14T15:43:22.000Z</time>
      </trkpt>
      <trkpt lat="45.69217" lon="6.70136">
        <ele>1859.32</ele>
        <time>2019-10-14T15:43:27.000Z</time>
      </trkpt>
      <trkpt lat="45.69219" lon="6.70107">
        <ele>1864.45</ele>
        <time>2019-10-14T15:43:32.000Z</time>
      </trkpt>
      <trkpt lat="45.69224" lon="6.7008">
        <ele>1865.11</ele>
        <time>2019-10-14T15:43:37.000Z</time>
      </trkpt>
      <trkpt lat="45.69231" lon="6.70055">
        <ele>1862.26</ele>
        <time>2019-10-14T15:43:42.000Z</time>
      </trkpt>
      <trkpt lat="45.69242" lon="6.7003">
        <ele>1862.45</ele>
        <time>2019-10-14T15:43:47.000Z</time>
      </trkpt>
      <trkpt lat="45.69253" lon="6.70005">
        <ele>1865.99</ele>
        <time>2019-10-14T15:43:52.000Z</time>
      </trkpt>
      <trkpt lat="45.6926" lon="6.69982">
        <ele>1872.61</ele>
        <time>2019-10-14T15:43:57.000Z</time>
      </trkpt>
      <trkpt lat="45.6927" lon="6.69959">
        <ele>1875.87</ele>
        <time>2019-10-14T15:44:02.000Z</time>
      </trkpt>
      <trkpt lat="45.69277" lon="6.69936">
        <ele>1879.9</ele>
        <time>2019-10-14T15:44:07.000Z</time>
      </trkpt>
      <trkpt lat="45.69287" lon="6.69914">
        <ele>1883.11</ele>
        <time>2019-10-14T15:44:12.000Z</time>
      </trkpt>
      <trkpt lat="45.69295" lon="6.69892">
        <ele>1885.82</ele>
        <time>2019-10-14T15:44:17.000Z</time>
      </trkpt>
      <trkpt lat="45.69303" lon="6.69871">
        <ele>1888.48</ele>
        <time>2019-10-14T15:44:22.000Z</time>
      </trkpt>
      <trkpt lat="45.69313" lon="6.69849">
        <ele>1887.44</ele>
        <time>2019-10-14T15:44:27.000Z</time>
      </trkpt>
      <trkpt lat="45.69321" lon="6.69828">
        <ele>1888.72</ele>
        <time>2019-10-14T15:44:32.000Z</time>
      </trkpt>
      <trkpt lat="45.6933" lon="6.6981">
        <ele>1891.37</ele>
        <time>2019-10-14T15:44:37.000Z</time>
      </trkpt>
      <trkpt lat="45.69341" lon="6.6979">
        <ele>1894.02</ele>
        <time>2019-10-14T15:44:42.000Z</time>
      </trkpt>
      <trkpt lat="45.6935" lon="6.69768">
        <ele>1897.16</ele>
        <time>2019-10-14T15:44:47.000Z</time>
      </trkpt>
      <trkpt lat="45.69358" lon="6.69744">
        <ele>1899.23</ele>
        <time>2019-10-14T15:44:52.000Z</time>
      </trkpt>
      <trkpt lat="45.69366" lon="6.69721">
        <ele>1900.61</ele>
        <time>2019-10-14T15:44:57.000Z</time>
      </trkpt>
      <trkpt lat="45.69373" lon="6.69696">
        <ele>1901.42</ele>
        <time>2019-10-14T15:45:02.000Z</time>
      </trkpt>
      <trkpt lat="45.69379" lon="6.69671">
        <ele>1907.81</ele>
        <time>2019-10-14T15:45:07.000Z</time>
      </trkpt>
      <trkpt lat="45.69385" lon="6.69643">
        <ele>1905.02</ele>
        <time>2019-10-14T15:45:12.000Z</time>
      </trkpt>
      <trkpt lat="45.69388" lon="6.69617">
        <ele>1908.47</ele>
        <time>2019-10-14T15:45:17.000Z</time>
      </trkpt>
      <trkpt lat="45.6939" lon="6.69592">
        <ele>1913.03</ele>
        <time>2019-10-14T15:45:22.000Z</time>
      </trkpt>
      <trkpt lat="45.69391" lon="6.69566">
        <ele>1916.28</ele>
        <time>2019-10-14T15:45:27.000Z</time>
      </trkpt>
      <trkpt lat="45.69394" lon="6.69538">
        <ele>1919.01</ele>
        <time>2019-10-14T15:45:32.000Z</time>
      </trkpt>
      <trkpt lat="45.69397" lon="6.69511">
        <ele>1920.18</ele>
        <time>2019-10-14T15:45:37.000Z</time>
      </trkpt>
      <trkpt lat="45.69396" lon="6.69485">
        <ele>1917.39</ele>
        <time>2019-10-14T15:45:42.000Z</time>
      </trkpt>
      <trkpt lat="45.69394" lon="6.69457">
        <ele>1925.62</ele>
        <time>2019-10-14T15:45:47.000Z</time>
      </trkpt>
      <trkpt lat="45.69392" lon="6.69428">
        <ele>1926.1</ele>
        <time>2019-10-14T15:45:52.000Z</time>
      </trkpt>
      <trkpt lat="45.69387" lon="6.69402">
        <ele>1930.54</ele>
        <time>2019-10-14T15:45:57.000Z</time>
      </trkpt>
      <trkpt lat="45.69378" lon="6.69379">
        <ele>1933.87</ele>
        <time>2019-10-14T15:46:02.000Z</time>
      </trkpt>
      <trkpt lat="45.69366" lon="6.69351">
        <ele>1933.04</ele>
        <time>2019-10-14T15:46:07.000Z</time>
      </trkpt>
      <trkpt lat="45.69356" lon="6.69334">
        <ele>1926.51</ele>
        <time>2019-10-14T15:46:12.000Z</time>
      </trkpt>
      <trkpt lat="45.69346" lon="6.69311">
        <ele>1927.24</ele>
        <time>2019-10-14T15:46:17.000Z</time>
      </trkpt>
      <trkpt lat="45.69334" lon="6.69289">
        <ele>1932.1</ele>
        <time>2019-10-14T15:46:22.000Z</time>
      </trkpt>
      <trkpt lat="45.69315" lon="6.69269">
        <ele>1936.68</ele>
        <time>2019-10-14T15:46:27.000Z</time>
      </trkpt>
      <trkpt lat="45.69296" lon="6.6925">
        <ele>1942.03</ele>
        <time>2019-10-14T15:46:32.000Z</time>
      </trkpt>
      <trkpt lat="45.69276" lon="6.6924">
        <ele>1948.73</ele>
        <time>2019-10-14T15:46:37.000Z</time>
      </trkpt>
      <trkpt lat="45.69252" lon="6.69233">
        <ele>1951.22</ele>
        <time>2019-10-14T15:46:42.000Z</time>
      </trkpt>
      <trkpt lat="45.69231" lon="6.69235">
        <ele>1952.07</ele>
        <time>2019-10-14T15:46:47.000Z</time>
      </trkpt>
      <trkpt lat="45.69214" lon="6.69237">
        <ele>1954.87</ele>
        <time>2019-10-14T15:46:52.000Z</time>
      </trkpt>
      <trkpt lat="45.69195" lon="6.69233">
        <ele>1955.86</ele>
        <time>2019-10-14T15:46:57.000Z</time>
      </trkpt>
      <trkpt lat="45.69177" lon="6.69223">
        <ele>1955.98</ele>
        <time>2019-10-14T15:47:02.000Z</time>
      </trkpt>
      <trkpt lat="45.69162" lon="6.69206">
        <ele>1954.73</ele>
        <time>2019-10-14T15:47:07.000Z</time>
      </trkpt>
      <trkpt lat="45.69155" lon="6.69182">
        <ele>1957.47</ele>
        <time>2019-10-14T15:47:12.000Z</time>
      </trkpt>
      <trkpt lat="45.69149" lon="6.69155">
        <ele>1957.17</ele>
        <time>2019-10-14T15:47:17.000Z</time>
      </trkpt>
      <trkpt lat="45.69144" lon="6.69127">
        <ele>1959.2</ele>
        <time>2019-10-14T15:47:22.000Z</time>
      </trkpt>
      <trkpt lat="45.6914" lon="6.69097">
        <ele>1960.27</ele>
        <time>2019-10-14T15:47:27.000Z</time>
      </trkpt>
      <trkpt lat="45.69133" lon="6.69076">
        <ele>1958.5</ele>
        <time>2019-10-14T15:47:32.000Z</time>
      </trkpt>
      <trkpt lat="45.69128" lon="6.69051">
        <ele>1957.58</ele>
        <time>2019-10-14T15:47:37.000Z</time>
      </trkpt>
      <trkpt lat="45.69128" lon="6.69033">
        <ele>1952.32</ele>
        <time>2019-10-14T15:47:42.000Z</time>
      </trkpt>
      <trkpt lat="45.69118" lon="6.69033">
        <ele>1964.22</ele>
        <time>2019-10-14T15:48:47.000Z</time>
      </trkpt>
      <trkpt lat="45.69124" lon="6.69044">
        <ele>1968.8</ele>
        <time>2019-10-14T15:51:24.000Z</time>
      </trkpt>
      <trkpt lat="45.69133" lon="6.6905">
        <ele>1962.83</ele>
        <time>2019-10-14T15:53:16.000Z</time>
      </trkpt>
      <trkpt lat="45.69132" lon="6.69063">
        <ele>1963.59</ele>
        <time>2019-10-14T15:53:25.000Z</time>
      </trkpt>
      <trkpt lat="45.69127" lon="6.69051">
        <ele>1965.15</ele>
        <time>2019-10-14T15:53:48.000Z</time>
      </trkpt>
      <trkpt lat="45.69125" lon="6.69037">
        <ele>1965.74</ele>
        <time>2019-10-14T15:53:53.000Z</time>
      </trkpt>
      <trkpt lat="45.6912" lon="6.69025">
        <ele>1968.32</ele>
        <time>2019-10-14T15:54:38.000Z</time>
      </trkpt>
      <trkpt lat="45.69116" lon="6.69012">
        <ele>1968.96</ele>
        <time>2019-10-14T15:54:45.000Z</time>
      </trkpt>
      <trkpt lat="45.69115" lon="6.69026">
        <ele>1969.96</ele>
        <time>2019-10-14T15:55:10.000Z</time>
      </trkpt>
      <trkpt lat="45.69123" lon="6.69019">
        <ele>1965.39</ele>
        <time>2019-10-14T15:55:51.000Z</time>
      </trkpt>
      <trkpt lat="45.69127" lon="6.69">
        <ele>1962.85</ele>
        <time>2019-10-14T15:55:56.000Z</time>
      </trkpt>
      <trkpt lat="45.69124" lon="6.68977">
        <ele>1964.94</ele>
        <time>2019-10-14T15:56:01.000Z</time>
      </trkpt>
      <trkpt lat="45.69124" lon="6.68964">
        <ele>1963.26</ele>
        <time>2019-10-14T15:56:59.000Z</time>
      </trkpt>
      <trkpt lat="45.69129" lon="6.68938">
        <ele>1962.65</ele>
        <time>2019-10-14T15:57:04.000Z</time>
      </trkpt>
      <trkpt lat="45.69135" lon="6.68906">
        <ele>1963</ele>
        <time>2019-10-14T15:57:09.000Z</time>
      </trkpt>
      <trkpt lat="45.69139" lon="6.68874">
        <ele>1962.2</ele>
        <time>2019-10-14T15:57:14.000Z</time>
      </trkpt>
      <trkpt lat="45.69137" lon="6.68842">
        <ele>1963.01</ele>
        <time>2019-10-14T15:57:19.000Z</time>
      </trkpt>
      <trkpt lat="45.69143" lon="6.68808">
        <ele>1961.92</ele>
        <time>2019-10-14T15:57:24.000Z</time>
      </trkpt>
      <trkpt lat="45.6915" lon="6.68772">
        <ele>1959.5</ele>
        <time>2019-10-14T15:57:29.000Z</time>
      </trkpt>
      <trkpt lat="45.69142" lon="6.68738">
        <ele>1959.21</ele>
        <time>2019-10-14T15:57:34.000Z</time>
      </trkpt>
      <trkpt lat="45.69124" lon="6.68716">
        <ele>1961.52</ele>
        <time>2019-10-14T15:57:39.000Z</time>
      </trkpt>
      <trkpt lat="45.69113" lon="6.68676">
        <ele>1962.06</ele>
        <time>2019-10-14T15:57:44.000Z</time>
      </trkpt>
      <trkpt lat="45.69116" lon="6.68632">
        <ele>1960.2</ele>
        <time>2019-10-14T15:57:49.000Z</time>
      </trkpt>
      <trkpt lat="45.69118" lon="6.6858">
        <ele>1957.28</ele>
        <time>2019-10-14T15:57:54.000Z</time>
      </trkpt>
      <trkpt lat="45.69117" lon="6.68523">
        <ele>1955.84</ele>
        <time>2019-10-14T15:57:59.000Z</time>
      </trkpt>
      <trkpt lat="45.69136" lon="6.68465">
        <ele>1952.25</ele>
        <time>2019-10-14T15:58:04.000Z</time>
      </trkpt>
      <trkpt lat="45.69162" lon="6.68415">
        <ele>1945.9</ele>
        <time>2019-10-14T15:58:09.000Z</time>
      </trkpt>
      <trkpt lat="45.69145" lon="6.68365">
        <ele>1945.28</ele>
        <time>2019-10-14T15:58:14.000Z</time>
      </trkpt>
      <trkpt lat="45.6912" lon="6.68322">
        <ele>1944.31</ele>
        <time>2019-10-14T15:58:19.000Z</time>
      </trkpt>
      <trkpt lat="45.691" lon="6.68271">
        <ele>1939.58</ele>
        <time>2019-10-14T15:58:24.000Z</time>
      </trkpt>
      <trkpt lat="45.6907" lon="6.68228">
        <ele>1934.52</ele>
        <time>2019-10-14T15:58:29.000Z</time>
      </trkpt>
      <trkpt lat="45.69036" lon="6.682">
        <ele>1933.24</ele>
        <time>2019-10-14T15:58:34.000Z</time>
      </trkpt>
      <trkpt lat="45.6901" lon="6.68159">
        <ele>1930.48</ele>
        <time>2019-10-14T15:58:39.000Z</time>
      </trkpt>
      <trkpt lat="45.69008" lon="6.68106">
        <ele>1923.94</ele>
        <time>2019-10-14T15:58:44.000Z</time>
      </trkpt>
      <trkpt lat="45.69017" lon="6.68057">
        <ele>1919.1</ele>
        <time>2019-10-14T15:58:49.000Z</time>
      </trkpt>
      <trkpt lat="45.69039" lon="6.68019">
        <ele>1916.79</ele>
        <time>2019-10-14T15:58:54.000Z</time>
      </trkpt>
      <trkpt lat="45.69069" lon="6.67997">
        <ele>1914.29</ele>
        <time>2019-10-14T15:58:59.000Z</time>
      </trkpt>
      <trkpt lat="45.69103" lon="6.68001">
        <ele>1916.58</ele>
        <time>2019-10-14T15:59:04.000Z</time>
      </trkpt>
      <trkpt lat="45.69138" lon="6.68036">
        <ele>1919.13</ele>
        <time>2019-10-14T15:59:09.000Z</time>
      </trkpt>
      <trkpt lat="45.6918" lon="6.6808">
        <ele>1919.14</ele>
        <time>2019-10-14T15:59:14.000Z</time>
      </trkpt>
      <trkpt lat="45.69221" lon="6.68132">
        <ele>1917.42</ele>
        <time>2019-10-14T15:59:19.000Z</time>
      </trkpt>
      <trkpt lat="45.69257" lon="6.68185">
        <ele>1914.06</ele>
        <time>2019-10-14T15:59:24.000Z</time>
      </trkpt>
      <trkpt lat="45.69302" lon="6.68212">
        <ele>1911.98</ele>
        <time>2019-10-14T15:59:29.000Z</time>
      </trkpt>
      <trkpt lat="45.69345" lon="6.68235">
        <ele>1908.24</ele>
        <time>2019-10-14T15:59:34.000Z</time>
      </trkpt>
      <trkpt lat="45.69389" lon="6.68265">
        <ele>1907.06</ele>
        <time>2019-10-14T15:59:39.000Z</time>
      </trkpt>
      <trkpt lat="45.6942" lon="6.68285">
        <ele>1906.83</ele>
        <time>2019-10-14T15:59:44.000Z</time>
      </trkpt>
      <trkpt lat="45.69425" lon="6.6825">
        <ele>1901.72</ele>
        <time>2019-10-14T15:59:49.000Z</time>
      </trkpt>
      <trkpt lat="45.69401" lon="6.68226">
        <ele>1901.59</ele>
        <time>2019-10-14T15:59:54.000Z</time>
      </trkpt>
      <trkpt lat="45.69368" lon="6.68197">
        <ele>1895.34</ele>
        <time>2019-10-14T15:59:59.000Z</time>
      </trkpt>
      <trkpt lat="45.69335" lon="6.6816">
        <ele>1894.55</ele>
        <time>2019-10-14T16:00:04.000Z</time>
      </trkpt>
      <trkpt lat="45.69325" lon="6.68103">
        <ele>1890.54</ele>
        <time>2019-10-14T16:00:09.000Z</time>
      </trkpt>
      <trkpt lat="45.69315" lon="6.68042">
        <ele>1890.05</ele>
        <time>2019-10-14T16:00:14.000Z</time>
      </trkpt>
      <trkpt lat="45.69297" lon="6.67981">
        <ele>1886.38</ele>
        <time>2019-10-14T16:00:19.000Z</time>
      </trkpt>
      <trkpt lat="45.69263" lon="6.67944">
        <ele>1881.24</ele>
        <time>2019-10-14T16:00:24.000Z</time>
      </trkpt>
      <trkpt lat="45.69217" lon="6.67909">
        <ele>1880.54</ele>
        <time>2019-10-14T16:00:29.000Z</time>
      </trkpt>
      <trkpt lat="45.6919" lon="6.67858">
        <ele>1878.05</ele>
        <time>2019-10-14T16:00:34.000Z</time>
      </trkpt>
      <trkpt lat="45.69181" lon="6.67836">
        <ele>1873.98</ele>
        <time>2019-10-14T16:00:39.000Z</time>
      </trkpt>
      <trkpt lat="45.69184" lon="6.67823">
        <ele>1873.33</ele>
        <time>2019-10-14T16:01:31.000Z</time>
      </trkpt>
      <trkpt lat="45.69168" lon="6.67805">
        <ele>1873.66</ele>
        <time>2019-10-14T16:01:36.000Z</time>
      </trkpt>
      <trkpt lat="45.69143" lon="6.67768">
        <ele>1870.84</ele>
        <time>2019-10-14T16:01:41.000Z</time>
      </trkpt>
      <trkpt lat="45.69117" lon="6.67718">
        <ele>1870.38</ele>
        <time>2019-10-14T16:01:46.000Z</time>
      </trkpt>
      <trkpt lat="45.69108" lon="6.67659">
        <ele>1866.93</ele>
        <time>2019-10-14T16:01:51.000Z</time>
      </trkpt>
      <trkpt lat="45.69093" lon="6.67595">
        <ele>1862.05</ele>
        <time>2019-10-14T16:01:56.000Z</time>
      </trkpt>
      <trkpt lat="45.69087" lon="6.67523">
        <ele>1858.23</ele>
        <time>2019-10-14T16:02:01.000Z</time>
      </trkpt>
      <trkpt lat="45.69094" lon="6.67447">
        <ele>1854.77</ele>
        <time>2019-10-14T16:02:06.000Z</time>
      </trkpt>
      <trkpt lat="45.69111" lon="6.67396">
        <ele>1855.24</ele>
        <time>2019-10-14T16:02:11.000Z</time>
      </trkpt>
      <trkpt lat="45.69117" lon="6.67331">
        <ele>1850.14</ele>
        <time>2019-10-14T16:02:16.000Z</time>
      </trkpt>
      <trkpt lat="45.69154" lon="6.67287">
        <ele>1842.7</ele>
        <time>2019-10-14T16:02:21.000Z</time>
      </trkpt>
      <trkpt lat="45.69188" lon="6.67246">
        <ele>1837.18</ele>
        <time>2019-10-14T16:02:26.000Z</time>
      </trkpt>
      <trkpt lat="45.69217" lon="6.67183">
        <ele>1830.41</ele>
        <time>2019-10-14T16:02:31.000Z</time>
      </trkpt>
      <trkpt lat="45.69248" lon="6.67144">
        <ele>1825.39</ele>
        <time>2019-10-14T16:02:36.000Z</time>
      </trkpt>
      <trkpt lat="45.69257" lon="6.67089">
        <ele>1818.3</ele>
        <time>2019-10-14T16:02:41.000Z</time>
      </trkpt>
      <trkpt lat="45.69279" lon="6.67052">
        <ele>1818.63</ele>
        <time>2019-10-14T16:02:46.000Z</time>
      </trkpt>
      <trkpt lat="45.69295" lon="6.67025">
        <ele>1817.65</ele>
        <time>2019-10-14T16:02:51.000Z</time>
      </trkpt>
      <trkpt lat="45.69305" lon="6.67002">
        <ele>1810.81</ele>
        <time>2019-10-14T16:02:56.000Z</time>
      </trkpt>
      <trkpt lat="45.69308" lon="6.67016">
        <ele>1807.32</ele>
        <time>2019-10-14T16:03:03.000Z</time>
      </trkpt>
      <trkpt lat="45.69307" lon="6.67039">
        <ele>1814.46</ele>
        <time>2019-10-14T16:03:08.000Z</time>
      </trkpt>
      <trkpt lat="45.69312" lon="6.67061">
        <ele>1812.26</ele>
        <time>2019-10-14T16:03:13.000Z</time>
      </trkpt>
      <trkpt lat="45.69315" lon="6.67074">
        <ele>1812.98</ele>
        <time>2019-10-14T16:03:18.000Z</time>
      </trkpt>
      <trkpt lat="45.69316" lon="6.67087">
        <ele>1817.36</ele>
        <time>2019-10-14T16:04:03.000Z</time>
      </trkpt>
      <trkpt lat="45.69311" lon="6.67098">
        <ele>1812.93</ele>
        <time>2019-10-14T16:04:28.000Z</time>
      </trkpt>
      <trkpt lat="45.69316" lon="6.67086">
        <ele>1814.11</ele>
        <time>2019-10-14T16:04:51.000Z</time>
      </trkpt>
      <trkpt lat="45.69322" lon="6.67076">
        <ele>1815.16</ele>
        <time>2019-10-14T16:05:00.000Z</time>
      </trkpt>
      <trkpt lat="45.69313" lon="6.67072">
        <ele>1812.25</ele>
        <time>2019-10-14T16:05:43.000Z</time>
      </trkpt>
      <trkpt lat="45.69316" lon="6.67057">
        <ele>1807.35</ele>
        <time>2019-10-14T16:05:55.000Z</time>
      </trkpt>
      <trkpt lat="45.69313" lon="6.67041">
        <ele>1809.98</ele>
        <time>2019-10-14T16:06:00.000Z</time>
      </trkpt>
      <trkpt lat="45.69307" lon="6.67021">
        <ele>1809.78</ele>
        <time>2019-10-14T16:06:05.000Z</time>
      </trkpt>
      <trkpt lat="45.69306" lon="6.66998">
        <ele>1810.52</ele>
        <time>2019-10-14T16:06:10.000Z</time>
      </trkpt>
      <trkpt lat="45.69305" lon="6.6698">
        <ele>1812.03</ele>
        <time>2019-10-14T16:06:15.000Z</time>
      </trkpt>
      <trkpt lat="45.69313" lon="6.66959">
        <ele>1813.17</ele>
        <time>2019-10-14T16:06:20.000Z</time>
      </trkpt>
      <trkpt lat="45.69319" lon="6.66942">
        <ele>1813.28</ele>
        <time>2019-10-14T16:06:25.000Z</time>
      </trkpt>
      <trkpt lat="45.69319" lon="6.66926">
        <ele>1814.81</ele>
        <time>2019-10-14T16:07:08.000Z</time>
      </trkpt>
      <trkpt lat="45.69325" lon="6.66903">
        <ele>1814.45</ele>
        <time>2019-10-14T16:07:13.000Z</time>
      </trkpt>
      <trkpt lat="45.69334" lon="6.66871">
        <ele>1814.69</ele>
        <time>2019-10-14T16:07:18.000Z</time>
      </trkpt>
      <trkpt lat="45.69342" lon="6.66833">
        <ele>1811.41</ele>
        <time>2019-10-14T16:07:23.000Z</time>
      </trkpt>
      <trkpt lat="45.69355" lon="6.66786">
        <ele>1808.93</ele>
        <time>2019-10-14T16:07:28.000Z</time>
      </trkpt>
      <trkpt lat="45.69355" lon="6.66739">
        <ele>1805.93</ele>
        <time>2019-10-14T16:07:33.000Z</time>
      </trkpt>
      <trkpt lat="45.69352" lon="6.66686">
        <ele>1802.94</ele>
        <time>2019-10-14T16:07:38.000Z</time>
      </trkpt>
      <trkpt lat="45.6936" lon="6.66626">
        <ele>1800.02</ele>
        <time>2019-10-14T16:07:43.000Z</time>
      </trkpt>
      <trkpt lat="45.69377" lon="6.66572">
        <ele>1800.51</ele>
        <time>2019-10-14T16:07:48.000Z</time>
      </trkpt>
      <trkpt lat="45.69408" lon="6.66529">
        <ele>1802.95</ele>
        <time>2019-10-14T16:07:53.000Z</time>
      </trkpt>
      <trkpt lat="45.6945" lon="6.66496">
        <ele>1800.07</ele>
        <time>2019-10-14T16:07:58.000Z</time>
      </trkpt>
      <trkpt lat="45.69504" lon="6.66493">
        <ele>1795.57</ele>
        <time>2019-10-14T16:08:03.000Z</time>
      </trkpt>
      <trkpt lat="45.69543" lon="6.66521">
        <ele>1795.73</ele>
        <time>2019-10-14T16:08:08.000Z</time>
      </trkpt>
      <trkpt lat="45.69573" lon="6.66493">
        <ele>1795.96</ele>
        <time>2019-10-14T16:08:13.000Z</time>
      </trkpt>
      <trkpt lat="45.696" lon="6.6643">
        <ele>1792.24</ele>
        <time>2019-10-14T16:08:18.000Z</time>
      </trkpt>
      <trkpt lat="45.69631" lon="6.6638">
        <ele>1782.21</ele>
        <time>2019-10-14T16:08:23.000Z</time>
      </trkpt>
      <trkpt lat="45.69633" lon="6.66317">
        <ele>1779.26</ele>
        <time>2019-10-14T16:08:28.000Z</time>
      </trkpt>
      <trkpt lat="45.69628" lon="6.66269">
        <ele>1777.64</ele>
        <time>2019-10-14T16:08:33.000Z</time>
      </trkpt>
      <trkpt lat="45.6962" lon="6.66225">
        <ele>1775.31</ele>
        <time>2019-10-14T16:08:38.000Z</time>
      </trkpt>
      <trkpt lat="45.69607" lon="6.66183">
        <ele>1769.96</ele>
        <time>2019-10-14T16:08:43.000Z</time>
      </trkpt>
      <trkpt lat="45.69592" lon="6.66149">
        <ele>1768.24</ele>
        <time>2019-10-14T16:08:48.000Z</time>
      </trkpt>
      <trkpt lat="45.69592" lon="6.66134">
        <ele>1772.47</ele>
        <time>2019-10-14T16:10:30.000Z</time>
      </trkpt>
      <trkpt lat="45.69577" lon="6.66112">
        <ele>1772.73</ele>
        <time>2019-10-14T16:10:35.000Z</time>
      </trkpt>
      <trkpt lat="45.6956" lon="6.66079">
        <ele>1770.94</ele>
        <time>2019-10-14T16:10:40.000Z</time>
      </trkpt>
      <trkpt lat="45.69539" lon="6.66042">
        <ele>1766.24</ele>
        <time>2019-10-14T16:10:45.000Z</time>
      </trkpt>
      <trkpt lat="45.6951" lon="6.6601">
        <ele>1760.87</ele>
        <time>2019-10-14T16:10:50.000Z</time>
      </trkpt>
      <trkpt lat="45.69471" lon="6.65979">
        <ele>1754.16</ele>
        <time>2019-10-14T16:10:55.000Z</time>
      </trkpt>
      <trkpt lat="45.6943" lon="6.65939">
        <ele>1749.44</ele>
        <time>2019-10-14T16:11:00.000Z</time>
      </trkpt>
      <trkpt lat="45.69395" lon="6.65889">
        <ele>1746.18</ele>
        <time>2019-10-14T16:11:05.000Z</time>
      </trkpt>
      <trkpt lat="45.69362" lon="6.65835">
        <ele>1738.64</ele>
        <time>2019-10-14T16:11:10.000Z</time>
      </trkpt>
      <trkpt lat="45.69319" lon="6.65789">
        <ele>1730.69</ele>
        <time>2019-10-14T16:11:15.000Z</time>
      </trkpt>
      <trkpt lat="45.69287" lon="6.65717">
        <ele>1726.85</ele>
        <time>2019-10-14T16:11:20.000Z</time>
      </trkpt>
      <trkpt lat="45.69244" lon="6.6564">
        <ele>1724.8</ele>
        <time>2019-10-14T16:11:25.000Z</time>
      </trkpt>
      <trkpt lat="45.69206" lon="6.65558">
        <ele>1719.76</ele>
        <time>2019-10-14T16:11:30.000Z</time>
      </trkpt>
      <trkpt lat="45.69185" lon="6.65491">
        <ele>1716.19</ele>
        <time>2019-10-14T16:11:35.000Z</time>
      </trkpt>
      <trkpt lat="45.69161" lon="6.6545">
        <ele>1709.68</ele>
        <time>2019-10-14T16:11:40.000Z</time>
      </trkpt>
      <trkpt lat="45.69129" lon="6.65399">
        <ele>1707.12</ele>
        <time>2019-10-14T16:11:45.000Z</time>
      </trkpt>
      <trkpt lat="45.69111" lon="6.65367">
        <ele>1701.41</ele>
        <time>2019-10-14T16:11:50.000Z</time>
      </trkpt>
      <trkpt lat="45.69128" lon="6.65375">
        <ele>1698.42</ele>
        <time>2019-10-14T16:11:55.000Z</time>
      </trkpt>
      <trkpt lat="45.69135" lon="6.65385">
        <ele>1699.2</ele>
        <time>2019-10-14T16:12:00.000Z</time>
      </trkpt>
      <trkpt lat="45.69126" lon="6.65379">
        <ele>1696.6</ele>
        <time>2019-10-14T16:12:07.000Z</time>
      </trkpt>
      <trkpt lat="45.69119" lon="6.65371">
        <ele>1695.59</ele>
        <time>2019-10-14T16:12:13.000Z</time>
      </trkpt>
      <trkpt lat="45.69116" lon="6.65358">
        <ele>1692.94</ele>
        <time>2019-10-14T16:12:27.000Z</time>
      </trkpt>
      <trkpt lat="45.69124" lon="6.65355">
        <ele>1696.59</ele>
        <time>2019-10-14T16:13:33.000Z</time>
      </trkpt>
      <trkpt lat="45.69131" lon="6.65367">
        <ele>1693.09</ele>
        <time>2019-10-14T16:14:33.000Z</time>
      </trkpt>
      <trkpt lat="45.69143" lon="6.6539">
        <ele>1691.21</ele>
        <time>2019-10-14T16:14:38.000Z</time>
      </trkpt>
      <trkpt lat="45.69163" lon="6.65415">
        <ele>1690.1</ele>
        <time>2019-10-14T16:14:43.000Z</time>
      </trkpt>
      <trkpt lat="45.69189" lon="6.65443">
        <ele>1688.84</ele>
        <time>2019-10-14T16:14:48.000Z</time>
      </trkpt>
      <trkpt lat="45.69211" lon="6.65474">
        <ele>1686.7</ele>
        <time>2019-10-14T16:14:53.000Z</time>
      </trkpt>
      <trkpt lat="45.69236" lon="6.65514">
        <ele>1685.97</ele>
        <time>2019-10-14T16:14:58.000Z</time>
      </trkpt>
      <trkpt lat="45.69266" lon="6.65554">
        <ele>1684.53</ele>
        <time>2019-10-14T16:15:03.000Z</time>
      </trkpt>
      <trkpt lat="45.69302" lon="6.65591">
        <ele>1680.76</ele>
        <time>2019-10-14T16:15:08.000Z</time>
      </trkpt>
      <trkpt lat="45.69341" lon="6.65635">
        <ele>1675.01</ele>
        <time>2019-10-14T16:15:13.000Z</time>
      </trkpt>
      <trkpt lat="45.69381" lon="6.65678">
        <ele>1676.58</ele>
        <time>2019-10-14T16:15:18.000Z</time>
      </trkpt>
      <trkpt lat="45.69404" lon="6.65727">
        <ele>1670.87</ele>
        <time>2019-10-14T16:15:23.000Z</time>
      </trkpt>
      <trkpt lat="45.6944" lon="6.6577">
        <ele>1667.12</ele>
        <time>2019-10-14T16:15:28.000Z</time>
      </trkpt>
      <trkpt lat="45.69493" lon="6.65781">
        <ele>1666.81</ele>
        <time>2019-10-14T16:15:33.000Z</time>
      </trkpt>
      <trkpt lat="45.69552" lon="6.65788">
        <ele>1665.16</ele>
        <time>2019-10-14T16:15:38.000Z</time>
      </trkpt>
      <trkpt lat="45.69592" lon="6.65777">
        <ele>1657.51</ele>
        <time>2019-10-14T16:15:43.000Z</time>
      </trkpt>
      <trkpt lat="45.69608" lon="6.65718">
        <ele>1652.71</ele>
        <time>2019-10-14T16:15:48.000Z</time>
      </trkpt>
      <trkpt lat="45.69571" lon="6.65673">
        <ele>1644.18</ele>
        <time>2019-10-14T16:15:53.000Z</time>
      </trkpt>
      <trkpt lat="45.6952" lon="6.65674">
        <ele>1640.31</ele>
        <time>2019-10-14T16:15:58.000Z</time>
      </trkpt>
      <trkpt lat="45.69473" lon="6.65671">
        <ele>1635.78</ele>
        <time>2019-10-14T16:16:03.000Z</time>
      </trkpt>
      <trkpt lat="45.69444" lon="6.65617">
        <ele>1629.34</ele>
        <time>2019-10-14T16:16:08.000Z</time>
      </trkpt>
      <trkpt lat="45.6946" lon="6.65553">
        <ele>1622.22</ele>
        <time>2019-10-14T16:16:13.000Z</time>
      </trkpt>
      <trkpt lat="45.69515" lon="6.65544">
        <ele>1626.59</ele>
        <time>2019-10-14T16:16:18.000Z</time>
      </trkpt>
      <trkpt lat="45.6957" lon="6.65571">
        <ele>1621.36</ele>
        <time>2019-10-14T16:16:23.000Z</time>
      </trkpt>
      <trkpt lat="45.69629" lon="6.65598">
        <ele>1616.65</ele>
        <time>2019-10-14T16:16:28.000Z</time>
      </trkpt>
      <trkpt lat="45.69688" lon="6.65624">
        <ele>1614.23</ele>
        <time>2019-10-14T16:16:33.000Z</time>
      </trkpt>
      <trkpt lat="45.6975" lon="6.65643">
        <ele>1607.67</ele>
        <time>2019-10-14T16:16:38.000Z</time>
      </trkpt>
      <trkpt lat="45.69803" lon="6.65625">
        <ele>1602.34</ele>
        <time>2019-10-14T16:16:43.000Z</time>
      </trkpt>
      <trkpt lat="45.69851" lon="6.65571">
        <ele>1599.5</ele>
        <time>2019-10-14T16:16:48.000Z</time>
      </trkpt>
      <trkpt lat="45.69902" lon="6.6553">
        <ele>1596.14</ele>
        <time>2019-10-14T16:16:53.000Z</time>
      </trkpt>
      <trkpt lat="45.69958" lon="6.65506">
        <ele>1595.49</ele>
        <time>2019-10-14T16:16:58.000Z</time>
      </trkpt>
      <trkpt lat="45.69979" lon="6.65446">
        <ele>1593.94</ele>
        <time>2019-10-14T16:17:03.000Z</time>
      </trkpt>
      <trkpt lat="45.69997" lon="6.65394">
        <ele>1594.94</ele>
        <time>2019-10-14T16:17:08.000Z</time>
      </trkpt>
      <trkpt lat="45.70017" lon="6.65352">
        <ele>1590.52</ele>
        <time>2019-10-14T16:17:13.000Z</time>
      </trkpt>
      <trkpt lat="45.7004" lon="6.65308">
        <ele>1593.05</ele>
        <time>2019-10-14T16:17:18.000Z</time>
      </trkpt>
      <trkpt lat="45.70041" lon="6.6526">
        <ele>1591.16</ele>
        <time>2019-10-14T16:17:23.000Z</time>
      </trkpt>
      <trkpt lat="45.70036" lon="6.65211">
        <ele>1593.94</ele>
        <time>2019-10-14T16:17:28.000Z</time>
      </trkpt>
      <trkpt lat="45.70041" lon="6.65166">
        <ele>1589.67</ele>
        <time>2019-10-14T16:17:33.000Z</time>
      </trkpt>
      <trkpt lat="45.70043" lon="6.65136">
        <ele>1587.03</ele>
        <time>2019-10-14T16:17:38.000Z</time>
      </trkpt>
      <trkpt lat="45.70039" lon="6.65104">
        <ele>1585.23</ele>
        <time>2019-10-14T16:17:43.000Z</time>
      </trkpt>
      <trkpt lat="45.70034" lon="6.65074">
        <ele>1586.19</ele>
        <time>2019-10-14T16:17:48.000Z</time>
      </trkpt>
      <trkpt lat="45.70023" lon="6.65052">
        <ele>1591.47</ele>
        <time>2019-10-14T16:17:53.000Z</time>
      </trkpt>
      <trkpt lat="45.70023" lon="6.65033">
        <ele>1598.36</ele>
        <time>2019-10-14T16:17:58.000Z</time>
      </trkpt>
      <trkpt lat="45.70029" lon="6.6502">
        <ele>1602.03</ele>
        <time>2019-10-14T16:18:43.000Z</time>
      </trkpt>
      <trkpt lat="45.70045" lon="6.65003">
        <ele>1604.09</ele>
        <time>2019-10-14T16:18:48.000Z</time>
      </trkpt>
      <trkpt lat="45.70069" lon="6.64989">
        <ele>1609.56</ele>
        <time>2019-10-14T16:18:53.000Z</time>
      </trkpt>
      <trkpt lat="45.70088" lon="6.64968">
        <ele>1608.59</ele>
        <time>2019-10-14T16:18:58.000Z</time>
      </trkpt>
      <trkpt lat="45.70104" lon="6.64938">
        <ele>1606.19</ele>
        <time>2019-10-14T16:19:03.000Z</time>
      </trkpt>
      <trkpt lat="45.70112" lon="6.64903">
        <ele>1603.43</ele>
        <time>2019-10-14T16:19:08.000Z</time>
      </trkpt>
      <trkpt lat="45.70112" lon="6.64868">
        <ele>1601.61</ele>
        <time>2019-10-14T16:19:13.000Z</time>
      </trkpt>
      <trkpt lat="45.70099" lon="6.64832">
        <ele>1604.27</ele>
        <time>2019-10-14T16:19:18.000Z</time>
      </trkpt>
      <trkpt lat="45.7008" lon="6.64804">
        <ele>1608.43</ele>
        <time>2019-10-14T16:19:23.000Z</time>
      </trkpt>
      <trkpt lat="45.70062" lon="6.64774">
        <ele>1605.73</ele>
        <time>2019-10-14T16:19:28.000Z</time>
      </trkpt>
      <trkpt lat="45.70041" lon="6.64741">
        <ele>1609.14</ele>
        <time>2019-10-14T16:19:33.000Z</time>
      </trkpt>
      <trkpt lat="45.70032" lon="6.64701">
        <ele>1610.65</ele>
        <time>2019-10-14T16:19:38.000Z</time>
      </trkpt>
      <trkpt lat="45.7001" lon="6.64677">
        <ele>1614.41</ele>
        <time>2019-10-14T16:19:43.000Z</time>
      </trkpt>
      <trkpt lat="45.69996" lon="6.64632">
        <ele>1613</ele>
        <time>2019-10-14T16:19:48.000Z</time>
      </trkpt>
      <trkpt lat="45.69979" lon="6.64596">
        <ele>1613.86</ele>
        <time>2019-10-14T16:19:53.000Z</time>
      </trkpt>
      <trkpt lat="45.69987" lon="6.64552">
        <ele>1613</ele>
        <time>2019-10-14T16:19:58.000Z</time>
      </trkpt>
      <trkpt lat="45.70007" lon="6.64528">
        <ele>1614.94</ele>
        <time>2019-10-14T16:20:03.000Z</time>
      </trkpt>
      <trkpt lat="45.70038" lon="6.64508">
        <ele>1612.07</ele>
        <time>2019-10-14T16:20:08.000Z</time>
      </trkpt>
      <trkpt lat="45.70067" lon="6.64474">
        <ele>1614.14</ele>
        <time>2019-10-14T16:20:13.000Z</time>
      </trkpt>
      <trkpt lat="45.70078" lon="6.64409">
        <ele>1613.86</ele>
        <time>2019-10-14T16:20:18.000Z</time>
      </trkpt>
      <trkpt lat="45.70067" lon="6.64365">
        <ele>1611.65</ele>
        <time>2019-10-14T16:20:23.000Z</time>
      </trkpt>
      <trkpt lat="45.70052" lon="6.64331">
        <ele>1612.22</ele>
        <time>2019-10-14T16:20:28.000Z</time>
      </trkpt>
      <trkpt lat="45.70046" lon="6.64287">
        <ele>1606.2</ele>
        <time>2019-10-14T16:20:33.000Z</time>
      </trkpt>
      <trkpt lat="45.70036" lon="6.64242">
        <ele>1608.67</ele>
        <time>2019-10-14T16:20:38.000Z</time>
      </trkpt>
      <trkpt lat="45.70021" lon="6.64198">
        <ele>1611.18</ele>
        <time>2019-10-14T16:20:43.000Z</time>
      </trkpt>
      <trkpt lat="45.70006" lon="6.64152">
        <ele>1609.64</ele>
        <time>2019-10-14T16:20:48.000Z</time>
      </trkpt>
      <trkpt lat="45.6999" lon="6.64104">
        <ele>1608.93</ele>
        <time>2019-10-14T16:20:53.000Z</time>
      </trkpt>
      <trkpt lat="45.69966" lon="6.6406">
        <ele>1605.15</ele>
        <time>2019-10-14T16:20:58.000Z</time>
      </trkpt>
      <trkpt lat="45.69942" lon="6.6402">
        <ele>1608.65</ele>
        <time>2019-10-14T16:21:03.000Z</time>
      </trkpt>
      <trkpt lat="45.69912" lon="6.63988">
        <ele>1608.2</ele>
        <time>2019-10-14T16:21:08.000Z</time>
      </trkpt>
      <trkpt lat="45.6988" lon="6.6396">
        <ele>1613.85</ele>
        <time>2019-10-14T16:21:13.000Z</time>
      </trkpt>
      <trkpt lat="45.69849" lon="6.63927">
        <ele>1615.92</ele>
        <time>2019-10-14T16:21:18.000Z</time>
      </trkpt>
      <trkpt lat="45.6983" lon="6.63882">
        <ele>1613.66</ele>
        <time>2019-10-14T16:21:23.000Z</time>
      </trkpt>
      <trkpt lat="45.69805" lon="6.63845">
        <ele>1612.45</ele>
        <time>2019-10-14T16:21:28.000Z</time>
      </trkpt>
      <trkpt lat="45.69772" lon="6.63818">
        <ele>1614.39</ele>
        <time>2019-10-14T16:21:33.000Z</time>
      </trkpt>
      <trkpt lat="45.69736" lon="6.63798">
        <ele>1615.83</ele>
        <time>2019-10-14T16:21:38.000Z</time>
      </trkpt>
      <trkpt lat="45.69701" lon="6.63772">
        <ele>1614.18</ele>
        <time>2019-10-14T16:21:43.000Z</time>
      </trkpt>
      <trkpt lat="45.69676" lon="6.63744">
        <ele>1611.03</ele>
        <time>2019-10-14T16:21:48.000Z</time>
      </trkpt>
      <trkpt lat="45.69669" lon="6.63728">
        <ele>1608.6</ele>
        <time>2019-10-14T16:21:53.000Z</time>
      </trkpt>
      <trkpt lat="45.69661" lon="6.63734">
        <ele>1611.74</ele>
        <time>2019-10-14T16:22:07.000Z</time>
      </trkpt>
      <trkpt lat="45.69663" lon="6.6372">
        <ele>1611.42</ele>
        <time>2019-10-14T16:25:01.000Z</time>
      </trkpt>
      <trkpt lat="45.69654" lon="6.63697">
        <ele>1609.3</ele>
        <time>2019-10-14T16:25:06.000Z</time>
      </trkpt>
      <trkpt lat="45.69639" lon="6.63671">
        <ele>1607.22</ele>
        <time>2019-10-14T16:25:11.000Z</time>
      </trkpt>
      <trkpt lat="45.69618" lon="6.6365">
        <ele>1607.76</ele>
        <time>2019-10-14T16:25:16.000Z</time>
      </trkpt>
      <trkpt lat="45.69596" lon="6.63623">
        <ele>1607</ele>
        <time>2019-10-14T16:25:21.000Z</time>
      </trkpt>
      <trkpt lat="45.69575" lon="6.63598">
        <ele>1607.12</ele>
        <time>2019-10-14T16:25:26.000Z</time>
      </trkpt>
      <trkpt lat="45.69563" lon="6.63566">
        <ele>1607.3</ele>
        <time>2019-10-14T16:25:31.000Z</time>
      </trkpt>
      <trkpt lat="45.69553" lon="6.63536">
        <ele>1607.54</ele>
        <time>2019-10-14T16:25:36.000Z</time>
      </trkpt>
      <trkpt lat="45.6953" lon="6.6352">
        <ele>1612.58</ele>
        <time>2019-10-14T16:25:41.000Z</time>
      </trkpt>
      <trkpt lat="45.69514" lon="6.63499">
        <ele>1615.91</ele>
        <time>2019-10-14T16:25:46.000Z</time>
      </trkpt>
      <trkpt lat="45.69505" lon="6.63494">
        <ele>1612.51</ele>
        <time>2019-10-14T16:25:52.000Z</time>
      </trkpt>
      <trkpt lat="45.69505" lon="6.63478">
        <ele>1609.97</ele>
        <time>2019-10-14T16:28:29.000Z</time>
      </trkpt>
      <trkpt lat="45.69503" lon="6.63455">
        <ele>1611.92</ele>
        <time>2019-10-14T16:28:34.000Z</time>
      </trkpt>
      <trkpt lat="45.69501" lon="6.63438">
        <ele>1610.87</ele>
        <time>2019-10-14T16:28:39.000Z</time>
      </trkpt>
      <trkpt lat="45.69501" lon="6.63421">
        <ele>1613.92</ele>
        <time>2019-10-14T16:28:44.000Z</time>
      </trkpt>
      <trkpt lat="45.69498" lon="6.63397">
        <ele>1614.81</ele>
        <time>2019-10-14T16:28:49.000Z</time>
      </trkpt>
      <trkpt lat="45.69498" lon="6.63373">
        <ele>1613.67</ele>
        <time>2019-10-14T16:28:54.000Z</time>
      </trkpt>
      <trkpt lat="45.69484" lon="6.63347">
        <ele>1614.39</ele>
        <time>2019-10-14T16:28:59.000Z</time>
      </trkpt>
      <trkpt lat="45.69462" lon="6.63322">
        <ele>1613.03</ele>
        <time>2019-10-14T16:29:04.000Z</time>
      </trkpt>
      <trkpt lat="45.69433" lon="6.63286">
        <ele>1612.01</ele>
        <time>2019-10-14T16:29:09.000Z</time>
      </trkpt>
      <trkpt lat="45.69413" lon="6.63217">
        <ele>1608.51</ele>
        <time>2019-10-14T16:29:14.000Z</time>
      </trkpt>
      <trkpt lat="45.69411" lon="6.63169">
        <ele>1607.11</ele>
        <time>2019-10-14T16:29:19.000Z</time>
      </trkpt>
      <trkpt lat="45.69387" lon="6.6313">
        <ele>1605.84</ele>
        <time>2019-10-14T16:29:24.000Z</time>
      </trkpt>
      <trkpt lat="45.69361" lon="6.6312">
        <ele>1603.46</ele>
        <time>2019-10-14T16:29:29.000Z</time>
      </trkpt>
      <trkpt lat="45.69321" lon="6.63086">
        <ele>1597.11</ele>
        <time>2019-10-14T16:29:34.000Z</time>
      </trkpt>
      <trkpt lat="45.69274" lon="6.63062">
        <ele>1591.57</ele>
        <time>2019-10-14T16:29:39.000Z</time>
      </trkpt>
      <trkpt lat="45.69216" lon="6.63041">
        <ele>1590.68</ele>
        <time>2019-10-14T16:29:44.000Z</time>
      </trkpt>
      <trkpt lat="45.69165" lon="6.62996">
        <ele>1588.21</ele>
        <time>2019-10-14T16:29:49.000Z</time>
      </trkpt>
      <trkpt lat="45.69138" lon="6.62948">
        <ele>1585.31</ele>
        <time>2019-10-14T16:29:54.000Z</time>
      </trkpt>
      <trkpt lat="45.69097" lon="6.6292">
        <ele>1588.19</ele>
        <time>2019-10-14T16:29:59.000Z</time>
      </trkpt>
      <trkpt lat="45.6906" lon="6.6288">
        <ele>1586.11</ele>
        <time>2019-10-14T16:30:04.000Z</time>
      </trkpt>
      <trkpt lat="45.69013" lon="6.62865">
        <ele>1587.71</ele>
        <time>2019-10-14T16:30:09.000Z</time>
      </trkpt>
      <trkpt lat="45.68989" lon="6.62819">
        <ele>1584.52</ele>
        <time>2019-10-14T16:30:14.000Z</time>
      </trkpt>
      <trkpt lat="45.68956" lon="6.62781">
        <ele>1583.29</ele>
        <time>2019-10-14T16:30:19.000Z</time>
      </trkpt>
      <trkpt lat="45.68925" lon="6.62752">
        <ele>1583.42</ele>
        <time>2019-10-14T16:30:24.000Z</time>
      </trkpt>
      <trkpt lat="45.68905" lon="6.62704">
        <ele>1581.41</ele>
        <time>2019-10-14T16:30:29.000Z</time>
      </trkpt>
      <trkpt lat="45.68886" lon="6.62658">
        <ele>1578.55</ele>
        <time>2019-10-14T16:30:34.000Z</time>
      </trkpt>
      <trkpt lat="45.68866" lon="6.62629">
        <ele>1578.92</ele>
        <time>2019-10-14T16:30:39.000Z</time>
      </trkpt>
      <trkpt lat="45.68846" lon="6.62601">
        <ele>1581.25</ele>
        <time>2019-10-14T16:30:44.000Z</time>
      </trkpt>
      <trkpt lat="45.68837" lon="6.62571">
        <ele>1574.94</ele>
        <time>2019-10-14T16:30:49.000Z</time>
      </trkpt>
      <trkpt lat="45.68828" lon="6.62547">
        <ele>1572.49</ele>
        <time>2019-10-14T16:30:54.000Z</time>
      </trkpt>
      <trkpt lat="45.68796" lon="6.62519">
        <ele>1573.87</ele>
        <time>2019-10-14T16:30:59.000Z</time>
      </trkpt>
      <trkpt lat="45.68772" lon="6.62477">
        <ele>1573.62</ele>
        <time>2019-10-14T16:31:04.000Z</time>
      </trkpt>
      <trkpt lat="45.68755" lon="6.62448">
        <ele>1569.17</ele>
        <time>2019-10-14T16:31:09.000Z</time>
      </trkpt>
      <trkpt lat="45.68729" lon="6.62435">
        <ele>1566.79</ele>
        <time>2019-10-14T16:31:14.000Z</time>
      </trkpt>
      <trkpt lat="45.68699" lon="6.62419">
        <ele>1566.61</ele>
        <time>2019-10-14T16:31:19.000Z</time>
      </trkpt>
      <trkpt lat="45.68684" lon="6.6241">
        <ele>1564.4</ele>
        <time>2019-10-14T16:31:24.000Z</time>
      </trkpt>
      <trkpt lat="45.68672" lon="6.62402">
        <ele>1557.54</ele>
        <time>2019-10-14T16:35:18.000Z</time>
      </trkpt>
      <trkpt lat="45.68656" lon="6.62388">
        <ele>1557.89</ele>
        <time>2019-10-14T16:35:23.000Z</time>
      </trkpt>
      <trkpt lat="45.68636" lon="6.62371">
        <ele>1559.38</ele>
        <time>2019-10-14T16:35:28.000Z</time>
      </trkpt>
      <trkpt lat="45.68619" lon="6.62353">
        <ele>1557.79</ele>
        <time>2019-10-14T16:35:33.000Z</time>
      </trkpt>
      <trkpt lat="45.68597" lon="6.62325">
        <ele>1557.65</ele>
        <time>2019-10-14T16:35:38.000Z</time>
      </trkpt>
      <trkpt lat="45.68574" lon="6.62294">
        <ele>1559.48</ele>
        <time>2019-10-14T16:35:43.000Z</time>
      </trkpt>
      <trkpt lat="45.6855" lon="6.62258">
        <ele>1558.97</ele>
        <time>2019-10-14T16:35:48.000Z</time>
      </trkpt>
      <trkpt lat="45.68528" lon="6.62223">
        <ele>1562.38</ele>
        <time>2019-10-14T16:35:53.000Z</time>
      </trkpt>
      <trkpt lat="45.68506" lon="6.62183">
        <ele>1562.48</ele>
        <time>2019-10-14T16:35:58.000Z</time>
      </trkpt>
      <trkpt lat="45.68486" lon="6.6214">
        <ele>1565.69</ele>
        <time>2019-10-14T16:36:03.000Z</time>
      </trkpt>
      <trkpt lat="45.68467" lon="6.62096">
        <ele>1567.31</ele>
        <time>2019-10-14T16:36:08.000Z</time>
      </trkpt>
      <trkpt lat="45.68449" lon="6.62058">
        <ele>1565.15</ele>
        <time>2019-10-14T16:36:13.000Z</time>
      </trkpt>
      <trkpt lat="45.68427" lon="6.62015">
        <ele>1563.85</ele>
        <time>2019-10-14T16:36:18.000Z</time>
      </trkpt>
      <trkpt lat="45.68411" lon="6.61972">
        <ele>1563.03</ele>
        <time>2019-10-14T16:36:23.000Z</time>
      </trkpt>
      <trkpt lat="45.68391" lon="6.6193">
        <ele>1563.61</ele>
        <time>2019-10-14T16:36:28.000Z</time>
      </trkpt>
      <trkpt lat="45.68373" lon="6.61888">
        <ele>1565.18</ele>
        <time>2019-10-14T16:36:33.000Z</time>
      </trkpt>
      <trkpt lat="45.68355" lon="6.61844">
        <ele>1562.61</ele>
        <time>2019-10-14T16:36:38.000Z</time>
      </trkpt>
      <trkpt lat="45.68333" lon="6.618">
        <ele>1562.52</ele>
        <time>2019-10-14T16:36:43.000Z</time>
      </trkpt>
      <trkpt lat="45.68313" lon="6.61765">
        <ele>1561.46</ele>
        <time>2019-10-14T16:36:48.000Z</time>
      </trkpt>
      <trkpt lat="45.6829" lon="6.6172">
        <ele>1560.34</ele>
        <time>2019-10-14T16:36:53.000Z</time>
      </trkpt>
      <trkpt lat="45.68269" lon="6.61686">
        <ele>1559.36</ele>
        <time>2019-10-14T16:36:58.000Z</time>
      </trkpt>
      <trkpt lat="45.6825" lon="6.61663">
        <ele>1560.62</ele>
        <time>2019-10-14T16:37:03.000Z</time>
      </trkpt>
      <trkpt lat="45.68227" lon="6.61644">
        <ele>1564</ele>
        <time>2019-10-14T16:37:08.000Z</time>
      </trkpt>
      <trkpt lat="45.68211" lon="6.61633">
        <ele>1564.64</ele>
        <time>2019-10-14T16:37:13.000Z</time>
      </trkpt>
      <trkpt lat="45.68195" lon="6.61615">
        <ele>1566.07</ele>
        <time>2019-10-14T16:37:18.000Z</time>
      </trkpt>
      <trkpt lat="45.68178" lon="6.61597">
        <ele>1567.54</ele>
        <time>2019-10-14T16:37:23.000Z</time>
      </trkpt>
      <trkpt lat="45.68162" lon="6.61581">
        <ele>1566.68</ele>
        <time>2019-10-14T16:37:28.000Z</time>
      </trkpt>
      <trkpt lat="45.68144" lon="6.61568">
        <ele>1566.55</ele>
        <time>2019-10-14T16:37:33.000Z</time>
      </trkpt>
      <trkpt lat="45.68127" lon="6.61562">
        <ele>1568.88</ele>
        <time>2019-10-14T16:37:38.000Z</time>
      </trkpt>
      <trkpt lat="45.68135" lon="6.6157">
        <ele>1578.06</ele>
        <time>2019-10-14T16:38:39.000Z</time>
      </trkpt>
      <trkpt lat="45.68143" lon="6.61578">
        <ele>1576.09</ele>
        <time>2019-10-14T16:38:45.000Z</time>
      </trkpt>
      <trkpt lat="45.6815" lon="6.61585">
        <ele>1576.33</ele>
        <time>2019-10-14T16:38:51.000Z</time>
      </trkpt>
      <trkpt lat="45.68159" lon="6.6159">
        <ele>1574.76</ele>
        <time>2019-10-14T16:38:56.000Z</time>
      </trkpt>
      <trkpt lat="45.68168" lon="6.61596">
        <ele>1576.29</ele>
        <time>2019-10-14T16:39:01.000Z</time>
      </trkpt>
      <trkpt lat="45.68175" lon="6.61604">
        <ele>1572.82</ele>
        <time>2019-10-14T16:39:07.000Z</time>
      </trkpt>
      <trkpt lat="45.68183" lon="6.6161">
        <ele>1573.65</ele>
        <time>2019-10-14T16:39:12.000Z</time>
      </trkpt>
      <trkpt lat="45.68187" lon="6.61623">
        <ele>1570.88</ele>
        <time>2019-10-14T16:39:21.000Z</time>
      </trkpt>
      <trkpt lat="45.68178" lon="6.61616">
        <ele>1572.49</ele>
        <time>2019-10-14T16:39:45.000Z</time>
      </trkpt>
      <trkpt lat="45.68172" lon="6.61607">
        <ele>1566.35</ele>
        <time>2019-10-14T16:39:51.000Z</time>
      </trkpt>
      <trkpt lat="45.68163" lon="6.616">
        <ele>1567.79</ele>
        <time>2019-10-14T16:39:58.000Z</time>
      </trkpt>
      <trkpt lat="45.68157" lon="6.6159">
        <ele>1565.44</ele>
        <time>2019-10-14T16:40:04.000Z</time>
      </trkpt>
      <trkpt lat="45.6815" lon="6.61582">
        <ele>1562.55</ele>
        <time>2019-10-14T16:40:11.000Z</time>
      </trkpt>
      <trkpt lat="45.68142" lon="6.61574">
        <ele>1560.9</ele>
        <time>2019-10-14T16:40:20.000Z</time>
      </trkpt>
      <trkpt lat="45.68136" lon="6.61562">
        <ele>1565.89</ele>
        <time>2019-10-14T16:40:30.000Z</time>
      </trkpt>
      <trkpt lat="45.68126" lon="6.61552">
        <ele>1568.79</ele>
        <time>2019-10-14T16:41:02.000Z</time>
      </trkpt>
      <trkpt lat="45.68105" lon="6.61542">
        <ele>1569.33</ele>
        <time>2019-10-14T16:41:07.000Z</time>
      </trkpt>
      <trkpt lat="45.68088" lon="6.61533">
        <ele>1567.77</ele>
        <time>2019-10-14T16:41:12.000Z</time>
      </trkpt>
      <trkpt lat="45.68072" lon="6.61525">
        <ele>1571.26</ele>
        <time>2019-10-14T16:41:17.000Z</time>
      </trkpt>
      <trkpt lat="45.6806" lon="6.61508">
        <ele>1571.79</ele>
        <time>2019-10-14T16:41:22.000Z</time>
      </trkpt>
      <trkpt lat="45.68072" lon="6.61502">
        <ele>1571.46</ele>
        <time>2019-10-14T16:41:27.000Z</time>
      </trkpt>
      <trkpt lat="45.68105" lon="6.61511">
        <ele>1577</ele>
        <time>2019-10-14T16:41:35.000Z</time>
      </trkpt>
      <trkpt lat="45.68123" lon="6.61512">
        <ele>1575.84</ele>
        <time>2019-10-14T16:41:40.000Z</time>
      </trkpt>
      <trkpt lat="45.68142" lon="6.61516">
        <ele>1576.91</ele>
        <time>2019-10-14T16:41:45.000Z</time>
      </trkpt>
      <trkpt lat="45.68157" lon="6.61522">
        <ele>1574.49</ele>
        <time>2019-10-14T16:41:50.000Z</time>
      </trkpt>
      <trkpt lat="45.68176" lon="6.61524">
        <ele>1575.99</ele>
        <time>2019-10-14T16:41:55.000Z</time>
      </trkpt>
      <trkpt lat="45.68193" lon="6.61528">
        <ele>1578.46</ele>
        <time>2019-10-14T16:42:00.000Z</time>
      </trkpt>
      <trkpt lat="45.6821" lon="6.6153">
        <ele>1579.18</ele>
        <time>2019-10-14T16:42:05.000Z</time>
      </trkpt>
      <trkpt lat="45.68229" lon="6.61535">
        <ele>1584.45</ele>
        <time>2019-10-14T16:42:10.000Z</time>
      </trkpt>
      <trkpt lat="45.68247" lon="6.61545">
        <ele>1585.9</ele>
        <time>2019-10-14T16:42:15.000Z</time>
      </trkpt>
      <trkpt lat="45.68264" lon="6.61556">
        <ele>1585.45</ele>
        <time>2019-10-14T16:42:20.000Z</time>
      </trkpt>
      <trkpt lat="45.68278" lon="6.6157">
        <ele>1590.61</ele>
        <time>2019-10-14T16:42:25.000Z</time>
      </trkpt>
      <trkpt lat="45.68288" lon="6.61591">
        <ele>1592.83</ele>
        <time>2019-10-14T16:42:30.000Z</time>
      </trkpt>
      <trkpt lat="45.68297" lon="6.61606">
        <ele>1599.88</ele>
        <time>2019-10-14T16:42:35.000Z</time>
      </trkpt>
      <trkpt lat="45.68306" lon="6.61627">
        <ele>1602.04</ele>
        <time>2019-10-14T16:42:40.000Z</time>
      </trkpt>
      <trkpt lat="45.68313" lon="6.6165">
        <ele>1603.74</ele>
        <time>2019-10-14T16:42:45.000Z</time>
      </trkpt>
      <trkpt lat="45.6833" lon="6.61663">
        <ele>1604.29</ele>
        <time>2019-10-14T16:42:50.000Z</time>
      </trkpt>
      <trkpt lat="45.68348" lon="6.61669">
        <ele>1609.6</ele>
        <time>2019-10-14T16:42:55.000Z</time>
      </trkpt>
      <trkpt lat="45.68345" lon="6.61656">
        <ele>1616.07</ele>
        <time>2019-10-14T16:44:54.000Z</time>
      </trkpt>
      <trkpt lat="45.68331" lon="6.61631">
        <ele>1618.41</ele>
        <time>2019-10-14T16:44:59.000Z</time>
      </trkpt>
      <trkpt lat="45.68321" lon="6.61606">
        <ele>1613.45</ele>
        <time>2019-10-14T16:45:04.000Z</time>
      </trkpt>
      <trkpt lat="45.68319" lon="6.61582">
        <ele>1612.72</ele>
        <time>2019-10-14T16:45:09.000Z</time>
      </trkpt>
      <trkpt lat="45.68341" lon="6.61572">
        <ele>1614.94</ele>
        <time>2019-10-14T16:45:14.000Z</time>
      </trkpt>
      <trkpt lat="45.68366" lon="6.61566">
        <ele>1613.67</ele>
        <time>2019-10-14T16:45:19.000Z</time>
      </trkpt>
      <trkpt lat="45.68385" lon="6.61551">
        <ele>1614.89</ele>
        <time>2019-10-14T16:45:24.000Z</time>
      </trkpt>
      <trkpt lat="45.68399" lon="6.61536">
        <ele>1615.07</ele>
        <time>2019-10-14T16:45:29.000Z</time>
      </trkpt>
      <trkpt lat="45.68412" lon="6.61513">
        <ele>1615.2</ele>
        <time>2019-10-14T16:45:34.000Z</time>
      </trkpt>
      <trkpt lat="45.68416" lon="6.6149">
        <ele>1617.01</ele>
        <time>2019-10-14T16:45:39.000Z</time>
      </trkpt>
      <trkpt lat="45.68408" lon="6.61466">
        <ele>1616.51</ele>
        <time>2019-10-14T16:45:44.000Z</time>
      </trkpt>
      <trkpt lat="45.68396" lon="6.61449">
        <ele>1614.84</ele>
        <time>2019-10-14T16:45:49.000Z</time>
      </trkpt>
      <trkpt lat="45.68384" lon="6.61431">
        <ele>1617.66</ele>
        <time>2019-10-14T16:45:54.000Z</time>
      </trkpt>
      <trkpt lat="45.68374" lon="6.61406">
        <ele>1622.97</ele>
        <time>2019-10-14T16:45:59.000Z</time>
      </trkpt>
      <trkpt lat="45.68367" lon="6.61381">
        <ele>1625.35</ele>
        <time>2019-10-14T16:46:04.000Z</time>
      </trkpt>
      <trkpt lat="45.68363" lon="6.61355">
        <ele>1625.2</ele>
        <time>2019-10-14T16:46:09.000Z</time>
      </trkpt>
      <trkpt lat="45.68357" lon="6.61331">
        <ele>1625.31</ele>
        <time>2019-10-14T16:46:14.000Z</time>
      </trkpt>
      <trkpt lat="45.68346" lon="6.6131">
        <ele>1628.3</ele>
        <time>2019-10-14T16:46:19.000Z</time>
      </trkpt>
      <trkpt lat="45.68327" lon="6.61302">
        <ele>1630.88</ele>
        <time>2019-10-14T16:46:24.000Z</time>
      </trkpt>
      <trkpt lat="45.68309" lon="6.61303">
        <ele>1632.63</ele>
        <time>2019-10-14T16:46:29.000Z</time>
      </trkpt>
      <trkpt lat="45.68291" lon="6.61304">
        <ele>1636.73</ele>
        <time>2019-10-14T16:46:34.000Z</time>
      </trkpt>
      <trkpt lat="45.68274" lon="6.61303">
        <ele>1639.03</ele>
        <time>2019-10-14T16:46:39.000Z</time>
      </trkpt>
      <trkpt lat="45.68254" lon="6.61301">
        <ele>1641.89</ele>
        <time>2019-10-14T16:46:44.000Z</time>
      </trkpt>
      <trkpt lat="45.68238" lon="6.61299">
        <ele>1640.55</ele>
        <time>2019-10-14T16:46:49.000Z</time>
      </trkpt>
      <trkpt lat="45.68221" lon="6.61297">
        <ele>1648.77</ele>
        <time>2019-10-14T16:46:54.000Z</time>
      </trkpt>
      <trkpt lat="45.68202" lon="6.61296">
        <ele>1647.75</ele>
        <time>2019-10-14T16:46:59.000Z</time>
      </trkpt>
      <trkpt lat="45.68189" lon="6.61285">
        <ele>1646.23</ele>
        <time>2019-10-14T16:47:04.000Z</time>
      </trkpt>
      <trkpt lat="45.68201" lon="6.61275">
        <ele>1646.81</ele>
        <time>2019-10-14T16:47:09.000Z</time>
      </trkpt>
      <trkpt lat="45.68222" lon="6.6127">
        <ele>1650.53</ele>
        <time>2019-10-14T16:47:14.000Z</time>
      </trkpt>
      <trkpt lat="45.6824" lon="6.61263">
        <ele>1647.74</ele>
        <time>2019-10-14T16:47:19.000Z</time>
      </trkpt>
      <trkpt lat="45.68256" lon="6.61253">
        <ele>1646.21</ele>
        <time>2019-10-14T16:47:24.000Z</time>
      </trkpt>
      <trkpt lat="45.68273" lon="6.61243">
        <ele>1647.84</ele>
        <time>2019-10-14T16:47:29.000Z</time>
      </trkpt>
      <trkpt lat="45.68288" lon="6.61234">
        <ele>1650.76</ele>
        <time>2019-10-14T16:47:34.000Z</time>
      </trkpt>
      <trkpt lat="45.68302" lon="6.61224">
        <ele>1652.62</ele>
        <time>2019-10-14T16:47:39.000Z</time>
      </trkpt>
      <trkpt lat="45.68315" lon="6.61212">
        <ele>1658.24</ele>
        <time>2019-10-14T16:47:44.000Z</time>
      </trkpt>
      <trkpt lat="45.6833" lon="6.61206">
        <ele>1658.37</ele>
        <time>2019-10-14T16:47:49.000Z</time>
      </trkpt>
      <trkpt lat="45.68348" lon="6.61199">
        <ele>1657.89</ele>
        <time>2019-10-14T16:47:54.000Z</time>
      </trkpt>
      <trkpt lat="45.68364" lon="6.61189">
        <ele>1657.97</ele>
        <time>2019-10-14T16:47:59.000Z</time>
      </trkpt>
      <trkpt lat="45.68379" lon="6.61192">
        <ele>1661.08</ele>
        <time>2019-10-14T16:48:04.000Z</time>
      </trkpt>
      <trkpt lat="45.68395" lon="6.61201">
        <ele>1662.16</ele>
        <time>2019-10-14T16:48:09.000Z</time>
      </trkpt>
      <trkpt lat="45.68412" lon="6.61199">
        <ele>1663.43</ele>
        <time>2019-10-14T16:48:14.000Z</time>
      </trkpt>
      <trkpt lat="45.68435" lon="6.61194">
        <ele>1666.92</ele>
        <time>2019-10-14T16:48:19.000Z</time>
      </trkpt>
      <trkpt lat="45.68414" lon="6.61185">
        <ele>1667.9</ele>
        <time>2019-10-14T16:48:24.000Z</time>
      </trkpt>
      <trkpt lat="45.68393" lon="6.61183">
        <ele>1670.19</ele>
        <time>2019-10-14T16:48:29.000Z</time>
      </trkpt>
      <trkpt lat="45.68379" lon="6.61169">
        <ele>1671.9</ele>
        <time>2019-10-14T16:48:34.000Z</time>
      </trkpt>
      <trkpt lat="45.68366" lon="6.61155">
        <ele>1674.38</ele>
        <time>2019-10-14T16:48:39.000Z</time>
      </trkpt>
      <trkpt lat="45.6835" lon="6.6116">
        <ele>1674.71</ele>
        <time>2019-10-14T16:48:44.000Z</time>
      </trkpt>
      <trkpt lat="45.68333" lon="6.61161">
        <ele>1675.64</ele>
        <time>2019-10-14T16:48:49.000Z</time>
      </trkpt>
      <trkpt lat="45.68317" lon="6.61153">
        <ele>1680.7</ele>
        <time>2019-10-14T16:48:54.000Z</time>
      </trkpt>
      <trkpt lat="45.683" lon="6.61152">
        <ele>1683.7</ele>
        <time>2019-10-14T16:48:59.000Z</time>
      </trkpt>
      <trkpt lat="45.68286" lon="6.61148">
        <ele>1689.72</ele>
        <time>2019-10-14T16:49:04.000Z</time>
      </trkpt>
      <trkpt lat="45.6827" lon="6.61145">
        <ele>1693.45</ele>
        <time>2019-10-14T16:49:09.000Z</time>
      </trkpt>
      <trkpt lat="45.68252" lon="6.61143">
        <ele>1692.69</ele>
        <time>2019-10-14T16:49:14.000Z</time>
      </trkpt>
      <trkpt lat="45.68234" lon="6.61142">
        <ele>1691.94</ele>
        <time>2019-10-14T16:49:19.000Z</time>
      </trkpt>
      <trkpt lat="45.68216" lon="6.61141">
        <ele>1694.45</ele>
        <time>2019-10-14T16:49:24.000Z</time>
      </trkpt>
      <trkpt lat="45.68211" lon="6.6113">
        <ele>1692.14</ele>
        <time>2019-10-14T16:49:29.000Z</time>
      </trkpt>
      <trkpt lat="45.68219" lon="6.6112">
        <ele>1689.65</ele>
        <time>2019-10-14T16:49:37.000Z</time>
      </trkpt>
      <trkpt lat="45.68213" lon="6.61129">
        <ele>1688.18</ele>
        <time>2019-10-14T16:50:20.000Z</time>
      </trkpt>
      <trkpt lat="45.68218" lon="6.61141">
        <ele>1689.78</ele>
        <time>2019-10-14T16:50:31.000Z</time>
      </trkpt>
      <trkpt lat="45.68226" lon="6.61136">
        <ele>1696.45</ele>
        <time>2019-10-14T16:51:43.000Z</time>
      </trkpt>
      <trkpt lat="45.68217" lon="6.61133">
        <ele>1694.66</ele>
        <time>2019-10-14T16:51:54.000Z</time>
      </trkpt>
      <trkpt lat="45.68227" lon="6.61125">
        <ele>1694.1</ele>
        <time>2019-10-14T16:52:13.000Z</time>
      </trkpt>
      <trkpt lat="45.68247" lon="6.61119">
        <ele>1695.85</ele>
        <time>2019-10-14T16:52:18.000Z</time>
      </trkpt>
      <trkpt lat="45.68267" lon="6.6111">
        <ele>1695.75</ele>
        <time>2019-10-14T16:52:23.000Z</time>
      </trkpt>
      <trkpt lat="45.68283" lon="6.61098">
        <ele>1699.47</ele>
        <time>2019-10-14T16:52:28.000Z</time>
      </trkpt>
      <trkpt lat="45.68295" lon="6.61085">
        <ele>1699.71</ele>
        <time>2019-10-14T16:52:33.000Z</time>
      </trkpt>
      <trkpt lat="45.68309" lon="6.6107">
        <ele>1698.94</ele>
        <time>2019-10-14T16:52:38.000Z</time>
      </trkpt>
      <trkpt lat="45.68323" lon="6.61056">
        <ele>1697.77</ele>
        <time>2019-10-14T16:52:43.000Z</time>
      </trkpt>
      <trkpt lat="45.68338" lon="6.61038">
        <ele>1702.85</ele>
        <time>2019-10-14T16:52:48.000Z</time>
      </trkpt>
      <trkpt lat="45.68347" lon="6.61017">
        <ele>1707.17</ele>
        <time>2019-10-14T16:52:53.000Z</time>
      </trkpt>
      <trkpt lat="45.68362" lon="6.61002">
        <ele>1709.9</ele>
        <time>2019-10-14T16:52:58.000Z</time>
      </trkpt>
      <trkpt lat="45.68381" lon="6.60997">
        <ele>1714.03</ele>
        <time>2019-10-14T16:53:03.000Z</time>
      </trkpt>
      <trkpt lat="45.68398" lon="6.61003">
        <ele>1717.74</ele>
        <time>2019-10-14T16:53:08.000Z</time>
      </trkpt>
      <trkpt lat="45.68416" lon="6.60996">
        <ele>1717.46</ele>
        <time>2019-10-14T16:53:13.000Z</time>
      </trkpt>
      <trkpt lat="45.68433" lon="6.60979">
        <ele>1714.63</ele>
        <time>2019-10-14T16:53:18.000Z</time>
      </trkpt>
      <trkpt lat="45.68448" lon="6.60959">
        <ele>1703.93</ele>
        <time>2019-10-14T16:53:23.000Z</time>
      </trkpt>
      <trkpt lat="45.68454" lon="6.60937">
        <ele>1704.71</ele>
        <time>2019-10-14T16:53:28.000Z</time>
      </trkpt>
      <trkpt lat="45.68454" lon="6.60911">
        <ele>1708.36</ele>
        <time>2019-10-14T16:53:33.000Z</time>
      </trkpt>
      <trkpt lat="45.68455" lon="6.60884">
        <ele>1709.13</ele>
        <time>2019-10-14T16:53:38.000Z</time>
      </trkpt>
      <trkpt lat="45.68464" lon="6.60857">
        <ele>1711.48</ele>
        <time>2019-10-14T16:53:43.000Z</time>
      </trkpt>
      <trkpt lat="45.6848" lon="6.60837">
        <ele>1714.64</ele>
        <time>2019-10-14T16:53:48.000Z</time>
      </trkpt>
      <trkpt lat="45.68502" lon="6.60833">
        <ele>1716.32</ele>
        <time>2019-10-14T16:53:53.000Z</time>
      </trkpt>
      <trkpt lat="45.68519" lon="6.60842">
        <ele>1720.07</ele>
        <time>2019-10-14T16:53:58.000Z</time>
      </trkpt>
      <trkpt lat="45.68535" lon="6.60849">
        <ele>1726.98</ele>
        <time>2019-10-14T16:54:03.000Z</time>
      </trkpt>
      <trkpt lat="45.68553" lon="6.60845">
        <ele>1728.04</ele>
        <time>2019-10-14T16:54:08.000Z</time>
      </trkpt>
      <trkpt lat="45.68574" lon="6.60827">
        <ele>1728.19</ele>
        <time>2019-10-14T16:54:13.000Z</time>
      </trkpt>
      <trkpt lat="45.6859" lon="6.60806">
        <ele>1728.61</ele>
        <time>2019-10-14T16:54:18.000Z</time>
      </trkpt>
      <trkpt lat="45.68613" lon="6.60784">
        <ele>1727.27</ele>
        <time>2019-10-14T16:54:23.000Z</time>
      </trkpt>
      <trkpt lat="45.68625" lon="6.60756">
        <ele>1729.56</ele>
        <time>2019-10-14T16:54:28.000Z</time>
      </trkpt>
      <trkpt lat="45.68653" lon="6.60725">
        <ele>1727.24</ele>
        <time>2019-10-14T16:54:33.000Z</time>
      </trkpt>
      <trkpt lat="45.68661" lon="6.60689">
        <ele>1725.53</ele>
        <time>2019-10-14T16:54:38.000Z</time>
      </trkpt>
      <trkpt lat="45.68679" lon="6.60653">
        <ele>1731.75</ele>
        <time>2019-10-14T16:54:43.000Z</time>
      </trkpt>
      <trkpt lat="45.68702" lon="6.60627">
        <ele>1728.44</ele>
        <time>2019-10-14T16:54:48.000Z</time>
      </trkpt>
      <trkpt lat="45.68717" lon="6.60595">
        <ele>1729.41</ele>
        <time>2019-10-14T16:54:53.000Z</time>
      </trkpt>
      <trkpt lat="45.68728" lon="6.60562">
        <ele>1730.41</ele>
        <time>2019-10-14T16:54:58.000Z</time>
      </trkpt>
      <trkpt lat="45.68734" lon="6.60537">
        <ele>1732.43</ele>
        <time>2019-10-14T16:55:03.000Z</time>
      </trkpt>
      <trkpt lat="45.6874" lon="6.60526">
        <ele>1734.17</ele>
        <time>2019-10-14T16:55:09.000Z</time>
      </trkpt>
      <trkpt lat="45.68734" lon="6.60515">
        <ele>1736.65</ele>
        <time>2019-10-14T16:57:17.000Z</time>
      </trkpt>
      <trkpt lat="45.68733" lon="6.6049">
        <ele>1735.1</ele>
        <time>2019-10-14T16:57:22.000Z</time>
      </trkpt>
      <trkpt lat="45.68736" lon="6.60455">
        <ele>1734.58</ele>
        <time>2019-10-14T16:57:27.000Z</time>
      </trkpt>
      <trkpt lat="45.68748" lon="6.60417">
        <ele>1734.22</ele>
        <time>2019-10-14T16:57:32.000Z</time>
      </trkpt>
      <trkpt lat="45.68771" lon="6.60392">
        <ele>1730</ele>
        <time>2019-10-14T16:57:37.000Z</time>
      </trkpt>
      <trkpt lat="45.68807" lon="6.60373">
        <ele>1726.71</ele>
        <time>2019-10-14T16:57:42.000Z</time>
      </trkpt>
      <trkpt lat="45.68822" lon="6.60325">
        <ele>1724.16</ele>
        <time>2019-10-14T16:57:47.000Z</time>
      </trkpt>
      <trkpt lat="45.68844" lon="6.60285">
        <ele>1726.31</ele>
        <time>2019-10-14T16:57:52.000Z</time>
      </trkpt>
      <trkpt lat="45.68866" lon="6.60258">
        <ele>1727.04</ele>
        <time>2019-10-14T16:57:57.000Z</time>
      </trkpt>
      <trkpt lat="45.68878" lon="6.6022">
        <ele>1729.11</ele>
        <time>2019-10-14T16:58:02.000Z</time>
      </trkpt>
      <trkpt lat="45.68886" lon="6.60177">
        <ele>1725.3</ele>
        <time>2019-10-14T16:58:07.000Z</time>
      </trkpt>
      <trkpt lat="45.68895" lon="6.6013">
        <ele>1726.74</ele>
        <time>2019-10-14T16:58:12.000Z</time>
      </trkpt>
      <trkpt lat="45.68906" lon="6.60086">
        <ele>1726.23</ele>
        <time>2019-10-14T16:58:17.000Z</time>
      </trkpt>
      <trkpt lat="45.68923" lon="6.60062">
        <ele>1722.18</ele>
        <time>2019-10-14T16:58:22.000Z</time>
      </trkpt>
      <trkpt lat="45.68953" lon="6.60041">
        <ele>1719.34</ele>
        <time>2019-10-14T16:58:27.000Z</time>
      </trkpt>
      <trkpt lat="45.6896" lon="6.60034">
        <ele>1714.28</ele>
        <time>2019-10-14T16:58:44.000Z</time>
      </trkpt>
      <trkpt lat="45.68964" lon="6.6002">
        <ele>1714.67</ele>
        <time>2019-10-14T16:59:04.000Z</time>
      </trkpt>
      <trkpt lat="45.68981" lon="6.59987">
        <ele>1715.13</ele>
        <time>2019-10-14T16:59:09.000Z</time>
      </trkpt>
      <trkpt lat="45.68992" lon="6.59946">
        <ele>1711.29</ele>
        <time>2019-10-14T16:59:14.000Z</time>
      </trkpt>
      <trkpt lat="45.68996" lon="6.59897">
        <ele>1706.57</ele>
        <time>2019-10-14T16:59:19.000Z</time>
      </trkpt>
      <trkpt lat="45.68991" lon="6.59852">
        <ele>1701.56</ele>
        <time>2019-10-14T16:59:24.000Z</time>
      </trkpt>
      <trkpt lat="45.6901" lon="6.59817">
        <ele>1699.75</ele>
        <time>2019-10-14T16:59:29.000Z</time>
      </trkpt>
      <trkpt lat="45.69034" lon="6.59788">
        <ele>1696.15</ele>
        <time>2019-10-14T16:59:34.000Z</time>
      </trkpt>
      <trkpt lat="45.69031" lon="6.59741">
        <ele>1690.55</ele>
        <time>2019-10-14T16:59:39.000Z</time>
      </trkpt>
      <trkpt lat="45.69009" lon="6.59695">
        <ele>1687.95</ele>
        <time>2019-10-14T16:59:44.000Z</time>
      </trkpt>
      <trkpt lat="45.68988" lon="6.59651">
        <ele>1681.13</ele>
        <time>2019-10-14T16:59:49.000Z</time>
      </trkpt>
      <trkpt lat="45.68968" lon="6.59613">
        <ele>1682.85</ele>
        <time>2019-10-14T16:59:54.000Z</time>
      </trkpt>
      <trkpt lat="45.68949" lon="6.59571">
        <ele>1680.36</ele>
        <time>2019-10-14T16:59:59.000Z</time>
      </trkpt>
      <trkpt lat="45.68922" lon="6.59539">
        <ele>1678.46</ele>
        <time>2019-10-14T17:00:04.000Z</time>
      </trkpt>
      <trkpt lat="45.68906" lon="6.59509">
        <ele>1678.56</ele>
        <time>2019-10-14T17:00:09.000Z</time>
      </trkpt>
      <trkpt lat="45.68928" lon="6.59481">
        <ele>1678.57</ele>
        <time>2019-10-14T17:00:14.000Z</time>
      </trkpt>
      <trkpt lat="45.68934" lon="6.59468">
        <ele>1678.82</ele>
        <time>2019-10-14T17:00:50.000Z</time>
      </trkpt>
      <trkpt lat="45.68936" lon="6.59438">
        <ele>1675.59</ele>
        <time>2019-10-14T17:00:55.000Z</time>
      </trkpt>
      <trkpt lat="45.68932" lon="6.59385">
        <ele>1674.72</ele>
        <time>2019-10-14T17:01:00.000Z</time>
      </trkpt>
      <trkpt lat="45.68915" lon="6.5933">
        <ele>1667.64</ele>
        <time>2019-10-14T17:01:05.000Z</time>
      </trkpt>
      <trkpt lat="45.68915" lon="6.59268">
        <ele>1662.8</ele>
        <time>2019-10-14T17:01:10.000Z</time>
      </trkpt>
      <trkpt lat="45.68904" lon="6.59211">
        <ele>1658.49</ele>
        <time>2019-10-14T17:01:15.000Z</time>
      </trkpt>
      <trkpt lat="45.68906" lon="6.59152">
        <ele>1657.82</ele>
        <time>2019-10-14T17:01:20.000Z</time>
      </trkpt>
      <trkpt lat="45.6891" lon="6.59083">
        <ele>1658.98</ele>
        <time>2019-10-14T17:01:25.000Z</time>
      </trkpt>
      <trkpt lat="45.68908" lon="6.5902">
        <ele>1658.95</ele>
        <time>2019-10-14T17:01:30.000Z</time>
      </trkpt>
      <trkpt lat="45.6892" lon="6.58957">
        <ele>1649.94</ele>
        <time>2019-10-14T17:01:35.000Z</time>
      </trkpt>
      <trkpt lat="45.68934" lon="6.58896">
        <ele>1643.7</ele>
        <time>2019-10-14T17:01:40.000Z</time>
      </trkpt>
      <trkpt lat="45.68949" lon="6.58832">
        <ele>1643.88</ele>
        <time>2019-10-14T17:01:45.000Z</time>
      </trkpt>
      <trkpt lat="45.68965" lon="6.58767">
        <ele>1639.14</ele>
        <time>2019-10-14T17:01:50.000Z</time>
      </trkpt>
      <trkpt lat="45.68962" lon="6.58692">
        <ele>1636.43</ele>
        <time>2019-10-14T17:01:55.000Z</time>
      </trkpt>
      <trkpt lat="45.68957" lon="6.58628">
        <ele>1628.07</ele>
        <time>2019-10-14T17:02:00.000Z</time>
      </trkpt>
      <trkpt lat="45.6896" lon="6.58563">
        <ele>1622.37</ele>
        <time>2019-10-14T17:02:05.000Z</time>
      </trkpt>
      <trkpt lat="45.68981" lon="6.58499">
        <ele>1619.39</ele>
        <time>2019-10-14T17:02:10.000Z</time>
      </trkpt>
      <trkpt lat="45.68993" lon="6.58435">
        <ele>1608.89</ele>
        <time>2019-10-14T17:02:15.000Z</time>
      </trkpt>
      <trkpt lat="45.69" lon="6.5837">
        <ele>1605.95</ele>
        <time>2019-10-14T17:02:20.000Z</time>
      </trkpt>
      <trkpt lat="45.6903" lon="6.58315">
        <ele>1598.34</ele>
        <time>2019-10-14T17:02:25.000Z</time>
      </trkpt>
      <trkpt lat="45.69054" lon="6.58261">
        <ele>1589.29</ele>
        <time>2019-10-14T17:02:30.000Z</time>
      </trkpt>
      <trkpt lat="45.69052" lon="6.58196">
        <ele>1582.98</ele>
        <time>2019-10-14T17:02:35.000Z</time>
      </trkpt>
      <trkpt lat="45.69067" lon="6.58142">
        <ele>1578.79</ele>
        <time>2019-10-14T17:02:40.000Z</time>
      </trkpt>
      <trkpt lat="45.69086" lon="6.5809">
        <ele>1571.23</ele>
        <time>2019-10-14T17:02:45.000Z</time>
      </trkpt>
      <trkpt lat="45.69111" lon="6.58052">
        <ele>1566.53</ele>
        <time>2019-10-14T17:02:50.000Z</time>
      </trkpt>
      <trkpt lat="45.691" lon="6.58051">
        <ele>1561.61</ele>
        <time>2019-10-14T17:02:56.000Z</time>
      </trkpt>
      <trkpt lat="45.6907" lon="6.58083">
        <ele>1559.85</ele>
        <time>2019-10-14T17:03:01.000Z</time>
      </trkpt>
      <trkpt lat="45.69045" lon="6.58123">
        <ele>1552.89</ele>
        <time>2019-10-14T17:03:06.000Z</time>
      </trkpt>
      <trkpt lat="45.69012" lon="6.58171">
        <ele>1546.82</ele>
        <time>2019-10-14T17:03:11.000Z</time>
      </trkpt>
      <trkpt lat="45.68997" lon="6.58236">
        <ele>1536.67</ele>
        <time>2019-10-14T17:03:16.000Z</time>
      </trkpt>
      <trkpt lat="45.68971" lon="6.58283">
        <ele>1535.24</ele>
        <time>2019-10-14T17:03:21.000Z</time>
      </trkpt>
      <trkpt lat="45.68934" lon="6.58303">
        <ele>1535.58</ele>
        <time>2019-10-14T17:03:26.000Z</time>
      </trkpt>
      <trkpt lat="45.68899" lon="6.58326">
        <ele>1527.96</ele>
        <time>2019-10-14T17:03:31.000Z</time>
      </trkpt>
      <trkpt lat="45.68874" lon="6.58378">
        <ele>1521.61</ele>
        <time>2019-10-14T17:03:36.000Z</time>
      </trkpt>
      <trkpt lat="45.68847" lon="6.58432">
        <ele>1518.47</ele>
        <time>2019-10-14T17:03:41.000Z</time>
      </trkpt>
      <trkpt lat="45.68829" lon="6.58488">
        <ele>1516.91</ele>
        <time>2019-10-14T17:03:46.000Z</time>
      </trkpt>
      <trkpt lat="45.68818" lon="6.58546">
        <ele>1512.94</ele>
        <time>2019-10-14T17:03:51.000Z</time>
      </trkpt>
      <trkpt lat="45.68813" lon="6.58606">
        <ele>1508.9</ele>
        <time>2019-10-14T17:03:56.000Z</time>
      </trkpt>
      <trkpt lat="45.68801" lon="6.58663">
        <ele>1505.46</ele>
        <time>2019-10-14T17:04:01.000Z</time>
      </trkpt>
      <trkpt lat="45.68801" lon="6.58646">
        <ele>1499.11</ele>
        <time>2019-10-14T17:04:10.000Z</time>
      </trkpt>
      <trkpt lat="45.688" lon="6.58601">
        <ele>1494.95</ele>
        <time>2019-10-14T17:04:15.000Z</time>
      </trkpt>
      <trkpt lat="45.68796" lon="6.58555">
        <ele>1486.89</ele>
        <time>2019-10-14T17:04:20.000Z</time>
      </trkpt>
      <trkpt lat="45.68795" lon="6.58493">
        <ele>1478.94</ele>
        <time>2019-10-14T17:04:25.000Z</time>
      </trkpt>
      <trkpt lat="45.68794" lon="6.58432">
        <ele>1474.35</ele>
        <time>2019-10-14T17:04:30.000Z</time>
      </trkpt>
      <trkpt lat="45.68797" lon="6.58372">
        <ele>1470.49</ele>
        <time>2019-10-14T17:04:35.000Z</time>
      </trkpt>
      <trkpt lat="45.68806" lon="6.5831">
        <ele>1468.4</ele>
        <time>2019-10-14T17:04:40.000Z</time>
      </trkpt>
      <trkpt lat="45.68831" lon="6.58252">
        <ele>1467.55</ele>
        <time>2019-10-14T17:04:45.000Z</time>
      </trkpt>
      <trkpt lat="45.68858" lon="6.58221">
        <ele>1463.19</ele>
        <time>2019-10-14T17:04:50.000Z</time>
      </trkpt>
      <trkpt lat="45.68872" lon="6.58163">
        <ele>1460.12</ele>
        <time>2019-10-14T17:04:55.000Z</time>
      </trkpt>
      <trkpt lat="45.68849" lon="6.58105">
        <ele>1461.89</ele>
        <time>2019-10-14T17:05:00.000Z</time>
      </trkpt>
      <trkpt lat="45.68845" lon="6.58046">
        <ele>1455.88</ele>
        <time>2019-10-14T17:05:05.000Z</time>
      </trkpt>
      <trkpt lat="45.68843" lon="6.57984">
        <ele>1449.08</ele>
        <time>2019-10-14T17:05:10.000Z</time>
      </trkpt>
      <trkpt lat="45.68829" lon="6.5793">
        <ele>1444.39</ele>
        <time>2019-10-14T17:05:15.000Z</time>
      </trkpt>
      <trkpt lat="45.68817" lon="6.57882">
        <ele>1435.69</ele>
        <time>2019-10-14T17:05:20.000Z</time>
      </trkpt>
      <trkpt lat="45.68822" lon="6.57834">
        <ele>1430.55</ele>
        <time>2019-10-14T17:05:25.000Z</time>
      </trkpt>
      <trkpt lat="45.68847" lon="6.57812">
        <ele>1425.97</ele>
        <time>2019-10-14T17:05:30.000Z</time>
      </trkpt>
      <trkpt lat="45.6885" lon="6.57794">
        <ele>1424.01</ele>
        <time>2019-10-14T17:05:35.000Z</time>
      </trkpt>
      <trkpt lat="45.68822" lon="6.57803">
        <ele>1417.61</ele>
        <time>2019-10-14T17:05:40.000Z</time>
      </trkpt>
      <trkpt lat="45.68793" lon="6.57828">
        <ele>1410.21</ele>
        <time>2019-10-14T17:05:45.000Z</time>
      </trkpt>
      <trkpt lat="45.68775" lon="6.57872">
        <ele>1408.42</ele>
        <time>2019-10-14T17:05:50.000Z</time>
      </trkpt>
      <trkpt lat="45.68789" lon="6.57925">
        <ele>1406.98</ele>
        <time>2019-10-14T17:05:55.000Z</time>
      </trkpt>
      <trkpt lat="45.6878" lon="6.57993">
        <ele>1404.24</ele>
        <time>2019-10-14T17:06:00.000Z</time>
      </trkpt>
      <trkpt lat="45.68765" lon="6.58061">
        <ele>1404.92</ele>
        <time>2019-10-14T17:06:05.000Z</time>
      </trkpt>
      <trkpt lat="45.68771" lon="6.58121">
        <ele>1396.61</ele>
        <time>2019-10-14T17:06:10.000Z</time>
      </trkpt>
      <trkpt lat="45.68757" lon="6.58134">
        <ele>1392.58</ele>
        <time>2019-10-14T17:06:15.000Z</time>
      </trkpt>
      <trkpt lat="45.68755" lon="6.58081">
        <ele>1391.73</ele>
        <time>2019-10-14T17:06:20.000Z</time>
      </trkpt>
      <trkpt lat="45.68739" lon="6.58023">
        <ele>1388.41</ele>
        <time>2019-10-14T17:06:25.000Z</time>
      </trkpt>
      <trkpt lat="45.68715" lon="6.5796">
        <ele>1381.56</ele>
        <time>2019-10-14T17:06:30.000Z</time>
      </trkpt>
      <trkpt lat="45.68691" lon="6.57898">
        <ele>1373.53</ele>
        <time>2019-10-14T17:06:35.000Z</time>
      </trkpt>
      <trkpt lat="45.6866" lon="6.57853">
        <ele>1371.12</ele>
        <time>2019-10-14T17:06:40.000Z</time>
      </trkpt>
      <trkpt lat="45.68657" lon="6.5779">
        <ele>1363.27</ele>
        <time>2019-10-14T17:06:45.000Z</time>
      </trkpt>
      <trkpt lat="45.68673" lon="6.57726">
        <ele>1355.79</ele>
        <time>2019-10-14T17:06:50.000Z</time>
      </trkpt>
      <trkpt lat="45.68689" lon="6.5767">
        <ele>1355.31</ele>
        <time>2019-10-14T17:06:55.000Z</time>
      </trkpt>
      <trkpt lat="45.68724" lon="6.57653">
        <ele>1348.21</ele>
        <time>2019-10-14T17:07:00.000Z</time>
      </trkpt>
      <trkpt lat="45.68693" lon="6.57661">
        <ele>1343.99</ele>
        <time>2019-10-14T17:07:05.000Z</time>
      </trkpt>
      <trkpt lat="45.68664" lon="6.57694">
        <ele>1343.2</ele>
        <time>2019-10-14T17:07:10.000Z</time>
      </trkpt>
      <trkpt lat="45.68635" lon="6.57728">
        <ele>1338.39</ele>
        <time>2019-10-14T17:07:15.000Z</time>
      </trkpt>
      <trkpt lat="45.68613" lon="6.57772">
        <ele>1335.77</ele>
        <time>2019-10-14T17:07:20.000Z</time>
      </trkpt>
      <trkpt lat="45.68602" lon="6.5782">
        <ele>1334.29</ele>
        <time>2019-10-14T17:07:25.000Z</time>
      </trkpt>
      <trkpt lat="45.68579" lon="6.5786">
        <ele>1327.81</ele>
        <time>2019-10-14T17:07:30.000Z</time>
      </trkpt>
      <trkpt lat="45.68583" lon="6.57891">
        <ele>1325.15</ele>
        <time>2019-10-14T17:07:35.000Z</time>
      </trkpt>
      <trkpt lat="45.68597" lon="6.57946">
        <ele>1321.15</ele>
        <time>2019-10-14T17:07:40.000Z</time>
      </trkpt>
      <trkpt lat="45.68611" lon="6.5801">
        <ele>1319.34</ele>
        <time>2019-10-14T17:07:45.000Z</time>
      </trkpt>
      <trkpt lat="45.68611" lon="6.58054">
        <ele>1319.94</ele>
        <time>2019-10-14T17:07:50.000Z</time>
      </trkpt>
      <trkpt lat="45.68599" lon="6.58026">
        <ele>1312.11</ele>
        <time>2019-10-14T17:07:55.000Z</time>
      </trkpt>
      <trkpt lat="45.68582" lon="6.57969">
        <ele>1306.75</ele>
        <time>2019-10-14T17:08:00.000Z</time>
      </trkpt>
      <trkpt lat="45.6855" lon="6.57914">
        <ele>1301.75</ele>
        <time>2019-10-14T17:08:05.000Z</time>
      </trkpt>
      <trkpt lat="45.68529" lon="6.57861">
        <ele>1297.99</ele>
        <time>2019-10-14T17:08:10.000Z</time>
      </trkpt>
      <trkpt lat="45.68512" lon="6.57803">
        <ele>1290.7</ele>
        <time>2019-10-14T17:08:15.000Z</time>
      </trkpt>
      <trkpt lat="45.68514" lon="6.57749">
        <ele>1285.04</ele>
        <time>2019-10-14T17:08:20.000Z</time>
      </trkpt>
      <trkpt lat="45.68532" lon="6.57684">
        <ele>1281.73</ele>
        <time>2019-10-14T17:08:25.000Z</time>
      </trkpt>
      <trkpt lat="45.6856" lon="6.5763">
        <ele>1275.18</ele>
        <time>2019-10-14T17:08:30.000Z</time>
      </trkpt>
      <trkpt lat="45.6859" lon="6.57582">
        <ele>1269.91</ele>
        <time>2019-10-14T17:08:35.000Z</time>
      </trkpt>
      <trkpt lat="45.68607" lon="6.57544">
        <ele>1261.93</ele>
        <time>2019-10-14T17:08:40.000Z</time>
      </trkpt>
      <trkpt lat="45.68595" lon="6.57571">
        <ele>1257.69</ele>
        <time>2019-10-14T17:08:45.000Z</time>
      </trkpt>
      <trkpt lat="45.68558" lon="6.57611">
        <ele>1254.73</ele>
        <time>2019-10-14T17:08:50.000Z</time>
      </trkpt>
      <trkpt lat="45.68516" lon="6.57648">
        <ele>1250.55</ele>
        <time>2019-10-14T17:08:55.000Z</time>
      </trkpt>
      <trkpt lat="45.68471" lon="6.5768">
        <ele>1244.35</ele>
        <time>2019-10-14T17:09:00.000Z</time>
      </trkpt>
      <trkpt lat="45.68437" lon="6.57712">
        <ele>1239.46</ele>
        <time>2019-10-14T17:09:05.000Z</time>
      </trkpt>
      <trkpt lat="45.68429" lon="6.57763">
        <ele>1237.85</ele>
        <time>2019-10-14T17:09:10.000Z</time>
      </trkpt>
      <trkpt lat="45.6842" lon="6.57762">
        <ele>1233.27</ele>
        <time>2019-10-14T17:09:15.000Z</time>
      </trkpt>
      <trkpt lat="45.68421" lon="6.57714">
        <ele>1229.29</ele>
        <time>2019-10-14T17:09:20.000Z</time>
      </trkpt>
      <trkpt lat="45.68437" lon="6.57659">
        <ele>1222.63</ele>
        <time>2019-10-14T17:09:25.000Z</time>
      </trkpt>
      <trkpt lat="45.68468" lon="6.57617">
        <ele>1218.09</ele>
        <time>2019-10-14T17:09:30.000Z</time>
      </trkpt>
      <trkpt lat="45.68499" lon="6.57585">
        <ele>1212.38</ele>
        <time>2019-10-14T17:09:35.000Z</time>
      </trkpt>
      <trkpt lat="45.68473" lon="6.57577">
        <ele>1211.4</ele>
        <time>2019-10-14T17:09:40.000Z</time>
      </trkpt>
      <trkpt lat="45.68441" lon="6.57599">
        <ele>1209.28</ele>
        <time>2019-10-14T17:09:45.000Z</time>
      </trkpt>
      <trkpt lat="45.68412" lon="6.57633">
        <ele>1206.09</ele>
        <time>2019-10-14T17:09:50.000Z</time>
      </trkpt>
      <trkpt lat="45.6839" lon="6.57648">
        <ele>1203.64</ele>
        <time>2019-10-14T17:09:55.000Z</time>
      </trkpt>
      <trkpt lat="45.68354" lon="6.57681">
        <ele>1200.14</ele>
        <time>2019-10-14T17:10:00.000Z</time>
      </trkpt>
      <trkpt lat="45.68331" lon="6.57715">
        <ele>1199.75</ele>
        <time>2019-10-14T17:10:05.000Z</time>
      </trkpt>
      <trkpt lat="45.68318" lon="6.57702">
        <ele>1199.07</ele>
        <time>2019-10-14T17:10:10.000Z</time>
      </trkpt>
      <trkpt lat="45.68333" lon="6.57666">
        <ele>1191.38</ele>
        <time>2019-10-14T17:10:15.000Z</time>
      </trkpt>
      <trkpt lat="45.68355" lon="6.57614">
        <ele>1187.53</ele>
        <time>2019-10-14T17:10:20.000Z</time>
      </trkpt>
      <trkpt lat="45.68372" lon="6.57559">
        <ele>1184.68</ele>
        <time>2019-10-14T17:10:25.000Z</time>
      </trkpt>
      <trkpt lat="45.68383" lon="6.57501">
        <ele>1183.55</ele>
        <time>2019-10-14T17:10:30.000Z</time>
      </trkpt>
      <trkpt lat="45.68405" lon="6.57467">
        <ele>1179.76</ele>
        <time>2019-10-14T17:10:35.000Z</time>
      </trkpt>
      <trkpt lat="45.6843" lon="6.57458">
        <ele>1173.33</ele>
        <time>2019-10-14T17:10:40.000Z</time>
      </trkpt>
      <trkpt lat="45.68407" lon="6.5744">
        <ele>1171.91</ele>
        <time>2019-10-14T17:10:45.000Z</time>
      </trkpt>
      <trkpt lat="45.68371" lon="6.57432">
        <ele>1167.64</ele>
        <time>2019-10-14T17:10:50.000Z</time>
      </trkpt>
      <trkpt lat="45.68348" lon="6.57448">
        <ele>1165.23</ele>
        <time>2019-10-14T17:10:55.000Z</time>
      </trkpt>
      <trkpt lat="45.68331" lon="6.57506">
        <ele>1163.38</ele>
        <time>2019-10-14T17:11:00.000Z</time>
      </trkpt>
      <trkpt lat="45.68326" lon="6.57548">
        <ele>1160.27</ele>
        <time>2019-10-14T17:11:05.000Z</time>
      </trkpt>
      <trkpt lat="45.6831" lon="6.57583">
        <ele>1152.99</ele>
        <time>2019-10-14T17:11:10.000Z</time>
      </trkpt>
      <trkpt lat="45.68303" lon="6.57613">
        <ele>1152.22</ele>
        <time>2019-10-14T17:11:15.000Z</time>
      </trkpt>
      <trkpt lat="45.68292" lon="6.57639">
        <ele>1151.17</ele>
        <time>2019-10-14T17:11:20.000Z</time>
      </trkpt>
      <trkpt lat="45.68272" lon="6.57642">
        <ele>1148.93</ele>
        <time>2019-10-14T17:11:25.000Z</time>
      </trkpt>
      <trkpt lat="45.68257" lon="6.57623">
        <ele>1148.87</ele>
        <time>2019-10-14T17:11:30.000Z</time>
      </trkpt>
      <trkpt lat="45.68235" lon="6.57603">
        <ele>1152.04</ele>
        <time>2019-10-14T17:11:35.000Z</time>
      </trkpt>
      <trkpt lat="45.68222" lon="6.57579">
        <ele>1150.99</ele>
        <time>2019-10-14T17:11:40.000Z</time>
      </trkpt>
      <trkpt lat="45.6821" lon="6.57563">
        <ele>1153.56</ele>
        <time>2019-10-14T17:11:45.000Z</time>
      </trkpt>
      <trkpt lat="45.68191" lon="6.57562">
        <ele>1157.5</ele>
        <time>2019-10-14T17:11:50.000Z</time>
      </trkpt>
      <trkpt lat="45.68171" lon="6.57558">
        <ele>1157.39</ele>
        <time>2019-10-14T17:11:55.000Z</time>
      </trkpt>
      <trkpt lat="45.68154" lon="6.57553">
        <ele>1156.34</ele>
        <time>2019-10-14T17:12:00.000Z</time>
      </trkpt>
      <trkpt lat="45.68137" lon="6.57543">
        <ele>1157.15</ele>
        <time>2019-10-14T17:12:05.000Z</time>
      </trkpt>
      <trkpt lat="45.68121" lon="6.57527">
        <ele>1161.32</ele>
        <time>2019-10-14T17:12:10.000Z</time>
      </trkpt>
      <trkpt lat="45.68104" lon="6.57524">
        <ele>1161.33</ele>
        <time>2019-10-14T17:12:15.000Z</time>
      </trkpt>
      <trkpt lat="45.68087" lon="6.57534">
        <ele>1161.38</ele>
        <time>2019-10-14T17:12:20.000Z</time>
      </trkpt>
      <trkpt lat="45.68074" lon="6.57546">
        <ele>1163.34</ele>
        <time>2019-10-14T17:12:25.000Z</time>
      </trkpt>
      <trkpt lat="45.68061" lon="6.57563">
        <ele>1164.21</ele>
        <time>2019-10-14T17:12:30.000Z</time>
      </trkpt>
      <trkpt lat="45.68045" lon="6.57566">
        <ele>1165.51</ele>
        <time>2019-10-14T17:12:35.000Z</time>
      </trkpt>
      <trkpt lat="45.6803" lon="6.57564">
        <ele>1167.14</ele>
        <time>2019-10-14T17:12:40.000Z</time>
      </trkpt>
      <trkpt lat="45.68015" lon="6.57559">
        <ele>1168.25</ele>
        <time>2019-10-14T17:12:45.000Z</time>
      </trkpt>
      <trkpt lat="45.67998" lon="6.57555">
        <ele>1173.91</ele>
        <time>2019-10-14T17:12:50.000Z</time>
      </trkpt>
      <trkpt lat="45.67987" lon="6.57565">
        <ele>1173.36</ele>
        <time>2019-10-14T17:12:55.000Z</time>
      </trkpt>
      <trkpt lat="45.68004" lon="6.57578">
        <ele>1173.81</ele>
        <time>2019-10-14T17:13:00.000Z</time>
      </trkpt>
      <trkpt lat="45.68023" lon="6.57585">
        <ele>1177.09</ele>
        <time>2019-10-14T17:13:05.000Z</time>
      </trkpt>
      <trkpt lat="45.68039" lon="6.57599">
        <ele>1180.16</ele>
        <time>2019-10-14T17:13:10.000Z</time>
      </trkpt>
      <trkpt lat="45.68052" lon="6.57612">
        <ele>1181.93</ele>
        <time>2019-10-14T17:13:15.000Z</time>
      </trkpt>
      <trkpt lat="45.68051" lon="6.57621">
        <ele>1187.32</ele>
        <time>2019-10-14T17:17:18.000Z</time>
      </trkpt>
    </trkseg>
  </trk>
</gpx>